<?xml version="1.0" encoding="UTF-8" standalone="no" ?>
<gpx xmlns="http://www.topografix.com/GPX/1/1" xmlns:xsi="http://www.w3.org/2001/XMLSchema-instance" xsi:schemaLocation="http://www.topografix.com/GPX/1/1 http://www.topografix.com/GPX/1/1/gpx.xsd" version="1.1" creator="VisuGPX - https://www.visugpx.com">
  <metadata>
    <name>mont mounier depuis beuil</name>
    <desc><![CDATA[mont mounier depuis beuil]]></desc>
  </metadata>
  <trk>
    <name><![CDATA[Mont mounier]]></name>
    <cmt><![CDATA[Avec  Fred, Léonie et Vincent]]></cmt>
    <trkseg>
      <trkpt lat="44.10525" lon="6.98599">
        <ele>1453.4538574219</ele>
        <time>2013-12-07T08:37:20Z</time>
      </trkpt>
      <trkpt lat="44.10525" lon="6.986">
        <ele>1453.4230957031</ele>
        <time>2013-12-07T08:37:22Z</time>
      </trkpt>
      <trkpt lat="44.10526" lon="6.98595">
        <ele>1453.7769775391</ele>
        <time>2013-12-07T08:37:27Z</time>
      </trkpt>
      <trkpt lat="44.10527" lon="6.98599">
        <ele>1454.0020751953</ele>
        <time>2013-12-07T08:37:33Z</time>
      </trkpt>
      <trkpt lat="44.1053" lon="6.98604">
        <ele>1455.0709228516</ele>
        <time>2013-12-07T08:37:41Z</time>
      </trkpt>
      <trkpt lat="44.10535" lon="6.986">
        <ele>1456.3994140625</ele>
        <time>2013-12-07T08:37:48Z</time>
      </trkpt>
      <trkpt lat="44.10535" lon="6.98602">
        <ele>1456.5433349609</ele>
        <time>2013-12-07T08:37:50Z</time>
      </trkpt>
      <trkpt lat="44.10539" lon="6.98603">
        <ele>1457.6875</ele>
        <time>2013-12-07T08:37:58Z</time>
      </trkpt>
      <trkpt lat="44.10542" lon="6.98608">
        <ele>1458.8432617188</ele>
        <time>2013-12-07T08:38:06Z</time>
      </trkpt>
      <trkpt lat="44.10545" lon="6.98612">
        <ele>1460.1434326172</ele>
        <time>2013-12-07T08:38:14Z</time>
      </trkpt>
      <trkpt lat="44.10548" lon="6.98617">
        <ele>1461.9829101562</ele>
        <time>2013-12-07T08:38:21Z</time>
      </trkpt>
      <trkpt lat="44.1055" lon="6.98614">
        <ele>1462.4268798828</ele>
        <time>2013-12-07T08:38:27Z</time>
      </trkpt>
      <trkpt lat="44.10555" lon="6.98618">
        <ele>1464.8471679688</ele>
        <time>2013-12-07T08:38:35Z</time>
      </trkpt>
      <trkpt lat="44.10555" lon="6.98619">
        <ele>1465.2534179688</ele>
        <time>2013-12-07T08:38:37Z</time>
      </trkpt>
      <trkpt lat="44.10562" lon="6.98618">
        <ele>1468.4774169922</ele>
        <time>2013-12-07T08:38:45Z</time>
      </trkpt>
      <trkpt lat="44.10564" lon="6.98619">
        <ele>1469.5428466797</ele>
        <time>2013-12-07T08:38:53Z</time>
      </trkpt>
      <trkpt lat="44.10566" lon="6.98618">
        <ele>1470.2333984375</ele>
        <time>2013-12-07T08:38:58Z</time>
      </trkpt>
      <trkpt lat="44.10569" lon="6.98621">
        <ele>1472.4514160156</ele>
        <time>2013-12-07T08:39:07Z</time>
      </trkpt>
      <trkpt lat="44.10572" lon="6.9862">
        <ele>1473.4581298828</ele>
        <time>2013-12-07T08:39:14Z</time>
      </trkpt>
      <trkpt lat="44.1057" lon="6.98621">
        <ele>1472.8670654297</ele>
        <time>2013-12-07T08:39:20Z</time>
      </trkpt>
      <trkpt lat="44.10574" lon="6.98626">
        <ele>1475.33984375</ele>
        <time>2013-12-07T08:39:28Z</time>
      </trkpt>
      <trkpt lat="44.10576" lon="6.98614">
        <ele>1474.8243408203</ele>
        <time>2013-12-07T08:39:35Z</time>
      </trkpt>
      <trkpt lat="44.10578" lon="6.98613">
        <ele>1475.6929931641</ele>
        <time>2013-12-07T08:39:41Z</time>
      </trkpt>
      <trkpt lat="44.10583" lon="6.98591">
        <ele>1472.0732421875</ele>
        <time>2013-12-07T08:39:48Z</time>
      </trkpt>
      <trkpt lat="44.10583" lon="6.98588">
        <ele>1471.3692626953</ele>
        <time>2013-12-07T08:39:56Z</time>
      </trkpt>
      <trkpt lat="44.10583" lon="6.98587">
        <ele>1470.7247314453</ele>
        <time>2013-12-07T08:40:02Z</time>
      </trkpt>
      <trkpt lat="44.10583" lon="6.98591">
        <ele>1471.9506835938</ele>
        <time>2013-12-07T08:40:08Z</time>
      </trkpt>
      <trkpt lat="44.10585" lon="6.98597">
        <ele>1474.5084228516</ele>
        <time>2013-12-07T08:40:15Z</time>
      </trkpt>
      <trkpt lat="44.10586" lon="6.98602">
        <ele>1475.9636230469</ele>
        <time>2013-12-07T08:40:19Z</time>
      </trkpt>
      <trkpt lat="44.10593" lon="6.98591">
        <ele>1475.283203125</ele>
        <time>2013-12-07T08:40:27Z</time>
      </trkpt>
      <trkpt lat="44.10596" lon="6.98591">
        <ele>1476.4168701172</ele>
        <time>2013-12-07T08:40:33Z</time>
      </trkpt>
      <trkpt lat="44.10597" lon="6.98592">
        <ele>1476.9621582031</ele>
        <time>2013-12-07T08:40:35Z</time>
      </trkpt>
      <trkpt lat="44.106" lon="6.98592">
        <ele>1477.8365478516</ele>
        <time>2013-12-07T08:40:42Z</time>
      </trkpt>
      <trkpt lat="44.10607" lon="6.98591">
        <ele>1479.9768066406</ele>
        <time>2013-12-07T08:40:51Z</time>
      </trkpt>
      <trkpt lat="44.10612" lon="6.98586">
        <ele>1480.9755859375</ele>
        <time>2013-12-07T08:40:58Z</time>
      </trkpt>
      <trkpt lat="44.10617" lon="6.98588">
        <ele>1483.1411132812</ele>
        <time>2013-12-07T08:41:06Z</time>
      </trkpt>
      <trkpt lat="44.10618" lon="6.98589">
        <ele>1483.8087158203</ele>
        <time>2013-12-07T08:41:08Z</time>
      </trkpt>
      <trkpt lat="44.10625" lon="6.98578">
        <ele>1483.2843017578</ele>
        <time>2013-12-07T08:41:15Z</time>
      </trkpt>
      <trkpt lat="44.10628" lon="6.98581">
        <ele>1485.6170654297</ele>
        <time>2013-12-07T08:41:21Z</time>
      </trkpt>
      <trkpt lat="44.10632" lon="6.9858">
        <ele>1486.9307861328</ele>
        <time>2013-12-07T08:41:28Z</time>
      </trkpt>
      <trkpt lat="44.10632" lon="6.98579">
        <ele>1486.7679443359</ele>
        <time>2013-12-07T08:41:32Z</time>
      </trkpt>
      <trkpt lat="44.10637" lon="6.98582">
        <ele>1489.662109375</ele>
        <time>2013-12-07T08:41:39Z</time>
      </trkpt>
      <trkpt lat="44.10643" lon="6.98579">
        <ele>1490.7375488281</ele>
        <time>2013-12-07T08:41:47Z</time>
      </trkpt>
      <trkpt lat="44.10644" lon="6.98579">
        <ele>1491.0783691406</ele>
        <time>2013-12-07T08:41:48Z</time>
      </trkpt>
      <trkpt lat="44.10646" lon="6.9858">
        <ele>1492.2033691406</ele>
        <time>2013-12-07T08:41:50Z</time>
      </trkpt>
      <trkpt lat="44.10651" lon="6.98581">
        <ele>1494.5450439453</ele>
        <time>2013-12-07T08:41:58Z</time>
      </trkpt>
      <trkpt lat="44.10656" lon="6.98582">
        <ele>1496.5979003906</ele>
        <time>2013-12-07T08:42:05Z</time>
      </trkpt>
      <trkpt lat="44.10657" lon="6.98584">
        <ele>1497.4760742188</ele>
        <time>2013-12-07T08:42:08Z</time>
      </trkpt>
      <trkpt lat="44.10663" lon="6.98583">
        <ele>1499.7266845703</ele>
        <time>2013-12-07T08:42:15Z</time>
      </trkpt>
      <trkpt lat="44.10669" lon="6.98588">
        <ele>1501.2994384766</ele>
        <time>2013-12-07T08:42:23Z</time>
      </trkpt>
      <trkpt lat="44.1067" lon="6.98589">
        <ele>1501.3934326172</ele>
        <time>2013-12-07T08:42:24Z</time>
      </trkpt>
      <trkpt lat="44.10676" lon="6.98587">
        <ele>1502.2392578125</ele>
        <time>2013-12-07T08:42:31Z</time>
      </trkpt>
      <trkpt lat="44.10683" lon="6.98585">
        <ele>1503.3560791016</ele>
        <time>2013-12-07T08:42:40Z</time>
      </trkpt>
      <trkpt lat="44.10685" lon="6.98584">
        <ele>1503.5677490234</ele>
        <time>2013-12-07T08:42:42Z</time>
      </trkpt>
      <trkpt lat="44.10686" lon="6.98582">
        <ele>1503.5347900391</ele>
        <time>2013-12-07T08:42:44Z</time>
      </trkpt>
      <trkpt lat="44.10694" lon="6.98578">
        <ele>1504.3796386719</ele>
        <time>2013-12-07T08:42:52Z</time>
      </trkpt>
      <trkpt lat="44.10701" lon="6.98575">
        <ele>1505.322265625</ele>
        <time>2013-12-07T08:42:59Z</time>
      </trkpt>
      <trkpt lat="44.10703" lon="6.98574">
        <ele>1505.7687988281</ele>
        <time>2013-12-07T08:43:02Z</time>
      </trkpt>
      <trkpt lat="44.10707" lon="6.98574">
        <ele>1506.5198974609</ele>
        <time>2013-12-07T08:43:07Z</time>
      </trkpt>
      <trkpt lat="44.10709" lon="6.98577">
        <ele>1507.2579345703</ele>
        <time>2013-12-07T08:43:11Z</time>
      </trkpt>
      <trkpt lat="44.10719" lon="6.98575">
        <ele>1509.015625</ele>
        <time>2013-12-07T08:43:21Z</time>
      </trkpt>
      <trkpt lat="44.10725" lon="6.98571">
        <ele>1510.2435302734</ele>
        <time>2013-12-07T08:43:28Z</time>
      </trkpt>
      <trkpt lat="44.10731" lon="6.98567">
        <ele>1511.2425537109</ele>
        <time>2013-12-07T08:43:35Z</time>
      </trkpt>
      <trkpt lat="44.10735" lon="6.98564">
        <ele>1512.0443115234</ele>
        <time>2013-12-07T08:43:41Z</time>
      </trkpt>
      <trkpt lat="44.10737" lon="6.98563">
        <ele>1512.5025634766</ele>
        <time>2013-12-07T08:43:44Z</time>
      </trkpt>
      <trkpt lat="44.10742" lon="6.98561">
        <ele>1513.4364013672</ele>
        <time>2013-12-07T08:43:48Z</time>
      </trkpt>
      <trkpt lat="44.10748" lon="6.98559">
        <ele>1514.7445068359</ele>
        <time>2013-12-07T08:43:56Z</time>
      </trkpt>
      <trkpt lat="44.10755" lon="6.98558">
        <ele>1516.4633789062</ele>
        <time>2013-12-07T08:44:04Z</time>
      </trkpt>
      <trkpt lat="44.10761" lon="6.98554">
        <ele>1517.9497070312</ele>
        <time>2013-12-07T08:44:12Z</time>
      </trkpt>
      <trkpt lat="44.10766" lon="6.9855">
        <ele>1518.8767089844</ele>
        <time>2013-12-07T08:44:19Z</time>
      </trkpt>
      <trkpt lat="44.10772" lon="6.98548">
        <ele>1520.2104492188</ele>
        <time>2013-12-07T08:44:27Z</time>
      </trkpt>
      <trkpt lat="44.10775" lon="6.98544">
        <ele>1520.7706298828</ele>
        <time>2013-12-07T08:44:33Z</time>
      </trkpt>
      <trkpt lat="44.10776" lon="6.98545">
        <ele>1521.287109375</ele>
        <time>2013-12-07T08:44:36Z</time>
      </trkpt>
      <trkpt lat="44.10782" lon="6.98543">
        <ele>1523.0864257812</ele>
        <time>2013-12-07T08:44:45Z</time>
      </trkpt>
      <trkpt lat="44.10786" lon="6.9854">
        <ele>1523.9479980469</ele>
        <time>2013-12-07T08:44:52Z</time>
      </trkpt>
      <trkpt lat="44.10788" lon="6.9854">
        <ele>1524.5485839844</ele>
        <time>2013-12-07T08:44:55Z</time>
      </trkpt>
      <trkpt lat="44.10794" lon="6.98536">
        <ele>1526.4185791016</ele>
        <time>2013-12-07T08:45:02Z</time>
      </trkpt>
      <trkpt lat="44.10799" lon="6.98532">
        <ele>1528.0313720703</ele>
        <time>2013-12-07T08:45:10Z</time>
      </trkpt>
      <trkpt lat="44.10801" lon="6.98537">
        <ele>1528.8874511719</ele>
        <time>2013-12-07T08:45:15Z</time>
      </trkpt>
      <trkpt lat="44.10807" lon="6.98535">
        <ele>1530.7313232422</ele>
        <time>2013-12-07T08:45:22Z</time>
      </trkpt>
      <trkpt lat="44.1081" lon="6.98529">
        <ele>1532.3171386719</ele>
        <time>2013-12-07T08:45:29Z</time>
      </trkpt>
      <trkpt lat="44.10812" lon="6.9853">
        <ele>1532.8455810547</ele>
        <time>2013-12-07T08:45:32Z</time>
      </trkpt>
      <trkpt lat="44.10815" lon="6.98532">
        <ele>1534.2175292969</ele>
        <time>2013-12-07T08:45:38Z</time>
      </trkpt>
      <trkpt lat="44.1082" lon="6.98527">
        <ele>1536.5321044922</ele>
        <time>2013-12-07T08:45:47Z</time>
      </trkpt>
      <trkpt lat="44.10822" lon="6.98523">
        <ele>1537.1809082031</ele>
        <time>2013-12-07T08:45:53Z</time>
      </trkpt>
      <trkpt lat="44.10827" lon="6.98521">
        <ele>1539.3713378906</ele>
        <time>2013-12-07T08:46:00Z</time>
      </trkpt>
      <trkpt lat="44.10833" lon="6.98514">
        <ele>1541.1755371094</ele>
        <time>2013-12-07T08:46:08Z</time>
      </trkpt>
      <trkpt lat="44.10836" lon="6.98509">
        <ele>1541.8249511719</ele>
        <time>2013-12-07T08:46:16Z</time>
      </trkpt>
      <trkpt lat="44.10841" lon="6.98506">
        <ele>1542.7449951172</ele>
        <time>2013-12-07T08:46:25Z</time>
      </trkpt>
      <trkpt lat="44.10843" lon="6.98505">
        <ele>1543.2171630859</ele>
        <time>2013-12-07T08:46:27Z</time>
      </trkpt>
      <trkpt lat="44.10844" lon="6.98505">
        <ele>1543.6102294922</ele>
        <time>2013-12-07T08:46:32Z</time>
      </trkpt>
      <trkpt lat="44.10849" lon="6.98503">
        <ele>1544.8479003906</ele>
        <time>2013-12-07T08:46:55Z</time>
      </trkpt>
      <trkpt lat="44.10854" lon="6.98505">
        <ele>1546.5662841797</ele>
        <time>2013-12-07T08:47:02Z</time>
      </trkpt>
      <trkpt lat="44.10854" lon="6.98509">
        <ele>1546.7585449219</ele>
        <time>2013-12-07T08:47:08Z</time>
      </trkpt>
      <trkpt lat="44.10852" lon="6.9851">
        <ele>1546.6142578125</ele>
        <time>2013-12-07T08:51:05Z</time>
      </trkpt>
      <trkpt lat="44.10858" lon="6.9851">
        <ele>1548.2055664062</ele>
        <time>2013-12-07T08:51:29Z</time>
      </trkpt>
      <trkpt lat="44.10857" lon="6.98512">
        <ele>1548.0716552734</ele>
        <time>2013-12-07T08:51:39Z</time>
      </trkpt>
      <trkpt lat="44.10856" lon="6.98511">
        <ele>1547.6442871094</ele>
        <time>2013-12-07T08:51:45Z</time>
      </trkpt>
      <trkpt lat="44.10855" lon="6.9851">
        <ele>1547.3936767578</ele>
        <time>2013-12-07T08:52:05Z</time>
      </trkpt>
      <trkpt lat="44.10858" lon="6.98514">
        <ele>1548.5952148438</ele>
        <time>2013-12-07T08:53:42Z</time>
      </trkpt>
      <trkpt lat="44.10862" lon="6.98513">
        <ele>1549.7248535156</ele>
        <time>2013-12-07T08:53:48Z</time>
      </trkpt>
      <trkpt lat="44.10871" lon="6.98512">
        <ele>1551.7658691406</ele>
        <time>2013-12-07T08:53:56Z</time>
      </trkpt>
      <trkpt lat="44.10878" lon="6.98514">
        <ele>1553.8704833984</ele>
        <time>2013-12-07T08:54:04Z</time>
      </trkpt>
      <trkpt lat="44.1088" lon="6.98515">
        <ele>1554.3029785156</ele>
        <time>2013-12-07T08:54:12Z</time>
      </trkpt>
      <trkpt lat="44.10885" lon="6.98513">
        <ele>1555.4926757812</ele>
        <time>2013-12-07T08:54:20Z</time>
      </trkpt>
      <trkpt lat="44.10892" lon="6.9851">
        <ele>1556.7208251953</ele>
        <time>2013-12-07T08:54:28Z</time>
      </trkpt>
      <trkpt lat="44.10899" lon="6.98506">
        <ele>1558.1579589844</ele>
        <time>2013-12-07T08:54:37Z</time>
      </trkpt>
      <trkpt lat="44.10908" lon="6.985">
        <ele>1560.5366210938</ele>
        <time>2013-12-07T08:54:45Z</time>
      </trkpt>
      <trkpt lat="44.10916" lon="6.98499">
        <ele>1562.8461914062</ele>
        <time>2013-12-07T08:54:53Z</time>
      </trkpt>
      <trkpt lat="44.10923" lon="6.98497">
        <ele>1563.9919433594</ele>
        <time>2013-12-07T08:55:01Z</time>
      </trkpt>
      <trkpt lat="44.1093" lon="6.98498">
        <ele>1564.9989013672</ele>
        <time>2013-12-07T08:55:08Z</time>
      </trkpt>
      <trkpt lat="44.10939" lon="6.98498">
        <ele>1566.2269287109</ele>
        <time>2013-12-07T08:55:17Z</time>
      </trkpt>
      <trkpt lat="44.10947" lon="6.98497">
        <ele>1567.6314697266</ele>
        <time>2013-12-07T08:55:26Z</time>
      </trkpt>
      <trkpt lat="44.10955" lon="6.98497">
        <ele>1569.0444335938</ele>
        <time>2013-12-07T08:55:34Z</time>
      </trkpt>
      <trkpt lat="44.10962" lon="6.98495">
        <ele>1570.2750244141</ele>
        <time>2013-12-07T08:55:41Z</time>
      </trkpt>
      <trkpt lat="44.10971" lon="6.98495">
        <ele>1571.7346191406</ele>
        <time>2013-12-07T08:55:50Z</time>
      </trkpt>
      <trkpt lat="44.10979" lon="6.98495">
        <ele>1572.9326171875</ele>
        <time>2013-12-07T08:55:59Z</time>
      </trkpt>
      <trkpt lat="44.10987" lon="6.98493">
        <ele>1574.0861816406</ele>
        <time>2013-12-07T08:56:08Z</time>
      </trkpt>
      <trkpt lat="44.10997" lon="6.9849">
        <ele>1575.5144042969</ele>
        <time>2013-12-07T08:56:16Z</time>
      </trkpt>
      <trkpt lat="44.11005" lon="6.98488">
        <ele>1576.7229003906</ele>
        <time>2013-12-07T08:56:25Z</time>
      </trkpt>
      <trkpt lat="44.11015" lon="6.98484">
        <ele>1578.1511230469</ele>
        <time>2013-12-07T08:56:33Z</time>
      </trkpt>
      <trkpt lat="44.11026" lon="6.98482">
        <ele>1579.6892089844</ele>
        <time>2013-12-07T08:56:42Z</time>
      </trkpt>
      <trkpt lat="44.11034" lon="6.98482">
        <ele>1580.5959472656</ele>
        <time>2013-12-07T08:56:50Z</time>
      </trkpt>
      <trkpt lat="44.11042" lon="6.9848">
        <ele>1581.3951416016</ele>
        <time>2013-12-07T08:56:57Z</time>
      </trkpt>
      <trkpt lat="44.1105" lon="6.98482">
        <ele>1582.0936279297</ele>
        <time>2013-12-07T08:57:05Z</time>
      </trkpt>
      <trkpt lat="44.11053" lon="6.98483">
        <ele>1582.4190673828</ele>
        <time>2013-12-07T08:57:09Z</time>
      </trkpt>
      <trkpt lat="44.11055" lon="6.98485">
        <ele>1582.4671630859</ele>
        <time>2013-12-07T08:57:17Z</time>
      </trkpt>
      <trkpt lat="44.11053" lon="6.98486">
        <ele>1582.2409667969</ele>
        <time>2013-12-07T08:57:35Z</time>
      </trkpt>
      <trkpt lat="44.11056" lon="6.98482">
        <ele>1582.7353515625</ele>
        <time>2013-12-07T08:57:39Z</time>
      </trkpt>
      <trkpt lat="44.11066" lon="6.9848">
        <ele>1583.9620361328</ele>
        <time>2013-12-07T08:57:48Z</time>
      </trkpt>
      <trkpt lat="44.11074" lon="6.98478">
        <ele>1585.2227783203</ele>
        <time>2013-12-07T08:57:56Z</time>
      </trkpt>
      <trkpt lat="44.11081" lon="6.98476">
        <ele>1586.1772460938</ele>
        <time>2013-12-07T08:58:01Z</time>
      </trkpt>
      <trkpt lat="44.11091" lon="6.98474">
        <ele>1587.4100341797</ele>
        <time>2013-12-07T08:58:10Z</time>
      </trkpt>
      <trkpt lat="44.111" lon="6.98474">
        <ele>1587.9678955078</ele>
        <time>2013-12-07T08:58:18Z</time>
      </trkpt>
      <trkpt lat="44.11107" lon="6.98474">
        <ele>1588.5052490234</ele>
        <time>2013-12-07T08:58:26Z</time>
      </trkpt>
      <trkpt lat="44.11115" lon="6.98471">
        <ele>1589.4486083984</ele>
        <time>2013-12-07T08:58:34Z</time>
      </trkpt>
      <trkpt lat="44.11126" lon="6.98471">
        <ele>1590.5610351562</ele>
        <time>2013-12-07T08:58:44Z</time>
      </trkpt>
      <trkpt lat="44.11132" lon="6.98468">
        <ele>1591.3024902344</ele>
        <time>2013-12-07T08:58:52Z</time>
      </trkpt>
      <trkpt lat="44.1114" lon="6.98463">
        <ele>1592.1968994141</ele>
        <time>2013-12-07T08:59:07Z</time>
      </trkpt>
      <trkpt lat="44.11148" lon="6.9846">
        <ele>1593.5665283203</ele>
        <time>2013-12-07T08:59:15Z</time>
      </trkpt>
      <trkpt lat="44.11159" lon="6.98456">
        <ele>1595.1553955078</ele>
        <time>2013-12-07T08:59:24Z</time>
      </trkpt>
      <trkpt lat="44.11166" lon="6.98454">
        <ele>1596.2994384766</ele>
        <time>2013-12-07T08:59:32Z</time>
      </trkpt>
      <trkpt lat="44.11174" lon="6.98452">
        <ele>1597.3187255859</ele>
        <time>2013-12-07T08:59:39Z</time>
      </trkpt>
      <trkpt lat="44.11182" lon="6.9845">
        <ele>1598.3542480469</ele>
        <time>2013-12-07T08:59:46Z</time>
      </trkpt>
      <trkpt lat="44.1119" lon="6.98447">
        <ele>1599.4329833984</ele>
        <time>2013-12-07T08:59:52Z</time>
      </trkpt>
      <trkpt lat="44.11198" lon="6.98443">
        <ele>1599.9565429688</ele>
        <time>2013-12-07T09:00:00Z</time>
      </trkpt>
      <trkpt lat="44.11203" lon="6.9844">
        <ele>1599.8863525391</ele>
        <time>2013-12-07T09:00:06Z</time>
      </trkpt>
      <trkpt lat="44.11209" lon="6.98435">
        <ele>1599.8385009766</ele>
        <time>2013-12-07T09:00:10Z</time>
      </trkpt>
      <trkpt lat="44.11215" lon="6.98427">
        <ele>1599.8376464844</ele>
        <time>2013-12-07T09:00:18Z</time>
      </trkpt>
      <trkpt lat="44.11219" lon="6.98419">
        <ele>1599.9061279297</ele>
        <time>2013-12-07T09:00:24Z</time>
      </trkpt>
      <trkpt lat="44.11223" lon="6.98412">
        <ele>1600.1787109375</ele>
        <time>2013-12-07T09:00:28Z</time>
      </trkpt>
      <trkpt lat="44.1123" lon="6.98401">
        <ele>1600.5598144531</ele>
        <time>2013-12-07T09:00:37Z</time>
      </trkpt>
      <trkpt lat="44.11234" lon="6.98397">
        <ele>1600.6901855469</ele>
        <time>2013-12-07T09:00:43Z</time>
      </trkpt>
      <trkpt lat="44.11242" lon="6.98389">
        <ele>1600.9888916016</ele>
        <time>2013-12-07T09:00:50Z</time>
      </trkpt>
      <trkpt lat="44.11243" lon="6.98384">
        <ele>1601</ele>
        <time>2013-12-07T09:00:55Z</time>
      </trkpt>
      <trkpt lat="44.11248" lon="6.98378">
        <ele>1601</ele>
        <time>2013-12-07T09:01:03Z</time>
      </trkpt>
      <trkpt lat="44.11248" lon="6.98377">
        <ele>1601</ele>
        <time>2013-12-07T09:01:04Z</time>
      </trkpt>
      <trkpt lat="44.11257" lon="6.98372">
        <ele>1600.9085693359</ele>
        <time>2013-12-07T09:01:12Z</time>
      </trkpt>
      <trkpt lat="44.11266" lon="6.98368">
        <ele>1600.8653564453</ele>
        <time>2013-12-07T09:01:20Z</time>
      </trkpt>
      <trkpt lat="44.11268" lon="6.98365">
        <ele>1600.9073486328</ele>
        <time>2013-12-07T09:01:24Z</time>
      </trkpt>
      <trkpt lat="44.11275" lon="6.98357">
        <ele>1601</ele>
        <time>2013-12-07T09:01:31Z</time>
      </trkpt>
      <trkpt lat="44.11282" lon="6.98348">
        <ele>1600.9107666016</ele>
        <time>2013-12-07T09:01:38Z</time>
      </trkpt>
      <trkpt lat="44.11289" lon="6.98343">
        <ele>1600.9822998047</ele>
        <time>2013-12-07T09:01:45Z</time>
      </trkpt>
      <trkpt lat="44.1129" lon="6.98342">
        <ele>1601.01953125</ele>
        <time>2013-12-07T09:01:46Z</time>
      </trkpt>
      <trkpt lat="44.11293" lon="6.98338">
        <ele>1601.267578125</ele>
        <time>2013-12-07T09:01:50Z</time>
      </trkpt>
      <trkpt lat="44.11301" lon="6.98335">
        <ele>1601.6772460938</ele>
        <time>2013-12-07T09:01:59Z</time>
      </trkpt>
      <trkpt lat="44.11307" lon="6.9833">
        <ele>1601.9421386719</ele>
        <time>2013-12-07T09:02:05Z</time>
      </trkpt>
      <trkpt lat="44.11312" lon="6.98323">
        <ele>1601.8244628906</ele>
        <time>2013-12-07T09:02:09Z</time>
      </trkpt>
      <trkpt lat="44.11315" lon="6.98318">
        <ele>1601.9454345703</ele>
        <time>2013-12-07T09:02:13Z</time>
      </trkpt>
      <trkpt lat="44.11318" lon="6.98315">
        <ele>1601.9013671875</ele>
        <time>2013-12-07T09:02:17Z</time>
      </trkpt>
      <trkpt lat="44.11324" lon="6.98306">
        <ele>1602.3043212891</ele>
        <time>2013-12-07T09:02:23Z</time>
      </trkpt>
      <trkpt lat="44.11327" lon="6.98302">
        <ele>1602.4169921875</ele>
        <time>2013-12-07T09:02:25Z</time>
      </trkpt>
      <trkpt lat="44.11336" lon="6.98295">
        <ele>1602.7104492188</ele>
        <time>2013-12-07T09:02:33Z</time>
      </trkpt>
      <trkpt lat="44.11341" lon="6.98289">
        <ele>1603.1285400391</ele>
        <time>2013-12-07T09:02:40Z</time>
      </trkpt>
      <trkpt lat="44.11348" lon="6.98281">
        <ele>1604.0703125</ele>
        <time>2013-12-07T09:02:48Z</time>
      </trkpt>
      <trkpt lat="44.11353" lon="6.98272">
        <ele>1605.5350341797</ele>
        <time>2013-12-07T09:02:55Z</time>
      </trkpt>
      <trkpt lat="44.11359" lon="6.98269">
        <ele>1606.3768310547</ele>
        <time>2013-12-07T09:03:01Z</time>
      </trkpt>
      <trkpt lat="44.11361" lon="6.98268">
        <ele>1606.6618652344</ele>
        <time>2013-12-07T09:03:03Z</time>
      </trkpt>
      <trkpt lat="44.11368" lon="6.98266">
        <ele>1606.1617431641</ele>
        <time>2013-12-07T09:03:09Z</time>
      </trkpt>
      <trkpt lat="44.11374" lon="6.98258">
        <ele>1606.8807373047</ele>
        <time>2013-12-07T09:03:13Z</time>
      </trkpt>
      <trkpt lat="44.11377" lon="6.9825">
        <ele>1608.265625</ele>
        <time>2013-12-07T09:03:19Z</time>
      </trkpt>
      <trkpt lat="44.1138" lon="6.98243">
        <ele>1609.8565673828</ele>
        <time>2013-12-07T09:03:24Z</time>
      </trkpt>
      <trkpt lat="44.11381" lon="6.98236">
        <ele>1611.5006103516</ele>
        <time>2013-12-07T09:03:29Z</time>
      </trkpt>
      <trkpt lat="44.11386" lon="6.98221">
        <ele>1615.4294433594</ele>
        <time>2013-12-07T09:03:37Z</time>
      </trkpt>
      <trkpt lat="44.11388" lon="6.98212">
        <ele>1617.1176757812</ele>
        <time>2013-12-07T09:03:42Z</time>
      </trkpt>
      <trkpt lat="44.11388" lon="6.98204">
        <ele>1619.0139160156</ele>
        <time>2013-12-07T09:03:48Z</time>
      </trkpt>
      <trkpt lat="44.11384" lon="6.98197">
        <ele>1620.3604736328</ele>
        <time>2013-12-07T09:03:54Z</time>
      </trkpt>
      <trkpt lat="44.11385" lon="6.98185">
        <ele>1621.5241699219</ele>
        <time>2013-12-07T09:04:03Z</time>
      </trkpt>
      <trkpt lat="44.11384" lon="6.98176">
        <ele>1622.0179443359</ele>
        <time>2013-12-07T09:04:09Z</time>
      </trkpt>
      <trkpt lat="44.11381" lon="6.98168">
        <ele>1622.3665771484</ele>
        <time>2013-12-07T09:04:16Z</time>
      </trkpt>
      <trkpt lat="44.11381" lon="6.98159">
        <ele>1623.0810546875</ele>
        <time>2013-12-07T09:04:23Z</time>
      </trkpt>
      <trkpt lat="44.11382" lon="6.98152">
        <ele>1623.73046875</ele>
        <time>2013-12-07T09:04:30Z</time>
      </trkpt>
      <trkpt lat="44.11383" lon="6.98146">
        <ele>1624.4158935547</ele>
        <time>2013-12-07T09:04:36Z</time>
      </trkpt>
      <trkpt lat="44.11384" lon="6.98137">
        <ele>1625.4245605469</ele>
        <time>2013-12-07T09:04:43Z</time>
      </trkpt>
      <trkpt lat="44.11385" lon="6.98129">
        <ele>1626.0687255859</ele>
        <time>2013-12-07T09:04:49Z</time>
      </trkpt>
      <trkpt lat="44.11386" lon="6.98126">
        <ele>1626.4470214844</ele>
        <time>2013-12-07T09:04:53Z</time>
      </trkpt>
      <trkpt lat="44.11386" lon="6.9812">
        <ele>1626.8997802734</ele>
        <time>2013-12-07T09:04:58Z</time>
      </trkpt>
      <trkpt lat="44.11388" lon="6.98112">
        <ele>1627.802734375</ele>
        <time>2013-12-07T09:05:06Z</time>
      </trkpt>
      <trkpt lat="44.11388" lon="6.98108">
        <ele>1628.220703125</ele>
        <time>2013-12-07T09:05:11Z</time>
      </trkpt>
      <trkpt lat="44.11392" lon="6.98101">
        <ele>1629.8776855469</ele>
        <time>2013-12-07T09:05:18Z</time>
      </trkpt>
      <trkpt lat="44.11394" lon="6.98098">
        <ele>1630.8612060547</ele>
        <time>2013-12-07T09:05:23Z</time>
      </trkpt>
      <trkpt lat="44.11396" lon="6.98093">
        <ele>1632.1632080078</ele>
        <time>2013-12-07T09:05:29Z</time>
      </trkpt>
      <trkpt lat="44.11398" lon="6.98089">
        <ele>1633.1883544922</ele>
        <time>2013-12-07T09:05:32Z</time>
      </trkpt>
      <trkpt lat="44.11402" lon="6.98079">
        <ele>1635.3626708984</ele>
        <time>2013-12-07T09:05:40Z</time>
      </trkpt>
      <trkpt lat="44.11405" lon="6.98073">
        <ele>1636.4888916016</ele>
        <time>2013-12-07T09:05:48Z</time>
      </trkpt>
      <trkpt lat="44.11406" lon="6.98069">
        <ele>1636.8514404297</ele>
        <time>2013-12-07T09:05:54Z</time>
      </trkpt>
      <trkpt lat="44.11406" lon="6.98067">
        <ele>1637.0296630859</ele>
        <time>2013-12-07T09:05:56Z</time>
      </trkpt>
      <trkpt lat="44.11406" lon="6.98056">
        <ele>1637.1285400391</ele>
        <time>2013-12-07T09:06:04Z</time>
      </trkpt>
      <trkpt lat="44.11408" lon="6.98046">
        <ele>1637.2113037109</ele>
        <time>2013-12-07T09:06:11Z</time>
      </trkpt>
      <trkpt lat="44.11409" lon="6.98045">
        <ele>1637.296875</ele>
        <time>2013-12-07T09:06:12Z</time>
      </trkpt>
      <trkpt lat="44.11413" lon="6.98037">
        <ele>1638.5841064453</ele>
        <time>2013-12-07T09:06:20Z</time>
      </trkpt>
      <trkpt lat="44.11416" lon="6.98031">
        <ele>1639.8991699219</ele>
        <time>2013-12-07T09:06:27Z</time>
      </trkpt>
      <trkpt lat="44.11419" lon="6.98025">
        <ele>1640.8208007812</ele>
        <time>2013-12-07T09:06:34Z</time>
      </trkpt>
      <trkpt lat="44.1142" lon="6.98022">
        <ele>1641.5164794922</ele>
        <time>2013-12-07T09:06:36Z</time>
      </trkpt>
      <trkpt lat="44.11425" lon="6.98012">
        <ele>1643.9407958984</ele>
        <time>2013-12-07T09:06:44Z</time>
      </trkpt>
      <trkpt lat="44.11429" lon="6.98004">
        <ele>1646.0145263672</ele>
        <time>2013-12-07T09:06:52Z</time>
      </trkpt>
      <trkpt lat="44.11433" lon="6.97994">
        <ele>1647.8280029297</ele>
        <time>2013-12-07T09:07:01Z</time>
      </trkpt>
      <trkpt lat="44.11437" lon="6.97987">
        <ele>1649.7341308594</ele>
        <time>2013-12-07T09:07:09Z</time>
      </trkpt>
      <trkpt lat="44.11438" lon="6.97983">
        <ele>1650.6112060547</ele>
        <time>2013-12-07T09:07:13Z</time>
      </trkpt>
      <trkpt lat="44.11442" lon="6.97972">
        <ele>1652.998046875</ele>
        <time>2013-12-07T09:07:22Z</time>
      </trkpt>
      <trkpt lat="44.11446" lon="6.97964">
        <ele>1653.8182373047</ele>
        <time>2013-12-07T09:07:29Z</time>
      </trkpt>
      <trkpt lat="44.11449" lon="6.9796">
        <ele>1655.1066894531</ele>
        <time>2013-12-07T09:07:35Z</time>
      </trkpt>
      <trkpt lat="44.11453" lon="6.97953">
        <ele>1655.7041015625</ele>
        <time>2013-12-07T09:07:42Z</time>
      </trkpt>
      <trkpt lat="44.11456" lon="6.97947">
        <ele>1656.0456542969</ele>
        <time>2013-12-07T09:07:50Z</time>
      </trkpt>
      <trkpt lat="44.1146" lon="6.97939">
        <ele>1657.6302490234</ele>
        <time>2013-12-07T09:07:59Z</time>
      </trkpt>
      <trkpt lat="44.11464" lon="6.97932">
        <ele>1658.4892578125</ele>
        <time>2013-12-07T09:08:07Z</time>
      </trkpt>
      <trkpt lat="44.11467" lon="6.97923">
        <ele>1659.5987548828</ele>
        <time>2013-12-07T09:08:16Z</time>
      </trkpt>
      <trkpt lat="44.11471" lon="6.97914">
        <ele>1660.7220458984</ele>
        <time>2013-12-07T09:08:24Z</time>
      </trkpt>
      <trkpt lat="44.11475" lon="6.97905">
        <ele>1662.0700683594</ele>
        <time>2013-12-07T09:08:32Z</time>
      </trkpt>
      <trkpt lat="44.11478" lon="6.97898">
        <ele>1662.8835449219</ele>
        <time>2013-12-07T09:08:40Z</time>
      </trkpt>
      <trkpt lat="44.11478" lon="6.97896">
        <ele>1663.2739257812</ele>
        <time>2013-12-07T09:08:42Z</time>
      </trkpt>
      <trkpt lat="44.11483" lon="6.97888">
        <ele>1665.212890625</ele>
        <time>2013-12-07T09:08:51Z</time>
      </trkpt>
      <trkpt lat="44.11486" lon="6.97886">
        <ele>1667.4190673828</ele>
        <time>2013-12-07T09:08:59Z</time>
      </trkpt>
      <trkpt lat="44.11491" lon="6.9788">
        <ele>1669.8895263672</ele>
        <time>2013-12-07T09:09:08Z</time>
      </trkpt>
      <trkpt lat="44.11494" lon="6.9788">
        <ele>1672.0748291016</ele>
        <time>2013-12-07T09:09:13Z</time>
      </trkpt>
      <trkpt lat="44.11496" lon="6.97878">
        <ele>1673.1163330078</ele>
        <time>2013-12-07T09:09:18Z</time>
      </trkpt>
      <trkpt lat="44.11496" lon="6.97877">
        <ele>1673.1719970703</ele>
        <time>2013-12-07T09:09:19Z</time>
      </trkpt>
      <trkpt lat="44.11499" lon="6.97871">
        <ele>1673.8076171875</ele>
        <time>2013-12-07T09:09:27Z</time>
      </trkpt>
      <trkpt lat="44.11501" lon="6.97869">
        <ele>1674.5626220703</ele>
        <time>2013-12-07T09:09:31Z</time>
      </trkpt>
      <trkpt lat="44.11504" lon="6.97864">
        <ele>1675.9959716797</ele>
        <time>2013-12-07T09:09:39Z</time>
      </trkpt>
      <trkpt lat="44.11506" lon="6.97861">
        <ele>1676.8178710938</ele>
        <time>2013-12-07T09:09:44Z</time>
      </trkpt>
      <trkpt lat="44.1151" lon="6.97856">
        <ele>1678.3803710938</ele>
        <time>2013-12-07T09:09:51Z</time>
      </trkpt>
      <trkpt lat="44.11513" lon="6.97853">
        <ele>1679.9125976562</ele>
        <time>2013-12-07T09:09:58Z</time>
      </trkpt>
      <trkpt lat="44.11516" lon="6.97849">
        <ele>1681.1441650391</ele>
        <time>2013-12-07T09:10:03Z</time>
      </trkpt>
      <trkpt lat="44.11519" lon="6.97845">
        <ele>1682.6636962891</ele>
        <time>2013-12-07T09:10:09Z</time>
      </trkpt>
      <trkpt lat="44.11521" lon="6.97843">
        <ele>1683.5544433594</ele>
        <time>2013-12-07T09:10:15Z</time>
      </trkpt>
      <trkpt lat="44.11524" lon="6.97838">
        <ele>1684.8693847656</ele>
        <time>2013-12-07T09:10:21Z</time>
      </trkpt>
      <trkpt lat="44.11525" lon="6.97836">
        <ele>1685.3815917969</ele>
        <time>2013-12-07T09:10:23Z</time>
      </trkpt>
      <trkpt lat="44.11528" lon="6.97826">
        <ele>1685.7379150391</ele>
        <time>2013-12-07T09:10:31Z</time>
      </trkpt>
      <trkpt lat="44.11529" lon="6.97821">
        <ele>1684.9008789062</ele>
        <time>2013-12-07T09:10:36Z</time>
      </trkpt>
      <trkpt lat="44.11533" lon="6.97817">
        <ele>1684.4664306641</ele>
        <time>2013-12-07T09:10:45Z</time>
      </trkpt>
      <trkpt lat="44.11536" lon="6.97815">
        <ele>1684.4542236328</ele>
        <time>2013-12-07T09:10:51Z</time>
      </trkpt>
      <trkpt lat="44.11539" lon="6.97813">
        <ele>1684.5421142578</ele>
        <time>2013-12-07T09:10:55Z</time>
      </trkpt>
      <trkpt lat="44.11544" lon="6.97815">
        <ele>1685.2077636719</ele>
        <time>2013-12-07T09:11:02Z</time>
      </trkpt>
      <trkpt lat="44.11551" lon="6.97816">
        <ele>1685.9805908203</ele>
        <time>2013-12-07T09:11:10Z</time>
      </trkpt>
      <trkpt lat="44.11556" lon="6.97812">
        <ele>1686.4001464844</ele>
        <time>2013-12-07T09:11:17Z</time>
      </trkpt>
      <trkpt lat="44.11559" lon="6.97805">
        <ele>1687.0815429688</ele>
        <time>2013-12-07T09:11:26Z</time>
      </trkpt>
      <trkpt lat="44.11562" lon="6.97798">
        <ele>1688.1813964844</ele>
        <time>2013-12-07T09:11:34Z</time>
      </trkpt>
      <trkpt lat="44.11564" lon="6.97794">
        <ele>1689.0316162109</ele>
        <time>2013-12-07T09:11:41Z</time>
      </trkpt>
      <trkpt lat="44.1157" lon="6.97785">
        <ele>1692.2379150391</ele>
        <time>2013-12-07T09:11:52Z</time>
      </trkpt>
      <trkpt lat="44.11576" lon="6.97781">
        <ele>1695.6744384766</ele>
        <time>2013-12-07T09:12:01Z</time>
      </trkpt>
      <trkpt lat="44.11581" lon="6.97778">
        <ele>1698.4537353516</ele>
        <time>2013-12-07T09:12:10Z</time>
      </trkpt>
      <trkpt lat="44.11585" lon="6.97779">
        <ele>1700.1965332031</ele>
        <time>2013-12-07T09:12:17Z</time>
      </trkpt>
      <trkpt lat="44.1159" lon="6.97778">
        <ele>1701.4780273438</ele>
        <time>2013-12-07T09:12:25Z</time>
      </trkpt>
      <trkpt lat="44.11594" lon="6.97778">
        <ele>1702.1956787109</ele>
        <time>2013-12-07T09:12:33Z</time>
      </trkpt>
      <trkpt lat="44.11597" lon="6.97777">
        <ele>1703.2109375</ele>
        <time>2013-12-07T09:12:41Z</time>
      </trkpt>
      <trkpt lat="44.116" lon="6.97775">
        <ele>1704.5163574219</ele>
        <time>2013-12-07T09:12:48Z</time>
      </trkpt>
      <trkpt lat="44.11601" lon="6.97773">
        <ele>1705.2880859375</ele>
        <time>2013-12-07T09:12:53Z</time>
      </trkpt>
      <trkpt lat="44.11605" lon="6.97771">
        <ele>1707.2362060547</ele>
        <time>2013-12-07T09:13:01Z</time>
      </trkpt>
      <trkpt lat="44.11607" lon="6.9777">
        <ele>1707.9700927734</ele>
        <time>2013-12-07T09:13:04Z</time>
      </trkpt>
      <trkpt lat="44.11613" lon="6.97767">
        <ele>1710.8913574219</ele>
        <time>2013-12-07T09:13:13Z</time>
      </trkpt>
      <trkpt lat="44.11618" lon="6.97761">
        <ele>1714.1940917969</ele>
        <time>2013-12-07T09:13:22Z</time>
      </trkpt>
      <trkpt lat="44.1162" lon="6.97758">
        <ele>1715.9134521484</ele>
        <time>2013-12-07T09:13:28Z</time>
      </trkpt>
      <trkpt lat="44.11625" lon="6.97753">
        <ele>1718.8698730469</ele>
        <time>2013-12-07T09:13:36Z</time>
      </trkpt>
      <trkpt lat="44.11631" lon="6.97743">
        <ele>1723.9544677734</ele>
        <time>2013-12-07T09:13:45Z</time>
      </trkpt>
      <trkpt lat="44.11634" lon="6.9774">
        <ele>1725.8648681641</ele>
        <time>2013-12-07T09:13:52Z</time>
      </trkpt>
      <trkpt lat="44.11637" lon="6.97738">
        <ele>1727.109375</ele>
        <time>2013-12-07T09:14:00Z</time>
      </trkpt>
      <trkpt lat="44.11639" lon="6.97737">
        <ele>1727.9742431641</ele>
        <time>2013-12-07T09:14:07Z</time>
      </trkpt>
      <trkpt lat="44.11642" lon="6.97737">
        <ele>1727.9044189453</ele>
        <time>2013-12-07T09:14:15Z</time>
      </trkpt>
      <trkpt lat="44.11646" lon="6.97735">
        <ele>1728.3347167969</ele>
        <time>2013-12-07T09:14:22Z</time>
      </trkpt>
      <trkpt lat="44.11649" lon="6.97736">
        <ele>1727.7623291016</ele>
        <time>2013-12-07T09:14:28Z</time>
      </trkpt>
      <trkpt lat="44.11655" lon="6.9773">
        <ele>1729.5074462891</ele>
        <time>2013-12-07T09:14:42Z</time>
      </trkpt>
      <trkpt lat="44.11658" lon="6.97726">
        <ele>1731.2320556641</ele>
        <time>2013-12-07T09:14:48Z</time>
      </trkpt>
      <trkpt lat="44.11661" lon="6.97722">
        <ele>1732.3547363281</ele>
        <time>2013-12-07T09:14:56Z</time>
      </trkpt>
      <trkpt lat="44.11664" lon="6.97719">
        <ele>1733.1341552734</ele>
        <time>2013-12-07T09:15:04Z</time>
      </trkpt>
      <trkpt lat="44.11667" lon="6.97717">
        <ele>1733.7115478516</ele>
        <time>2013-12-07T09:15:10Z</time>
      </trkpt>
      <trkpt lat="44.1167" lon="6.97711">
        <ele>1734.9691162109</ele>
        <time>2013-12-07T09:15:15Z</time>
      </trkpt>
      <trkpt lat="44.11672" lon="6.97707">
        <ele>1735.8919677734</ele>
        <time>2013-12-07T09:15:25Z</time>
      </trkpt>
      <trkpt lat="44.11677" lon="6.97691">
        <ele>1739.8975830078</ele>
        <time>2013-12-07T09:15:36Z</time>
      </trkpt>
      <trkpt lat="44.11677" lon="6.97685">
        <ele>1741.1115722656</ele>
        <time>2013-12-07T09:15:42Z</time>
      </trkpt>
      <trkpt lat="44.11678" lon="6.97676">
        <ele>1743.0372314453</ele>
        <time>2013-12-07T09:15:47Z</time>
      </trkpt>
      <trkpt lat="44.11679" lon="6.9767">
        <ele>1744.2259521484</ele>
        <time>2013-12-07T09:15:52Z</time>
      </trkpt>
      <trkpt lat="44.11678" lon="6.97664">
        <ele>1745.6455078125</ele>
        <time>2013-12-07T09:16:00Z</time>
      </trkpt>
      <trkpt lat="44.11679" lon="6.9766">
        <ele>1746.6770019531</ele>
        <time>2013-12-07T09:16:07Z</time>
      </trkpt>
      <trkpt lat="44.11679" lon="6.97653">
        <ele>1748.193359375</ele>
        <time>2013-12-07T09:16:14Z</time>
      </trkpt>
      <trkpt lat="44.11678" lon="6.97649">
        <ele>1749.0988769531</ele>
        <time>2013-12-07T09:16:19Z</time>
      </trkpt>
      <trkpt lat="44.11675" lon="6.97644">
        <ele>1749.8118896484</ele>
        <time>2013-12-07T09:16:28Z</time>
      </trkpt>
      <trkpt lat="44.11675" lon="6.97638">
        <ele>1751.1129150391</ele>
        <time>2013-12-07T09:16:39Z</time>
      </trkpt>
      <trkpt lat="44.11673" lon="6.97629">
        <ele>1752.02734375</ele>
        <time>2013-12-07T09:16:56Z</time>
      </trkpt>
      <trkpt lat="44.11672" lon="6.97625">
        <ele>1752.7105712891</ele>
        <time>2013-12-07T09:17:03Z</time>
      </trkpt>
      <trkpt lat="44.11674" lon="6.97619">
        <ele>1754.5821533203</ele>
        <time>2013-12-07T09:17:11Z</time>
      </trkpt>
      <trkpt lat="44.11676" lon="6.97614">
        <ele>1756.2385253906</ele>
        <time>2013-12-07T09:17:18Z</time>
      </trkpt>
      <trkpt lat="44.11679" lon="6.97611">
        <ele>1757.7462158203</ele>
        <time>2013-12-07T09:17:24Z</time>
      </trkpt>
      <trkpt lat="44.11681" lon="6.9761">
        <ele>1758.8055419922</ele>
        <time>2013-12-07T09:17:30Z</time>
      </trkpt>
      <trkpt lat="44.11682" lon="6.97607">
        <ele>1759.8098144531</ele>
        <time>2013-12-07T09:17:36Z</time>
      </trkpt>
      <trkpt lat="44.11684" lon="6.97604">
        <ele>1761.0396728516</ele>
        <time>2013-12-07T09:17:41Z</time>
      </trkpt>
      <trkpt lat="44.11686" lon="6.97603">
        <ele>1762.3625488281</ele>
        <time>2013-12-07T09:17:48Z</time>
      </trkpt>
      <trkpt lat="44.11687" lon="6.976">
        <ele>1763.2229003906</ele>
        <time>2013-12-07T09:17:54Z</time>
      </trkpt>
      <trkpt lat="44.11692" lon="6.97594">
        <ele>1766.8690185547</ele>
        <time>2013-12-07T09:18:00Z</time>
      </trkpt>
      <trkpt lat="44.11695" lon="6.97588">
        <ele>1769.8997802734</ele>
        <time>2013-12-07T09:18:09Z</time>
      </trkpt>
      <trkpt lat="44.11698" lon="6.97581">
        <ele>1771.8151855469</ele>
        <time>2013-12-07T09:18:22Z</time>
      </trkpt>
      <trkpt lat="44.11699" lon="6.97577">
        <ele>1773.1337890625</ele>
        <time>2013-12-07T09:18:28Z</time>
      </trkpt>
      <trkpt lat="44.11702" lon="6.97568">
        <ele>1775.8753662109</ele>
        <time>2013-12-07T09:18:43Z</time>
      </trkpt>
      <trkpt lat="44.11703" lon="6.97562">
        <ele>1777.8159179688</ele>
        <time>2013-12-07T09:18:52Z</time>
      </trkpt>
      <trkpt lat="44.11708" lon="6.97549">
        <ele>1780.431640625</ele>
        <time>2013-12-07T09:19:07Z</time>
      </trkpt>
      <trkpt lat="44.11708" lon="6.97542">
        <ele>1780.95703125</ele>
        <time>2013-12-07T09:19:14Z</time>
      </trkpt>
      <trkpt lat="44.11708" lon="6.97536">
        <ele>1781.4307861328</ele>
        <time>2013-12-07T09:19:21Z</time>
      </trkpt>
      <trkpt lat="44.11708" lon="6.97531">
        <ele>1781.8049316406</ele>
        <time>2013-12-07T09:19:27Z</time>
      </trkpt>
      <trkpt lat="44.11708" lon="6.97524">
        <ele>1781.7030029297</ele>
        <time>2013-12-07T09:19:35Z</time>
      </trkpt>
      <trkpt lat="44.11707" lon="6.97515">
        <ele>1781.0964355469</ele>
        <time>2013-12-07T09:19:45Z</time>
      </trkpt>
      <trkpt lat="44.11708" lon="6.97507">
        <ele>1780.7154541016</ele>
        <time>2013-12-07T09:19:53Z</time>
      </trkpt>
      <trkpt lat="44.11711" lon="6.97502">
        <ele>1781.3312988281</ele>
        <time>2013-12-07T09:20:01Z</time>
      </trkpt>
      <trkpt lat="44.11713" lon="6.97498">
        <ele>1781.4846191406</ele>
        <time>2013-12-07T09:20:09Z</time>
      </trkpt>
      <trkpt lat="44.11717" lon="6.97495">
        <ele>1782.3760986328</ele>
        <time>2013-12-07T09:20:18Z</time>
      </trkpt>
      <trkpt lat="44.11723" lon="6.97491">
        <ele>1783.8211669922</ele>
        <time>2013-12-07T09:20:27Z</time>
      </trkpt>
      <trkpt lat="44.11729" lon="6.9749">
        <ele>1785.0083007812</ele>
        <time>2013-12-07T09:20:34Z</time>
      </trkpt>
      <trkpt lat="44.11737" lon="6.97489">
        <ele>1786.4512939453</ele>
        <time>2013-12-07T09:20:42Z</time>
      </trkpt>
      <trkpt lat="44.11746" lon="6.97486">
        <ele>1787.7178955078</ele>
        <time>2013-12-07T09:20:51Z</time>
      </trkpt>
      <trkpt lat="44.11755" lon="6.97482">
        <ele>1788.9886474609</ele>
        <time>2013-12-07T09:21:00Z</time>
      </trkpt>
      <trkpt lat="44.11765" lon="6.97476">
        <ele>1790.7628173828</ele>
        <time>2013-12-07T09:21:11Z</time>
      </trkpt>
      <trkpt lat="44.11771" lon="6.97471">
        <ele>1791.8653564453</ele>
        <time>2013-12-07T09:21:19Z</time>
      </trkpt>
      <trkpt lat="44.11778" lon="6.97465">
        <ele>1792.8889160156</ele>
        <time>2013-12-07T09:21:28Z</time>
      </trkpt>
      <trkpt lat="44.11784" lon="6.97459">
        <ele>1793.8957519531</ele>
        <time>2013-12-07T09:21:37Z</time>
      </trkpt>
      <trkpt lat="44.11789" lon="6.97454">
        <ele>1795.0155029297</ele>
        <time>2013-12-07T09:21:44Z</time>
      </trkpt>
      <trkpt lat="44.11795" lon="6.97448">
        <ele>1796.9313964844</ele>
        <time>2013-12-07T09:21:54Z</time>
      </trkpt>
      <trkpt lat="44.11801" lon="6.97443">
        <ele>1799</ele>
        <time>2013-12-07T09:22:03Z</time>
      </trkpt>
      <trkpt lat="44.11806" lon="6.97433">
        <ele>1800.7681884766</ele>
        <time>2013-12-07T09:22:12Z</time>
      </trkpt>
      <trkpt lat="44.11811" lon="6.97427">
        <ele>1802.0721435547</ele>
        <time>2013-12-07T09:22:21Z</time>
      </trkpt>
      <trkpt lat="44.11816" lon="6.97419">
        <ele>1803.5578613281</ele>
        <time>2013-12-07T09:22:30Z</time>
      </trkpt>
      <trkpt lat="44.11822" lon="6.97412">
        <ele>1804.3033447266</ele>
        <time>2013-12-07T09:22:39Z</time>
      </trkpt>
      <trkpt lat="44.11828" lon="6.97403">
        <ele>1804.9802246094</ele>
        <time>2013-12-07T09:22:49Z</time>
      </trkpt>
      <trkpt lat="44.11833" lon="6.97396">
        <ele>1805.8249511719</ele>
        <time>2013-12-07T09:22:57Z</time>
      </trkpt>
      <trkpt lat="44.11837" lon="6.97391">
        <ele>1806.7502441406</ele>
        <time>2013-12-07T09:23:04Z</time>
      </trkpt>
      <trkpt lat="44.11843" lon="6.97381">
        <ele>1807.7209472656</ele>
        <time>2013-12-07T09:23:15Z</time>
      </trkpt>
      <trkpt lat="44.11849" lon="6.97373">
        <ele>1808.8745117188</ele>
        <time>2013-12-07T09:23:25Z</time>
      </trkpt>
      <trkpt lat="44.11853" lon="6.97367">
        <ele>1809.5782470703</ele>
        <time>2013-12-07T09:23:33Z</time>
      </trkpt>
      <trkpt lat="44.11856" lon="6.97363">
        <ele>1810.4777832031</ele>
        <time>2013-12-07T09:23:41Z</time>
      </trkpt>
      <trkpt lat="44.11862" lon="6.97359">
        <ele>1811.8787841797</ele>
        <time>2013-12-07T09:23:50Z</time>
      </trkpt>
      <trkpt lat="44.11871" lon="6.97351">
        <ele>1812.9499511719</ele>
        <time>2013-12-07T09:24:01Z</time>
      </trkpt>
      <trkpt lat="44.11881" lon="6.97343">
        <ele>1814.2683105469</ele>
        <time>2013-12-07T09:24:13Z</time>
      </trkpt>
      <trkpt lat="44.11882" lon="6.97342">
        <ele>1814.4846191406</ele>
        <time>2013-12-07T09:24:14Z</time>
      </trkpt>
      <trkpt lat="44.1189" lon="6.97338">
        <ele>1815.970703125</ele>
        <time>2013-12-07T09:24:23Z</time>
      </trkpt>
      <trkpt lat="44.11897" lon="6.97331">
        <ele>1818.2752685547</ele>
        <time>2013-12-07T09:24:32Z</time>
      </trkpt>
      <trkpt lat="44.11904" lon="6.97324">
        <ele>1820.4710693359</ele>
        <time>2013-12-07T09:24:43Z</time>
      </trkpt>
      <trkpt lat="44.11907" lon="6.97323">
        <ele>1821.4599609375</ele>
        <time>2013-12-07T09:24:47Z</time>
      </trkpt>
      <trkpt lat="44.11914" lon="6.97321">
        <ele>1824.7076416016</ele>
        <time>2013-12-07T09:24:57Z</time>
      </trkpt>
      <trkpt lat="44.11919" lon="6.97319">
        <ele>1825.3924560547</ele>
        <time>2013-12-07T09:25:04Z</time>
      </trkpt>
      <trkpt lat="44.11926" lon="6.97316">
        <ele>1824.8966064453</ele>
        <time>2013-12-07T09:25:13Z</time>
      </trkpt>
      <trkpt lat="44.11933" lon="6.97311">
        <ele>1824.3686523438</ele>
        <time>2013-12-07T09:25:22Z</time>
      </trkpt>
      <trkpt lat="44.1194" lon="6.97305">
        <ele>1823.9923095703</ele>
        <time>2013-12-07T09:25:31Z</time>
      </trkpt>
      <trkpt lat="44.11949" lon="6.973">
        <ele>1825.4615478516</ele>
        <time>2013-12-07T09:25:41Z</time>
      </trkpt>
      <trkpt lat="44.11958" lon="6.97296">
        <ele>1828.7105712891</ele>
        <time>2013-12-07T09:25:51Z</time>
      </trkpt>
      <trkpt lat="44.11961" lon="6.97293">
        <ele>1829.9011230469</ele>
        <time>2013-12-07T09:25:57Z</time>
      </trkpt>
      <trkpt lat="44.11963" lon="6.97292">
        <ele>1830.7712402344</ele>
        <time>2013-12-07T09:26:03Z</time>
      </trkpt>
      <trkpt lat="44.11967" lon="6.9729">
        <ele>1832.4113769531</ele>
        <time>2013-12-07T09:26:13Z</time>
      </trkpt>
      <trkpt lat="44.11973" lon="6.97284">
        <ele>1834.9306640625</ele>
        <time>2013-12-07T09:26:22Z</time>
      </trkpt>
      <trkpt lat="44.11977" lon="6.97278">
        <ele>1836.8707275391</ele>
        <time>2013-12-07T09:26:31Z</time>
      </trkpt>
      <trkpt lat="44.11983" lon="6.9727">
        <ele>1838.6008300781</ele>
        <time>2013-12-07T09:26:42Z</time>
      </trkpt>
      <trkpt lat="44.11987" lon="6.97264">
        <ele>1839.671875</ele>
        <time>2013-12-07T09:26:50Z</time>
      </trkpt>
      <trkpt lat="44.11991" lon="6.97258">
        <ele>1841.0246582031</ele>
        <time>2013-12-07T09:26:59Z</time>
      </trkpt>
      <trkpt lat="44.11995" lon="6.97251">
        <ele>1841.9378662109</ele>
        <time>2013-12-07T09:27:08Z</time>
      </trkpt>
      <trkpt lat="44.11999" lon="6.97243">
        <ele>1843.4071044922</ele>
        <time>2013-12-07T09:27:19Z</time>
      </trkpt>
      <trkpt lat="44.12002" lon="6.97237">
        <ele>1844.3846435547</ele>
        <time>2013-12-07T09:27:27Z</time>
      </trkpt>
      <trkpt lat="44.12007" lon="6.9723">
        <ele>1846.1218261719</ele>
        <time>2013-12-07T09:27:37Z</time>
      </trkpt>
      <trkpt lat="44.12012" lon="6.97225">
        <ele>1847.7474365234</ele>
        <time>2013-12-07T09:27:46Z</time>
      </trkpt>
      <trkpt lat="44.12017" lon="6.97219">
        <ele>1849.4914550781</ele>
        <time>2013-12-07T09:27:55Z</time>
      </trkpt>
      <trkpt lat="44.12018" lon="6.97218">
        <ele>1849.9172363281</ele>
        <time>2013-12-07T09:27:57Z</time>
      </trkpt>
      <trkpt lat="44.12019" lon="6.97216">
        <ele>1850.4528808594</ele>
        <time>2013-12-07T09:28:00Z</time>
      </trkpt>
      <trkpt lat="44.12022" lon="6.97209">
        <ele>1851.1033935547</ele>
        <time>2013-12-07T09:28:07Z</time>
      </trkpt>
      <trkpt lat="44.12026" lon="6.97205">
        <ele>1852.76171875</ele>
        <time>2013-12-07T09:28:17Z</time>
      </trkpt>
      <trkpt lat="44.12029" lon="6.97204">
        <ele>1853.6427001953</ele>
        <time>2013-12-07T09:28:21Z</time>
      </trkpt>
      <trkpt lat="44.12031" lon="6.97198">
        <ele>1854.4409179688</ele>
        <time>2013-12-07T09:28:28Z</time>
      </trkpt>
      <trkpt lat="44.12035" lon="6.97192">
        <ele>1856.1590576172</ele>
        <time>2013-12-07T09:28:38Z</time>
      </trkpt>
      <trkpt lat="44.12038" lon="6.97188">
        <ele>1856.9677734375</ele>
        <time>2013-12-07T09:28:43Z</time>
      </trkpt>
      <trkpt lat="44.1204" lon="6.97185">
        <ele>1857.9230957031</ele>
        <time>2013-12-07T09:28:49Z</time>
      </trkpt>
      <trkpt lat="44.12045" lon="6.97177">
        <ele>1859.5394287109</ele>
        <time>2013-12-07T09:28:58Z</time>
      </trkpt>
      <trkpt lat="44.12048" lon="6.97172">
        <ele>1860.3035888672</ele>
        <time>2013-12-07T09:29:05Z</time>
      </trkpt>
      <trkpt lat="44.12052" lon="6.97167">
        <ele>1861.6702880859</ele>
        <time>2013-12-07T09:29:13Z</time>
      </trkpt>
      <trkpt lat="44.12054" lon="6.97166">
        <ele>1862.3674316406</ele>
        <time>2013-12-07T09:29:16Z</time>
      </trkpt>
      <trkpt lat="44.12059" lon="6.97161">
        <ele>1863.8798828125</ele>
        <time>2013-12-07T09:29:26Z</time>
      </trkpt>
      <trkpt lat="44.12063" lon="6.97157">
        <ele>1864.6662597656</ele>
        <time>2013-12-07T09:29:33Z</time>
      </trkpt>
      <trkpt lat="44.12066" lon="6.97156">
        <ele>1865.3255615234</ele>
        <time>2013-12-07T09:29:39Z</time>
      </trkpt>
      <trkpt lat="44.1207" lon="6.97153">
        <ele>1866.4188232422</ele>
        <time>2013-12-07T09:29:47Z</time>
      </trkpt>
      <trkpt lat="44.12075" lon="6.97146">
        <ele>1867.3718261719</ele>
        <time>2013-12-07T09:29:56Z</time>
      </trkpt>
      <trkpt lat="44.12077" lon="6.97144">
        <ele>1867.6325683594</ele>
        <time>2013-12-07T09:29:59Z</time>
      </trkpt>
      <trkpt lat="44.12082" lon="6.97135">
        <ele>1868.365234375</ele>
        <time>2013-12-07T09:30:08Z</time>
      </trkpt>
      <trkpt lat="44.12086" lon="6.97132">
        <ele>1869.3006591797</ele>
        <time>2013-12-07T09:30:16Z</time>
      </trkpt>
      <trkpt lat="44.12086" lon="6.97136">
        <ele>1869.7641601562</ele>
        <time>2013-12-07T09:30:22Z</time>
      </trkpt>
      <trkpt lat="44.12086" lon="6.97137">
        <ele>1869.8723144531</ele>
        <time>2013-12-07T09:30:23Z</time>
      </trkpt>
      <trkpt lat="44.12086" lon="6.97146">
        <ele>1870.927734375</ele>
        <time>2013-12-07T09:30:32Z</time>
      </trkpt>
      <trkpt lat="44.12086" lon="6.97155">
        <ele>1871.5880126953</ele>
        <time>2013-12-07T09:30:40Z</time>
      </trkpt>
      <trkpt lat="44.12087" lon="6.97163">
        <ele>1872.4035644531</ele>
        <time>2013-12-07T09:30:48Z</time>
      </trkpt>
      <trkpt lat="44.12088" lon="6.97171">
        <ele>1873.8168945312</ele>
        <time>2013-12-07T09:30:56Z</time>
      </trkpt>
      <trkpt lat="44.12088" lon="6.97181">
        <ele>1875.4167480469</ele>
        <time>2013-12-07T09:31:05Z</time>
      </trkpt>
      <trkpt lat="44.1209" lon="6.97192">
        <ele>1877.7583007812</ele>
        <time>2013-12-07T09:31:16Z</time>
      </trkpt>
      <trkpt lat="44.12091" lon="6.97201">
        <ele>1879.4521484375</ele>
        <time>2013-12-07T09:31:25Z</time>
      </trkpt>
      <trkpt lat="44.12093" lon="6.9721">
        <ele>1881.2531738281</ele>
        <time>2013-12-07T09:31:34Z</time>
      </trkpt>
      <trkpt lat="44.12096" lon="6.97217">
        <ele>1883.1474609375</ele>
        <time>2013-12-07T09:31:41Z</time>
      </trkpt>
      <trkpt lat="44.121" lon="6.97227">
        <ele>1886.6656494141</ele>
        <time>2013-12-07T09:31:51Z</time>
      </trkpt>
      <trkpt lat="44.12104" lon="6.97233">
        <ele>1889.3951416016</ele>
        <time>2013-12-07T09:31:59Z</time>
      </trkpt>
      <trkpt lat="44.1211" lon="6.97242">
        <ele>1893.5870361328</ele>
        <time>2013-12-07T09:32:09Z</time>
      </trkpt>
      <trkpt lat="44.12117" lon="6.9725">
        <ele>1898.1181640625</ele>
        <time>2013-12-07T09:32:20Z</time>
      </trkpt>
      <trkpt lat="44.12123" lon="6.97258">
        <ele>1901.4366455078</ele>
        <time>2013-12-07T09:32:30Z</time>
      </trkpt>
      <trkpt lat="44.12129" lon="6.97264">
        <ele>1904.0938720703</ele>
        <time>2013-12-07T09:32:39Z</time>
      </trkpt>
      <trkpt lat="44.12137" lon="6.9727">
        <ele>1907.1765136719</ele>
        <time>2013-12-07T09:32:49Z</time>
      </trkpt>
      <trkpt lat="44.12143" lon="6.97275">
        <ele>1910.2895507812</ele>
        <time>2013-12-07T09:32:58Z</time>
      </trkpt>
      <trkpt lat="44.1215" lon="6.97281">
        <ele>1913.6929931641</ele>
        <time>2013-12-07T09:33:08Z</time>
      </trkpt>
      <trkpt lat="44.12157" lon="6.97288">
        <ele>1917.2347412109</ele>
        <time>2013-12-07T09:33:19Z</time>
      </trkpt>
      <trkpt lat="44.12161" lon="6.97292">
        <ele>1919.0861816406</ele>
        <time>2013-12-07T09:33:28Z</time>
      </trkpt>
      <trkpt lat="44.12167" lon="6.97298">
        <ele>1921.7495117188</ele>
        <time>2013-12-07T09:33:39Z</time>
      </trkpt>
      <trkpt lat="44.12169" lon="6.97299">
        <ele>1922.44140625</ele>
        <time>2013-12-07T09:33:45Z</time>
      </trkpt>
      <trkpt lat="44.12172" lon="6.97301">
        <ele>1923.2222900391</ele>
        <time>2013-12-07T09:33:51Z</time>
      </trkpt>
      <trkpt lat="44.12177" lon="6.97304">
        <ele>1925.2974853516</ele>
        <time>2013-12-07T09:34:01Z</time>
      </trkpt>
      <trkpt lat="44.1218" lon="6.97306">
        <ele>1926.6313476562</ele>
        <time>2013-12-07T09:34:09Z</time>
      </trkpt>
      <trkpt lat="44.12186" lon="6.97311">
        <ele>1928.0114746094</ele>
        <time>2013-12-07T09:34:19Z</time>
      </trkpt>
      <trkpt lat="44.1219" lon="6.97313">
        <ele>1929.3551025391</ele>
        <time>2013-12-07T09:34:26Z</time>
      </trkpt>
      <trkpt lat="44.12196" lon="6.97315">
        <ele>1930.8555908203</ele>
        <time>2013-12-07T09:34:35Z</time>
      </trkpt>
      <trkpt lat="44.12202" lon="6.97318">
        <ele>1932.2268066406</ele>
        <time>2013-12-07T09:34:45Z</time>
      </trkpt>
      <trkpt lat="44.12208" lon="6.9732">
        <ele>1933.8333740234</ele>
        <time>2013-12-07T09:34:54Z</time>
      </trkpt>
      <trkpt lat="44.12214" lon="6.97323">
        <ele>1935.6551513672</ele>
        <time>2013-12-07T09:35:03Z</time>
      </trkpt>
      <trkpt lat="44.1222" lon="6.97326">
        <ele>1937.4246826172</ele>
        <time>2013-12-07T09:35:11Z</time>
      </trkpt>
      <trkpt lat="44.12222" lon="6.97326">
        <ele>1938.189453125</ele>
        <time>2013-12-07T09:35:14Z</time>
      </trkpt>
      <trkpt lat="44.12228" lon="6.97331">
        <ele>1938.0111083984</ele>
        <time>2013-12-07T09:35:22Z</time>
      </trkpt>
      <trkpt lat="44.12233" lon="6.97333">
        <ele>1938.2479248047</ele>
        <time>2013-12-07T09:35:30Z</time>
      </trkpt>
      <trkpt lat="44.12236" lon="6.97332">
        <ele>1938.64453125</ele>
        <time>2013-12-07T09:35:38Z</time>
      </trkpt>
      <trkpt lat="44.12241" lon="6.97332">
        <ele>1939.2247314453</ele>
        <time>2013-12-07T09:35:45Z</time>
      </trkpt>
      <trkpt lat="44.12247" lon="6.97331">
        <ele>1940.0710449219</ele>
        <time>2013-12-07T09:35:52Z</time>
      </trkpt>
      <trkpt lat="44.12254" lon="6.97327">
        <ele>1941.4274902344</ele>
        <time>2013-12-07T09:36:00Z</time>
      </trkpt>
      <trkpt lat="44.12255" lon="6.9732">
        <ele>1942.9097900391</ele>
        <time>2013-12-07T09:36:07Z</time>
      </trkpt>
      <trkpt lat="44.12259" lon="6.9731">
        <ele>1945.0139160156</ele>
        <time>2013-12-07T09:36:17Z</time>
      </trkpt>
      <trkpt lat="44.12258" lon="6.97306">
        <ele>1945.6612548828</ele>
        <time>2013-12-07T09:36:21Z</time>
      </trkpt>
      <trkpt lat="44.12254" lon="6.97299">
        <ele>1946.466796875</ele>
        <time>2013-12-07T09:36:29Z</time>
      </trkpt>
      <trkpt lat="44.12248" lon="6.97293">
        <ele>1946.5480957031</ele>
        <time>2013-12-07T09:36:37Z</time>
      </trkpt>
      <trkpt lat="44.12247" lon="6.97292">
        <ele>1946.5601806641</ele>
        <time>2013-12-07T09:36:39Z</time>
      </trkpt>
      <trkpt lat="44.12244" lon="6.97284">
        <ele>1947.3602294922</ele>
        <time>2013-12-07T09:36:49Z</time>
      </trkpt>
      <trkpt lat="44.12245" lon="6.97278">
        <ele>1948.1647949219</ele>
        <time>2013-12-07T09:36:55Z</time>
      </trkpt>
      <trkpt lat="44.12243" lon="6.97273">
        <ele>1948.2055664062</ele>
        <time>2013-12-07T09:37:03Z</time>
      </trkpt>
      <trkpt lat="44.12242" lon="6.97268">
        <ele>1948.3603515625</ele>
        <time>2013-12-07T09:37:09Z</time>
      </trkpt>
      <trkpt lat="44.12242" lon="6.97257">
        <ele>1948.8413085938</ele>
        <time>2013-12-07T09:37:18Z</time>
      </trkpt>
      <trkpt lat="44.12243" lon="6.9725">
        <ele>1949.4470214844</ele>
        <time>2013-12-07T09:37:25Z</time>
      </trkpt>
      <trkpt lat="44.12247" lon="6.97241">
        <ele>1949.3319091797</ele>
        <time>2013-12-07T09:37:34Z</time>
      </trkpt>
      <trkpt lat="44.12252" lon="6.97235">
        <ele>1949.9156494141</ele>
        <time>2013-12-07T09:37:42Z</time>
      </trkpt>
      <trkpt lat="44.12258" lon="6.97235">
        <ele>1951.0228271484</ele>
        <time>2013-12-07T09:37:50Z</time>
      </trkpt>
      <trkpt lat="44.12264" lon="6.97232">
        <ele>1952.1043701172</ele>
        <time>2013-12-07T09:37:59Z</time>
      </trkpt>
      <trkpt lat="44.12271" lon="6.9723">
        <ele>1953.4536132812</ele>
        <time>2013-12-07T09:38:09Z</time>
      </trkpt>
      <trkpt lat="44.12277" lon="6.9723">
        <ele>1954.7102050781</ele>
        <time>2013-12-07T09:38:16Z</time>
      </trkpt>
      <trkpt lat="44.12283" lon="6.9723">
        <ele>1956.5617675781</ele>
        <time>2013-12-07T09:38:24Z</time>
      </trkpt>
      <trkpt lat="44.1229" lon="6.9723">
        <ele>1958.6411132812</ele>
        <time>2013-12-07T09:38:32Z</time>
      </trkpt>
      <trkpt lat="44.12293" lon="6.97228">
        <ele>1959.4099121094</ele>
        <time>2013-12-07T09:38:39Z</time>
      </trkpt>
      <trkpt lat="44.12298" lon="6.97221">
        <ele>1960.4969482422</ele>
        <time>2013-12-07T09:38:47Z</time>
      </trkpt>
      <trkpt lat="44.12302" lon="6.97212">
        <ele>1961.1636962891</ele>
        <time>2013-12-07T09:38:56Z</time>
      </trkpt>
      <trkpt lat="44.12304" lon="6.97204">
        <ele>1961.0511474609</ele>
        <time>2013-12-07T09:39:04Z</time>
      </trkpt>
      <trkpt lat="44.12306" lon="6.97195">
        <ele>1961.2947998047</ele>
        <time>2013-12-07T09:39:13Z</time>
      </trkpt>
      <trkpt lat="44.12309" lon="6.97186">
        <ele>1961.9090576172</ele>
        <time>2013-12-07T09:39:21Z</time>
      </trkpt>
      <trkpt lat="44.12312" lon="6.97181">
        <ele>1962.6790771484</ele>
        <time>2013-12-07T09:39:28Z</time>
      </trkpt>
      <trkpt lat="44.12313" lon="6.97179">
        <ele>1962.9582519531</ele>
        <time>2013-12-07T09:39:35Z</time>
      </trkpt>
      <trkpt lat="44.12311" lon="6.9718">
        <ele>1962.2423095703</ele>
        <time>2013-12-07T09:41:13Z</time>
      </trkpt>
      <trkpt lat="44.12312" lon="6.97182">
        <ele>1962.8718261719</ele>
        <time>2013-12-07T09:42:45Z</time>
      </trkpt>
      <trkpt lat="44.12312" lon="6.97183">
        <ele>1962.9520263672</ele>
        <time>2013-12-07T09:44:22Z</time>
      </trkpt>
      <trkpt lat="44.12314" lon="6.97178">
        <ele>1963.1879882812</ele>
        <time>2013-12-07T09:45:28Z</time>
      </trkpt>
      <trkpt lat="44.12315" lon="6.97182">
        <ele>1963.9764404297</ele>
        <time>2013-12-07T09:45:36Z</time>
      </trkpt>
      <trkpt lat="44.12318" lon="6.97193">
        <ele>1965.7893066406</ele>
        <time>2013-12-07T09:45:45Z</time>
      </trkpt>
      <trkpt lat="44.12322" lon="6.97201">
        <ele>1968.1936035156</ele>
        <time>2013-12-07T09:45:53Z</time>
      </trkpt>
      <trkpt lat="44.12327" lon="6.97211">
        <ele>1971.5496826172</ele>
        <time>2013-12-07T09:46:03Z</time>
      </trkpt>
      <trkpt lat="44.12331" lon="6.97216">
        <ele>1974.2705078125</ele>
        <time>2013-12-07T09:46:11Z</time>
      </trkpt>
      <trkpt lat="44.12336" lon="6.97223">
        <ele>1977.6616210938</ele>
        <time>2013-12-07T09:46:19Z</time>
      </trkpt>
      <trkpt lat="44.1234" lon="6.97227">
        <ele>1979.8635253906</ele>
        <time>2013-12-07T09:46:25Z</time>
      </trkpt>
      <trkpt lat="44.12346" lon="6.97232">
        <ele>1983.0316162109</ele>
        <time>2013-12-07T09:46:33Z</time>
      </trkpt>
      <trkpt lat="44.12354" lon="6.97237">
        <ele>1986.7623291016</ele>
        <time>2013-12-07T09:46:43Z</time>
      </trkpt>
      <trkpt lat="44.12362" lon="6.97239">
        <ele>1990.03515625</ele>
        <time>2013-12-07T09:46:53Z</time>
      </trkpt>
      <trkpt lat="44.12363" lon="6.97239">
        <ele>1990.5090332031</ele>
        <time>2013-12-07T09:46:55Z</time>
      </trkpt>
      <trkpt lat="44.12373" lon="6.97243">
        <ele>1993.2211914062</ele>
        <time>2013-12-07T09:47:05Z</time>
      </trkpt>
      <trkpt lat="44.1238" lon="6.97246">
        <ele>1995.3326416016</ele>
        <time>2013-12-07T09:47:14Z</time>
      </trkpt>
      <trkpt lat="44.12387" lon="6.97248">
        <ele>1997.4132080078</ele>
        <time>2013-12-07T09:47:22Z</time>
      </trkpt>
      <trkpt lat="44.12391" lon="6.9725">
        <ele>1998.080078125</ele>
        <time>2013-12-07T09:47:28Z</time>
      </trkpt>
      <trkpt lat="44.12398" lon="6.97251">
        <ele>1998.1232910156</ele>
        <time>2013-12-07T09:47:37Z</time>
      </trkpt>
      <trkpt lat="44.12405" lon="6.97252">
        <ele>1998.1146240234</ele>
        <time>2013-12-07T09:47:46Z</time>
      </trkpt>
      <trkpt lat="44.12407" lon="6.97252">
        <ele>1998.1077880859</ele>
        <time>2013-12-07T09:47:48Z</time>
      </trkpt>
      <trkpt lat="44.12414" lon="6.97254">
        <ele>1998.0260009766</ele>
        <time>2013-12-07T09:47:56Z</time>
      </trkpt>
      <trkpt lat="44.12421" lon="6.97249">
        <ele>1998.6265869141</ele>
        <time>2013-12-07T09:48:05Z</time>
      </trkpt>
      <trkpt lat="44.12425" lon="6.97242">
        <ele>1998.6378173828</ele>
        <time>2013-12-07T09:48:14Z</time>
      </trkpt>
      <trkpt lat="44.12429" lon="6.97235">
        <ele>1998.9050292969</ele>
        <time>2013-12-07T09:48:22Z</time>
      </trkpt>
      <trkpt lat="44.12434" lon="6.97225">
        <ele>1999.7424316406</ele>
        <time>2013-12-07T09:48:31Z</time>
      </trkpt>
      <trkpt lat="44.12437" lon="6.97215">
        <ele>2000.7442626953</ele>
        <time>2013-12-07T09:48:40Z</time>
      </trkpt>
      <trkpt lat="44.12438" lon="6.97213">
        <ele>2000.9660644531</ele>
        <time>2013-12-07T09:48:42Z</time>
      </trkpt>
      <trkpt lat="44.12442" lon="6.97206">
        <ele>2001.6610107422</ele>
        <time>2013-12-07T09:48:48Z</time>
      </trkpt>
      <trkpt lat="44.12447" lon="6.97193">
        <ele>2003.7514648438</ele>
        <time>2013-12-07T09:48:59Z</time>
      </trkpt>
      <trkpt lat="44.12451" lon="6.97181">
        <ele>2005.6567382812</ele>
        <time>2013-12-07T09:49:09Z</time>
      </trkpt>
      <trkpt lat="44.12455" lon="6.9717">
        <ele>2007.8192138672</ele>
        <time>2013-12-07T09:49:19Z</time>
      </trkpt>
      <trkpt lat="44.12459" lon="6.97161">
        <ele>2009.5422363281</ele>
        <time>2013-12-07T09:49:27Z</time>
      </trkpt>
      <trkpt lat="44.12464" lon="6.9715">
        <ele>2011.7326660156</ele>
        <time>2013-12-07T09:49:35Z</time>
      </trkpt>
      <trkpt lat="44.1247" lon="6.97141">
        <ele>2014.1909179688</ele>
        <time>2013-12-07T09:49:44Z</time>
      </trkpt>
      <trkpt lat="44.12474" lon="6.97132">
        <ele>2014.1434326172</ele>
        <time>2013-12-07T09:49:52Z</time>
      </trkpt>
      <trkpt lat="44.1248" lon="6.97123">
        <ele>2014.3293457031</ele>
        <time>2013-12-07T09:50:03Z</time>
      </trkpt>
      <trkpt lat="44.12484" lon="6.97115">
        <ele>2014.5402832031</ele>
        <time>2013-12-07T09:50:11Z</time>
      </trkpt>
      <trkpt lat="44.12488" lon="6.97109">
        <ele>2014.9854736328</ele>
        <time>2013-12-07T09:50:20Z</time>
      </trkpt>
      <trkpt lat="44.12491" lon="6.97104">
        <ele>2015.0057373047</ele>
        <time>2013-12-07T09:50:27Z</time>
      </trkpt>
      <trkpt lat="44.12494" lon="6.97098">
        <ele>2015.1224365234</ele>
        <time>2013-12-07T09:50:34Z</time>
      </trkpt>
      <trkpt lat="44.12497" lon="6.97099">
        <ele>2016.7064208984</ele>
        <time>2013-12-07T09:50:41Z</time>
      </trkpt>
      <trkpt lat="44.125" lon="6.97104">
        <ele>2018.4752197266</ele>
        <time>2013-12-07T09:50:49Z</time>
      </trkpt>
      <trkpt lat="44.12503" lon="6.97117">
        <ele>2022.3304443359</ele>
        <time>2013-12-07T09:51:01Z</time>
      </trkpt>
      <trkpt lat="44.12505" lon="6.97125">
        <ele>2025.0151367188</ele>
        <time>2013-12-07T09:51:10Z</time>
      </trkpt>
      <trkpt lat="44.12508" lon="6.97132">
        <ele>2027.9128417969</ele>
        <time>2013-12-07T09:51:19Z</time>
      </trkpt>
      <trkpt lat="44.12512" lon="6.97141">
        <ele>2030.8992919922</ele>
        <time>2013-12-07T09:51:29Z</time>
      </trkpt>
      <trkpt lat="44.12515" lon="6.97144">
        <ele>2033.0971679688</ele>
        <time>2013-12-07T09:51:37Z</time>
      </trkpt>
      <trkpt lat="44.12518" lon="6.97147">
        <ele>2034.6027832031</ele>
        <time>2013-12-07T09:51:44Z</time>
      </trkpt>
      <trkpt lat="44.1252" lon="6.97152">
        <ele>2036.2344970703</ele>
        <time>2013-12-07T09:51:51Z</time>
      </trkpt>
      <trkpt lat="44.12523" lon="6.97156">
        <ele>2038.5543212891</ele>
        <time>2013-12-07T09:51:59Z</time>
      </trkpt>
      <trkpt lat="44.12526" lon="6.9716">
        <ele>2040.6750488281</ele>
        <time>2013-12-07T09:52:07Z</time>
      </trkpt>
      <trkpt lat="44.12528" lon="6.97164">
        <ele>2042.1353759766</ele>
        <time>2013-12-07T09:52:13Z</time>
      </trkpt>
      <trkpt lat="44.12531" lon="6.97172">
        <ele>2044.0152587891</ele>
        <time>2013-12-07T09:52:22Z</time>
      </trkpt>
      <trkpt lat="44.12533" lon="6.97177">
        <ele>2045.0549316406</ele>
        <time>2013-12-07T09:52:29Z</time>
      </trkpt>
      <trkpt lat="44.12534" lon="6.97183">
        <ele>2045.4345703125</ele>
        <time>2013-12-07T09:52:37Z</time>
      </trkpt>
      <trkpt lat="44.12537" lon="6.97188">
        <ele>2047.3005371094</ele>
        <time>2013-12-07T09:52:45Z</time>
      </trkpt>
      <trkpt lat="44.1254" lon="6.97183">
        <ele>2049.7321777344</ele>
        <time>2013-12-07T09:52:53Z</time>
      </trkpt>
      <trkpt lat="44.12543" lon="6.97182">
        <ele>2051.4123535156</ele>
        <time>2013-12-07T09:52:58Z</time>
      </trkpt>
      <trkpt lat="44.12544" lon="6.97185">
        <ele>2052.0690917969</ele>
        <time>2013-12-07T09:53:03Z</time>
      </trkpt>
      <trkpt lat="44.12546" lon="6.97189">
        <ele>2053.5053710938</ele>
        <time>2013-12-07T09:53:09Z</time>
      </trkpt>
      <trkpt lat="44.12548" lon="6.97192">
        <ele>2054.6967773438</ele>
        <time>2013-12-07T09:53:15Z</time>
      </trkpt>
      <trkpt lat="44.12549" lon="6.97196">
        <ele>2054.7893066406</ele>
        <time>2013-12-07T09:53:21Z</time>
      </trkpt>
      <trkpt lat="44.1255" lon="6.97205">
        <ele>2054.1196289062</ele>
        <time>2013-12-07T09:53:30Z</time>
      </trkpt>
      <trkpt lat="44.12553" lon="6.97204">
        <ele>2056.22265625</ele>
        <time>2013-12-07T09:53:36Z</time>
      </trkpt>
      <trkpt lat="44.12554" lon="6.97198">
        <ele>2058.3598632812</ele>
        <time>2013-12-07T09:53:45Z</time>
      </trkpt>
      <trkpt lat="44.12559" lon="6.97201">
        <ele>2059.9375</ele>
        <time>2013-12-07T09:54:53Z</time>
      </trkpt>
      <trkpt lat="44.12556" lon="6.97189">
        <ele>2060.4729003906</ele>
        <time>2013-12-07T09:58:04Z</time>
      </trkpt>
      <trkpt lat="44.12558" lon="6.97192">
        <ele>2060.6765136719</ele>
        <time>2013-12-07T09:58:08Z</time>
      </trkpt>
      <trkpt lat="44.1256" lon="6.97198">
        <ele>2060.6513671875</ele>
        <time>2013-12-07T09:58:15Z</time>
      </trkpt>
      <trkpt lat="44.12563" lon="6.972">
        <ele>2061.4675292969</ele>
        <time>2013-12-07T09:58:21Z</time>
      </trkpt>
      <trkpt lat="44.12565" lon="6.97197">
        <ele>2062.2531738281</ele>
        <time>2013-12-07T09:58:26Z</time>
      </trkpt>
      <trkpt lat="44.12564" lon="6.97191">
        <ele>2062.6235351562</ele>
        <time>2013-12-07T09:58:33Z</time>
      </trkpt>
      <trkpt lat="44.12566" lon="6.9719">
        <ele>2063.3481445312</ele>
        <time>2013-12-07T09:58:38Z</time>
      </trkpt>
      <trkpt lat="44.12568" lon="6.97194">
        <ele>2063.7087402344</ele>
        <time>2013-12-07T09:58:44Z</time>
      </trkpt>
      <trkpt lat="44.12571" lon="6.97196">
        <ele>2064.3251953125</ele>
        <time>2013-12-07T09:58:51Z</time>
      </trkpt>
      <trkpt lat="44.12573" lon="6.97198">
        <ele>2064.5283203125</ele>
        <time>2013-12-07T09:58:57Z</time>
      </trkpt>
      <trkpt lat="44.12574" lon="6.97202">
        <ele>2064.625</ele>
        <time>2013-12-07T09:59:03Z</time>
      </trkpt>
      <trkpt lat="44.12576" lon="6.97204">
        <ele>2064.9738769531</ele>
        <time>2013-12-07T09:59:10Z</time>
      </trkpt>
      <trkpt lat="44.12579" lon="6.97209">
        <ele>2065.3256835938</ele>
        <time>2013-12-07T09:59:17Z</time>
      </trkpt>
      <trkpt lat="44.1258" lon="6.97217">
        <ele>2065.3483886719</ele>
        <time>2013-12-07T09:59:26Z</time>
      </trkpt>
      <trkpt lat="44.12582" lon="6.97222">
        <ele>2065.318359375</ele>
        <time>2013-12-07T09:59:33Z</time>
      </trkpt>
      <trkpt lat="44.12584" lon="6.97227">
        <ele>2065.8469238281</ele>
        <time>2013-12-07T09:59:39Z</time>
      </trkpt>
      <trkpt lat="44.12587" lon="6.97237">
        <ele>2066.1066894531</ele>
        <time>2013-12-07T09:59:49Z</time>
      </trkpt>
      <trkpt lat="44.1259" lon="6.97238">
        <ele>2066.5034179688</ele>
        <time>2013-12-07T09:59:55Z</time>
      </trkpt>
      <trkpt lat="44.12593" lon="6.9723">
        <ele>2067.3571777344</ele>
        <time>2013-12-07T10:00:03Z</time>
      </trkpt>
      <trkpt lat="44.12595" lon="6.97223">
        <ele>2068.0432128906</ele>
        <time>2013-12-07T10:00:09Z</time>
      </trkpt>
      <trkpt lat="44.12598" lon="6.97214">
        <ele>2069.4404296875</ele>
        <time>2013-12-07T10:00:17Z</time>
      </trkpt>
      <trkpt lat="44.12601" lon="6.97204">
        <ele>2071.0034179688</ele>
        <time>2013-12-07T10:00:25Z</time>
      </trkpt>
      <trkpt lat="44.12605" lon="6.97194">
        <ele>2072.6018066406</ele>
        <time>2013-12-07T10:00:34Z</time>
      </trkpt>
      <trkpt lat="44.12608" lon="6.97184">
        <ele>2074.0712890625</ele>
        <time>2013-12-07T10:00:43Z</time>
      </trkpt>
      <trkpt lat="44.12609" lon="6.97174">
        <ele>2075.09765625</ele>
        <time>2013-12-07T10:00:51Z</time>
      </trkpt>
      <trkpt lat="44.12608" lon="6.97164">
        <ele>2075.474609375</ele>
        <time>2013-12-07T10:01:00Z</time>
      </trkpt>
      <trkpt lat="44.12605" lon="6.97153">
        <ele>2074.9470214844</ele>
        <time>2013-12-07T10:01:10Z</time>
      </trkpt>
      <trkpt lat="44.12605" lon="6.97142">
        <ele>2075.2482910156</ele>
        <time>2013-12-07T10:01:18Z</time>
      </trkpt>
      <trkpt lat="44.12605" lon="6.97131">
        <ele>2074.9650878906</ele>
        <time>2013-12-07T10:01:26Z</time>
      </trkpt>
      <trkpt lat="44.12608" lon="6.97119">
        <ele>2074.7658691406</ele>
        <time>2013-12-07T10:01:35Z</time>
      </trkpt>
      <trkpt lat="44.12611" lon="6.97112">
        <ele>2075.0026855469</ele>
        <time>2013-12-07T10:01:43Z</time>
      </trkpt>
      <trkpt lat="44.12614" lon="6.97106">
        <ele>2075.3557128906</ele>
        <time>2013-12-07T10:01:50Z</time>
      </trkpt>
      <trkpt lat="44.12618" lon="6.97105">
        <ele>2076.9541015625</ele>
        <time>2013-12-07T10:01:58Z</time>
      </trkpt>
      <trkpt lat="44.12619" lon="6.97108">
        <ele>2077.7888183594</ele>
        <time>2013-12-07T10:02:01Z</time>
      </trkpt>
      <trkpt lat="44.12622" lon="6.97113">
        <ele>2080.1330566406</ele>
        <time>2013-12-07T10:02:08Z</time>
      </trkpt>
      <trkpt lat="44.12626" lon="6.9712">
        <ele>2082.5361328125</ele>
        <time>2013-12-07T10:02:17Z</time>
      </trkpt>
      <trkpt lat="44.1263" lon="6.97125">
        <ele>2084.9018554688</ele>
        <time>2013-12-07T10:02:25Z</time>
      </trkpt>
      <trkpt lat="44.12635" lon="6.97129">
        <ele>2087.9575195312</ele>
        <time>2013-12-07T10:02:36Z</time>
      </trkpt>
      <trkpt lat="44.1264" lon="6.97133">
        <ele>2091.677734375</ele>
        <time>2013-12-07T10:02:45Z</time>
      </trkpt>
      <trkpt lat="44.12645" lon="6.97136">
        <ele>2096.951171875</ele>
        <time>2013-12-07T10:02:54Z</time>
      </trkpt>
      <trkpt lat="44.12648" lon="6.9714">
        <ele>2100.3657226562</ele>
        <time>2013-12-07T10:03:01Z</time>
      </trkpt>
      <trkpt lat="44.12651" lon="6.97145">
        <ele>2103.1948242188</ele>
        <time>2013-12-07T10:03:09Z</time>
      </trkpt>
      <trkpt lat="44.12654" lon="6.97147">
        <ele>2105.6667480469</ele>
        <time>2013-12-07T10:03:16Z</time>
      </trkpt>
      <trkpt lat="44.12656" lon="6.9715">
        <ele>2107.6579589844</ele>
        <time>2013-12-07T10:03:23Z</time>
      </trkpt>
      <trkpt lat="44.12657" lon="6.97154">
        <ele>2107.9462890625</ele>
        <time>2013-12-07T10:03:29Z</time>
      </trkpt>
      <trkpt lat="44.1266" lon="6.97159">
        <ele>2109.9995117188</ele>
        <time>2013-12-07T10:03:37Z</time>
      </trkpt>
      <trkpt lat="44.12661" lon="6.97161">
        <ele>2111.2902832031</ele>
        <time>2013-12-07T10:03:42Z</time>
      </trkpt>
      <trkpt lat="44.12663" lon="6.97163">
        <ele>2113.0207519531</ele>
        <time>2013-12-07T10:03:48Z</time>
      </trkpt>
      <trkpt lat="44.12665" lon="6.97164">
        <ele>2114.8403320312</ele>
        <time>2013-12-07T10:03:54Z</time>
      </trkpt>
      <trkpt lat="44.12668" lon="6.97162">
        <ele>2117.7199707031</ele>
        <time>2013-12-07T10:04:00Z</time>
      </trkpt>
      <trkpt lat="44.12669" lon="6.97157">
        <ele>2118.9692382812</ele>
        <time>2013-12-07T10:04:08Z</time>
      </trkpt>
      <trkpt lat="44.1267" lon="6.97149">
        <ele>2120.8442382812</ele>
        <time>2013-12-07T10:04:19Z</time>
      </trkpt>
      <trkpt lat="44.1267" lon="6.97144">
        <ele>2121.3083496094</ele>
        <time>2013-12-07T10:04:26Z</time>
      </trkpt>
      <trkpt lat="44.1267" lon="6.97144">
        <ele>2121.4140625</ele>
        <time>2013-12-07T10:04:27Z</time>
      </trkpt>
      <trkpt lat="44.12666" lon="6.97131">
        <ele>2118.5598144531</ele>
        <time>2013-12-07T10:04:36Z</time>
      </trkpt>
      <trkpt lat="44.12666" lon="6.97128">
        <ele>2118.0859375</ele>
        <time>2013-12-07T10:04:39Z</time>
      </trkpt>
      <trkpt lat="44.12667" lon="6.97119">
        <ele>2117.8244628906</ele>
        <time>2013-12-07T10:04:49Z</time>
      </trkpt>
      <trkpt lat="44.12667" lon="6.97115">
        <ele>2116.8684082031</ele>
        <time>2013-12-07T10:04:56Z</time>
      </trkpt>
      <trkpt lat="44.12668" lon="6.97112">
        <ele>2117.4282226562</ele>
        <time>2013-12-07T10:05:02Z</time>
      </trkpt>
      <trkpt lat="44.1267" lon="6.97108">
        <ele>2117.7446289062</ele>
        <time>2013-12-07T10:05:09Z</time>
      </trkpt>
      <trkpt lat="44.12671" lon="6.97104">
        <ele>2117.4384765625</ele>
        <time>2013-12-07T10:05:15Z</time>
      </trkpt>
      <trkpt lat="44.12671" lon="6.971">
        <ele>2116.9484863281</ele>
        <time>2013-12-07T10:05:18Z</time>
      </trkpt>
      <trkpt lat="44.1267" lon="6.97093">
        <ele>2114.3508300781</ele>
        <time>2013-12-07T10:05:24Z</time>
      </trkpt>
      <trkpt lat="44.12671" lon="6.97083">
        <ele>2113.1984863281</ele>
        <time>2013-12-07T10:05:33Z</time>
      </trkpt>
      <trkpt lat="44.12671" lon="6.97081">
        <ele>2111.580078125</ele>
        <time>2013-12-07T10:05:35Z</time>
      </trkpt>
      <trkpt lat="44.12671" lon="6.97074">
        <ele>2108.3806152344</ele>
        <time>2013-12-07T10:05:40Z</time>
      </trkpt>
      <trkpt lat="44.12672" lon="6.97069">
        <ele>2106.7163085938</ele>
        <time>2013-12-07T10:05:44Z</time>
      </trkpt>
      <trkpt lat="44.12672" lon="6.97059">
        <ele>2101.9411621094</ele>
        <time>2013-12-07T10:05:53Z</time>
      </trkpt>
      <trkpt lat="44.12674" lon="6.97061">
        <ele>2104.6159667969</ele>
        <time>2013-12-07T10:05:56Z</time>
      </trkpt>
      <trkpt lat="44.12675" lon="6.97066">
        <ele>2108.9135742188</ele>
        <time>2013-12-07T10:06:00Z</time>
      </trkpt>
      <trkpt lat="44.12679" lon="6.97076">
        <ele>2118.0505371094</ele>
        <time>2013-12-07T10:06:09Z</time>
      </trkpt>
      <trkpt lat="44.1268" lon="6.97086">
        <ele>2124.1794433594</ele>
        <time>2013-12-07T10:06:16Z</time>
      </trkpt>
      <trkpt lat="44.12682" lon="6.9709">
        <ele>2126.8598632812</ele>
        <time>2013-12-07T10:06:20Z</time>
      </trkpt>
      <trkpt lat="44.12687" lon="6.97099">
        <ele>2132.5222167969</ele>
        <time>2013-12-07T10:06:30Z</time>
      </trkpt>
      <trkpt lat="44.1269" lon="6.97105">
        <ele>2135.4926757812</ele>
        <time>2013-12-07T10:06:36Z</time>
      </trkpt>
      <trkpt lat="44.12693" lon="6.97115">
        <ele>2138.3508300781</ele>
        <time>2013-12-07T10:06:45Z</time>
      </trkpt>
      <trkpt lat="44.12697" lon="6.97123">
        <ele>2140.3107910156</ele>
        <time>2013-12-07T10:06:54Z</time>
      </trkpt>
      <trkpt lat="44.12699" lon="6.9713">
        <ele>2140.7829589844</ele>
        <time>2013-12-07T10:07:01Z</time>
      </trkpt>
      <trkpt lat="44.12705" lon="6.97139">
        <ele>2142.3757324219</ele>
        <time>2013-12-07T10:07:11Z</time>
      </trkpt>
      <trkpt lat="44.1271" lon="6.97144">
        <ele>2143.4848632812</ele>
        <time>2013-12-07T10:07:19Z</time>
      </trkpt>
      <trkpt lat="44.12716" lon="6.97148">
        <ele>2144.9865722656</ele>
        <time>2013-12-07T10:07:27Z</time>
      </trkpt>
      <trkpt lat="44.12718" lon="6.9715">
        <ele>2145.7490234375</ele>
        <time>2013-12-07T10:07:31Z</time>
      </trkpt>
      <trkpt lat="44.12724" lon="6.97154">
        <ele>2147.5642089844</ele>
        <time>2013-12-07T10:07:38Z</time>
      </trkpt>
      <trkpt lat="44.12731" lon="6.97159">
        <ele>2149.8591308594</ele>
        <time>2013-12-07T10:07:47Z</time>
      </trkpt>
      <trkpt lat="44.12737" lon="6.97164">
        <ele>2151.9604492188</ele>
        <time>2013-12-07T10:07:56Z</time>
      </trkpt>
      <trkpt lat="44.12742" lon="6.97167">
        <ele>2153.6105957031</ele>
        <time>2013-12-07T10:08:04Z</time>
      </trkpt>
      <trkpt lat="44.12747" lon="6.97171">
        <ele>2154.576171875</ele>
        <time>2013-12-07T10:08:13Z</time>
      </trkpt>
      <trkpt lat="44.12753" lon="6.97176">
        <ele>2155.578125</ele>
        <time>2013-12-07T10:08:22Z</time>
      </trkpt>
      <trkpt lat="44.12758" lon="6.97181">
        <ele>2156.3562011719</ele>
        <time>2013-12-07T10:08:32Z</time>
      </trkpt>
      <trkpt lat="44.12763" lon="6.97185">
        <ele>2157.2563476562</ele>
        <time>2013-12-07T10:08:40Z</time>
      </trkpt>
      <trkpt lat="44.12767" lon="6.97188">
        <ele>2158.5895996094</ele>
        <time>2013-12-07T10:08:48Z</time>
      </trkpt>
      <trkpt lat="44.12772" lon="6.97191">
        <ele>2160.0847167969</ele>
        <time>2013-12-07T10:08:56Z</time>
      </trkpt>
      <trkpt lat="44.12777" lon="6.97195">
        <ele>2161.3950195312</ele>
        <time>2013-12-07T10:09:04Z</time>
      </trkpt>
      <trkpt lat="44.12782" lon="6.97198">
        <ele>2162.9140625</ele>
        <time>2013-12-07T10:09:12Z</time>
      </trkpt>
      <trkpt lat="44.12786" lon="6.97203">
        <ele>2164.1501464844</ele>
        <time>2013-12-07T10:09:21Z</time>
      </trkpt>
      <trkpt lat="44.12791" lon="6.97206">
        <ele>2166.1689453125</ele>
        <time>2013-12-07T10:09:30Z</time>
      </trkpt>
      <trkpt lat="44.12796" lon="6.97209">
        <ele>2167.6245117188</ele>
        <time>2013-12-07T10:09:38Z</time>
      </trkpt>
      <trkpt lat="44.12802" lon="6.97213">
        <ele>2169.890625</ele>
        <time>2013-12-07T10:09:47Z</time>
      </trkpt>
      <trkpt lat="44.12807" lon="6.97216">
        <ele>2171.2741699219</ele>
        <time>2013-12-07T10:09:55Z</time>
      </trkpt>
      <trkpt lat="44.12811" lon="6.97219">
        <ele>2171.8896484375</ele>
        <time>2013-12-07T10:10:02Z</time>
      </trkpt>
      <trkpt lat="44.12815" lon="6.97221">
        <ele>2172.9482421875</ele>
        <time>2013-12-07T10:10:10Z</time>
      </trkpt>
      <trkpt lat="44.1282" lon="6.97224">
        <ele>2174.3171386719</ele>
        <time>2013-12-07T10:10:19Z</time>
      </trkpt>
      <trkpt lat="44.12827" lon="6.97226">
        <ele>2175.9924316406</ele>
        <time>2013-12-07T10:10:29Z</time>
      </trkpt>
      <trkpt lat="44.12832" lon="6.97228">
        <ele>2177.58203125</ele>
        <time>2013-12-07T10:10:37Z</time>
      </trkpt>
      <trkpt lat="44.12839" lon="6.9723">
        <ele>2178.3081054688</ele>
        <time>2013-12-07T10:10:47Z</time>
      </trkpt>
      <trkpt lat="44.12845" lon="6.97232">
        <ele>2178.8920898438</ele>
        <time>2013-12-07T10:10:56Z</time>
      </trkpt>
      <trkpt lat="44.12853" lon="6.97234">
        <ele>2179.7810058594</ele>
        <time>2013-12-07T10:11:06Z</time>
      </trkpt>
      <trkpt lat="44.1286" lon="6.97236">
        <ele>2180.9052734375</ele>
        <time>2013-12-07T10:11:16Z</time>
      </trkpt>
      <trkpt lat="44.12867" lon="6.97238">
        <ele>2181.7980957031</ele>
        <time>2013-12-07T10:11:25Z</time>
      </trkpt>
      <trkpt lat="44.12874" lon="6.97238">
        <ele>2182.8312988281</ele>
        <time>2013-12-07T10:11:34Z</time>
      </trkpt>
      <trkpt lat="44.12878" lon="6.9724">
        <ele>2183.380859375</ele>
        <time>2013-12-07T10:11:42Z</time>
      </trkpt>
      <trkpt lat="44.12883" lon="6.97239">
        <ele>2184.2614746094</ele>
        <time>2013-12-07T10:11:51Z</time>
      </trkpt>
      <trkpt lat="44.12889" lon="6.97238">
        <ele>2185.3776855469</ele>
        <time>2013-12-07T10:12:01Z</time>
      </trkpt>
      <trkpt lat="44.12894" lon="6.97237">
        <ele>2186.0749511719</ele>
        <time>2013-12-07T10:12:08Z</time>
      </trkpt>
      <trkpt lat="44.12895" lon="6.97237">
        <ele>2186.2016601562</ele>
        <time>2013-12-07T10:12:10Z</time>
      </trkpt>
      <trkpt lat="44.12904" lon="6.97238">
        <ele>2187.2006835938</ele>
        <time>2013-12-07T10:12:21Z</time>
      </trkpt>
      <trkpt lat="44.12911" lon="6.97237">
        <ele>2188.1513671875</ele>
        <time>2013-12-07T10:12:30Z</time>
      </trkpt>
      <trkpt lat="44.12917" lon="6.97237">
        <ele>2189.1135253906</ele>
        <time>2013-12-07T10:12:38Z</time>
      </trkpt>
      <trkpt lat="44.1292" lon="6.97238">
        <ele>2190.1796875</ele>
        <time>2013-12-07T10:12:42Z</time>
      </trkpt>
      <trkpt lat="44.12926" lon="6.97239">
        <ele>2192.9858398438</ele>
        <time>2013-12-07T10:12:51Z</time>
      </trkpt>
      <trkpt lat="44.12931" lon="6.97241">
        <ele>2194.9765625</ele>
        <time>2013-12-07T10:12:59Z</time>
      </trkpt>
      <trkpt lat="44.12938" lon="6.97242">
        <ele>2198.0424804688</ele>
        <time>2013-12-07T10:13:08Z</time>
      </trkpt>
      <trkpt lat="44.12945" lon="6.97244">
        <ele>2200.7412109375</ele>
        <time>2013-12-07T10:13:17Z</time>
      </trkpt>
      <trkpt lat="44.12953" lon="6.97247">
        <ele>2202.5744628906</ele>
        <time>2013-12-07T10:13:30Z</time>
      </trkpt>
      <trkpt lat="44.12956" lon="6.97247">
        <ele>2203.2583007812</ele>
        <time>2013-12-07T10:13:34Z</time>
      </trkpt>
      <trkpt lat="44.12957" lon="6.9724">
        <ele>2204.4699707031</ele>
        <time>2013-12-07T10:13:41Z</time>
      </trkpt>
      <trkpt lat="44.12957" lon="6.97232">
        <ele>2205.5407714844</ele>
        <time>2013-12-07T10:13:49Z</time>
      </trkpt>
      <trkpt lat="44.12957" lon="6.97225">
        <ele>2206.2712402344</ele>
        <time>2013-12-07T10:13:56Z</time>
      </trkpt>
      <trkpt lat="44.12957" lon="6.97218">
        <ele>2207.1237792969</ele>
        <time>2013-12-07T10:14:03Z</time>
      </trkpt>
      <trkpt lat="44.12954" lon="6.97208">
        <ele>2207.7890625</ele>
        <time>2013-12-07T10:14:13Z</time>
      </trkpt>
      <trkpt lat="44.12954" lon="6.97204">
        <ele>2208.18359375</ele>
        <time>2013-12-07T10:14:19Z</time>
      </trkpt>
      <trkpt lat="44.12954" lon="6.97196">
        <ele>2209.3757324219</ele>
        <time>2013-12-07T10:14:26Z</time>
      </trkpt>
      <trkpt lat="44.12956" lon="6.97186">
        <ele>2210.5617675781</ele>
        <time>2013-12-07T10:14:35Z</time>
      </trkpt>
      <trkpt lat="44.12956" lon="6.97177">
        <ele>2211.1557617188</ele>
        <time>2013-12-07T10:14:43Z</time>
      </trkpt>
      <trkpt lat="44.12958" lon="6.97166">
        <ele>2212.3852539062</ele>
        <time>2013-12-07T10:14:53Z</time>
      </trkpt>
      <trkpt lat="44.12961" lon="6.97159">
        <ele>2213.0390625</ele>
        <time>2013-12-07T10:15:00Z</time>
      </trkpt>
      <trkpt lat="44.12961" lon="6.97157">
        <ele>2213.0708007812</ele>
        <time>2013-12-07T10:15:02Z</time>
      </trkpt>
      <trkpt lat="44.12965" lon="6.97147">
        <ele>2213.7761230469</ele>
        <time>2013-12-07T10:15:12Z</time>
      </trkpt>
      <trkpt lat="44.12965" lon="6.97145">
        <ele>2213.9326171875</ele>
        <time>2013-12-07T10:15:14Z</time>
      </trkpt>
      <trkpt lat="44.12968" lon="6.9714">
        <ele>2214.6811523438</ele>
        <time>2013-12-07T10:15:22Z</time>
      </trkpt>
      <trkpt lat="44.1297" lon="6.9715">
        <ele>2216.0793457031</ele>
        <time>2013-12-07T10:15:32Z</time>
      </trkpt>
      <trkpt lat="44.12973" lon="6.97156">
        <ele>2217.5695800781</ele>
        <time>2013-12-07T10:15:42Z</time>
      </trkpt>
      <trkpt lat="44.12975" lon="6.97164">
        <ele>2219.0080566406</ele>
        <time>2013-12-07T10:15:51Z</time>
      </trkpt>
      <trkpt lat="44.12978" lon="6.97172">
        <ele>2220.2263183594</ele>
        <time>2013-12-07T10:16:00Z</time>
      </trkpt>
      <trkpt lat="44.12983" lon="6.9718">
        <ele>2221.8481445312</ele>
        <time>2013-12-07T10:16:09Z</time>
      </trkpt>
      <trkpt lat="44.12983" lon="6.97181">
        <ele>2222.0107421875</ele>
        <time>2013-12-07T10:16:10Z</time>
      </trkpt>
      <trkpt lat="44.12988" lon="6.97192">
        <ele>2224.6411132812</ele>
        <time>2013-12-07T10:16:21Z</time>
      </trkpt>
      <trkpt lat="44.12992" lon="6.97199">
        <ele>2226.5666503906</ele>
        <time>2013-12-07T10:16:29Z</time>
      </trkpt>
      <trkpt lat="44.12996" lon="6.97205">
        <ele>2227.9655761719</ele>
        <time>2013-12-07T10:16:36Z</time>
      </trkpt>
      <trkpt lat="44.13001" lon="6.97211">
        <ele>2230.8588867188</ele>
        <time>2013-12-07T10:16:45Z</time>
      </trkpt>
      <trkpt lat="44.13006" lon="6.97216">
        <ele>2233.578125</ele>
        <time>2013-12-07T10:16:54Z</time>
      </trkpt>
      <trkpt lat="44.13011" lon="6.97219">
        <ele>2236.1650390625</ele>
        <time>2013-12-07T10:17:02Z</time>
      </trkpt>
      <trkpt lat="44.13017" lon="6.97222">
        <ele>2239.1135253906</ele>
        <time>2013-12-07T10:17:11Z</time>
      </trkpt>
      <trkpt lat="44.13022" lon="6.97227">
        <ele>2241.3854980469</ele>
        <time>2013-12-07T10:17:20Z</time>
      </trkpt>
      <trkpt lat="44.13027" lon="6.97232">
        <ele>2243.6584472656</ele>
        <time>2013-12-07T10:17:30Z</time>
      </trkpt>
      <trkpt lat="44.13032" lon="6.97234">
        <ele>2244.5241699219</ele>
        <time>2013-12-07T10:17:38Z</time>
      </trkpt>
      <trkpt lat="44.13034" lon="6.97231">
        <ele>2245.4265136719</ele>
        <time>2013-12-07T10:17:44Z</time>
      </trkpt>
      <trkpt lat="44.13032" lon="6.97225">
        <ele>2245.6853027344</ele>
        <time>2013-12-07T10:17:52Z</time>
      </trkpt>
      <trkpt lat="44.13031" lon="6.97221">
        <ele>2245.7580566406</ele>
        <time>2013-12-07T10:17:57Z</time>
      </trkpt>
      <trkpt lat="44.1303" lon="6.97215">
        <ele>2245.8771972656</ele>
        <time>2013-12-07T10:18:05Z</time>
      </trkpt>
      <trkpt lat="44.13029" lon="6.97207">
        <ele>2246.0932617188</ele>
        <time>2013-12-07T10:18:12Z</time>
      </trkpt>
      <trkpt lat="44.13028" lon="6.972">
        <ele>2245.8679199219</ele>
        <time>2013-12-07T10:18:21Z</time>
      </trkpt>
      <trkpt lat="44.13031" lon="6.97199">
        <ele>2247.1899414062</ele>
        <time>2013-12-07T10:18:27Z</time>
      </trkpt>
      <trkpt lat="44.13039" lon="6.97205">
        <ele>2249.6162109375</ele>
        <time>2013-12-07T10:18:38Z</time>
      </trkpt>
      <trkpt lat="44.13046" lon="6.97208">
        <ele>2251.2822265625</ele>
        <time>2013-12-07T10:18:46Z</time>
      </trkpt>
      <trkpt lat="44.13054" lon="6.97211">
        <ele>2253.4221191406</ele>
        <time>2013-12-07T10:18:56Z</time>
      </trkpt>
      <trkpt lat="44.13058" lon="6.9721">
        <ele>2254.8852539062</ele>
        <time>2013-12-07T10:19:01Z</time>
      </trkpt>
      <trkpt lat="44.13065" lon="6.97211">
        <ele>2256.2541503906</ele>
        <time>2013-12-07T10:19:10Z</time>
      </trkpt>
      <trkpt lat="44.1307" lon="6.9721">
        <ele>2257.8039550781</ele>
        <time>2013-12-07T10:19:19Z</time>
      </trkpt>
      <trkpt lat="44.13071" lon="6.97204">
        <ele>2259.4155273438</ele>
        <time>2013-12-07T10:19:26Z</time>
      </trkpt>
      <trkpt lat="44.1307" lon="6.972">
        <ele>2259.9890136719</ele>
        <time>2013-12-07T10:19:32Z</time>
      </trkpt>
      <trkpt lat="44.1307" lon="6.97197">
        <ele>2260.70703125</ele>
        <time>2013-12-07T10:19:37Z</time>
      </trkpt>
      <trkpt lat="44.1307" lon="6.9719">
        <ele>2261.7985839844</ele>
        <time>2013-12-07T10:19:46Z</time>
      </trkpt>
      <trkpt lat="44.13069" lon="6.97182">
        <ele>2262.0307617188</ele>
        <time>2013-12-07T10:19:55Z</time>
      </trkpt>
      <trkpt lat="44.13069" lon="6.97176">
        <ele>2262.89453125</ele>
        <time>2013-12-07T10:20:03Z</time>
      </trkpt>
      <trkpt lat="44.13069" lon="6.97175">
        <ele>2262.9694824219</ele>
        <time>2013-12-07T10:20:04Z</time>
      </trkpt>
      <trkpt lat="44.1307" lon="6.97165">
        <ele>2264.4450683594</ele>
        <time>2013-12-07T10:20:13Z</time>
      </trkpt>
      <trkpt lat="44.13071" lon="6.97155">
        <ele>2264.7849121094</ele>
        <time>2013-12-07T10:20:23Z</time>
      </trkpt>
      <trkpt lat="44.13073" lon="6.97145">
        <ele>2265.2055664062</ele>
        <time>2013-12-07T10:20:33Z</time>
      </trkpt>
      <trkpt lat="44.13073" lon="6.97139">
        <ele>2265.5324707031</ele>
        <time>2013-12-07T10:20:41Z</time>
      </trkpt>
      <trkpt lat="44.13074" lon="6.97132">
        <ele>2265.5808105469</ele>
        <time>2013-12-07T10:20:48Z</time>
      </trkpt>
      <trkpt lat="44.13075" lon="6.97123">
        <ele>2264.8342285156</ele>
        <time>2013-12-07T10:20:56Z</time>
      </trkpt>
      <trkpt lat="44.13076" lon="6.97118">
        <ele>2265.0246582031</ele>
        <time>2013-12-07T10:21:04Z</time>
      </trkpt>
      <trkpt lat="44.1308" lon="6.97124">
        <ele>2268.1352539062</ele>
        <time>2013-12-07T10:21:14Z</time>
      </trkpt>
      <trkpt lat="44.13084" lon="6.97129">
        <ele>2271.2509765625</ele>
        <time>2013-12-07T10:21:23Z</time>
      </trkpt>
      <trkpt lat="44.13084" lon="6.9713">
        <ele>2271.4865722656</ele>
        <time>2013-12-07T10:21:24Z</time>
      </trkpt>
      <trkpt lat="44.1309" lon="6.97138">
        <ele>2274.2192382812</ele>
        <time>2013-12-07T10:21:34Z</time>
      </trkpt>
      <trkpt lat="44.13096" lon="6.97145">
        <ele>2276.43359375</ele>
        <time>2013-12-07T10:21:45Z</time>
      </trkpt>
      <trkpt lat="44.131" lon="6.97147">
        <ele>2277.8012695312</ele>
        <time>2013-12-07T10:21:51Z</time>
      </trkpt>
      <trkpt lat="44.13102" lon="6.97143">
        <ele>2278.6291503906</ele>
        <time>2013-12-07T10:21:55Z</time>
      </trkpt>
      <trkpt lat="44.13103" lon="6.97133">
        <ele>2278.9270019531</ele>
        <time>2013-12-07T10:22:05Z</time>
      </trkpt>
      <trkpt lat="44.13103" lon="6.9713">
        <ele>2278.6796875</ele>
        <time>2013-12-07T10:22:08Z</time>
      </trkpt>
      <trkpt lat="44.13102" lon="6.97118">
        <ele>2278.1335449219</ele>
        <time>2013-12-07T10:22:18Z</time>
      </trkpt>
      <trkpt lat="44.13104" lon="6.97108">
        <ele>2278.8217773438</ele>
        <time>2013-12-07T10:22:28Z</time>
      </trkpt>
      <trkpt lat="44.13108" lon="6.97097">
        <ele>2280.7055664062</ele>
        <time>2013-12-07T10:22:38Z</time>
      </trkpt>
      <trkpt lat="44.1311" lon="6.97088">
        <ele>2281.9682617188</ele>
        <time>2013-12-07T10:22:47Z</time>
      </trkpt>
      <trkpt lat="44.13111" lon="6.9708">
        <ele>2283.0007324219</ele>
        <time>2013-12-07T10:22:56Z</time>
      </trkpt>
      <trkpt lat="44.13113" lon="6.97074">
        <ele>2283.4035644531</ele>
        <time>2013-12-07T10:23:03Z</time>
      </trkpt>
      <trkpt lat="44.13114" lon="6.9707">
        <ele>2283.7678222656</ele>
        <time>2013-12-07T10:23:09Z</time>
      </trkpt>
      <trkpt lat="44.13116" lon="6.9707">
        <ele>2284.5124511719</ele>
        <time>2013-12-07T10:23:16Z</time>
      </trkpt>
      <trkpt lat="44.1312" lon="6.97075">
        <ele>2285.1809082031</ele>
        <time>2013-12-07T10:23:23Z</time>
      </trkpt>
      <trkpt lat="44.1312" lon="6.97076">
        <ele>2285.2431640625</ele>
        <time>2013-12-07T10:23:24Z</time>
      </trkpt>
      <trkpt lat="44.13125" lon="6.97082">
        <ele>2286.1682128906</ele>
        <time>2013-12-07T10:23:33Z</time>
      </trkpt>
      <trkpt lat="44.1313" lon="6.97087">
        <ele>2286.7663574219</ele>
        <time>2013-12-07T10:23:42Z</time>
      </trkpt>
      <trkpt lat="44.13137" lon="6.97092">
        <ele>2287.7277832031</ele>
        <time>2013-12-07T10:23:50Z</time>
      </trkpt>
      <trkpt lat="44.13139" lon="6.97091">
        <ele>2288.2170410156</ele>
        <time>2013-12-07T10:23:52Z</time>
      </trkpt>
      <trkpt lat="44.13142" lon="6.97081">
        <ele>2290.4868164062</ele>
        <time>2013-12-07T10:24:02Z</time>
      </trkpt>
      <trkpt lat="44.13143" lon="6.97073">
        <ele>2292.3039550781</ele>
        <time>2013-12-07T10:24:10Z</time>
      </trkpt>
      <trkpt lat="44.13145" lon="6.97064">
        <ele>2294.1528320312</ele>
        <time>2013-12-07T10:24:19Z</time>
      </trkpt>
      <trkpt lat="44.13146" lon="6.97055">
        <ele>2295.90625</ele>
        <time>2013-12-07T10:24:28Z</time>
      </trkpt>
      <trkpt lat="44.13148" lon="6.97046">
        <ele>2297.5910644531</ele>
        <time>2013-12-07T10:24:38Z</time>
      </trkpt>
      <trkpt lat="44.1315" lon="6.97039">
        <ele>2298.8173828125</ele>
        <time>2013-12-07T10:24:47Z</time>
      </trkpt>
      <trkpt lat="44.1315" lon="6.97038">
        <ele>2299.044921875</ele>
        <time>2013-12-07T10:24:48Z</time>
      </trkpt>
      <trkpt lat="44.13155" lon="6.97028">
        <ele>2301.7648925781</ele>
        <time>2013-12-07T10:25:00Z</time>
      </trkpt>
      <trkpt lat="44.13162" lon="6.97017">
        <ele>2304.4663085938</ele>
        <time>2013-12-07T10:25:12Z</time>
      </trkpt>
      <trkpt lat="44.13166" lon="6.97008">
        <ele>2305.9201660156</ele>
        <time>2013-12-07T10:25:21Z</time>
      </trkpt>
      <trkpt lat="44.13173" lon="6.96997">
        <ele>2307.767578125</ele>
        <time>2013-12-07T10:25:32Z</time>
      </trkpt>
      <trkpt lat="44.13177" lon="6.96989">
        <ele>2309.1682128906</ele>
        <time>2013-12-07T10:25:42Z</time>
      </trkpt>
      <trkpt lat="44.13181" lon="6.96983">
        <ele>2310.4821777344</ele>
        <time>2013-12-07T10:25:50Z</time>
      </trkpt>
      <trkpt lat="44.13185" lon="6.96975">
        <ele>2311.9721679688</ele>
        <time>2013-12-07T10:26:01Z</time>
      </trkpt>
      <trkpt lat="44.13189" lon="6.96973">
        <ele>2313.4484863281</ele>
        <time>2013-12-07T10:26:09Z</time>
      </trkpt>
      <trkpt lat="44.13189" lon="6.96975">
        <ele>2313.7353515625</ele>
        <time>2013-12-07T10:26:12Z</time>
      </trkpt>
      <trkpt lat="44.13192" lon="6.96984">
        <ele>2314.7763671875</ele>
        <time>2013-12-07T10:26:21Z</time>
      </trkpt>
      <trkpt lat="44.13195" lon="6.96993">
        <ele>2315.4006347656</ele>
        <time>2013-12-07T10:26:29Z</time>
      </trkpt>
      <trkpt lat="44.13202" lon="6.97">
        <ele>2316.6296386719</ele>
        <time>2013-12-07T10:26:38Z</time>
      </trkpt>
      <trkpt lat="44.13203" lon="6.96999">
        <ele>2316.8908691406</ele>
        <time>2013-12-07T10:26:39Z</time>
      </trkpt>
      <trkpt lat="44.13206" lon="6.96989">
        <ele>2318.0083007812</ele>
        <time>2013-12-07T10:26:48Z</time>
      </trkpt>
      <trkpt lat="44.13208" lon="6.9698">
        <ele>2319.0114746094</ele>
        <time>2013-12-07T10:26:56Z</time>
      </trkpt>
      <trkpt lat="44.13212" lon="6.96972">
        <ele>2320.388671875</ele>
        <time>2013-12-07T10:27:06Z</time>
      </trkpt>
      <trkpt lat="44.13217" lon="6.96972">
        <ele>2321.673828125</ele>
        <time>2013-12-07T10:27:14Z</time>
      </trkpt>
      <trkpt lat="44.1322" lon="6.9697">
        <ele>2322.6401367188</ele>
        <time>2013-12-07T10:27:19Z</time>
      </trkpt>
      <trkpt lat="44.13224" lon="6.96965">
        <ele>2324.20703125</ele>
        <time>2013-12-07T10:27:27Z</time>
      </trkpt>
      <trkpt lat="44.13226" lon="6.96957">
        <ele>2325.6291503906</ele>
        <time>2013-12-07T10:27:36Z</time>
      </trkpt>
      <trkpt lat="44.13226" lon="6.96949">
        <ele>2326.7973632812</ele>
        <time>2013-12-07T10:27:45Z</time>
      </trkpt>
      <trkpt lat="44.13227" lon="6.96939">
        <ele>2328.2104492188</ele>
        <time>2013-12-07T10:27:55Z</time>
      </trkpt>
      <trkpt lat="44.13229" lon="6.96928">
        <ele>2329.7690429688</ele>
        <time>2013-12-07T10:28:05Z</time>
      </trkpt>
      <trkpt lat="44.13229" lon="6.96927">
        <ele>2329.8862304688</ele>
        <time>2013-12-07T10:28:06Z</time>
      </trkpt>
      <trkpt lat="44.13231" lon="6.96917">
        <ele>2331.5563964844</ele>
        <time>2013-12-07T10:28:15Z</time>
      </trkpt>
      <trkpt lat="44.13232" lon="6.96909">
        <ele>2332.4274902344</ele>
        <time>2013-12-07T10:28:24Z</time>
      </trkpt>
      <trkpt lat="44.13234" lon="6.96909">
        <ele>2333.3884277344</ele>
        <time>2013-12-07T10:29:24Z</time>
      </trkpt>
      <trkpt lat="44.13235" lon="6.96904">
        <ele>2333.9011230469</ele>
        <time>2013-12-07T10:35:03Z</time>
      </trkpt>
      <trkpt lat="44.13239" lon="6.96903">
        <ele>2335.4370117188</ele>
        <time>2013-12-07T10:35:10Z</time>
      </trkpt>
      <trkpt lat="44.13245" lon="6.96907">
        <ele>2337.8090820312</ele>
        <time>2013-12-07T10:35:20Z</time>
      </trkpt>
      <trkpt lat="44.13247" lon="6.96908">
        <ele>2338.5832519531</ele>
        <time>2013-12-07T10:35:23Z</time>
      </trkpt>
      <trkpt lat="44.13252" lon="6.96909">
        <ele>2340.4780273438</ele>
        <time>2013-12-07T10:35:31Z</time>
      </trkpt>
      <trkpt lat="44.13258" lon="6.96908">
        <ele>2341.7900390625</ele>
        <time>2013-12-07T10:35:40Z</time>
      </trkpt>
      <trkpt lat="44.13264" lon="6.96907">
        <ele>2342.9714355469</ele>
        <time>2013-12-07T10:35:47Z</time>
      </trkpt>
      <trkpt lat="44.13266" lon="6.96905">
        <ele>2343.6279296875</ele>
        <time>2013-12-07T10:35:52Z</time>
      </trkpt>
      <trkpt lat="44.13267" lon="6.96898">
        <ele>2344.3132324219</ele>
        <time>2013-12-07T10:35:59Z</time>
      </trkpt>
      <trkpt lat="44.13268" lon="6.96895">
        <ele>2344.8317871094</ele>
        <time>2013-12-07T10:36:04Z</time>
      </trkpt>
      <trkpt lat="44.13269" lon="6.96887">
        <ele>2345.5324707031</ele>
        <time>2013-12-07T10:36:13Z</time>
      </trkpt>
      <trkpt lat="44.13269" lon="6.96885">
        <ele>2345.7014160156</ele>
        <time>2013-12-07T10:36:15Z</time>
      </trkpt>
      <trkpt lat="44.13269" lon="6.96878">
        <ele>2346.5012207031</ele>
        <time>2013-12-07T10:36:21Z</time>
      </trkpt>
      <trkpt lat="44.13273" lon="6.96872">
        <ele>2348.3276367188</ele>
        <time>2013-12-07T10:36:30Z</time>
      </trkpt>
      <trkpt lat="44.13277" lon="6.96866">
        <ele>2350.3542480469</ele>
        <time>2013-12-07T10:36:37Z</time>
      </trkpt>
      <trkpt lat="44.1328" lon="6.96861">
        <ele>2351.7321777344</ele>
        <time>2013-12-07T10:36:43Z</time>
      </trkpt>
      <trkpt lat="44.13285" lon="6.96851">
        <ele>2354.1477050781</ele>
        <time>2013-12-07T10:36:54Z</time>
      </trkpt>
      <trkpt lat="44.13287" lon="6.96844">
        <ele>2355.66796875</ele>
        <time>2013-12-07T10:37:03Z</time>
      </trkpt>
      <trkpt lat="44.13288" lon="6.96838">
        <ele>2356.8862304688</ele>
        <time>2013-12-07T10:37:10Z</time>
      </trkpt>
      <trkpt lat="44.13289" lon="6.96828">
        <ele>2358.6696777344</ele>
        <time>2013-12-07T10:37:19Z</time>
      </trkpt>
      <trkpt lat="44.1329" lon="6.96819">
        <ele>2360.6071777344</ele>
        <time>2013-12-07T10:37:28Z</time>
      </trkpt>
      <trkpt lat="44.13292" lon="6.9681">
        <ele>2362.4287109375</ele>
        <time>2013-12-07T10:37:36Z</time>
      </trkpt>
      <trkpt lat="44.13294" lon="6.96801">
        <ele>2364.8041992188</ele>
        <time>2013-12-07T10:37:45Z</time>
      </trkpt>
      <trkpt lat="44.13295" lon="6.96792">
        <ele>2366.4382324219</ele>
        <time>2013-12-07T10:37:54Z</time>
      </trkpt>
      <trkpt lat="44.13295" lon="6.96785">
        <ele>2367.6779785156</ele>
        <time>2013-12-07T10:38:00Z</time>
      </trkpt>
      <trkpt lat="44.13296" lon="6.96778">
        <ele>2369.0886230469</ele>
        <time>2013-12-07T10:38:07Z</time>
      </trkpt>
      <trkpt lat="44.13295" lon="6.96765">
        <ele>2370.9641113281</ele>
        <time>2013-12-07T10:38:19Z</time>
      </trkpt>
      <trkpt lat="44.13297" lon="6.96755">
        <ele>2373.6271972656</ele>
        <time>2013-12-07T10:38:29Z</time>
      </trkpt>
      <trkpt lat="44.13297" lon="6.96745">
        <ele>2375.3674316406</ele>
        <time>2013-12-07T10:38:39Z</time>
      </trkpt>
      <trkpt lat="44.13298" lon="6.96737">
        <ele>2376.9174804688</ele>
        <time>2013-12-07T10:38:47Z</time>
      </trkpt>
      <trkpt lat="44.13298" lon="6.96731">
        <ele>2377.9057617188</ele>
        <time>2013-12-07T10:38:54Z</time>
      </trkpt>
      <trkpt lat="44.13297" lon="6.96722">
        <ele>2378.7917480469</ele>
        <time>2013-12-07T10:39:03Z</time>
      </trkpt>
      <trkpt lat="44.13296" lon="6.96717">
        <ele>2379.1110839844</ele>
        <time>2013-12-07T10:39:08Z</time>
      </trkpt>
      <trkpt lat="44.13295" lon="6.96709">
        <ele>2379.7155761719</ele>
        <time>2013-12-07T10:39:18Z</time>
      </trkpt>
      <trkpt lat="44.13295" lon="6.96701">
        <ele>2380.556640625</ele>
        <time>2013-12-07T10:39:27Z</time>
      </trkpt>
      <trkpt lat="44.13297" lon="6.96693">
        <ele>2381.7443847656</ele>
        <time>2013-12-07T10:39:38Z</time>
      </trkpt>
      <trkpt lat="44.13297" lon="6.96684">
        <ele>2382.0576171875</ele>
        <time>2013-12-07T10:39:48Z</time>
      </trkpt>
      <trkpt lat="44.13298" lon="6.96678">
        <ele>2382.4020996094</ele>
        <time>2013-12-07T10:39:56Z</time>
      </trkpt>
      <trkpt lat="44.133" lon="6.96677">
        <ele>2383.2194824219</ele>
        <time>2013-12-07T10:40:07Z</time>
      </trkpt>
      <trkpt lat="44.13304" lon="6.96683">
        <ele>2384.6989746094</ele>
        <time>2013-12-07T10:40:16Z</time>
      </trkpt>
      <trkpt lat="44.13309" lon="6.96688">
        <ele>2386.5187988281</ele>
        <time>2013-12-07T10:40:26Z</time>
      </trkpt>
      <trkpt lat="44.13309" lon="6.96688">
        <ele>2386.7885742188</ele>
        <time>2013-12-07T10:40:27Z</time>
      </trkpt>
      <trkpt lat="44.13316" lon="6.96694">
        <ele>2388.7033691406</ele>
        <time>2013-12-07T10:40:37Z</time>
      </trkpt>
      <trkpt lat="44.13322" lon="6.96697">
        <ele>2390.4501953125</ele>
        <time>2013-12-07T10:40:46Z</time>
      </trkpt>
      <trkpt lat="44.13328" lon="6.96699">
        <ele>2392.3427734375</ele>
        <time>2013-12-07T10:40:54Z</time>
      </trkpt>
      <trkpt lat="44.13335" lon="6.967">
        <ele>2394.3527832031</ele>
        <time>2013-12-07T10:41:02Z</time>
      </trkpt>
      <trkpt lat="44.13342" lon="6.96695">
        <ele>2396.380859375</ele>
        <time>2013-12-07T10:41:11Z</time>
      </trkpt>
      <trkpt lat="44.13345" lon="6.96689">
        <ele>2398.2580566406</ele>
        <time>2013-12-07T10:41:19Z</time>
      </trkpt>
      <trkpt lat="44.13346" lon="6.96679">
        <ele>2400.0859375</ele>
        <time>2013-12-07T10:41:27Z</time>
      </trkpt>
      <trkpt lat="44.13346" lon="6.96669">
        <ele>2401.9248046875</ele>
        <time>2013-12-07T10:41:36Z</time>
      </trkpt>
      <trkpt lat="44.13345" lon="6.96663">
        <ele>2402.4777832031</ele>
        <time>2013-12-07T10:41:41Z</time>
      </trkpt>
      <trkpt lat="44.13344" lon="6.96653">
        <ele>2403.0627441406</ele>
        <time>2013-12-07T10:41:50Z</time>
      </trkpt>
      <trkpt lat="44.13347" lon="6.9664">
        <ele>2404.3486328125</ele>
        <time>2013-12-07T10:42:01Z</time>
      </trkpt>
      <trkpt lat="44.13351" lon="6.9663">
        <ele>2405.9436035156</ele>
        <time>2013-12-07T10:42:10Z</time>
      </trkpt>
      <trkpt lat="44.13354" lon="6.96622">
        <ele>2407.4306640625</ele>
        <time>2013-12-07T10:42:19Z</time>
      </trkpt>
      <trkpt lat="44.13355" lon="6.96619">
        <ele>2407.9013671875</ele>
        <time>2013-12-07T10:42:22Z</time>
      </trkpt>
      <trkpt lat="44.13361" lon="6.96611">
        <ele>2409.8432617188</ele>
        <time>2013-12-07T10:42:32Z</time>
      </trkpt>
      <trkpt lat="44.13366" lon="6.96602">
        <ele>2410.390625</ele>
        <time>2013-12-07T10:42:42Z</time>
      </trkpt>
      <trkpt lat="44.13367" lon="6.96602">
        <ele>2410.6496582031</ele>
        <time>2013-12-07T10:42:43Z</time>
      </trkpt>
      <trkpt lat="44.13375" lon="6.96596">
        <ele>2412.0529785156</ele>
        <time>2013-12-07T10:42:52Z</time>
      </trkpt>
      <trkpt lat="44.13383" lon="6.96592">
        <ele>2414.0146484375</ele>
        <time>2013-12-07T10:43:02Z</time>
      </trkpt>
      <trkpt lat="44.13391" lon="6.96588">
        <ele>2415.6127929688</ele>
        <time>2013-12-07T10:43:11Z</time>
      </trkpt>
      <trkpt lat="44.13399" lon="6.96584">
        <ele>2416.8083496094</ele>
        <time>2013-12-07T10:43:20Z</time>
      </trkpt>
      <trkpt lat="44.13406" lon="6.96581">
        <ele>2417.5673828125</ele>
        <time>2013-12-07T10:43:27Z</time>
      </trkpt>
      <trkpt lat="44.13414" lon="6.96577">
        <ele>2417.9345703125</ele>
        <time>2013-12-07T10:43:36Z</time>
      </trkpt>
      <trkpt lat="44.1342" lon="6.96575">
        <ele>2417.8693847656</ele>
        <time>2013-12-07T10:43:44Z</time>
      </trkpt>
      <trkpt lat="44.13427" lon="6.96574">
        <ele>2417.6171875</ele>
        <time>2013-12-07T10:43:51Z</time>
      </trkpt>
      <trkpt lat="44.13434" lon="6.96573">
        <ele>2417.3166503906</ele>
        <time>2013-12-07T10:43:59Z</time>
      </trkpt>
      <trkpt lat="44.13442" lon="6.96572">
        <ele>2417.1965332031</ele>
        <time>2013-12-07T10:44:08Z</time>
      </trkpt>
      <trkpt lat="44.13452" lon="6.96574">
        <ele>2417.0876464844</ele>
        <time>2013-12-07T10:44:17Z</time>
      </trkpt>
      <trkpt lat="44.13461" lon="6.96574">
        <ele>2416.7756347656</ele>
        <time>2013-12-07T10:44:27Z</time>
      </trkpt>
      <trkpt lat="44.13462" lon="6.96575">
        <ele>2416.7951660156</ele>
        <time>2013-12-07T10:44:28Z</time>
      </trkpt>
      <trkpt lat="44.13469" lon="6.96579">
        <ele>2417.1938476562</ele>
        <time>2013-12-07T10:44:37Z</time>
      </trkpt>
      <trkpt lat="44.13477" lon="6.96583">
        <ele>2418.142578125</ele>
        <time>2013-12-07T10:44:45Z</time>
      </trkpt>
      <trkpt lat="44.1348" lon="6.96584">
        <ele>2418.5495605469</ele>
        <time>2013-12-07T10:44:48Z</time>
      </trkpt>
      <trkpt lat="44.13487" lon="6.96588">
        <ele>2419.5319824219</ele>
        <time>2013-12-07T10:44:56Z</time>
      </trkpt>
      <trkpt lat="44.13488" lon="6.96589">
        <ele>2419.6235351562</ele>
        <time>2013-12-07T10:44:57Z</time>
      </trkpt>
      <trkpt lat="44.13497" lon="6.96594">
        <ele>2420.5883789062</ele>
        <time>2013-12-07T10:45:05Z</time>
      </trkpt>
      <trkpt lat="44.13505" lon="6.96601">
        <ele>2421.763671875</ele>
        <time>2013-12-07T10:45:15Z</time>
      </trkpt>
      <trkpt lat="44.13513" lon="6.96606">
        <ele>2422.9650878906</ele>
        <time>2013-12-07T10:45:24Z</time>
      </trkpt>
      <trkpt lat="44.13522" lon="6.9661">
        <ele>2424.3508300781</ele>
        <time>2013-12-07T10:45:34Z</time>
      </trkpt>
      <trkpt lat="44.13531" lon="6.96609">
        <ele>2425.3063964844</ele>
        <time>2013-12-07T10:45:44Z</time>
      </trkpt>
      <trkpt lat="44.13538" lon="6.96604">
        <ele>2425.8459472656</ele>
        <time>2013-12-07T10:45:52Z</time>
      </trkpt>
      <trkpt lat="44.13545" lon="6.96594">
        <ele>2425.4526367188</ele>
        <time>2013-12-07T10:46:02Z</time>
      </trkpt>
      <trkpt lat="44.13551" lon="6.96589">
        <ele>2425.375</ele>
        <time>2013-12-07T10:46:11Z</time>
      </trkpt>
      <trkpt lat="44.13557" lon="6.96585">
        <ele>2425.5734863281</ele>
        <time>2013-12-07T10:46:19Z</time>
      </trkpt>
      <trkpt lat="44.13564" lon="6.96581">
        <ele>2425.87890625</ele>
        <time>2013-12-07T10:46:27Z</time>
      </trkpt>
      <trkpt lat="44.13567" lon="6.96578">
        <ele>2425.66796875</ele>
        <time>2013-12-07T10:46:33Z</time>
      </trkpt>
      <trkpt lat="44.13576" lon="6.96571">
        <ele>2425.724609375</ele>
        <time>2013-12-07T10:46:42Z</time>
      </trkpt>
      <trkpt lat="44.13585" lon="6.96564">
        <ele>2425.9934082031</ele>
        <time>2013-12-07T10:46:51Z</time>
      </trkpt>
      <trkpt lat="44.13595" lon="6.96556">
        <ele>2426.5908203125</ele>
        <time>2013-12-07T10:47:01Z</time>
      </trkpt>
      <trkpt lat="44.13602" lon="6.96552">
        <ele>2427.5603027344</ele>
        <time>2013-12-07T10:47:09Z</time>
      </trkpt>
      <trkpt lat="44.13612" lon="6.96545">
        <ele>2428.7392578125</ele>
        <time>2013-12-07T10:47:18Z</time>
      </trkpt>
      <trkpt lat="44.13623" lon="6.96539">
        <ele>2430.5007324219</ele>
        <time>2013-12-07T10:47:28Z</time>
      </trkpt>
      <trkpt lat="44.13636" lon="6.96531">
        <ele>2432.6586914062</ele>
        <time>2013-12-07T10:47:38Z</time>
      </trkpt>
      <trkpt lat="44.13644" lon="6.9652">
        <ele>2434.0549316406</ele>
        <time>2013-12-07T10:47:47Z</time>
      </trkpt>
      <trkpt lat="44.13654" lon="6.96515">
        <ele>2437.3466796875</ele>
        <time>2013-12-07T10:47:56Z</time>
      </trkpt>
      <trkpt lat="44.13661" lon="6.96513">
        <ele>2440.1862792969</ele>
        <time>2013-12-07T10:48:04Z</time>
      </trkpt>
      <trkpt lat="44.13665" lon="6.96515">
        <ele>2441.6765136719</ele>
        <time>2013-12-07T10:48:10Z</time>
      </trkpt>
      <trkpt lat="44.1367" lon="6.96518">
        <ele>2442.9602050781</ele>
        <time>2013-12-07T10:48:18Z</time>
      </trkpt>
      <trkpt lat="44.13674" lon="6.96521">
        <ele>2443.7307128906</ele>
        <time>2013-12-07T10:48:25Z</time>
      </trkpt>
      <trkpt lat="44.13679" lon="6.96524">
        <ele>2444.4404296875</ele>
        <time>2013-12-07T10:48:32Z</time>
      </trkpt>
      <trkpt lat="44.13683" lon="6.96527">
        <ele>2444.9272460938</ele>
        <time>2013-12-07T10:48:40Z</time>
      </trkpt>
      <trkpt lat="44.13684" lon="6.96528">
        <ele>2445.1127929688</ele>
        <time>2013-12-07T10:48:48Z</time>
      </trkpt>
      <trkpt lat="44.13688" lon="6.96533">
        <ele>2445.619140625</ele>
        <time>2013-12-07T10:48:56Z</time>
      </trkpt>
      <trkpt lat="44.1369" lon="6.96534">
        <ele>2446.0087890625</ele>
        <time>2013-12-07T10:49:02Z</time>
      </trkpt>
      <trkpt lat="44.13692" lon="6.96536">
        <ele>2446.3642578125</ele>
        <time>2013-12-07T10:49:09Z</time>
      </trkpt>
      <trkpt lat="44.13698" lon="6.96539">
        <ele>2447.2626953125</ele>
        <time>2013-12-07T10:49:18Z</time>
      </trkpt>
      <trkpt lat="44.13703" lon="6.96542">
        <ele>2448.1899414062</ele>
        <time>2013-12-07T10:49:27Z</time>
      </trkpt>
      <trkpt lat="44.13711" lon="6.96545">
        <ele>2449.521484375</ele>
        <time>2013-12-07T10:49:36Z</time>
      </trkpt>
      <trkpt lat="44.13719" lon="6.96546">
        <ele>2451.1098632812</ele>
        <time>2013-12-07T10:49:45Z</time>
      </trkpt>
      <trkpt lat="44.13726" lon="6.96545">
        <ele>2451.9924316406</ele>
        <time>2013-12-07T10:49:53Z</time>
      </trkpt>
      <trkpt lat="44.13732" lon="6.96543">
        <ele>2452.4489746094</ele>
        <time>2013-12-07T10:49:57Z</time>
      </trkpt>
      <trkpt lat="44.13738" lon="6.96535">
        <ele>2453.5046386719</ele>
        <time>2013-12-07T10:50:05Z</time>
      </trkpt>
      <trkpt lat="44.13745" lon="6.96526">
        <ele>2454.8623046875</ele>
        <time>2013-12-07T10:50:14Z</time>
      </trkpt>
      <trkpt lat="44.13752" lon="6.96519">
        <ele>2455.6596679688</ele>
        <time>2013-12-07T10:50:22Z</time>
      </trkpt>
      <trkpt lat="44.13763" lon="6.96509">
        <ele>2455.2270507812</ele>
        <time>2013-12-07T10:50:33Z</time>
      </trkpt>
      <trkpt lat="44.13773" lon="6.96501">
        <ele>2454.5627441406</ele>
        <time>2013-12-07T10:50:43Z</time>
      </trkpt>
      <trkpt lat="44.13781" lon="6.96496">
        <ele>2454.1123046875</ele>
        <time>2013-12-07T10:50:51Z</time>
      </trkpt>
      <trkpt lat="44.13791" lon="6.9649">
        <ele>2453.5395507812</ele>
        <time>2013-12-07T10:51:00Z</time>
      </trkpt>
      <trkpt lat="44.13799" lon="6.96486">
        <ele>2452.82421875</ele>
        <time>2013-12-07T10:51:07Z</time>
      </trkpt>
      <trkpt lat="44.1381" lon="6.96481">
        <ele>2451.6477050781</ele>
        <time>2013-12-07T10:51:16Z</time>
      </trkpt>
      <trkpt lat="44.13822" lon="6.96474">
        <ele>2450.494140625</ele>
        <time>2013-12-07T10:51:26Z</time>
      </trkpt>
      <trkpt lat="44.13829" lon="6.96469">
        <ele>2449.814453125</ele>
        <time>2013-12-07T10:51:32Z</time>
      </trkpt>
      <trkpt lat="44.13839" lon="6.96462">
        <ele>2448.4604492188</ele>
        <time>2013-12-07T10:51:41Z</time>
      </trkpt>
      <trkpt lat="44.13847" lon="6.96456">
        <ele>2447.0180664062</ele>
        <time>2013-12-07T10:51:49Z</time>
      </trkpt>
      <trkpt lat="44.13857" lon="6.96449">
        <ele>2445.4750976562</ele>
        <time>2013-12-07T10:51:58Z</time>
      </trkpt>
      <trkpt lat="44.13864" lon="6.96437">
        <ele>2444.966796875</ele>
        <time>2013-12-07T10:52:07Z</time>
      </trkpt>
      <trkpt lat="44.13867" lon="6.96424">
        <ele>2445.2414550781</ele>
        <time>2013-12-07T10:52:16Z</time>
      </trkpt>
      <trkpt lat="44.1387" lon="6.96412">
        <ele>2445.5949707031</ele>
        <time>2013-12-07T10:52:24Z</time>
      </trkpt>
      <trkpt lat="44.13873" lon="6.96398">
        <ele>2446.4294433594</ele>
        <time>2013-12-07T10:52:33Z</time>
      </trkpt>
      <trkpt lat="44.13876" lon="6.96388">
        <ele>2446.8132324219</ele>
        <time>2013-12-07T10:52:39Z</time>
      </trkpt>
      <trkpt lat="44.13882" lon="6.96372">
        <ele>2446.8559570312</ele>
        <time>2013-12-07T10:52:50Z</time>
      </trkpt>
      <trkpt lat="44.1389" lon="6.96358">
        <ele>2446.0207519531</ele>
        <time>2013-12-07T10:53:00Z</time>
      </trkpt>
      <trkpt lat="44.13893" lon="6.96354">
        <ele>2445.8364257812</ele>
        <time>2013-12-07T10:53:06Z</time>
      </trkpt>
      <trkpt lat="44.13896" lon="6.96347">
        <ele>2445.6372070312</ele>
        <time>2013-12-07T10:53:17Z</time>
      </trkpt>
      <trkpt lat="44.13902" lon="6.96331">
        <ele>2445.1411132812</ele>
        <time>2013-12-07T10:53:28Z</time>
      </trkpt>
      <trkpt lat="44.1391" lon="6.96321">
        <ele>2443.5007324219</ele>
        <time>2013-12-07T10:53:36Z</time>
      </trkpt>
      <trkpt lat="44.13915" lon="6.96308">
        <ele>2443.2141113281</ele>
        <time>2013-12-07T10:53:44Z</time>
      </trkpt>
      <trkpt lat="44.13916" lon="6.96292">
        <ele>2444.1862792969</ele>
        <time>2013-12-07T10:53:53Z</time>
      </trkpt>
      <trkpt lat="44.13919" lon="6.96283">
        <ele>2443.8359375</ele>
        <time>2013-12-07T10:54:00Z</time>
      </trkpt>
      <trkpt lat="44.13926" lon="6.96274">
        <ele>2442.5166015625</ele>
        <time>2013-12-07T10:54:07Z</time>
      </trkpt>
      <trkpt lat="44.1393" lon="6.96262">
        <ele>2442.4973144531</ele>
        <time>2013-12-07T10:54:14Z</time>
      </trkpt>
      <trkpt lat="44.13934" lon="6.96248">
        <ele>2442.7258300781</ele>
        <time>2013-12-07T10:54:23Z</time>
      </trkpt>
      <trkpt lat="44.13939" lon="6.96232">
        <ele>2442.1782226562</ele>
        <time>2013-12-07T10:54:33Z</time>
      </trkpt>
      <trkpt lat="44.13943" lon="6.96219">
        <ele>2441.525390625</ele>
        <time>2013-12-07T10:54:42Z</time>
      </trkpt>
      <trkpt lat="44.13948" lon="6.96206">
        <ele>2441.1096191406</ele>
        <time>2013-12-07T10:54:50Z</time>
      </trkpt>
      <trkpt lat="44.13953" lon="6.96193">
        <ele>2440.6381835938</ele>
        <time>2013-12-07T10:54:59Z</time>
      </trkpt>
      <trkpt lat="44.13957" lon="6.96184">
        <ele>2440.0297851562</ele>
        <time>2013-12-07T10:55:05Z</time>
      </trkpt>
      <trkpt lat="44.13959" lon="6.96177">
        <ele>2440.0358886719</ele>
        <time>2013-12-07T10:55:09Z</time>
      </trkpt>
      <trkpt lat="44.13963" lon="6.96167">
        <ele>2440.0690917969</ele>
        <time>2013-12-07T10:55:16Z</time>
      </trkpt>
      <trkpt lat="44.13969" lon="6.96149">
        <ele>2439.8999023438</ele>
        <time>2013-12-07T10:55:27Z</time>
      </trkpt>
      <trkpt lat="44.13973" lon="6.96134">
        <ele>2440.0737304688</ele>
        <time>2013-12-07T10:55:36Z</time>
      </trkpt>
      <trkpt lat="44.13978" lon="6.96121">
        <ele>2439.7385253906</ele>
        <time>2013-12-07T10:55:45Z</time>
      </trkpt>
      <trkpt lat="44.13984" lon="6.96107">
        <ele>2439.4965820312</ele>
        <time>2013-12-07T10:55:54Z</time>
      </trkpt>
      <trkpt lat="44.13989" lon="6.96091">
        <ele>2439.5600585938</ele>
        <time>2013-12-07T10:56:04Z</time>
      </trkpt>
      <trkpt lat="44.13993" lon="6.96081">
        <ele>2439.6252441406</ele>
        <time>2013-12-07T10:56:11Z</time>
      </trkpt>
      <trkpt lat="44.13999" lon="6.96069">
        <ele>2439.7001953125</ele>
        <time>2013-12-07T10:56:20Z</time>
      </trkpt>
      <trkpt lat="44.14001" lon="6.96062">
        <ele>2439.9575195312</ele>
        <time>2013-12-07T10:56:24Z</time>
      </trkpt>
      <trkpt lat="44.14005" lon="6.96057">
        <ele>2439.8698730469</ele>
        <time>2013-12-07T10:56:28Z</time>
      </trkpt>
      <trkpt lat="44.14008" lon="6.96043">
        <ele>2440.5341796875</ele>
        <time>2013-12-07T10:56:37Z</time>
      </trkpt>
      <trkpt lat="44.14011" lon="6.96033">
        <ele>2441.1079101562</ele>
        <time>2013-12-07T10:56:44Z</time>
      </trkpt>
      <trkpt lat="44.14016" lon="6.96023">
        <ele>2441.5417480469</ele>
        <time>2013-12-07T10:56:52Z</time>
      </trkpt>
      <trkpt lat="44.14022" lon="6.96009">
        <ele>2441.4499511719</ele>
        <time>2013-12-07T10:57:02Z</time>
      </trkpt>
      <trkpt lat="44.14025" lon="6.95994">
        <ele>2441.6474609375</ele>
        <time>2013-12-07T10:57:10Z</time>
      </trkpt>
      <trkpt lat="44.14029" lon="6.95976">
        <ele>2441.4538574219</ele>
        <time>2013-12-07T10:57:21Z</time>
      </trkpt>
      <trkpt lat="44.14034" lon="6.95964">
        <ele>2440.9252929688</ele>
        <time>2013-12-07T10:57:29Z</time>
      </trkpt>
      <trkpt lat="44.14041" lon="6.95957">
        <ele>2439.5439453125</ele>
        <time>2013-12-07T10:57:37Z</time>
      </trkpt>
      <trkpt lat="44.14044" lon="6.95952">
        <ele>2439.1037597656</ele>
        <time>2013-12-07T10:57:50Z</time>
      </trkpt>
      <trkpt lat="44.14052" lon="6.95938">
        <ele>2438.4150390625</ele>
        <time>2013-12-07T10:58:00Z</time>
      </trkpt>
      <trkpt lat="44.14059" lon="6.95924">
        <ele>2438.755859375</ele>
        <time>2013-12-07T10:58:09Z</time>
      </trkpt>
      <trkpt lat="44.14068" lon="6.95908">
        <ele>2437.8303222656</ele>
        <time>2013-12-07T10:58:19Z</time>
      </trkpt>
      <trkpt lat="44.14075" lon="6.95892">
        <ele>2437.0280761719</ele>
        <time>2013-12-07T10:58:29Z</time>
      </trkpt>
      <trkpt lat="44.14079" lon="6.95878">
        <ele>2436.7958984375</ele>
        <time>2013-12-07T10:58:38Z</time>
      </trkpt>
      <trkpt lat="44.14087" lon="6.95868">
        <ele>2437.0688476562</ele>
        <time>2013-12-07T10:58:47Z</time>
      </trkpt>
      <trkpt lat="44.14095" lon="6.95856">
        <ele>2437.5549316406</ele>
        <time>2013-12-07T10:58:56Z</time>
      </trkpt>
      <trkpt lat="44.141" lon="6.95841">
        <ele>2438.4868164062</ele>
        <time>2013-12-07T10:59:05Z</time>
      </trkpt>
      <trkpt lat="44.14108" lon="6.95827">
        <ele>2440.3073730469</ele>
        <time>2013-12-07T10:59:15Z</time>
      </trkpt>
      <trkpt lat="44.14116" lon="6.95818">
        <ele>2441.7939453125</ele>
        <time>2013-12-07T10:59:24Z</time>
      </trkpt>
      <trkpt lat="44.14123" lon="6.95808">
        <ele>2443.5651855469</ele>
        <time>2013-12-07T10:59:34Z</time>
      </trkpt>
      <trkpt lat="44.14128" lon="6.95797">
        <ele>2445.7858886719</ele>
        <time>2013-12-07T10:59:43Z</time>
      </trkpt>
      <trkpt lat="44.1413" lon="6.95791">
        <ele>2447.0803222656</ele>
        <time>2013-12-07T10:59:48Z</time>
      </trkpt>
      <trkpt lat="44.14134" lon="6.95778">
        <ele>2450.0512695312</ele>
        <time>2013-12-07T10:59:59Z</time>
      </trkpt>
      <trkpt lat="44.14136" lon="6.95774">
        <ele>2451.2749023438</ele>
        <time>2013-12-07T11:00:03Z</time>
      </trkpt>
      <trkpt lat="44.1414" lon="6.95765">
        <ele>2453.7673339844</ele>
        <time>2013-12-07T11:00:11Z</time>
      </trkpt>
      <trkpt lat="44.14145" lon="6.95756">
        <ele>2455.349609375</ele>
        <time>2013-12-07T11:00:20Z</time>
      </trkpt>
      <trkpt lat="44.14149" lon="6.95745">
        <ele>2457.0229492188</ele>
        <time>2013-12-07T11:00:30Z</time>
      </trkpt>
      <trkpt lat="44.1415" lon="6.95744">
        <ele>2457.1726074219</ele>
        <time>2013-12-07T11:00:31Z</time>
      </trkpt>
      <trkpt lat="44.14151" lon="6.95743">
        <ele>2457.32421875</ele>
        <time>2013-12-07T11:00:33Z</time>
      </trkpt>
      <trkpt lat="44.14155" lon="6.95734">
        <ele>2458.8928222656</ele>
        <time>2013-12-07T11:00:44Z</time>
      </trkpt>
      <trkpt lat="44.14156" lon="6.95732">
        <ele>2459.2097167969</ele>
        <time>2013-12-07T11:00:46Z</time>
      </trkpt>
      <trkpt lat="44.14157" lon="6.9573">
        <ele>2459.4807128906</ele>
        <time>2013-12-07T11:00:52Z</time>
      </trkpt>
      <trkpt lat="44.1416" lon="6.95723">
        <ele>2460.8439941406</ele>
        <time>2013-12-07T11:05:04Z</time>
      </trkpt>
      <trkpt lat="44.14161" lon="6.95716">
        <ele>2461.1667480469</ele>
        <time>2013-12-07T11:05:13Z</time>
      </trkpt>
      <trkpt lat="44.14162" lon="6.95711">
        <ele>2461.3515625</ele>
        <time>2013-12-07T11:05:21Z</time>
      </trkpt>
      <trkpt lat="44.14165" lon="6.95704">
        <ele>2461.6086425781</ele>
        <time>2013-12-07T11:05:29Z</time>
      </trkpt>
      <trkpt lat="44.14167" lon="6.957">
        <ele>2461.8264160156</ele>
        <time>2013-12-07T11:05:36Z</time>
      </trkpt>
      <trkpt lat="44.14172" lon="6.95694">
        <ele>2462.6315917969</ele>
        <time>2013-12-07T11:05:46Z</time>
      </trkpt>
      <trkpt lat="44.14177" lon="6.95689">
        <ele>2463.8349609375</ele>
        <time>2013-12-07T11:05:54Z</time>
      </trkpt>
      <trkpt lat="44.14179" lon="6.95683">
        <ele>2465.2497558594</ele>
        <time>2013-12-07T11:06:03Z</time>
      </trkpt>
      <trkpt lat="44.14183" lon="6.95676">
        <ele>2467.4091796875</ele>
        <time>2013-12-07T11:06:13Z</time>
      </trkpt>
      <trkpt lat="44.14186" lon="6.9567">
        <ele>2469.5041503906</ele>
        <time>2013-12-07T11:06:21Z</time>
      </trkpt>
      <trkpt lat="44.1419" lon="6.95663">
        <ele>2472.3076171875</ele>
        <time>2013-12-07T11:06:30Z</time>
      </trkpt>
      <trkpt lat="44.14194" lon="6.95656">
        <ele>2475.2587890625</ele>
        <time>2013-12-07T11:06:40Z</time>
      </trkpt>
      <trkpt lat="44.14197" lon="6.95649">
        <ele>2476.6801757812</ele>
        <time>2013-12-07T11:06:49Z</time>
      </trkpt>
      <trkpt lat="44.14199" lon="6.95644">
        <ele>2477.8635253906</ele>
        <time>2013-12-07T11:06:56Z</time>
      </trkpt>
      <trkpt lat="44.142" lon="6.95643">
        <ele>2478.0417480469</ele>
        <time>2013-12-07T11:06:57Z</time>
      </trkpt>
      <trkpt lat="44.14205" lon="6.95635">
        <ele>2479.3271484375</ele>
        <time>2013-12-07T11:07:07Z</time>
      </trkpt>
      <trkpt lat="44.14208" lon="6.95627">
        <ele>2480.0319824219</ele>
        <time>2013-12-07T11:07:16Z</time>
      </trkpt>
      <trkpt lat="44.14211" lon="6.9562">
        <ele>2480.7348632812</ele>
        <time>2013-12-07T11:07:25Z</time>
      </trkpt>
      <trkpt lat="44.14214" lon="6.95615">
        <ele>2481.3139648438</ele>
        <time>2013-12-07T11:07:33Z</time>
      </trkpt>
      <trkpt lat="44.14218" lon="6.95609">
        <ele>2481.9653320312</ele>
        <time>2013-12-07T11:07:42Z</time>
      </trkpt>
      <trkpt lat="44.14223" lon="6.95601">
        <ele>2482.8161621094</ele>
        <time>2013-12-07T11:07:53Z</time>
      </trkpt>
      <trkpt lat="44.14227" lon="6.95595">
        <ele>2483.6120605469</ele>
        <time>2013-12-07T11:08:00Z</time>
      </trkpt>
      <trkpt lat="44.14228" lon="6.95589">
        <ele>2484.4699707031</ele>
        <time>2013-12-07T11:08:07Z</time>
      </trkpt>
      <trkpt lat="44.14231" lon="6.95583">
        <ele>2485.6931152344</ele>
        <time>2013-12-07T11:08:16Z</time>
      </trkpt>
      <trkpt lat="44.14233" lon="6.95578">
        <ele>2486.7563476562</ele>
        <time>2013-12-07T11:08:24Z</time>
      </trkpt>
      <trkpt lat="44.14235" lon="6.95574">
        <ele>2487.68359375</ele>
        <time>2013-12-07T11:08:30Z</time>
      </trkpt>
      <trkpt lat="44.14236" lon="6.95567">
        <ele>2489.2023925781</ele>
        <time>2013-12-07T11:08:38Z</time>
      </trkpt>
      <trkpt lat="44.14239" lon="6.95562">
        <ele>2491.1232910156</ele>
        <time>2013-12-07T11:08:45Z</time>
      </trkpt>
      <trkpt lat="44.14241" lon="6.95556">
        <ele>2493.271484375</ele>
        <time>2013-12-07T11:08:53Z</time>
      </trkpt>
      <trkpt lat="44.14245" lon="6.9555">
        <ele>2496.0700683594</ele>
        <time>2013-12-07T11:09:03Z</time>
      </trkpt>
      <trkpt lat="44.14248" lon="6.95544">
        <ele>2498.3037109375</ele>
        <time>2013-12-07T11:09:11Z</time>
      </trkpt>
      <trkpt lat="44.14251" lon="6.95538">
        <ele>2499.8005371094</ele>
        <time>2013-12-07T11:09:18Z</time>
      </trkpt>
      <trkpt lat="44.14256" lon="6.95532">
        <ele>2500.4919433594</ele>
        <time>2013-12-07T11:09:28Z</time>
      </trkpt>
      <trkpt lat="44.14257" lon="6.95525">
        <ele>2500.7104492188</ele>
        <time>2013-12-07T11:09:36Z</time>
      </trkpt>
      <trkpt lat="44.14264" lon="6.95517">
        <ele>2500.2204589844</ele>
        <time>2013-12-07T11:09:48Z</time>
      </trkpt>
      <trkpt lat="44.14267" lon="6.95512">
        <ele>2500.2888183594</ele>
        <time>2013-12-07T11:09:55Z</time>
      </trkpt>
      <trkpt lat="44.14274" lon="6.95504">
        <ele>2501.1252441406</ele>
        <time>2013-12-07T11:10:06Z</time>
      </trkpt>
      <trkpt lat="44.14278" lon="6.95498">
        <ele>2502.08984375</ele>
        <time>2013-12-07T11:10:15Z</time>
      </trkpt>
      <trkpt lat="44.14282" lon="6.95491">
        <ele>2503.7687988281</ele>
        <time>2013-12-07T11:10:24Z</time>
      </trkpt>
      <trkpt lat="44.14287" lon="6.95484">
        <ele>2506.32421875</ele>
        <time>2013-12-07T11:10:34Z</time>
      </trkpt>
      <trkpt lat="44.1429" lon="6.95482">
        <ele>2507.5771484375</ele>
        <time>2013-12-07T11:10:38Z</time>
      </trkpt>
      <trkpt lat="44.14298" lon="6.95477">
        <ele>2511.5207519531</ele>
        <time>2013-12-07T11:10:48Z</time>
      </trkpt>
      <trkpt lat="44.14305" lon="6.95473">
        <ele>2515.5053710938</ele>
        <time>2013-12-07T11:10:57Z</time>
      </trkpt>
      <trkpt lat="44.14312" lon="6.95468">
        <ele>2516.9167480469</ele>
        <time>2013-12-07T11:11:07Z</time>
      </trkpt>
      <trkpt lat="44.14317" lon="6.95462">
        <ele>2518.0915527344</ele>
        <time>2013-12-07T11:11:16Z</time>
      </trkpt>
      <trkpt lat="44.14323" lon="6.95456">
        <ele>2520.2307128906</ele>
        <time>2013-12-07T11:11:27Z</time>
      </trkpt>
      <trkpt lat="44.14323" lon="6.95454">
        <ele>2520.4909667969</ele>
        <time>2013-12-07T11:11:29Z</time>
      </trkpt>
      <trkpt lat="44.14318" lon="6.95449">
        <ele>2519.3471679688</ele>
        <time>2013-12-07T11:11:39Z</time>
      </trkpt>
      <trkpt lat="44.14318" lon="6.95449">
        <ele>2519.244140625</ele>
        <time>2013-12-07T11:11:40Z</time>
      </trkpt>
      <trkpt lat="44.14316" lon="6.95448">
        <ele>2518.5349121094</ele>
        <time>2013-12-07T11:11:45Z</time>
      </trkpt>
      <trkpt lat="44.14315" lon="6.95447">
        <ele>2518.4406738281</ele>
        <time>2013-12-07T11:11:47Z</time>
      </trkpt>
      <trkpt lat="44.14314" lon="6.95442">
        <ele>2517.7980957031</ele>
        <time>2013-12-07T11:11:55Z</time>
      </trkpt>
      <trkpt lat="44.14318" lon="6.95437">
        <ele>2519.2746582031</ele>
        <time>2013-12-07T11:12:03Z</time>
      </trkpt>
      <trkpt lat="44.1432" lon="6.95435">
        <ele>2520.2687988281</ele>
        <time>2013-12-07T11:12:10Z</time>
      </trkpt>
      <trkpt lat="44.14324" lon="6.95433">
        <ele>2521.9406738281</ele>
        <time>2013-12-07T11:12:16Z</time>
      </trkpt>
      <trkpt lat="44.14331" lon="6.95429">
        <ele>2526.2001953125</ele>
        <time>2013-12-07T11:12:26Z</time>
      </trkpt>
      <trkpt lat="44.14339" lon="6.95425">
        <ele>2529.5747070312</ele>
        <time>2013-12-07T11:12:36Z</time>
      </trkpt>
      <trkpt lat="44.14346" lon="6.9542">
        <ele>2533.1298828125</ele>
        <time>2013-12-07T11:12:45Z</time>
      </trkpt>
      <trkpt lat="44.14348" lon="6.95418">
        <ele>2534.5180664062</ele>
        <time>2013-12-07T11:12:48Z</time>
      </trkpt>
      <trkpt lat="44.14357" lon="6.95413">
        <ele>2538.3779296875</ele>
        <time>2013-12-07T11:12:59Z</time>
      </trkpt>
      <trkpt lat="44.1436" lon="6.95411">
        <ele>2539.7919921875</ele>
        <time>2013-12-07T11:13:06Z</time>
      </trkpt>
      <trkpt lat="44.14364" lon="6.95408">
        <ele>2541.1687011719</ele>
        <time>2013-12-07T11:13:14Z</time>
      </trkpt>
      <trkpt lat="44.14367" lon="6.95406">
        <ele>2541.9428710938</ele>
        <time>2013-12-07T11:13:20Z</time>
      </trkpt>
      <trkpt lat="44.1437" lon="6.95402">
        <ele>2543.2731933594</ele>
        <time>2013-12-07T11:13:28Z</time>
      </trkpt>
      <trkpt lat="44.14372" lon="6.954">
        <ele>2544.3090820312</ele>
        <time>2013-12-07T11:13:35Z</time>
      </trkpt>
      <trkpt lat="44.14374" lon="6.95397">
        <ele>2545.2585449219</ele>
        <time>2013-12-07T11:13:41Z</time>
      </trkpt>
      <trkpt lat="44.14376" lon="6.95395">
        <ele>2546.2170410156</ele>
        <time>2013-12-07T11:13:48Z</time>
      </trkpt>
      <trkpt lat="44.14378" lon="6.95393">
        <ele>2547.3828125</ele>
        <time>2013-12-07T11:13:55Z</time>
      </trkpt>
      <trkpt lat="44.14385" lon="6.95388">
        <ele>2550.7106933594</ele>
        <time>2013-12-07T11:14:06Z</time>
      </trkpt>
      <trkpt lat="44.14389" lon="6.95385">
        <ele>2553.1159667969</ele>
        <time>2013-12-07T11:14:14Z</time>
      </trkpt>
      <trkpt lat="44.14393" lon="6.95382">
        <ele>2554.482421875</ele>
        <time>2013-12-07T11:14:22Z</time>
      </trkpt>
      <trkpt lat="44.14396" lon="6.95379">
        <ele>2555.6938476562</ele>
        <time>2013-12-07T11:14:29Z</time>
      </trkpt>
      <trkpt lat="44.14399" lon="6.95377">
        <ele>2556.9362792969</ele>
        <time>2013-12-07T11:14:37Z</time>
      </trkpt>
      <trkpt lat="44.14404" lon="6.95375">
        <ele>2558.3679199219</ele>
        <time>2013-12-07T11:14:46Z</time>
      </trkpt>
      <trkpt lat="44.14405" lon="6.95372">
        <ele>2559.66796875</ele>
        <time>2013-12-07T11:14:52Z</time>
      </trkpt>
      <trkpt lat="44.14406" lon="6.9537">
        <ele>2560.6809082031</ele>
        <time>2013-12-07T11:14:58Z</time>
      </trkpt>
      <trkpt lat="44.14408" lon="6.95368">
        <ele>2561.6518554688</ele>
        <time>2013-12-07T11:15:04Z</time>
      </trkpt>
      <trkpt lat="44.14413" lon="6.95365">
        <ele>2563.6247558594</ele>
        <time>2013-12-07T11:15:15Z</time>
      </trkpt>
      <trkpt lat="44.14417" lon="6.95363">
        <ele>2565.3322753906</ele>
        <time>2013-12-07T11:15:23Z</time>
      </trkpt>
      <trkpt lat="44.1442" lon="6.95361">
        <ele>2566.2448730469</ele>
        <time>2013-12-07T11:15:30Z</time>
      </trkpt>
      <trkpt lat="44.14424" lon="6.9536">
        <ele>2567.3591308594</ele>
        <time>2013-12-07T11:15:38Z</time>
      </trkpt>
      <trkpt lat="44.14428" lon="6.95359">
        <ele>2568.2622070312</ele>
        <time>2013-12-07T11:15:45Z</time>
      </trkpt>
      <trkpt lat="44.1443" lon="6.95357">
        <ele>2569.2529296875</ele>
        <time>2013-12-07T11:15:51Z</time>
      </trkpt>
      <trkpt lat="44.14434" lon="6.95355">
        <ele>2570.3464355469</ele>
        <time>2013-12-07T11:15:58Z</time>
      </trkpt>
      <trkpt lat="44.14435" lon="6.95355">
        <ele>2570.4228515625</ele>
        <time>2013-12-07T11:15:59Z</time>
      </trkpt>
      <trkpt lat="44.1444" lon="6.95355">
        <ele>2570.9963378906</ele>
        <time>2013-12-07T11:16:06Z</time>
      </trkpt>
      <trkpt lat="44.14445" lon="6.95354">
        <ele>2571.9345703125</ele>
        <time>2013-12-07T11:16:14Z</time>
      </trkpt>
      <trkpt lat="44.14451" lon="6.95352">
        <ele>2573.3713378906</ele>
        <time>2013-12-07T11:16:22Z</time>
      </trkpt>
      <trkpt lat="44.14455" lon="6.95349">
        <ele>2574.58203125</ele>
        <time>2013-12-07T11:16:30Z</time>
      </trkpt>
      <trkpt lat="44.14458" lon="6.95346">
        <ele>2575.7175292969</ele>
        <time>2013-12-07T11:16:37Z</time>
      </trkpt>
      <trkpt lat="44.14464" lon="6.95344">
        <ele>2576.7563476562</ele>
        <time>2013-12-07T11:16:46Z</time>
      </trkpt>
      <trkpt lat="44.14468" lon="6.95343">
        <ele>2577.2497558594</ele>
        <time>2013-12-07T11:16:53Z</time>
      </trkpt>
      <trkpt lat="44.14474" lon="6.95344">
        <ele>2577.3251953125</ele>
        <time>2013-12-07T11:17:02Z</time>
      </trkpt>
      <trkpt lat="44.14481" lon="6.95344">
        <ele>2577.6479492188</ele>
        <time>2013-12-07T11:17:13Z</time>
      </trkpt>
      <trkpt lat="44.14486" lon="6.95342">
        <ele>2578.0263671875</ele>
        <time>2013-12-07T11:17:21Z</time>
      </trkpt>
      <trkpt lat="44.14489" lon="6.95343">
        <ele>2577.9907226562</ele>
        <time>2013-12-07T11:17:24Z</time>
      </trkpt>
      <trkpt lat="44.14495" lon="6.95343">
        <ele>2578.20703125</ele>
        <time>2013-12-07T11:17:32Z</time>
      </trkpt>
      <trkpt lat="44.145" lon="6.95341">
        <ele>2578.5244140625</ele>
        <time>2013-12-07T11:17:40Z</time>
      </trkpt>
      <trkpt lat="44.14503" lon="6.95338">
        <ele>2579.2094726562</ele>
        <time>2013-12-07T11:17:48Z</time>
      </trkpt>
      <trkpt lat="44.14506" lon="6.95337">
        <ele>2579.4348144531</ele>
        <time>2013-12-07T11:17:54Z</time>
      </trkpt>
      <trkpt lat="44.14509" lon="6.95334">
        <ele>2579.8588867188</ele>
        <time>2013-12-07T11:18:02Z</time>
      </trkpt>
      <trkpt lat="44.14512" lon="6.95334">
        <ele>2579.9111328125</ele>
        <time>2013-12-07T11:18:07Z</time>
      </trkpt>
      <trkpt lat="44.14515" lon="6.95334">
        <ele>2579.9072265625</ele>
        <time>2013-12-07T11:18:13Z</time>
      </trkpt>
      <trkpt lat="44.1452" lon="6.95333">
        <ele>2580</ele>
        <time>2013-12-07T11:18:20Z</time>
      </trkpt>
      <trkpt lat="44.14525" lon="6.95332">
        <ele>2580</ele>
        <time>2013-12-07T11:18:29Z</time>
      </trkpt>
      <trkpt lat="44.14531" lon="6.95331">
        <ele>2579.9799804688</ele>
        <time>2013-12-07T11:18:37Z</time>
      </trkpt>
      <trkpt lat="44.14532" lon="6.95331">
        <ele>2579.96875</ele>
        <time>2013-12-07T11:18:39Z</time>
      </trkpt>
      <trkpt lat="44.14537" lon="6.95334">
        <ele>2580.0092773438</ele>
        <time>2013-12-07T11:18:48Z</time>
      </trkpt>
      <trkpt lat="44.1454" lon="6.95334">
        <ele>2580.0178222656</ele>
        <time>2013-12-07T11:18:53Z</time>
      </trkpt>
      <trkpt lat="44.14542" lon="6.95334">
        <ele>2580.0424804688</ele>
        <time>2013-12-07T11:18:58Z</time>
      </trkpt>
      <trkpt lat="44.14548" lon="6.95336">
        <ele>2580.1259765625</ele>
        <time>2013-12-07T11:19:08Z</time>
      </trkpt>
      <trkpt lat="44.14555" lon="6.95336">
        <ele>2580.2185058594</ele>
        <time>2013-12-07T11:19:19Z</time>
      </trkpt>
      <trkpt lat="44.14559" lon="6.95336">
        <ele>2580.205078125</ele>
        <time>2013-12-07T11:19:26Z</time>
      </trkpt>
      <trkpt lat="44.14564" lon="6.95335">
        <ele>2580.177734375</ele>
        <time>2013-12-07T11:19:35Z</time>
      </trkpt>
      <trkpt lat="44.1457" lon="6.95336">
        <ele>2580.2766113281</ele>
        <time>2013-12-07T11:19:43Z</time>
      </trkpt>
      <trkpt lat="44.14577" lon="6.95338">
        <ele>2580.4223632812</ele>
        <time>2013-12-07T11:19:53Z</time>
      </trkpt>
      <trkpt lat="44.14582" lon="6.95338">
        <ele>2580.4770507812</ele>
        <time>2013-12-07T11:20:01Z</time>
      </trkpt>
      <trkpt lat="44.14588" lon="6.95339">
        <ele>2580.6787109375</ele>
        <time>2013-12-07T11:20:10Z</time>
      </trkpt>
      <trkpt lat="44.14593" lon="6.95339">
        <ele>2580.7517089844</ele>
        <time>2013-12-07T11:20:18Z</time>
      </trkpt>
      <trkpt lat="44.14599" lon="6.9534">
        <ele>2580.9406738281</ele>
        <time>2013-12-07T11:20:26Z</time>
      </trkpt>
      <trkpt lat="44.146" lon="6.9534">
        <ele>2581.0166015625</ele>
        <time>2013-12-07T11:20:29Z</time>
      </trkpt>
      <trkpt lat="44.14606" lon="6.95342">
        <ele>2581.4731445312</ele>
        <time>2013-12-07T11:20:37Z</time>
      </trkpt>
      <trkpt lat="44.14611" lon="6.95343">
        <ele>2581.6645507812</ele>
        <time>2013-12-07T11:20:45Z</time>
      </trkpt>
      <trkpt lat="44.14615" lon="6.95343">
        <ele>2582.2614746094</ele>
        <time>2013-12-07T11:20:53Z</time>
      </trkpt>
      <trkpt lat="44.14618" lon="6.95342">
        <ele>2582.564453125</ele>
        <time>2013-12-07T11:21:00Z</time>
      </trkpt>
      <trkpt lat="44.14619" lon="6.95343">
        <ele>2582.9689941406</ele>
        <time>2013-12-07T11:21:06Z</time>
      </trkpt>
      <trkpt lat="44.1462" lon="6.95343">
        <ele>2583.1762695312</ele>
        <time>2013-12-07T11:21:17Z</time>
      </trkpt>
      <trkpt lat="44.14626" lon="6.95344">
        <ele>2584.3503417969</ele>
        <time>2013-12-07T11:21:26Z</time>
      </trkpt>
      <trkpt lat="44.14629" lon="6.95344">
        <ele>2584.849609375</ele>
        <time>2013-12-07T11:21:30Z</time>
      </trkpt>
      <trkpt lat="44.14634" lon="6.95342">
        <ele>2584.6967773438</ele>
        <time>2013-12-07T11:21:38Z</time>
      </trkpt>
      <trkpt lat="44.14634" lon="6.95337">
        <ele>2581.9670410156</ele>
        <time>2013-12-07T11:22:25Z</time>
      </trkpt>
      <trkpt lat="44.14634" lon="6.95331">
        <ele>2579.1584472656</ele>
        <time>2013-12-07T11:22:48Z</time>
      </trkpt>
      <trkpt lat="44.14636" lon="6.95333">
        <ele>2579.9819335938</ele>
        <time>2013-12-07T11:25:58Z</time>
      </trkpt>
      <trkpt lat="44.14639" lon="6.95335">
        <ele>2581.072265625</ele>
        <time>2013-12-07T11:26:47Z</time>
      </trkpt>
      <trkpt lat="44.14645" lon="6.95337">
        <ele>2582.2106933594</ele>
        <time>2013-12-07T11:26:56Z</time>
      </trkpt>
      <trkpt lat="44.14651" lon="6.95339">
        <ele>2583.5170898438</ele>
        <time>2013-12-07T11:27:04Z</time>
      </trkpt>
      <trkpt lat="44.14655" lon="6.9534">
        <ele>2584.5791015625</ele>
        <time>2013-12-07T11:27:09Z</time>
      </trkpt>
      <trkpt lat="44.1466" lon="6.95342">
        <ele>2585.8447265625</ele>
        <time>2013-12-07T11:27:14Z</time>
      </trkpt>
      <trkpt lat="44.14667" lon="6.95347">
        <ele>2590.2028808594</ele>
        <time>2013-12-07T11:27:22Z</time>
      </trkpt>
      <trkpt lat="44.14673" lon="6.95349">
        <ele>2591.6264648438</ele>
        <time>2013-12-07T11:27:30Z</time>
      </trkpt>
      <trkpt lat="44.14677" lon="6.95351">
        <ele>2592.96875</ele>
        <time>2013-12-07T11:27:39Z</time>
      </trkpt>
      <trkpt lat="44.14677" lon="6.95352">
        <ele>2593.5498046875</ele>
        <time>2013-12-07T11:27:42Z</time>
      </trkpt>
      <trkpt lat="44.14679" lon="6.95354">
        <ele>2595.1687011719</ele>
        <time>2013-12-07T11:27:50Z</time>
      </trkpt>
      <trkpt lat="44.14685" lon="6.95358">
        <ele>2597.9018554688</ele>
        <time>2013-12-07T11:28:35Z</time>
      </trkpt>
      <trkpt lat="44.14693" lon="6.95362">
        <ele>2600.0825195312</ele>
        <time>2013-12-07T11:28:40Z</time>
      </trkpt>
      <trkpt lat="44.14698" lon="6.95358">
        <ele>2597.9143066406</ele>
        <time>2013-12-07T11:28:44Z</time>
      </trkpt>
      <trkpt lat="44.14709" lon="6.95358">
        <ele>2598.8515625</ele>
        <time>2013-12-07T11:28:52Z</time>
      </trkpt>
      <trkpt lat="44.14717" lon="6.95358">
        <ele>2599.4946289062</ele>
        <time>2013-12-07T11:29:00Z</time>
      </trkpt>
      <trkpt lat="44.14722" lon="6.95357">
        <ele>2599.6198730469</ele>
        <time>2013-12-07T11:29:08Z</time>
      </trkpt>
      <trkpt lat="44.14725" lon="6.95358">
        <ele>2600.2397460938</ele>
        <time>2013-12-07T11:29:13Z</time>
      </trkpt>
      <trkpt lat="44.14727" lon="6.95358">
        <ele>2600.5327148438</ele>
        <time>2013-12-07T11:29:15Z</time>
      </trkpt>
      <trkpt lat="44.14733" lon="6.9536">
        <ele>2602.3708496094</ele>
        <time>2013-12-07T11:29:23Z</time>
      </trkpt>
      <trkpt lat="44.14732" lon="6.95363">
        <ele>2604.1684570312</ele>
        <time>2013-12-07T11:29:28Z</time>
      </trkpt>
      <trkpt lat="44.14734" lon="6.95368">
        <ele>2606.7883300781</ele>
        <time>2013-12-07T11:29:35Z</time>
      </trkpt>
      <trkpt lat="44.14734" lon="6.95368">
        <ele>2606.9799804688</ele>
        <time>2013-12-07T11:29:36Z</time>
      </trkpt>
      <trkpt lat="44.14736" lon="6.9537">
        <ele>2607.9897460938</ele>
        <time>2013-12-07T11:29:38Z</time>
      </trkpt>
      <trkpt lat="44.14735" lon="6.95378">
        <ele>2611.8569335938</ele>
        <time>2013-12-07T11:29:46Z</time>
      </trkpt>
      <trkpt lat="44.14737" lon="6.95382">
        <ele>2614.0048828125</ele>
        <time>2013-12-07T11:29:53Z</time>
      </trkpt>
      <trkpt lat="44.1474" lon="6.95382">
        <ele>2614.9270019531</ele>
        <time>2013-12-07T11:30:01Z</time>
      </trkpt>
      <trkpt lat="44.14742" lon="6.95383">
        <ele>2615.4367675781</ele>
        <time>2013-12-07T11:30:05Z</time>
      </trkpt>
      <trkpt lat="44.14748" lon="6.95379">
        <ele>2614.5737304688</ele>
        <time>2013-12-07T11:30:15Z</time>
      </trkpt>
      <trkpt lat="44.14754" lon="6.9538">
        <ele>2615.3894042969</ele>
        <time>2013-12-07T11:30:26Z</time>
      </trkpt>
      <trkpt lat="44.14754" lon="6.95383">
        <ele>2616.8017578125</ele>
        <time>2013-12-07T11:30:35Z</time>
      </trkpt>
      <trkpt lat="44.14753" lon="6.95389">
        <ele>2620.0688476562</ele>
        <time>2013-12-07T11:30:45Z</time>
      </trkpt>
      <trkpt lat="44.14756" lon="6.95391">
        <ele>2620.3186035156</ele>
        <time>2013-12-07T11:30:51Z</time>
      </trkpt>
      <trkpt lat="44.1476" lon="6.95391">
        <ele>2620.4484863281</ele>
        <time>2013-12-07T11:30:58Z</time>
      </trkpt>
      <trkpt lat="44.14763" lon="6.95394">
        <ele>2621.0974121094</ele>
        <time>2013-12-07T11:31:06Z</time>
      </trkpt>
      <trkpt lat="44.14767" lon="6.95395">
        <ele>2621.51953125</ele>
        <time>2013-12-07T11:31:11Z</time>
      </trkpt>
      <trkpt lat="44.14775" lon="6.95396">
        <ele>2622.0378417969</ele>
        <time>2013-12-07T11:31:21Z</time>
      </trkpt>
      <trkpt lat="44.14778" lon="6.95396">
        <ele>2622.4399414062</ele>
        <time>2013-12-07T11:31:28Z</time>
      </trkpt>
      <trkpt lat="44.14778" lon="6.95399">
        <ele>2623.1501464844</ele>
        <time>2013-12-07T11:31:31Z</time>
      </trkpt>
      <trkpt lat="44.14777" lon="6.95402">
        <ele>2624.1157226562</ele>
        <time>2013-12-07T11:31:34Z</time>
      </trkpt>
      <trkpt lat="44.14782" lon="6.95407">
        <ele>2626.4279785156</ele>
        <time>2013-12-07T11:31:43Z</time>
      </trkpt>
      <trkpt lat="44.14785" lon="6.95411">
        <ele>2628.4375</ele>
        <time>2013-12-07T11:31:51Z</time>
      </trkpt>
      <trkpt lat="44.14789" lon="6.95418">
        <ele>2631.3957519531</ele>
        <time>2013-12-07T11:31:59Z</time>
      </trkpt>
      <trkpt lat="44.14792" lon="6.95422">
        <ele>2633.0317382812</ele>
        <time>2013-12-07T11:32:04Z</time>
      </trkpt>
      <trkpt lat="44.14799" lon="6.95429">
        <ele>2635.7150878906</ele>
        <time>2013-12-07T11:32:15Z</time>
      </trkpt>
      <trkpt lat="44.14803" lon="6.95435">
        <ele>2637.5668945312</ele>
        <time>2013-12-07T11:32:23Z</time>
      </trkpt>
      <trkpt lat="44.14807" lon="6.95445">
        <ele>2640.1396484375</ele>
        <time>2013-12-07T11:32:31Z</time>
      </trkpt>
      <trkpt lat="44.14811" lon="6.95457">
        <ele>2641.8015136719</ele>
        <time>2013-12-07T11:32:40Z</time>
      </trkpt>
      <trkpt lat="44.14812" lon="6.95468">
        <ele>2643.296875</ele>
        <time>2013-12-07T11:32:48Z</time>
      </trkpt>
      <trkpt lat="44.14816" lon="6.95482">
        <ele>2645.3781738281</ele>
        <time>2013-12-07T11:32:58Z</time>
      </trkpt>
      <trkpt lat="44.14817" lon="6.95492">
        <ele>2646.8916015625</ele>
        <time>2013-12-07T11:33:04Z</time>
      </trkpt>
      <trkpt lat="44.14819" lon="6.95503">
        <ele>2648.1630859375</ele>
        <time>2013-12-07T11:33:11Z</time>
      </trkpt>
      <trkpt lat="44.14823" lon="6.95518">
        <ele>2648.9118652344</ele>
        <time>2013-12-07T11:33:22Z</time>
      </trkpt>
      <trkpt lat="44.14825" lon="6.95525">
        <ele>2649.7038574219</ele>
        <time>2013-12-07T11:33:29Z</time>
      </trkpt>
      <trkpt lat="44.14828" lon="6.9553">
        <ele>2650.2138671875</ele>
        <time>2013-12-07T11:33:34Z</time>
      </trkpt>
      <trkpt lat="44.14833" lon="6.95541">
        <ele>2650.4375</ele>
        <time>2013-12-07T11:33:43Z</time>
      </trkpt>
      <trkpt lat="44.14838" lon="6.9555">
        <ele>2650.4870605469</ele>
        <time>2013-12-07T11:33:52Z</time>
      </trkpt>
      <trkpt lat="44.14845" lon="6.95561">
        <ele>2650.7685546875</ele>
        <time>2013-12-07T11:34:00Z</time>
      </trkpt>
      <trkpt lat="44.14853" lon="6.95571">
        <ele>2652.0888671875</ele>
        <time>2013-12-07T11:34:08Z</time>
      </trkpt>
      <trkpt lat="44.14859" lon="6.9558">
        <ele>2653.5834960938</ele>
        <time>2013-12-07T11:34:15Z</time>
      </trkpt>
      <trkpt lat="44.14867" lon="6.95593">
        <ele>2653.8171386719</ele>
        <time>2013-12-07T11:34:24Z</time>
      </trkpt>
      <trkpt lat="44.1487" lon="6.95605">
        <ele>2653.6330566406</ele>
        <time>2013-12-07T11:34:31Z</time>
      </trkpt>
      <trkpt lat="44.14875" lon="6.95623">
        <ele>2653.7956542969</ele>
        <time>2013-12-07T11:34:41Z</time>
      </trkpt>
      <trkpt lat="44.14878" lon="6.95636">
        <ele>2654.2060546875</ele>
        <time>2013-12-07T11:34:49Z</time>
      </trkpt>
      <trkpt lat="44.14881" lon="6.95649">
        <ele>2655.1608886719</ele>
        <time>2013-12-07T11:34:58Z</time>
      </trkpt>
      <trkpt lat="44.14879" lon="6.95661">
        <ele>2655.12890625</ele>
        <time>2013-12-07T11:35:07Z</time>
      </trkpt>
      <trkpt lat="44.14877" lon="6.95673">
        <ele>2655.083984375</ele>
        <time>2013-12-07T11:35:15Z</time>
      </trkpt>
      <trkpt lat="44.14874" lon="6.95682">
        <ele>2655.1760253906</ele>
        <time>2013-12-07T11:35:23Z</time>
      </trkpt>
      <trkpt lat="44.14871" lon="6.95694">
        <ele>2655.4045410156</ele>
        <time>2013-12-07T11:35:33Z</time>
      </trkpt>
      <trkpt lat="44.1487" lon="6.95701">
        <ele>2655.6159667969</ele>
        <time>2013-12-07T11:35:41Z</time>
      </trkpt>
      <trkpt lat="44.14867" lon="6.95707">
        <ele>2655.5302734375</ele>
        <time>2013-12-07T11:35:49Z</time>
      </trkpt>
      <trkpt lat="44.14868" lon="6.95708">
        <ele>2655.7067871094</ele>
        <time>2013-12-07T11:35:59Z</time>
      </trkpt>
      <trkpt lat="44.14874" lon="6.9571">
        <ele>2656.4516601562</ele>
        <time>2013-12-07T11:36:06Z</time>
      </trkpt>
      <trkpt lat="44.1488" lon="6.9571">
        <ele>2657.03515625</ele>
        <time>2013-12-07T11:36:11Z</time>
      </trkpt>
      <trkpt lat="44.14882" lon="6.95712">
        <ele>2657.3041992188</ele>
        <time>2013-12-07T11:36:14Z</time>
      </trkpt>
      <trkpt lat="44.14887" lon="6.95718">
        <ele>2657.833984375</ele>
        <time>2013-12-07T11:36:22Z</time>
      </trkpt>
      <trkpt lat="44.14891" lon="6.95723">
        <ele>2657.9675292969</ele>
        <time>2013-12-07T11:36:30Z</time>
      </trkpt>
      <trkpt lat="44.14897" lon="6.9573">
        <ele>2657.9848632812</ele>
        <time>2013-12-07T11:36:39Z</time>
      </trkpt>
      <trkpt lat="44.14901" lon="6.95737">
        <ele>2658.0947265625</ele>
        <time>2013-12-07T11:36:48Z</time>
      </trkpt>
      <trkpt lat="44.14907" lon="6.95744">
        <ele>2658.115234375</ele>
        <time>2013-12-07T11:36:57Z</time>
      </trkpt>
      <trkpt lat="44.14911" lon="6.9575">
        <ele>2658.1940917969</ele>
        <time>2013-12-07T11:37:06Z</time>
      </trkpt>
      <trkpt lat="44.14915" lon="6.95755">
        <ele>2658.2170410156</ele>
        <time>2013-12-07T11:37:13Z</time>
      </trkpt>
      <trkpt lat="44.14921" lon="6.9576">
        <ele>2657.7429199219</ele>
        <time>2013-12-07T11:37:22Z</time>
      </trkpt>
      <trkpt lat="44.14927" lon="6.95768">
        <ele>2657.5046386719</ele>
        <time>2013-12-07T11:37:32Z</time>
      </trkpt>
      <trkpt lat="44.14931" lon="6.95773">
        <ele>2657.5061035156</ele>
        <time>2013-12-07T11:37:40Z</time>
      </trkpt>
      <trkpt lat="44.14937" lon="6.9578">
        <ele>2658.0668945312</ele>
        <time>2013-12-07T11:37:50Z</time>
      </trkpt>
      <trkpt lat="44.14943" lon="6.95784">
        <ele>2658.4770507812</ele>
        <time>2013-12-07T11:37:58Z</time>
      </trkpt>
      <trkpt lat="44.14945" lon="6.95786">
        <ele>2658.8049316406</ele>
        <time>2013-12-07T11:38:01Z</time>
      </trkpt>
      <trkpt lat="44.1495" lon="6.95795">
        <ele>2660.1477050781</ele>
        <time>2013-12-07T11:38:11Z</time>
      </trkpt>
      <trkpt lat="44.14958" lon="6.95799">
        <ele>2660.2385253906</ele>
        <time>2013-12-07T11:38:21Z</time>
      </trkpt>
      <trkpt lat="44.1496" lon="6.95805">
        <ele>2661.2370605469</ele>
        <time>2013-12-07T11:38:30Z</time>
      </trkpt>
      <trkpt lat="44.14957" lon="6.95808">
        <ele>2662.6201171875</ele>
        <time>2013-12-07T11:38:37Z</time>
      </trkpt>
      <trkpt lat="44.14954" lon="6.95809">
        <ele>2662.994140625</ele>
        <time>2013-12-07T11:38:41Z</time>
      </trkpt>
      <trkpt lat="44.14945" lon="6.95809">
        <ele>2664.0095214844</ele>
        <time>2013-12-07T11:38:52Z</time>
      </trkpt>
      <trkpt lat="44.14944" lon="6.95809">
        <ele>2664.1293945312</ele>
        <time>2013-12-07T11:38:53Z</time>
      </trkpt>
      <trkpt lat="44.14942" lon="6.9581">
        <ele>2664.6325683594</ele>
        <time>2013-12-07T11:38:56Z</time>
      </trkpt>
      <trkpt lat="44.14934" lon="6.95809">
        <ele>2664.5112304688</ele>
        <time>2013-12-07T11:39:06Z</time>
      </trkpt>
      <trkpt lat="44.14933" lon="6.95809">
        <ele>2664.6555175781</ele>
        <time>2013-12-07T11:39:07Z</time>
      </trkpt>
      <trkpt lat="44.14927" lon="6.9581">
        <ele>2665.3674316406</ele>
        <time>2013-12-07T11:39:16Z</time>
      </trkpt>
      <trkpt lat="44.14926" lon="6.9581">
        <ele>2665.3642578125</ele>
        <time>2013-12-07T11:39:17Z</time>
      </trkpt>
      <trkpt lat="44.1492" lon="6.95811">
        <ele>2665.9934082031</ele>
        <time>2013-12-07T11:39:26Z</time>
      </trkpt>
      <trkpt lat="44.14914" lon="6.95813">
        <ele>2667.466796875</ele>
        <time>2013-12-07T11:39:34Z</time>
      </trkpt>
      <trkpt lat="44.14908" lon="6.95815">
        <ele>2668.7177734375</ele>
        <time>2013-12-07T11:39:42Z</time>
      </trkpt>
      <trkpt lat="44.14907" lon="6.95814">
        <ele>2668.5002441406</ele>
        <time>2013-12-07T11:39:43Z</time>
      </trkpt>
      <trkpt lat="44.14902" lon="6.95814">
        <ele>2668.9104003906</ele>
        <time>2013-12-07T11:39:50Z</time>
      </trkpt>
      <trkpt lat="44.14895" lon="6.95817">
        <ele>2670.9709472656</ele>
        <time>2013-12-07T11:39:58Z</time>
      </trkpt>
      <trkpt lat="44.14888" lon="6.95821">
        <ele>2673.5727539062</ele>
        <time>2013-12-07T11:40:07Z</time>
      </trkpt>
      <trkpt lat="44.14887" lon="6.95824">
        <ele>2675.3942871094</ele>
        <time>2013-12-07T11:40:11Z</time>
      </trkpt>
      <trkpt lat="44.1489" lon="6.95829">
        <ele>2677.4680175781</ele>
        <time>2013-12-07T11:40:19Z</time>
      </trkpt>
      <trkpt lat="44.14891" lon="6.95831">
        <ele>2678.4367675781</ele>
        <time>2013-12-07T11:40:22Z</time>
      </trkpt>
      <trkpt lat="44.14896" lon="6.95838">
        <ele>2679.59375</ele>
        <time>2013-12-07T11:40:32Z</time>
      </trkpt>
      <trkpt lat="44.14902" lon="6.95842">
        <ele>2679.4926757812</ele>
        <time>2013-12-07T11:40:41Z</time>
      </trkpt>
      <trkpt lat="44.14902" lon="6.95845">
        <ele>2679.9602050781</ele>
        <time>2013-12-07T11:40:45Z</time>
      </trkpt>
      <trkpt lat="44.14907" lon="6.95854">
        <ele>2681.3039550781</ele>
        <time>2013-12-07T11:40:54Z</time>
      </trkpt>
      <trkpt lat="44.14912" lon="6.95858">
        <ele>2682.1640625</ele>
        <time>2013-12-07T11:41:01Z</time>
      </trkpt>
      <trkpt lat="44.14915" lon="6.95861">
        <ele>2682.986328125</ele>
        <time>2013-12-07T11:41:07Z</time>
      </trkpt>
      <trkpt lat="44.14917" lon="6.95867">
        <ele>2684.5068359375</ele>
        <time>2013-12-07T11:41:16Z</time>
      </trkpt>
      <trkpt lat="44.14919" lon="6.95871">
        <ele>2685.474609375</ele>
        <time>2013-12-07T11:41:23Z</time>
      </trkpt>
      <trkpt lat="44.14922" lon="6.95879">
        <ele>2687.2563476562</ele>
        <time>2013-12-07T11:41:32Z</time>
      </trkpt>
      <trkpt lat="44.14923" lon="6.95881">
        <ele>2687.984375</ele>
        <time>2013-12-07T11:41:40Z</time>
      </trkpt>
      <trkpt lat="44.14927" lon="6.95886">
        <ele>2689.1960449219</ele>
        <time>2013-12-07T11:42:02Z</time>
      </trkpt>
      <trkpt lat="44.14932" lon="6.95892">
        <ele>2690.8466796875</ele>
        <time>2013-12-07T11:42:12Z</time>
      </trkpt>
      <trkpt lat="44.14934" lon="6.95894">
        <ele>2691.2817382812</ele>
        <time>2013-12-07T11:42:15Z</time>
      </trkpt>
      <trkpt lat="44.14938" lon="6.95895">
        <ele>2691.7556152344</ele>
        <time>2013-12-07T11:42:21Z</time>
      </trkpt>
      <trkpt lat="44.14938" lon="6.95901">
        <ele>2693.4040527344</ele>
        <time>2013-12-07T11:42:28Z</time>
      </trkpt>
      <trkpt lat="44.14939" lon="6.95902">
        <ele>2693.6899414062</ele>
        <time>2013-12-07T11:42:29Z</time>
      </trkpt>
      <trkpt lat="44.14943" lon="6.95909">
        <ele>2695.8483886719</ele>
        <time>2013-12-07T11:42:38Z</time>
      </trkpt>
      <trkpt lat="44.14949" lon="6.95912">
        <ele>2695.3735351562</ele>
        <time>2013-12-07T11:42:46Z</time>
      </trkpt>
      <trkpt lat="44.14951" lon="6.95913">
        <ele>2695.3728027344</ele>
        <time>2013-12-07T11:42:49Z</time>
      </trkpt>
      <trkpt lat="44.14952" lon="6.95917">
        <ele>2695.9836425781</ele>
        <time>2013-12-07T11:42:56Z</time>
      </trkpt>
      <trkpt lat="44.14953" lon="6.95918">
        <ele>2696.0776367188</ele>
        <time>2013-12-07T11:42:57Z</time>
      </trkpt>
      <trkpt lat="44.14956" lon="6.95924">
        <ele>2696.5947265625</ele>
        <time>2013-12-07T11:43:03Z</time>
      </trkpt>
      <trkpt lat="44.14959" lon="6.95934">
        <ele>2698.1101074219</ele>
        <time>2013-12-07T11:43:11Z</time>
      </trkpt>
      <trkpt lat="44.14962" lon="6.95943">
        <ele>2700.1198730469</ele>
        <time>2013-12-07T11:43:20Z</time>
      </trkpt>
      <trkpt lat="44.14966" lon="6.95957">
        <ele>2701.4912109375</ele>
        <time>2013-12-07T11:43:33Z</time>
      </trkpt>
      <trkpt lat="44.14968" lon="6.95969">
        <ele>2702.6489257812</ele>
        <time>2013-12-07T11:43:43Z</time>
      </trkpt>
      <trkpt lat="44.14971" lon="6.95978">
        <ele>2703.6328125</ele>
        <time>2013-12-07T11:43:51Z</time>
      </trkpt>
      <trkpt lat="44.14972" lon="6.95982">
        <ele>2704.0678710938</ele>
        <time>2013-12-07T11:43:54Z</time>
      </trkpt>
      <trkpt lat="44.14974" lon="6.95993">
        <ele>2704.4946289062</ele>
        <time>2013-12-07T11:44:03Z</time>
      </trkpt>
      <trkpt lat="44.14977" lon="6.96003">
        <ele>2704.4965820312</ele>
        <time>2013-12-07T11:44:12Z</time>
      </trkpt>
      <trkpt lat="44.1498" lon="6.96015">
        <ele>2704.9682617188</ele>
        <time>2013-12-07T11:44:22Z</time>
      </trkpt>
      <trkpt lat="44.14983" lon="6.96027">
        <ele>2705.2927246094</ele>
        <time>2013-12-07T11:44:31Z</time>
      </trkpt>
      <trkpt lat="44.14986" lon="6.96039">
        <ele>2705.7697753906</ele>
        <time>2013-12-07T11:44:40Z</time>
      </trkpt>
      <trkpt lat="44.14988" lon="6.96052">
        <ele>2706.5766601562</ele>
        <time>2013-12-07T11:44:49Z</time>
      </trkpt>
      <trkpt lat="44.14989" lon="6.96065">
        <ele>2707.8801269531</ele>
        <time>2013-12-07T11:44:58Z</time>
      </trkpt>
      <trkpt lat="44.14988" lon="6.96078">
        <ele>2710.0859375</ele>
        <time>2013-12-07T11:45:07Z</time>
      </trkpt>
      <trkpt lat="44.14986" lon="6.96089">
        <ele>2712.322265625</ele>
        <time>2013-12-07T11:45:16Z</time>
      </trkpt>
      <trkpt lat="44.14984" lon="6.96099">
        <ele>2714.4113769531</ele>
        <time>2013-12-07T11:45:25Z</time>
      </trkpt>
      <trkpt lat="44.14981" lon="6.96109">
        <ele>2716.4323730469</ele>
        <time>2013-12-07T11:45:34Z</time>
      </trkpt>
      <trkpt lat="44.14979" lon="6.96118">
        <ele>2717.7807617188</ele>
        <time>2013-12-07T11:45:42Z</time>
      </trkpt>
      <trkpt lat="44.14978" lon="6.96125">
        <ele>2718.4982910156</ele>
        <time>2013-12-07T11:45:48Z</time>
      </trkpt>
      <trkpt lat="44.14975" lon="6.96133">
        <ele>2719.4797363281</ele>
        <time>2013-12-07T11:45:56Z</time>
      </trkpt>
      <trkpt lat="44.14973" lon="6.96142">
        <ele>2719.9174804688</ele>
        <time>2013-12-07T11:46:02Z</time>
      </trkpt>
      <trkpt lat="44.14968" lon="6.96147">
        <ele>2718.9333496094</ele>
        <time>2013-12-07T11:46:11Z</time>
      </trkpt>
      <trkpt lat="44.14969" lon="6.96151">
        <ele>2719.2280273438</ele>
        <time>2013-12-07T11:46:18Z</time>
      </trkpt>
      <trkpt lat="44.1497" lon="6.96153">
        <ele>2719.5202636719</ele>
        <time>2013-12-07T11:46:22Z</time>
      </trkpt>
      <trkpt lat="44.14973" lon="6.96153">
        <ele>2719.9541015625</ele>
        <time>2013-12-07T11:46:30Z</time>
      </trkpt>
      <trkpt lat="44.14978" lon="6.96154">
        <ele>2719.7231445312</ele>
        <time>2013-12-07T11:46:34Z</time>
      </trkpt>
      <trkpt lat="44.14981" lon="6.96162">
        <ele>2719.8425292969</ele>
        <time>2013-12-07T11:46:40Z</time>
      </trkpt>
      <trkpt lat="44.1498" lon="6.96165">
        <ele>2719.9382324219</ele>
        <time>2013-12-07T11:46:45Z</time>
      </trkpt>
      <trkpt lat="44.14973" lon="6.96162">
        <ele>2719.9909667969</ele>
        <time>2013-12-07T11:46:53Z</time>
      </trkpt>
      <trkpt lat="44.1497" lon="6.96159">
        <ele>2719.6235351562</ele>
        <time>2013-12-07T11:46:58Z</time>
      </trkpt>
      <trkpt lat="44.1497" lon="6.96155">
        <ele>2719.5620117188</ele>
        <time>2013-12-07T11:47:05Z</time>
      </trkpt>
      <trkpt lat="44.14971" lon="6.96155">
        <ele>2719.7087402344</ele>
        <time>2013-12-07T11:47:22Z</time>
      </trkpt>
      <trkpt lat="44.14971" lon="6.9614">
        <ele>2719.5502929688</ele>
        <time>2013-12-07T12:02:16Z</time>
      </trkpt>
      <trkpt lat="44.14973" lon="6.96135">
        <ele>2719.7553710938</ele>
        <time>2013-12-07T12:02:32Z</time>
      </trkpt>
      <trkpt lat="44.14973" lon="6.96135">
        <ele>2719.7399902344</ele>
        <time>2013-12-07T12:03:30Z</time>
      </trkpt>
      <trkpt lat="44.14971" lon="6.96137">
        <ele>2719.595703125</ele>
        <time>2013-12-07T12:03:56Z</time>
      </trkpt>
      <trkpt lat="44.14969" lon="6.96137">
        <ele>2718.9528808594</ele>
        <time>2013-12-07T12:04:22Z</time>
      </trkpt>
      <trkpt lat="44.14967" lon="6.96135">
        <ele>2718.0715332031</ele>
        <time>2013-12-07T12:04:32Z</time>
      </trkpt>
      <trkpt lat="44.14966" lon="6.96135">
        <ele>2717.7897949219</ele>
        <time>2013-12-07T12:04:41Z</time>
      </trkpt>
      <trkpt lat="44.14968" lon="6.96134">
        <ele>2718.5581054688</ele>
        <time>2013-12-07T12:05:02Z</time>
      </trkpt>
      <trkpt lat="44.14971" lon="6.96137">
        <ele>2719.5688476562</ele>
        <time>2013-12-07T12:05:10Z</time>
      </trkpt>
      <trkpt lat="44.14972" lon="6.96138">
        <ele>2719.8774414062</ele>
        <time>2013-12-07T12:05:16Z</time>
      </trkpt>
      <trkpt lat="44.1497" lon="6.96139">
        <ele>2719.166015625</ele>
        <time>2013-12-07T12:05:29Z</time>
      </trkpt>
      <trkpt lat="44.14966" lon="6.96138">
        <ele>2717.8483886719</ele>
        <time>2013-12-07T12:06:35Z</time>
      </trkpt>
      <trkpt lat="44.14967" lon="6.96138">
        <ele>2718.2570800781</ele>
        <time>2013-12-07T12:06:41Z</time>
      </trkpt>
      <trkpt lat="44.14967" lon="6.96138">
        <ele>2718.2734375</ele>
        <time>2013-12-07T12:06:49Z</time>
      </trkpt>
      <trkpt lat="44.14966" lon="6.9614">
        <ele>2717.9812011719</ele>
        <time>2013-12-07T12:07:03Z</time>
      </trkpt>
      <trkpt lat="44.14963" lon="6.96137">
        <ele>2716.7788085938</ele>
        <time>2013-12-07T12:07:25Z</time>
      </trkpt>
      <trkpt lat="44.14964" lon="6.96137">
        <ele>2717.0522460938</ele>
        <time>2013-12-07T12:08:09Z</time>
      </trkpt>
      <trkpt lat="44.14962" lon="6.96136">
        <ele>2716.3725585938</ele>
        <time>2013-12-07T12:08:39Z</time>
      </trkpt>
      <trkpt lat="44.14959" lon="6.9613">
        <ele>2714.9047851562</ele>
        <time>2013-12-07T12:08:52Z</time>
      </trkpt>
      <trkpt lat="44.14961" lon="6.96131">
        <ele>2715.791015625</ele>
        <time>2013-12-07T12:09:02Z</time>
      </trkpt>
      <trkpt lat="44.14957" lon="6.96131">
        <ele>2714.5083007812</ele>
        <time>2013-12-07T12:09:13Z</time>
      </trkpt>
      <trkpt lat="44.14959" lon="6.96134">
        <ele>2715.0991210938</ele>
        <time>2013-12-07T12:09:21Z</time>
      </trkpt>
      <trkpt lat="44.14959" lon="6.96133">
        <ele>2715.3540039062</ele>
        <time>2013-12-07T12:09:27Z</time>
      </trkpt>
      <trkpt lat="44.1496" lon="6.96134">
        <ele>2715.8269042969</ele>
        <time>2013-12-07T12:09:34Z</time>
      </trkpt>
      <trkpt lat="44.14963" lon="6.96132">
        <ele>2716.4665527344</ele>
        <time>2013-12-07T12:09:43Z</time>
      </trkpt>
      <trkpt lat="44.14962" lon="6.96138">
        <ele>2716.5864257812</ele>
        <time>2013-12-07T12:10:03Z</time>
      </trkpt>
      <trkpt lat="44.14963" lon="6.96136">
        <ele>2716.861328125</ele>
        <time>2013-12-07T12:10:15Z</time>
      </trkpt>
      <trkpt lat="44.14965" lon="6.96139">
        <ele>2717.8232421875</ele>
        <time>2013-12-07T12:10:25Z</time>
      </trkpt>
      <trkpt lat="44.14967" lon="6.96142">
        <ele>2718.4279785156</ele>
        <time>2013-12-07T12:10:32Z</time>
      </trkpt>
      <trkpt lat="44.14969" lon="6.96141">
        <ele>2718.974609375</ele>
        <time>2013-12-07T12:10:42Z</time>
      </trkpt>
      <trkpt lat="44.14965" lon="6.96144">
        <ele>2717.8303222656</ele>
        <time>2013-12-07T12:11:10Z</time>
      </trkpt>
      <trkpt lat="44.14966" lon="6.96145">
        <ele>2718.2495117188</ele>
        <time>2013-12-07T12:11:19Z</time>
      </trkpt>
      <trkpt lat="44.14969" lon="6.9615">
        <ele>2719.2971191406</ele>
        <time>2013-12-07T12:11:36Z</time>
      </trkpt>
      <trkpt lat="44.1497" lon="6.96151">
        <ele>2719.5776367188</ele>
        <time>2013-12-07T12:11:44Z</time>
      </trkpt>
      <trkpt lat="44.1497" lon="6.96152">
        <ele>2719.6005859375</ele>
        <time>2013-12-07T12:11:54Z</time>
      </trkpt>
      <trkpt lat="44.14968" lon="6.96153">
        <ele>2719.21484375</ele>
        <time>2013-12-07T12:12:03Z</time>
      </trkpt>
      <trkpt lat="44.14971" lon="6.9615">
        <ele>2719.6574707031</ele>
        <time>2013-12-07T12:12:44Z</time>
      </trkpt>
      <trkpt lat="44.14969" lon="6.96149">
        <ele>2719.2741699219</ele>
        <time>2013-12-07T12:12:56Z</time>
      </trkpt>
      <trkpt lat="44.14967" lon="6.96148">
        <ele>2718.5815429688</ele>
        <time>2013-12-07T12:13:08Z</time>
      </trkpt>
      <trkpt lat="44.1497" lon="6.96146">
        <ele>2719.3049316406</ele>
        <time>2013-12-07T12:13:15Z</time>
      </trkpt>
      <trkpt lat="44.14972" lon="6.96148">
        <ele>2719.8256835938</ele>
        <time>2013-12-07T12:13:20Z</time>
      </trkpt>
      <trkpt lat="44.14965" lon="6.96141">
        <ele>2717.9338378906</ele>
        <time>2013-12-07T12:13:35Z</time>
      </trkpt>
      <trkpt lat="44.14965" lon="6.96147">
        <ele>2718.255859375</ele>
        <time>2013-12-07T12:13:51Z</time>
      </trkpt>
      <trkpt lat="44.14958" lon="6.96157">
        <ele>2717.3754882812</ele>
        <time>2013-12-07T12:14:22Z</time>
      </trkpt>
      <trkpt lat="44.14957" lon="6.96157">
        <ele>2717.2768554688</ele>
        <time>2013-12-07T12:14:32Z</time>
      </trkpt>
      <trkpt lat="44.14957" lon="6.96155">
        <ele>2716.9343261719</ele>
        <time>2013-12-07T12:14:44Z</time>
      </trkpt>
      <trkpt lat="44.14958" lon="6.96157">
        <ele>2717.4172363281</ele>
        <time>2013-12-07T12:14:57Z</time>
      </trkpt>
      <trkpt lat="44.14958" lon="6.9616">
        <ele>2717.7658691406</ele>
        <time>2013-12-07T12:15:03Z</time>
      </trkpt>
      <trkpt lat="44.14958" lon="6.96159">
        <ele>2717.6252441406</ele>
        <time>2013-12-07T12:15:09Z</time>
      </trkpt>
      <trkpt lat="44.14959" lon="6.96158">
        <ele>2717.5632324219</ele>
        <time>2013-12-07T12:15:13Z</time>
      </trkpt>
      <trkpt lat="44.1496" lon="6.96155">
        <ele>2717.5173339844</ele>
        <time>2013-12-07T12:15:20Z</time>
      </trkpt>
      <trkpt lat="44.14959" lon="6.96158">
        <ele>2717.5532226562</ele>
        <time>2013-12-07T12:15:26Z</time>
      </trkpt>
      <trkpt lat="44.14962" lon="6.96153">
        <ele>2717.861328125</ele>
        <time>2013-12-07T12:15:42Z</time>
      </trkpt>
      <trkpt lat="44.14964" lon="6.96153">
        <ele>2718.33203125</ele>
        <time>2013-12-07T12:15:49Z</time>
      </trkpt>
      <trkpt lat="44.14964" lon="6.96154">
        <ele>2718.34375</ele>
        <time>2013-12-07T12:16:10Z</time>
      </trkpt>
      <trkpt lat="44.14967" lon="6.96152">
        <ele>2718.9323730469</ele>
        <time>2013-12-07T12:16:16Z</time>
      </trkpt>
      <trkpt lat="44.14965" lon="6.96153">
        <ele>2718.5400390625</ele>
        <time>2013-12-07T12:16:25Z</time>
      </trkpt>
      <trkpt lat="44.14965" lon="6.9615">
        <ele>2718.2985839844</ele>
        <time>2013-12-07T12:16:34Z</time>
      </trkpt>
      <trkpt lat="44.14965" lon="6.96151">
        <ele>2718.3356933594</ele>
        <time>2013-12-07T12:16:42Z</time>
      </trkpt>
      <trkpt lat="44.14964" lon="6.96155">
        <ele>2718.251953125</ele>
        <time>2013-12-07T12:16:53Z</time>
      </trkpt>
      <trkpt lat="44.14963" lon="6.96155">
        <ele>2718.123046875</ele>
        <time>2013-12-07T12:16:59Z</time>
      </trkpt>
      <trkpt lat="44.14967" lon="6.96157">
        <ele>2719.1059570312</ele>
        <time>2013-12-07T12:17:27Z</time>
      </trkpt>
      <trkpt lat="44.14968" lon="6.96154">
        <ele>2719.2355957031</ele>
        <time>2013-12-07T12:17:36Z</time>
      </trkpt>
      <trkpt lat="44.1497" lon="6.96152">
        <ele>2719.5139160156</ele>
        <time>2013-12-07T12:17:57Z</time>
      </trkpt>
      <trkpt lat="44.14969" lon="6.96147">
        <ele>2719.2365722656</ele>
        <time>2013-12-07T12:18:19Z</time>
      </trkpt>
      <trkpt lat="44.14969" lon="6.96142">
        <ele>2719.1123046875</ele>
        <time>2013-12-07T12:18:29Z</time>
      </trkpt>
      <trkpt lat="44.14969" lon="6.96146">
        <ele>2719.2026367188</ele>
        <time>2013-12-07T12:18:40Z</time>
      </trkpt>
      <trkpt lat="44.14967" lon="6.96148">
        <ele>2718.5541992188</ele>
        <time>2013-12-07T12:18:48Z</time>
      </trkpt>
      <trkpt lat="44.14965" lon="6.96148">
        <ele>2718.2934570312</ele>
        <time>2013-12-07T12:18:54Z</time>
      </trkpt>
      <trkpt lat="44.14968" lon="6.96149">
        <ele>2718.9011230469</ele>
        <time>2013-12-07T12:19:01Z</time>
      </trkpt>
      <trkpt lat="44.14967" lon="6.96149">
        <ele>2718.7299804688</ele>
        <time>2013-12-07T12:19:07Z</time>
      </trkpt>
      <trkpt lat="44.14965" lon="6.96152">
        <ele>2718.4772949219</ele>
        <time>2013-12-07T12:19:14Z</time>
      </trkpt>
      <trkpt lat="44.14966" lon="6.96147">
        <ele>2718.4475097656</ele>
        <time>2013-12-07T12:19:29Z</time>
      </trkpt>
      <trkpt lat="44.14964" lon="6.96153">
        <ele>2718.1650390625</ele>
        <time>2013-12-07T12:19:39Z</time>
      </trkpt>
      <trkpt lat="44.14963" lon="6.96155">
        <ele>2718.123046875</ele>
        <time>2013-12-07T12:19:47Z</time>
      </trkpt>
      <trkpt lat="44.14964" lon="6.96155">
        <ele>2718.2939453125</ele>
        <time>2013-12-07T12:19:57Z</time>
      </trkpt>
      <trkpt lat="44.14967" lon="6.96151">
        <ele>2718.8801269531</ele>
        <time>2013-12-07T12:20:09Z</time>
      </trkpt>
      <trkpt lat="44.14967" lon="6.96151">
        <ele>2718.8120117188</ele>
        <time>2013-12-07T12:20:11Z</time>
      </trkpt>
      <trkpt lat="44.14965" lon="6.96152">
        <ele>2718.41015625</ele>
        <time>2013-12-07T12:20:18Z</time>
      </trkpt>
      <trkpt lat="44.14966" lon="6.9615">
        <ele>2718.5703125</ele>
        <time>2013-12-07T12:20:24Z</time>
      </trkpt>
      <trkpt lat="44.14965" lon="6.96151">
        <ele>2718.4243164062</ele>
        <time>2013-12-07T12:20:31Z</time>
      </trkpt>
      <trkpt lat="44.14965" lon="6.96151">
        <ele>2718.3491210938</ele>
        <time>2013-12-07T12:20:39Z</time>
      </trkpt>
      <trkpt lat="44.14965" lon="6.96151">
        <ele>2718.45703125</ele>
        <time>2013-12-07T12:20:45Z</time>
      </trkpt>
      <trkpt lat="44.14964" lon="6.96151">
        <ele>2718.1223144531</ele>
        <time>2013-12-07T12:20:54Z</time>
      </trkpt>
      <trkpt lat="44.14964" lon="6.96152">
        <ele>2718.078125</ele>
        <time>2013-12-07T12:21:05Z</time>
      </trkpt>
      <trkpt lat="44.14968" lon="6.96151">
        <ele>2719.1511230469</ele>
        <time>2013-12-07T12:21:18Z</time>
      </trkpt>
      <trkpt lat="44.14965" lon="6.96152">
        <ele>2718.5048828125</ele>
        <time>2013-12-07T12:21:26Z</time>
      </trkpt>
      <trkpt lat="44.14965" lon="6.96153">
        <ele>2718.5476074219</ele>
        <time>2013-12-07T12:21:34Z</time>
      </trkpt>
      <trkpt lat="44.14967" lon="6.96151">
        <ele>2718.8981933594</ele>
        <time>2013-12-07T12:21:41Z</time>
      </trkpt>
      <trkpt lat="44.14971" lon="6.9615">
        <ele>2719.65625</ele>
        <time>2013-12-07T12:21:59Z</time>
      </trkpt>
      <trkpt lat="44.14963" lon="6.9615">
        <ele>2717.8725585938</ele>
        <time>2013-12-07T12:22:15Z</time>
      </trkpt>
      <trkpt lat="44.14966" lon="6.96151">
        <ele>2718.5129394531</ele>
        <time>2013-12-07T12:22:20Z</time>
      </trkpt>
      <trkpt lat="44.14964" lon="6.96149">
        <ele>2717.9467773438</ele>
        <time>2013-12-07T12:22:36Z</time>
      </trkpt>
      <trkpt lat="44.14967" lon="6.9615">
        <ele>2718.6650390625</ele>
        <time>2013-12-07T12:23:14Z</time>
      </trkpt>
      <trkpt lat="44.14968" lon="6.96153">
        <ele>2719.19140625</ele>
        <time>2013-12-07T12:23:22Z</time>
      </trkpt>
      <trkpt lat="44.14972" lon="6.96157">
        <ele>2719.9455566406</ele>
        <time>2013-12-07T12:23:30Z</time>
      </trkpt>
      <trkpt lat="44.14972" lon="6.96159">
        <ele>2719.9487304688</ele>
        <time>2013-12-07T12:23:32Z</time>
      </trkpt>
      <trkpt lat="44.14973" lon="6.9616">
        <ele>2719.9877929688</ele>
        <time>2013-12-07T12:23:39Z</time>
      </trkpt>
      <trkpt lat="44.14972" lon="6.9616">
        <ele>2719.9523925781</ele>
        <time>2013-12-07T12:23:46Z</time>
      </trkpt>
      <trkpt lat="44.1497" lon="6.96151">
        <ele>2719.5795898438</ele>
        <time>2013-12-07T12:23:56Z</time>
      </trkpt>
      <trkpt lat="44.14967" lon="6.96147">
        <ele>2718.5417480469</ele>
        <time>2013-12-07T12:24:40Z</time>
      </trkpt>
      <trkpt lat="44.14965" lon="6.96148">
        <ele>2718.2934570312</ele>
        <time>2013-12-07T12:24:49Z</time>
      </trkpt>
      <trkpt lat="44.14965" lon="6.96139">
        <ele>2717.7009277344</ele>
        <time>2013-12-07T12:25:09Z</time>
      </trkpt>
      <trkpt lat="44.14968" lon="6.96147">
        <ele>2719.0266113281</ele>
        <time>2013-12-07T12:25:48Z</time>
      </trkpt>
      <trkpt lat="44.14968" lon="6.96146">
        <ele>2718.9921875</ele>
        <time>2013-12-07T12:26:08Z</time>
      </trkpt>
      <trkpt lat="44.14965" lon="6.96142">
        <ele>2717.9716796875</ele>
        <time>2013-12-07T12:26:26Z</time>
      </trkpt>
      <trkpt lat="44.14964" lon="6.9614">
        <ele>2717.2917480469</ele>
        <time>2013-12-07T12:26:35Z</time>
      </trkpt>
      <trkpt lat="44.1497" lon="6.96146">
        <ele>2719.3088378906</ele>
        <time>2013-12-07T12:27:08Z</time>
      </trkpt>
      <trkpt lat="44.14971" lon="6.96148">
        <ele>2719.6403808594</ele>
        <time>2013-12-07T12:27:22Z</time>
      </trkpt>
      <trkpt lat="44.14967" lon="6.96146">
        <ele>2718.701171875</ele>
        <time>2013-12-07T12:27:53Z</time>
      </trkpt>
      <trkpt lat="44.14969" lon="6.96148">
        <ele>2719.1435546875</ele>
        <time>2013-12-07T12:28:05Z</time>
      </trkpt>
      <trkpt lat="44.14967" lon="6.96144">
        <ele>2718.6179199219</ele>
        <time>2013-12-07T12:28:13Z</time>
      </trkpt>
      <trkpt lat="44.14965" lon="6.96139">
        <ele>2717.6735839844</ele>
        <time>2013-12-07T12:28:28Z</time>
      </trkpt>
      <trkpt lat="44.14966" lon="6.9614">
        <ele>2717.9621582031</ele>
        <time>2013-12-07T12:28:36Z</time>
      </trkpt>
      <trkpt lat="44.14963" lon="6.96132">
        <ele>2716.4145507812</ele>
        <time>2013-12-07T12:28:52Z</time>
      </trkpt>
      <trkpt lat="44.1496" lon="6.96127">
        <ele>2715.2080078125</ele>
        <time>2013-12-07T12:29:03Z</time>
      </trkpt>
      <trkpt lat="44.14963" lon="6.96139">
        <ele>2716.9592285156</ele>
        <time>2013-12-07T12:29:36Z</time>
      </trkpt>
      <trkpt lat="44.14964" lon="6.96141">
        <ele>2717.4260253906</ele>
        <time>2013-12-07T12:29:44Z</time>
      </trkpt>
      <trkpt lat="44.14964" lon="6.96142">
        <ele>2717.4143066406</ele>
        <time>2013-12-07T12:29:54Z</time>
      </trkpt>
      <trkpt lat="44.14964" lon="6.96141">
        <ele>2717.5734863281</ele>
        <time>2013-12-07T12:29:59Z</time>
      </trkpt>
      <trkpt lat="44.14965" lon="6.96142">
        <ele>2717.8469238281</ele>
        <time>2013-12-07T12:30:09Z</time>
      </trkpt>
      <trkpt lat="44.14969" lon="6.96149">
        <ele>2719.2697753906</ele>
        <time>2013-12-07T12:31:58Z</time>
      </trkpt>
      <trkpt lat="44.1497" lon="6.96148">
        <ele>2719.4384765625</ele>
        <time>2013-12-07T12:33:11Z</time>
      </trkpt>
      <trkpt lat="44.14971" lon="6.96149">
        <ele>2719.650390625</ele>
        <time>2013-12-07T12:33:21Z</time>
      </trkpt>
      <trkpt lat="44.14969" lon="6.96143">
        <ele>2719.0317382812</ele>
        <time>2013-12-07T12:33:31Z</time>
      </trkpt>
      <trkpt lat="44.14968" lon="6.96137">
        <ele>2718.4631347656</ele>
        <time>2013-12-07T12:33:44Z</time>
      </trkpt>
      <trkpt lat="44.14968" lon="6.96153">
        <ele>2719.21484375</ele>
        <time>2013-12-07T12:35:05Z</time>
      </trkpt>
      <trkpt lat="44.14967" lon="6.96153">
        <ele>2718.8820800781</ele>
        <time>2013-12-07T12:35:29Z</time>
      </trkpt>
      <trkpt lat="44.14969" lon="6.96153">
        <ele>2719.2900390625</ele>
        <time>2013-12-07T12:36:07Z</time>
      </trkpt>
      <trkpt lat="44.14967" lon="6.96148">
        <ele>2718.7770996094</ele>
        <time>2013-12-07T12:36:12Z</time>
      </trkpt>
      <trkpt lat="44.14969" lon="6.96147">
        <ele>2719.12109375</ele>
        <time>2013-12-07T12:36:20Z</time>
      </trkpt>
      <trkpt lat="44.1497" lon="6.96146">
        <ele>2719.5112304688</ele>
        <time>2013-12-07T12:36:29Z</time>
      </trkpt>
      <trkpt lat="44.14973" lon="6.96147">
        <ele>2719.9365234375</ele>
        <time>2013-12-07T12:36:35Z</time>
      </trkpt>
      <trkpt lat="44.14974" lon="6.96149">
        <ele>2719.8601074219</ele>
        <time>2013-12-07T12:36:37Z</time>
      </trkpt>
      <trkpt lat="44.14978" lon="6.96151">
        <ele>2719.6650390625</ele>
        <time>2013-12-07T12:36:44Z</time>
      </trkpt>
      <trkpt lat="44.14985" lon="6.96156">
        <ele>2719.48046875</ele>
        <time>2013-12-07T12:36:52Z</time>
      </trkpt>
      <trkpt lat="44.14993" lon="6.96163">
        <ele>2719.7094726562</ele>
        <time>2013-12-07T12:37:00Z</time>
      </trkpt>
      <trkpt lat="44.15001" lon="6.96171">
        <ele>2720</ele>
        <time>2013-12-07T12:37:08Z</time>
      </trkpt>
      <trkpt lat="44.15007" lon="6.96178">
        <ele>2720</ele>
        <time>2013-12-07T12:37:15Z</time>
      </trkpt>
      <trkpt lat="44.15009" lon="6.96179">
        <ele>2720</ele>
        <time>2013-12-07T12:37:18Z</time>
      </trkpt>
      <trkpt lat="44.15014" lon="6.96187">
        <ele>2720</ele>
        <time>2013-12-07T12:37:27Z</time>
      </trkpt>
      <trkpt lat="44.15019" lon="6.96199">
        <ele>2720</ele>
        <time>2013-12-07T12:37:36Z</time>
      </trkpt>
      <trkpt lat="44.15025" lon="6.96209">
        <ele>2720</ele>
        <time>2013-12-07T12:37:45Z</time>
      </trkpt>
      <trkpt lat="44.15031" lon="6.96213">
        <ele>2718.7795410156</ele>
        <time>2013-12-07T12:37:54Z</time>
      </trkpt>
      <trkpt lat="44.15034" lon="6.96214">
        <ele>2718.0539550781</ele>
        <time>2013-12-07T12:38:01Z</time>
      </trkpt>
      <trkpt lat="44.1504" lon="6.96217">
        <ele>2716.3737792969</ele>
        <time>2013-12-07T12:38:08Z</time>
      </trkpt>
      <trkpt lat="44.15041" lon="6.96218">
        <ele>2716.0729980469</ele>
        <time>2013-12-07T12:38:13Z</time>
      </trkpt>
      <trkpt lat="44.15044" lon="6.96224">
        <ele>2716.0961914062</ele>
        <time>2013-12-07T12:38:21Z</time>
      </trkpt>
      <trkpt lat="44.15048" lon="6.96236">
        <ele>2717.3315429688</ele>
        <time>2013-12-07T12:38:28Z</time>
      </trkpt>
      <trkpt lat="44.15055" lon="6.96247">
        <ele>2719.1638183594</ele>
        <time>2013-12-07T12:38:35Z</time>
      </trkpt>
      <trkpt lat="44.15062" lon="6.9626">
        <ele>2712.3129882812</ele>
        <time>2013-12-07T12:38:44Z</time>
      </trkpt>
      <trkpt lat="44.15065" lon="6.96262">
        <ele>2710.037109375</ele>
        <time>2013-12-07T12:38:46Z</time>
      </trkpt>
      <trkpt lat="44.15069" lon="6.9627">
        <ele>2706.9899902344</ele>
        <time>2013-12-07T12:38:53Z</time>
      </trkpt>
      <trkpt lat="44.1507" lon="6.96271">
        <ele>2705.9699707031</ele>
        <time>2013-12-07T12:38:56Z</time>
      </trkpt>
      <trkpt lat="44.15077" lon="6.96282">
        <ele>2702.486328125</ele>
        <time>2013-12-07T12:39:04Z</time>
      </trkpt>
      <trkpt lat="44.15081" lon="6.96286">
        <ele>2700.4780273438</ele>
        <time>2013-12-07T12:39:10Z</time>
      </trkpt>
      <trkpt lat="44.15082" lon="6.96288">
        <ele>2699.6838378906</ele>
        <time>2013-12-07T12:39:12Z</time>
      </trkpt>
      <trkpt lat="44.15086" lon="6.96296">
        <ele>2697.7897949219</ele>
        <time>2013-12-07T12:39:18Z</time>
      </trkpt>
      <trkpt lat="44.15089" lon="6.96302">
        <ele>2696.7160644531</ele>
        <time>2013-12-07T12:39:22Z</time>
      </trkpt>
      <trkpt lat="44.15094" lon="6.96308">
        <ele>2693.7268066406</ele>
        <time>2013-12-07T12:39:30Z</time>
      </trkpt>
      <trkpt lat="44.151" lon="6.96318">
        <ele>2691.3364257812</ele>
        <time>2013-12-07T12:39:37Z</time>
      </trkpt>
      <trkpt lat="44.15105" lon="6.96321">
        <ele>2689.4465332031</ele>
        <time>2013-12-07T12:39:42Z</time>
      </trkpt>
      <trkpt lat="44.15108" lon="6.96331">
        <ele>2690.5463867188</ele>
        <time>2013-12-07T12:39:51Z</time>
      </trkpt>
      <trkpt lat="44.15109" lon="6.96335">
        <ele>2691.3208007812</ele>
        <time>2013-12-07T12:39:54Z</time>
      </trkpt>
      <trkpt lat="44.15111" lon="6.96346">
        <ele>2694.4016113281</ele>
        <time>2013-12-07T12:40:02Z</time>
      </trkpt>
      <trkpt lat="44.15111" lon="6.96347">
        <ele>2694.865234375</ele>
        <time>2013-12-07T12:40:03Z</time>
      </trkpt>
      <trkpt lat="44.15116" lon="6.96354">
        <ele>2692.4846191406</ele>
        <time>2013-12-07T12:40:10Z</time>
      </trkpt>
      <trkpt lat="44.1512" lon="6.9636">
        <ele>2690.1457519531</ele>
        <time>2013-12-07T12:40:16Z</time>
      </trkpt>
      <trkpt lat="44.15122" lon="6.96366">
        <ele>2689.203125</ele>
        <time>2013-12-07T12:40:20Z</time>
      </trkpt>
      <trkpt lat="44.15125" lon="6.96374">
        <ele>2687.5651855469</ele>
        <time>2013-12-07T12:40:28Z</time>
      </trkpt>
      <trkpt lat="44.15125" lon="6.96376">
        <ele>2687.4279785156</ele>
        <time>2013-12-07T12:40:30Z</time>
      </trkpt>
      <trkpt lat="44.15128" lon="6.96379">
        <ele>2685.6840820312</ele>
        <time>2013-12-07T12:40:34Z</time>
      </trkpt>
      <trkpt lat="44.15133" lon="6.96388">
        <ele>2683.5319824219</ele>
        <time>2013-12-07T12:40:44Z</time>
      </trkpt>
      <trkpt lat="44.15137" lon="6.96397">
        <ele>2681.2807617188</ele>
        <time>2013-12-07T12:40:52Z</time>
      </trkpt>
      <trkpt lat="44.15142" lon="6.96407">
        <ele>2678.1652832031</ele>
        <time>2013-12-07T12:41:01Z</time>
      </trkpt>
      <trkpt lat="44.15146" lon="6.96416">
        <ele>2675.6284179688</ele>
        <time>2013-12-07T12:41:10Z</time>
      </trkpt>
      <trkpt lat="44.15149" lon="6.96423">
        <ele>2673.8188476562</ele>
        <time>2013-12-07T12:41:17Z</time>
      </trkpt>
      <trkpt lat="44.15152" lon="6.9643">
        <ele>2672.9423828125</ele>
        <time>2013-12-07T12:41:24Z</time>
      </trkpt>
      <trkpt lat="44.15154" lon="6.96436">
        <ele>2672.8989257812</ele>
        <time>2013-12-07T12:41:32Z</time>
      </trkpt>
      <trkpt lat="44.15155" lon="6.9644">
        <ele>2672.8801269531</ele>
        <time>2013-12-07T12:41:35Z</time>
      </trkpt>
      <trkpt lat="44.1516" lon="6.96452">
        <ele>2673.447265625</ele>
        <time>2013-12-07T12:41:45Z</time>
      </trkpt>
      <trkpt lat="44.15164" lon="6.96461">
        <ele>2675.8071289062</ele>
        <time>2013-12-07T12:41:53Z</time>
      </trkpt>
      <trkpt lat="44.15168" lon="6.96472">
        <ele>2678.6538085938</ele>
        <time>2013-12-07T12:42:02Z</time>
      </trkpt>
      <trkpt lat="44.15171" lon="6.9648">
        <ele>2676.4028320312</ele>
        <time>2013-12-07T12:42:09Z</time>
      </trkpt>
      <trkpt lat="44.15172" lon="6.96482">
        <ele>2675.5354003906</ele>
        <time>2013-12-07T12:42:12Z</time>
      </trkpt>
      <trkpt lat="44.15176" lon="6.96492">
        <ele>2673.505859375</ele>
        <time>2013-12-07T12:42:20Z</time>
      </trkpt>
      <trkpt lat="44.1518" lon="6.96502">
        <ele>2672.1584472656</ele>
        <time>2013-12-07T12:42:28Z</time>
      </trkpt>
      <trkpt lat="44.15184" lon="6.96513">
        <ele>2672.8354492188</ele>
        <time>2013-12-07T12:42:37Z</time>
      </trkpt>
      <trkpt lat="44.15186" lon="6.96521">
        <ele>2673.884765625</ele>
        <time>2013-12-07T12:42:44Z</time>
      </trkpt>
      <trkpt lat="44.15188" lon="6.96527">
        <ele>2675.078125</ele>
        <time>2013-12-07T12:42:51Z</time>
      </trkpt>
      <trkpt lat="44.15189" lon="6.96528">
        <ele>2675.2854003906</ele>
        <time>2013-12-07T12:43:01Z</time>
      </trkpt>
      <trkpt lat="44.15191" lon="6.96538">
        <ele>2676.599609375</ele>
        <time>2013-12-07T12:43:09Z</time>
      </trkpt>
      <trkpt lat="44.15195" lon="6.96546">
        <ele>2677.2204589844</ele>
        <time>2013-12-07T12:43:17Z</time>
      </trkpt>
      <trkpt lat="44.15197" lon="6.9655">
        <ele>2676.8903808594</ele>
        <time>2013-12-07T12:43:22Z</time>
      </trkpt>
      <trkpt lat="44.15197" lon="6.96553">
        <ele>2677.1889648438</ele>
        <time>2013-12-07T12:43:24Z</time>
      </trkpt>
      <trkpt lat="44.152" lon="6.96562">
        <ele>2676.5927734375</ele>
        <time>2013-12-07T12:43:32Z</time>
      </trkpt>
      <trkpt lat="44.15201" lon="6.96565">
        <ele>2676.0434570312</ele>
        <time>2013-12-07T12:43:35Z</time>
      </trkpt>
      <trkpt lat="44.15201" lon="6.96567">
        <ele>2675.9228515625</ele>
        <time>2013-12-07T12:43:40Z</time>
      </trkpt>
      <trkpt lat="44.15201" lon="6.9657">
        <ele>2676.1828613281</ele>
        <time>2013-12-07T12:43:46Z</time>
      </trkpt>
      <trkpt lat="44.15203" lon="6.96572">
        <ele>2675.4907226562</ele>
        <time>2013-12-07T12:43:52Z</time>
      </trkpt>
      <trkpt lat="44.15206" lon="6.96576">
        <ele>2674.2236328125</ele>
        <time>2013-12-07T12:43:59Z</time>
      </trkpt>
      <trkpt lat="44.15207" lon="6.96578">
        <ele>2673.7690429688</ele>
        <time>2013-12-07T12:44:01Z</time>
      </trkpt>
      <trkpt lat="44.15209" lon="6.9658">
        <ele>2673.2917480469</ele>
        <time>2013-12-07T12:44:04Z</time>
      </trkpt>
      <trkpt lat="44.15209" lon="6.96578">
        <ele>2672.9931640625</ele>
        <time>2013-12-07T12:44:06Z</time>
      </trkpt>
      <trkpt lat="44.15212" lon="6.96583">
        <ele>2672.453125</ele>
        <time>2013-12-07T12:44:11Z</time>
      </trkpt>
      <trkpt lat="44.15213" lon="6.9659">
        <ele>2673.2976074219</ele>
        <time>2013-12-07T12:44:16Z</time>
      </trkpt>
      <trkpt lat="44.15219" lon="6.96604">
        <ele>2674.8107910156</ele>
        <time>2013-12-07T12:44:24Z</time>
      </trkpt>
      <trkpt lat="44.15224" lon="6.96617">
        <ele>2676.0087890625</ele>
        <time>2013-12-07T12:44:32Z</time>
      </trkpt>
      <trkpt lat="44.15229" lon="6.96623">
        <ele>2675.3220214844</ele>
        <time>2013-12-07T12:44:38Z</time>
      </trkpt>
      <trkpt lat="44.15229" lon="6.96625">
        <ele>2675.5029296875</ele>
        <time>2013-12-07T12:44:40Z</time>
      </trkpt>
      <trkpt lat="44.15231" lon="6.96633">
        <ele>2676.6479492188</ele>
        <time>2013-12-07T12:44:46Z</time>
      </trkpt>
      <trkpt lat="44.15233" lon="6.96634">
        <ele>2676.560546875</ele>
        <time>2013-12-07T12:44:49Z</time>
      </trkpt>
      <trkpt lat="44.15236" lon="6.9664">
        <ele>2677.3996582031</ele>
        <time>2013-12-07T12:44:57Z</time>
      </trkpt>
      <trkpt lat="44.15237" lon="6.96645">
        <ele>2678.0632324219</ele>
        <time>2013-12-07T12:45:04Z</time>
      </trkpt>
      <trkpt lat="44.15238" lon="6.96647">
        <ele>2678.3049316406</ele>
        <time>2013-12-07T12:45:06Z</time>
      </trkpt>
      <trkpt lat="44.15239" lon="6.96652">
        <ele>2679.2143554688</ele>
        <time>2013-12-07T12:45:13Z</time>
      </trkpt>
      <trkpt lat="44.15243" lon="6.96659">
        <ele>2680.7814941406</ele>
        <time>2013-12-07T12:45:21Z</time>
      </trkpt>
      <trkpt lat="44.15244" lon="6.96662">
        <ele>2681.6293945312</ele>
        <time>2013-12-07T12:45:27Z</time>
      </trkpt>
      <trkpt lat="44.15246" lon="6.9667">
        <ele>2683.7709960938</ele>
        <time>2013-12-07T12:45:34Z</time>
      </trkpt>
      <trkpt lat="44.15247" lon="6.96673">
        <ele>2684.666015625</ele>
        <time>2013-12-07T12:45:37Z</time>
      </trkpt>
      <trkpt lat="44.15251" lon="6.96683">
        <ele>2687.4431152344</ele>
        <time>2013-12-07T12:45:48Z</time>
      </trkpt>
      <trkpt lat="44.15254" lon="6.9669">
        <ele>2688.0295410156</ele>
        <time>2013-12-07T12:45:58Z</time>
      </trkpt>
      <trkpt lat="44.15255" lon="6.96693">
        <ele>2688.4807128906</ele>
        <time>2013-12-07T12:46:07Z</time>
      </trkpt>
      <trkpt lat="44.15257" lon="6.96699">
        <ele>2689.2690429688</ele>
        <time>2013-12-07T12:46:22Z</time>
      </trkpt>
      <trkpt lat="44.1526" lon="6.96708">
        <ele>2690.2631835938</ele>
        <time>2013-12-07T12:46:31Z</time>
      </trkpt>
      <trkpt lat="44.15262" lon="6.96714">
        <ele>2690.9462890625</ele>
        <time>2013-12-07T12:46:39Z</time>
      </trkpt>
      <trkpt lat="44.15264" lon="6.96722">
        <ele>2692.3959960938</ele>
        <time>2013-12-07T12:46:47Z</time>
      </trkpt>
      <trkpt lat="44.15266" lon="6.96731">
        <ele>2694.1047363281</ele>
        <time>2013-12-07T12:46:56Z</time>
      </trkpt>
      <trkpt lat="44.15269" lon="6.96741">
        <ele>2696.5573730469</ele>
        <time>2013-12-07T12:47:04Z</time>
      </trkpt>
      <trkpt lat="44.15273" lon="6.96748">
        <ele>2699.0905761719</ele>
        <time>2013-12-07T12:47:12Z</time>
      </trkpt>
      <trkpt lat="44.15274" lon="6.96755">
        <ele>2700.53125</ele>
        <time>2013-12-07T12:47:21Z</time>
      </trkpt>
      <trkpt lat="44.15276" lon="6.96758">
        <ele>2701.0007324219</ele>
        <time>2013-12-07T12:47:26Z</time>
      </trkpt>
      <trkpt lat="44.15277" lon="6.9676">
        <ele>2701.3557128906</ele>
        <time>2013-12-07T12:47:30Z</time>
      </trkpt>
      <trkpt lat="44.15277" lon="6.96768">
        <ele>2702.5100097656</ele>
        <time>2013-12-07T12:47:38Z</time>
      </trkpt>
      <trkpt lat="44.15278" lon="6.9677">
        <ele>2702.8903808594</ele>
        <time>2013-12-07T12:47:44Z</time>
      </trkpt>
      <trkpt lat="44.15279" lon="6.96773">
        <ele>2702.7373046875</ele>
        <time>2013-12-07T12:47:48Z</time>
      </trkpt>
      <trkpt lat="44.1528" lon="6.96778">
        <ele>2702.7893066406</ele>
        <time>2013-12-07T12:47:55Z</time>
      </trkpt>
      <trkpt lat="44.1528" lon="6.96781">
        <ele>2703.2097167969</ele>
        <time>2013-12-07T12:48:01Z</time>
      </trkpt>
      <trkpt lat="44.1528" lon="6.96786">
        <ele>2704.185546875</ele>
        <time>2013-12-07T12:48:09Z</time>
      </trkpt>
      <trkpt lat="44.15281" lon="6.96789">
        <ele>2704.6499023438</ele>
        <time>2013-12-07T12:48:12Z</time>
      </trkpt>
      <trkpt lat="44.15282" lon="6.96792">
        <ele>2704.7026367188</ele>
        <time>2013-12-07T12:48:19Z</time>
      </trkpt>
      <trkpt lat="44.15282" lon="6.96797">
        <ele>2705.6313476562</ele>
        <time>2013-12-07T12:48:26Z</time>
      </trkpt>
      <trkpt lat="44.15283" lon="6.968">
        <ele>2705.9282226562</ele>
        <time>2013-12-07T12:48:31Z</time>
      </trkpt>
      <trkpt lat="44.15285" lon="6.96804">
        <ele>2706.283203125</ele>
        <time>2013-12-07T12:48:38Z</time>
      </trkpt>
      <trkpt lat="44.15287" lon="6.9681">
        <ele>2707.0187988281</ele>
        <time>2013-12-07T12:48:47Z</time>
      </trkpt>
      <trkpt lat="44.15287" lon="6.96818">
        <ele>2708.3547363281</ele>
        <time>2013-12-07T12:48:57Z</time>
      </trkpt>
      <trkpt lat="44.15289" lon="6.96825">
        <ele>2709.0141601562</ele>
        <time>2013-12-07T12:49:06Z</time>
      </trkpt>
      <trkpt lat="44.15291" lon="6.96834">
        <ele>2710.1791992188</ele>
        <time>2013-12-07T12:49:15Z</time>
      </trkpt>
      <trkpt lat="44.15294" lon="6.96842">
        <ele>2711.9096679688</ele>
        <time>2013-12-07T12:49:25Z</time>
      </trkpt>
      <trkpt lat="44.15297" lon="6.96849">
        <ele>2713.1755371094</ele>
        <time>2013-12-07T12:49:34Z</time>
      </trkpt>
      <trkpt lat="44.15301" lon="6.96856">
        <ele>2714.3518066406</ele>
        <time>2013-12-07T12:49:43Z</time>
      </trkpt>
      <trkpt lat="44.15303" lon="6.96863">
        <ele>2715.708984375</ele>
        <time>2013-12-07T12:49:51Z</time>
      </trkpt>
      <trkpt lat="44.15305" lon="6.96871">
        <ele>2717.4157714844</ele>
        <time>2013-12-07T12:50:01Z</time>
      </trkpt>
      <trkpt lat="44.15308" lon="6.96877">
        <ele>2717.7863769531</ele>
        <time>2013-12-07T12:50:10Z</time>
      </trkpt>
      <trkpt lat="44.15308" lon="6.9688">
        <ele>2718.5693359375</ele>
        <time>2013-12-07T12:50:15Z</time>
      </trkpt>
      <trkpt lat="44.1531" lon="6.96888">
        <ele>2720.0778808594</ele>
        <time>2013-12-07T12:50:22Z</time>
      </trkpt>
      <trkpt lat="44.1531" lon="6.96889">
        <ele>2720.1279296875</ele>
        <time>2013-12-07T12:50:23Z</time>
      </trkpt>
      <trkpt lat="44.15313" lon="6.96897">
        <ele>2720.8671875</ele>
        <time>2013-12-07T12:50:33Z</time>
      </trkpt>
      <trkpt lat="44.15314" lon="6.96902">
        <ele>2721.5017089844</ele>
        <time>2013-12-07T12:50:40Z</time>
      </trkpt>
      <trkpt lat="44.15315" lon="6.96908">
        <ele>2722.4064941406</ele>
        <time>2013-12-07T12:50:48Z</time>
      </trkpt>
      <trkpt lat="44.15317" lon="6.96911">
        <ele>2722.7531738281</ele>
        <time>2013-12-07T12:50:54Z</time>
      </trkpt>
      <trkpt lat="44.15319" lon="6.96917">
        <ele>2723.5805664062</ele>
        <time>2013-12-07T12:51:02Z</time>
      </trkpt>
      <trkpt lat="44.15321" lon="6.9692">
        <ele>2724.4001464844</ele>
        <time>2013-12-07T12:51:08Z</time>
      </trkpt>
      <trkpt lat="44.15323" lon="6.96927">
        <ele>2726.1171875</ele>
        <time>2013-12-07T12:51:16Z</time>
      </trkpt>
      <trkpt lat="44.15324" lon="6.96931">
        <ele>2727.4116210938</ele>
        <time>2013-12-07T12:51:20Z</time>
      </trkpt>
      <trkpt lat="44.15327" lon="6.96934">
        <ele>2728.2971191406</ele>
        <time>2013-12-07T12:51:27Z</time>
      </trkpt>
      <trkpt lat="44.15331" lon="6.9694">
        <ele>2730.3679199219</ele>
        <time>2013-12-07T12:51:36Z</time>
      </trkpt>
      <trkpt lat="44.15335" lon="6.96947">
        <ele>2731.861328125</ele>
        <time>2013-12-07T12:51:46Z</time>
      </trkpt>
      <trkpt lat="44.15338" lon="6.96954">
        <ele>2732.7692871094</ele>
        <time>2013-12-07T12:51:54Z</time>
      </trkpt>
      <trkpt lat="44.15339" lon="6.96957">
        <ele>2733.51171875</ele>
        <time>2013-12-07T12:51:57Z</time>
      </trkpt>
      <trkpt lat="44.1534" lon="6.96962">
        <ele>2734.5087890625</ele>
        <time>2013-12-07T12:52:03Z</time>
      </trkpt>
      <trkpt lat="44.15341" lon="6.96964">
        <ele>2734.2319335938</ele>
        <time>2013-12-07T12:52:05Z</time>
      </trkpt>
      <trkpt lat="44.15344" lon="6.96968">
        <ele>2734.2453613281</ele>
        <time>2013-12-07T12:52:12Z</time>
      </trkpt>
      <trkpt lat="44.15345" lon="6.96971">
        <ele>2734.6030273438</ele>
        <time>2013-12-07T12:52:18Z</time>
      </trkpt>
      <trkpt lat="44.15346" lon="6.96973">
        <ele>2735.4006347656</ele>
        <time>2013-12-07T12:52:25Z</time>
      </trkpt>
      <trkpt lat="44.15348" lon="6.96974">
        <ele>2734.4558105469</ele>
        <time>2013-12-07T12:52:48Z</time>
      </trkpt>
      <trkpt lat="44.1535" lon="6.96981">
        <ele>2735.951171875</ele>
        <time>2013-12-07T12:53:38Z</time>
      </trkpt>
      <trkpt lat="44.15353" lon="6.96985">
        <ele>2736.2956542969</ele>
        <time>2013-12-07T12:53:46Z</time>
      </trkpt>
      <trkpt lat="44.15355" lon="6.96991">
        <ele>2737.9240722656</ele>
        <time>2013-12-07T12:53:52Z</time>
      </trkpt>
      <trkpt lat="44.15356" lon="6.97001">
        <ele>2742.2956542969</ele>
        <time>2013-12-07T12:54:02Z</time>
      </trkpt>
      <trkpt lat="44.15357" lon="6.97006">
        <ele>2744.3918457031</ele>
        <time>2013-12-07T12:54:09Z</time>
      </trkpt>
      <trkpt lat="44.15358" lon="6.9701">
        <ele>2746.1467285156</ele>
        <time>2013-12-07T12:54:13Z</time>
      </trkpt>
      <trkpt lat="44.1536" lon="6.97015">
        <ele>2748.6401367188</ele>
        <time>2013-12-07T12:54:20Z</time>
      </trkpt>
      <trkpt lat="44.15361" lon="6.97019">
        <ele>2750.9770507812</ele>
        <time>2013-12-07T12:54:26Z</time>
      </trkpt>
      <trkpt lat="44.15363" lon="6.97025">
        <ele>2753.1525878906</ele>
        <time>2013-12-07T12:54:34Z</time>
      </trkpt>
      <trkpt lat="44.15365" lon="6.9703">
        <ele>2753.8828125</ele>
        <time>2013-12-07T12:54:42Z</time>
      </trkpt>
      <trkpt lat="44.15367" lon="6.97035">
        <ele>2753.9455566406</ele>
        <time>2013-12-07T12:54:49Z</time>
      </trkpt>
      <trkpt lat="44.15368" lon="6.9704">
        <ele>2754.92578125</ele>
        <time>2013-12-07T12:54:56Z</time>
      </trkpt>
      <trkpt lat="44.15369" lon="6.97047">
        <ele>2756.5498046875</ele>
        <time>2013-12-07T12:55:05Z</time>
      </trkpt>
      <trkpt lat="44.15373" lon="6.97044">
        <ele>2753.9729003906</ele>
        <time>2013-12-07T12:55:10Z</time>
      </trkpt>
      <trkpt lat="44.15375" lon="6.97046">
        <ele>2754.2016601562</ele>
        <time>2013-12-07T12:55:17Z</time>
      </trkpt>
      <trkpt lat="44.15377" lon="6.97052">
        <ele>2756.2048339844</ele>
        <time>2013-12-07T12:55:25Z</time>
      </trkpt>
      <trkpt lat="44.1538" lon="6.97057">
        <ele>2758.5439453125</ele>
        <time>2013-12-07T12:55:34Z</time>
      </trkpt>
      <trkpt lat="44.15381" lon="6.97059">
        <ele>2759.9838867188</ele>
        <time>2013-12-07T12:55:37Z</time>
      </trkpt>
      <trkpt lat="44.15384" lon="6.97064">
        <ele>2763.3845214844</ele>
        <time>2013-12-07T12:55:44Z</time>
      </trkpt>
      <trkpt lat="44.15384" lon="6.97071">
        <ele>2767.9248046875</ele>
        <time>2013-12-07T12:55:49Z</time>
      </trkpt>
      <trkpt lat="44.15385" lon="6.97082">
        <ele>2776.775390625</ele>
        <time>2013-12-07T12:55:58Z</time>
      </trkpt>
      <trkpt lat="44.15387" lon="6.97092">
        <ele>2780.7368164062</ele>
        <time>2013-12-07T12:56:07Z</time>
      </trkpt>
      <trkpt lat="44.15389" lon="6.971">
        <ele>2783.6125488281</ele>
        <time>2013-12-07T12:56:16Z</time>
      </trkpt>
      <trkpt lat="44.15391" lon="6.97106">
        <ele>2783.6118164062</ele>
        <time>2013-12-07T12:56:25Z</time>
      </trkpt>
      <trkpt lat="44.15394" lon="6.97113">
        <ele>2784.25390625</ele>
        <time>2013-12-07T12:56:35Z</time>
      </trkpt>
      <trkpt lat="44.15397" lon="6.97121">
        <ele>2785.4860839844</ele>
        <time>2013-12-07T12:56:45Z</time>
      </trkpt>
      <trkpt lat="44.15398" lon="6.97127">
        <ele>2787.5510253906</ele>
        <time>2013-12-07T12:56:53Z</time>
      </trkpt>
      <trkpt lat="44.15402" lon="6.97136">
        <ele>2790.5029296875</ele>
        <time>2013-12-07T12:57:05Z</time>
      </trkpt>
      <trkpt lat="44.15405" lon="6.97139">
        <ele>2791.3742675781</ele>
        <time>2013-12-07T12:57:12Z</time>
      </trkpt>
      <trkpt lat="44.15405" lon="6.9714">
        <ele>2791.5515136719</ele>
        <time>2013-12-07T12:57:13Z</time>
      </trkpt>
      <trkpt lat="44.15408" lon="6.97145">
        <ele>2792.71875</ele>
        <time>2013-12-07T12:57:21Z</time>
      </trkpt>
      <trkpt lat="44.1541" lon="6.97146">
        <ele>2792.8950195312</ele>
        <time>2013-12-07T12:57:28Z</time>
      </trkpt>
      <trkpt lat="44.15413" lon="6.97152">
        <ele>2794.7724609375</ele>
        <time>2013-12-07T12:57:38Z</time>
      </trkpt>
      <trkpt lat="44.15415" lon="6.97156">
        <ele>2795.9567871094</ele>
        <time>2013-12-07T12:57:46Z</time>
      </trkpt>
      <trkpt lat="44.15418" lon="6.9716">
        <ele>2796.5737304688</ele>
        <time>2013-12-07T12:57:53Z</time>
      </trkpt>
      <trkpt lat="44.15419" lon="6.97164">
        <ele>2797.4326171875</ele>
        <time>2013-12-07T12:57:57Z</time>
      </trkpt>
      <trkpt lat="44.15423" lon="6.97165">
        <ele>2794.81640625</ele>
        <time>2013-12-07T12:58:04Z</time>
      </trkpt>
      <trkpt lat="44.15424" lon="6.97167">
        <ele>2794.5205078125</ele>
        <time>2013-12-07T12:58:08Z</time>
      </trkpt>
      <trkpt lat="44.15425" lon="6.97171">
        <ele>2794.9155273438</ele>
        <time>2013-12-07T12:58:12Z</time>
      </trkpt>
      <trkpt lat="44.15428" lon="6.97178">
        <ele>2795.0952148438</ele>
        <time>2013-12-07T12:58:19Z</time>
      </trkpt>
      <trkpt lat="44.15431" lon="6.97179">
        <ele>2794.3322753906</ele>
        <time>2013-12-07T12:58:23Z</time>
      </trkpt>
      <trkpt lat="44.15436" lon="6.97179">
        <ele>2792.3359375</ele>
        <time>2013-12-07T12:58:32Z</time>
      </trkpt>
      <trkpt lat="44.15437" lon="6.97175">
        <ele>2789.5227050781</ele>
        <time>2013-12-07T12:58:38Z</time>
      </trkpt>
      <trkpt lat="44.15435" lon="6.97172">
        <ele>2789.4191894531</ele>
        <time>2013-12-07T13:01:14Z</time>
      </trkpt>
      <trkpt lat="44.15435" lon="6.97171">
        <ele>2788.4582519531</ele>
        <time>2013-12-07T13:05:39Z</time>
      </trkpt>
      <trkpt lat="44.15434" lon="6.97169">
        <ele>2788.4885253906</ele>
        <time>2013-12-07T13:05:46Z</time>
      </trkpt>
      <trkpt lat="44.15435" lon="6.97174">
        <ele>2790.056640625</ele>
        <time>2013-12-07T13:05:57Z</time>
      </trkpt>
      <trkpt lat="44.15435" lon="6.97175">
        <ele>2790.54296875</ele>
        <time>2013-12-07T13:06:07Z</time>
      </trkpt>
      <trkpt lat="44.15437" lon="6.97176">
        <ele>2790.1489257812</ele>
        <time>2013-12-07T13:06:13Z</time>
      </trkpt>
      <trkpt lat="44.15438" lon="6.97172">
        <ele>2787.984375</ele>
        <time>2013-12-07T13:06:23Z</time>
      </trkpt>
      <trkpt lat="44.15437" lon="6.97174">
        <ele>2789.2470703125</ele>
        <time>2013-12-07T13:06:33Z</time>
      </trkpt>
      <trkpt lat="44.15435" lon="6.97173">
        <ele>2789.861328125</ele>
        <time>2013-12-07T13:09:10Z</time>
      </trkpt>
      <trkpt lat="44.15431" lon="6.97168">
        <ele>2789.8735351562</ele>
        <time>2013-12-07T13:09:15Z</time>
      </trkpt>
      <trkpt lat="44.15428" lon="6.97162">
        <ele>2789.5017089844</ele>
        <time>2013-12-07T13:09:20Z</time>
      </trkpt>
      <trkpt lat="44.15425" lon="6.9716">
        <ele>2790.7094726562</ele>
        <time>2013-12-07T13:09:23Z</time>
      </trkpt>
      <trkpt lat="44.15422" lon="6.97161">
        <ele>2793.7666015625</ele>
        <time>2013-12-07T13:09:27Z</time>
      </trkpt>
      <trkpt lat="44.15418" lon="6.97153">
        <ele>2793.7756347656</ele>
        <time>2013-12-07T13:09:35Z</time>
      </trkpt>
      <trkpt lat="44.15416" lon="6.9715">
        <ele>2794.1140136719</ele>
        <time>2013-12-07T13:09:42Z</time>
      </trkpt>
      <trkpt lat="44.15413" lon="6.97143">
        <ele>2791.8676757812</ele>
        <time>2013-12-07T13:09:49Z</time>
      </trkpt>
      <trkpt lat="44.15409" lon="6.9714">
        <ele>2791.0795898438</ele>
        <time>2013-12-07T13:09:56Z</time>
      </trkpt>
      <trkpt lat="44.15406" lon="6.97132">
        <ele>2787.5224609375</ele>
        <time>2013-12-07T13:10:04Z</time>
      </trkpt>
      <trkpt lat="44.15406" lon="6.97131">
        <ele>2787.2756347656</ele>
        <time>2013-12-07T13:10:05Z</time>
      </trkpt>
      <trkpt lat="44.154" lon="6.97123">
        <ele>2785.458984375</ele>
        <time>2013-12-07T13:10:14Z</time>
      </trkpt>
      <trkpt lat="44.15396" lon="6.97114">
        <ele>2783.2709960938</ele>
        <time>2013-12-07T13:10:23Z</time>
      </trkpt>
      <trkpt lat="44.15394" lon="6.97109">
        <ele>2782.580078125</ele>
        <time>2013-12-07T13:10:29Z</time>
      </trkpt>
      <trkpt lat="44.1539" lon="6.97098">
        <ele>2782.7194824219</ele>
        <time>2013-12-07T13:10:38Z</time>
      </trkpt>
      <trkpt lat="44.15387" lon="6.9709">
        <ele>2780.32421875</ele>
        <time>2013-12-07T13:10:46Z</time>
      </trkpt>
      <trkpt lat="44.15384" lon="6.97077">
        <ele>2772.232421875</ele>
        <time>2013-12-07T13:10:55Z</time>
      </trkpt>
      <trkpt lat="44.15379" lon="6.97068">
        <ele>2765.25</ele>
        <time>2013-12-07T13:11:03Z</time>
      </trkpt>
      <trkpt lat="44.15374" lon="6.97057">
        <ele>2759.4282226562</ele>
        <time>2013-12-07T13:11:13Z</time>
      </trkpt>
      <trkpt lat="44.15373" lon="6.97054">
        <ele>2758.2534179688</ele>
        <time>2013-12-07T13:11:18Z</time>
      </trkpt>
      <trkpt lat="44.15371" lon="6.97047">
        <ele>2756.0539550781</ele>
        <time>2013-12-07T13:11:24Z</time>
      </trkpt>
      <trkpt lat="44.15371" lon="6.97044">
        <ele>2755.2495117188</ele>
        <time>2013-12-07T13:11:33Z</time>
      </trkpt>
      <trkpt lat="44.15369" lon="6.97034">
        <ele>2752.5329589844</ele>
        <time>2013-12-07T13:11:42Z</time>
      </trkpt>
      <trkpt lat="44.15368" lon="6.97031">
        <ele>2752.3088378906</ele>
        <time>2013-12-07T13:11:46Z</time>
      </trkpt>
      <trkpt lat="44.15365" lon="6.97022">
        <ele>2749.609375</ele>
        <time>2013-12-07T13:11:54Z</time>
      </trkpt>
      <trkpt lat="44.15363" lon="6.97015">
        <ele>2747.2749023438</ele>
        <time>2013-12-07T13:12:00Z</time>
      </trkpt>
      <trkpt lat="44.15363" lon="6.97014">
        <ele>2746.8627929688</ele>
        <time>2013-12-07T13:12:01Z</time>
      </trkpt>
      <trkpt lat="44.15363" lon="6.97011">
        <ele>2745.4621582031</ele>
        <time>2013-12-07T13:12:03Z</time>
      </trkpt>
      <trkpt lat="44.15359" lon="6.97006">
        <ele>2744.0852050781</ele>
        <time>2013-12-07T13:12:09Z</time>
      </trkpt>
      <trkpt lat="44.15358" lon="6.97002">
        <ele>2742.0520019531</ele>
        <time>2013-12-07T13:12:15Z</time>
      </trkpt>
      <trkpt lat="44.15355" lon="6.96994">
        <ele>2739.564453125</ele>
        <time>2013-12-07T13:12:22Z</time>
      </trkpt>
      <trkpt lat="44.15353" lon="6.96985">
        <ele>2736.4040527344</ele>
        <time>2013-12-07T13:12:30Z</time>
      </trkpt>
      <trkpt lat="44.1535" lon="6.96978">
        <ele>2734.7573242188</ele>
        <time>2013-12-07T13:12:38Z</time>
      </trkpt>
      <trkpt lat="44.15347" lon="6.96972">
        <ele>2734.4895019531</ele>
        <time>2013-12-07T13:12:45Z</time>
      </trkpt>
      <trkpt lat="44.15346" lon="6.96969">
        <ele>2733.4213867188</ele>
        <time>2013-12-07T13:12:52Z</time>
      </trkpt>
      <trkpt lat="44.15344" lon="6.96966">
        <ele>2733.0300292969</ele>
        <time>2013-12-07T13:12:57Z</time>
      </trkpt>
      <trkpt lat="44.15342" lon="6.96963">
        <ele>2733.3637695312</ele>
        <time>2013-12-07T13:13:03Z</time>
      </trkpt>
      <trkpt lat="44.15341" lon="6.96958">
        <ele>2732.080078125</ele>
        <time>2013-12-07T13:13:09Z</time>
      </trkpt>
      <trkpt lat="44.15339" lon="6.96953">
        <ele>2731.7258300781</ele>
        <time>2013-12-07T13:13:16Z</time>
      </trkpt>
      <trkpt lat="44.15335" lon="6.96945">
        <ele>2730.6518554688</ele>
        <time>2013-12-07T13:13:24Z</time>
      </trkpt>
      <trkpt lat="44.15333" lon="6.96939">
        <ele>2729.8415527344</ele>
        <time>2013-12-07T13:13:32Z</time>
      </trkpt>
      <trkpt lat="44.15331" lon="6.96936">
        <ele>2728.6350097656</ele>
        <time>2013-12-07T13:13:38Z</time>
      </trkpt>
      <trkpt lat="44.15328" lon="6.96933">
        <ele>2727.5769042969</ele>
        <time>2013-12-07T13:13:44Z</time>
      </trkpt>
      <trkpt lat="44.15325" lon="6.96925">
        <ele>2725.3122558594</ele>
        <time>2013-12-07T13:13:51Z</time>
      </trkpt>
      <trkpt lat="44.15323" lon="6.96922">
        <ele>2724.3942871094</ele>
        <time>2013-12-07T13:13:57Z</time>
      </trkpt>
      <trkpt lat="44.15319" lon="6.96914">
        <ele>2722.8334960938</ele>
        <time>2013-12-07T13:14:05Z</time>
      </trkpt>
      <trkpt lat="44.15317" lon="6.96907">
        <ele>2721.6813964844</ele>
        <time>2013-12-07T13:14:13Z</time>
      </trkpt>
      <trkpt lat="44.15314" lon="6.96901">
        <ele>2721.24609375</ele>
        <time>2013-12-07T13:14:20Z</time>
      </trkpt>
      <trkpt lat="44.15311" lon="6.96895">
        <ele>2720.748046875</ele>
        <time>2013-12-07T13:14:28Z</time>
      </trkpt>
      <trkpt lat="44.15311" lon="6.96889">
        <ele>2719.8391113281</ele>
        <time>2013-12-07T13:14:34Z</time>
      </trkpt>
      <trkpt lat="44.15308" lon="6.9688">
        <ele>2718.7502441406</ele>
        <time>2013-12-07T13:14:43Z</time>
      </trkpt>
      <trkpt lat="44.15306" lon="6.96872">
        <ele>2717.7143554688</ele>
        <time>2013-12-07T13:14:51Z</time>
      </trkpt>
      <trkpt lat="44.15304" lon="6.96866">
        <ele>2716.3923339844</ele>
        <time>2013-12-07T13:14:58Z</time>
      </trkpt>
      <trkpt lat="44.15303" lon="6.96859">
        <ele>2714.7561035156</ele>
        <time>2013-12-07T13:15:04Z</time>
      </trkpt>
      <trkpt lat="44.153" lon="6.96854">
        <ele>2713.7282714844</ele>
        <time>2013-12-07T13:15:10Z</time>
      </trkpt>
      <trkpt lat="44.15299" lon="6.96849">
        <ele>2712.4174804688</ele>
        <time>2013-12-07T13:15:14Z</time>
      </trkpt>
      <trkpt lat="44.15294" lon="6.96839">
        <ele>2710.9133300781</ele>
        <time>2013-12-07T13:15:24Z</time>
      </trkpt>
      <trkpt lat="44.15291" lon="6.96831">
        <ele>2709.7331542969</ele>
        <time>2013-12-07T13:15:30Z</time>
      </trkpt>
      <trkpt lat="44.15289" lon="6.96825">
        <ele>2709.1162109375</ele>
        <time>2013-12-07T13:15:36Z</time>
      </trkpt>
      <trkpt lat="44.15286" lon="6.96814">
        <ele>2707.88671875</ele>
        <time>2013-12-07T13:15:45Z</time>
      </trkpt>
      <trkpt lat="44.15285" lon="6.96806">
        <ele>2706.8681640625</ele>
        <time>2013-12-07T13:15:52Z</time>
      </trkpt>
      <trkpt lat="44.15283" lon="6.968">
        <ele>2706.1733398438</ele>
        <time>2013-12-07T13:15:58Z</time>
      </trkpt>
      <trkpt lat="44.15281" lon="6.96793">
        <ele>2705.1904296875</ele>
        <time>2013-12-07T13:16:04Z</time>
      </trkpt>
      <trkpt lat="44.15281" lon="6.96792">
        <ele>2705.2766113281</ele>
        <time>2013-12-07T13:16:05Z</time>
      </trkpt>
      <trkpt lat="44.15277" lon="6.96781">
        <ele>2704.5593261719</ele>
        <time>2013-12-07T13:16:15Z</time>
      </trkpt>
      <trkpt lat="44.15278" lon="6.96776">
        <ele>2703.3874511719</ele>
        <time>2013-12-07T13:16:22Z</time>
      </trkpt>
      <trkpt lat="44.15277" lon="6.96769">
        <ele>2702.6887207031</ele>
        <time>2013-12-07T13:16:32Z</time>
      </trkpt>
      <trkpt lat="44.15276" lon="6.96767">
        <ele>2702.2697753906</ele>
        <time>2013-12-07T13:16:34Z</time>
      </trkpt>
      <trkpt lat="44.15275" lon="6.96765">
        <ele>2701.833984375</ele>
        <time>2013-12-07T13:16:39Z</time>
      </trkpt>
      <trkpt lat="44.15276" lon="6.96762">
        <ele>2701.5441894531</ele>
        <time>2013-12-07T13:16:45Z</time>
      </trkpt>
      <trkpt lat="44.15276" lon="6.96754">
        <ele>2700.5283203125</ele>
        <time>2013-12-07T13:16:51Z</time>
      </trkpt>
      <trkpt lat="44.15274" lon="6.9675">
        <ele>2699.8090820312</ele>
        <time>2013-12-07T13:16:57Z</time>
      </trkpt>
      <trkpt lat="44.15271" lon="6.96741">
        <ele>2696.5114746094</ele>
        <time>2013-12-07T13:17:05Z</time>
      </trkpt>
      <trkpt lat="44.15267" lon="6.96733">
        <ele>2694.478515625</ele>
        <time>2013-12-07T13:17:12Z</time>
      </trkpt>
      <trkpt lat="44.15267" lon="6.96733">
        <ele>2694.5095214844</ele>
        <time>2013-12-07T13:17:19Z</time>
      </trkpt>
      <trkpt lat="44.15269" lon="6.96734">
        <ele>2693.8715820312</ele>
        <time>2013-12-07T13:18:24Z</time>
      </trkpt>
      <trkpt lat="44.15268" lon="6.96726">
        <ele>2691.7734375</ele>
        <time>2013-12-07T13:18:31Z</time>
      </trkpt>
      <trkpt lat="44.15265" lon="6.96717">
        <ele>2690.0803222656</ele>
        <time>2013-12-07T13:18:39Z</time>
      </trkpt>
      <trkpt lat="44.15263" lon="6.96708">
        <ele>2688.6369628906</ele>
        <time>2013-12-07T13:18:46Z</time>
      </trkpt>
      <trkpt lat="44.1526" lon="6.96698">
        <ele>2687.3850097656</ele>
        <time>2013-12-07T13:18:54Z</time>
      </trkpt>
      <trkpt lat="44.15258" lon="6.96694">
        <ele>2687.0532226562</ele>
        <time>2013-12-07T13:19:00Z</time>
      </trkpt>
      <trkpt lat="44.15257" lon="6.96688">
        <ele>2685.3620605469</ele>
        <time>2013-12-07T13:19:07Z</time>
      </trkpt>
      <trkpt lat="44.15256" lon="6.96684">
        <ele>2684.6179199219</ele>
        <time>2013-12-07T13:19:11Z</time>
      </trkpt>
      <trkpt lat="44.15252" lon="6.96677">
        <ele>2685.4294433594</ele>
        <time>2013-12-07T13:19:19Z</time>
      </trkpt>
      <trkpt lat="44.15251" lon="6.96676">
        <ele>2685.3659667969</ele>
        <time>2013-12-07T13:19:20Z</time>
      </trkpt>
      <trkpt lat="44.15248" lon="6.9667">
        <ele>2684.0847167969</ele>
        <time>2013-12-07T13:19:25Z</time>
      </trkpt>
      <trkpt lat="44.15244" lon="6.96661">
        <ele>2681.1540527344</ele>
        <time>2013-12-07T13:19:33Z</time>
      </trkpt>
      <trkpt lat="44.15241" lon="6.96653">
        <ele>2679.4204101562</ele>
        <time>2013-12-07T13:19:39Z</time>
      </trkpt>
      <trkpt lat="44.1524" lon="6.96653">
        <ele>2679.3381347656</ele>
        <time>2013-12-07T13:19:44Z</time>
      </trkpt>
      <trkpt lat="44.15238" lon="6.96651">
        <ele>2679.0908203125</ele>
        <time>2013-12-07T13:20:25Z</time>
      </trkpt>
      <trkpt lat="44.15238" lon="6.9665">
        <ele>2678.9392089844</ele>
        <time>2013-12-07T13:20:26Z</time>
      </trkpt>
      <trkpt lat="44.15234" lon="6.96641">
        <ele>2677.7626953125</ele>
        <time>2013-12-07T13:20:35Z</time>
      </trkpt>
      <trkpt lat="44.15234" lon="6.96639">
        <ele>2677.5949707031</ele>
        <time>2013-12-07T13:20:38Z</time>
      </trkpt>
      <trkpt lat="44.1523" lon="6.96632">
        <ele>2676.8083496094</ele>
        <time>2013-12-07T13:20:45Z</time>
      </trkpt>
      <trkpt lat="44.15229" lon="6.9663">
        <ele>2676.5595703125</ele>
        <time>2013-12-07T13:20:48Z</time>
      </trkpt>
      <trkpt lat="44.15227" lon="6.96621">
        <ele>2675.4711914062</ele>
        <time>2013-12-07T13:20:55Z</time>
      </trkpt>
      <trkpt lat="44.15222" lon="6.96614">
        <ele>2676.4396972656</ele>
        <time>2013-12-07T13:21:02Z</time>
      </trkpt>
      <trkpt lat="44.15217" lon="6.96603">
        <ele>2674.7316894531</ele>
        <time>2013-12-07T13:21:11Z</time>
      </trkpt>
      <trkpt lat="44.15213" lon="6.96591">
        <ele>2673.3566894531</ele>
        <time>2013-12-07T13:21:19Z</time>
      </trkpt>
      <trkpt lat="44.1521" lon="6.96586">
        <ele>2673.7932128906</ele>
        <time>2013-12-07T13:21:27Z</time>
      </trkpt>
      <trkpt lat="44.15209" lon="6.96582">
        <ele>2673.6257324219</ele>
        <time>2013-12-07T13:21:34Z</time>
      </trkpt>
      <trkpt lat="44.15208" lon="6.9658">
        <ele>2673.6342773438</ele>
        <time>2013-12-07T13:21:38Z</time>
      </trkpt>
      <trkpt lat="44.15206" lon="6.96573">
        <ele>2673.8879394531</ele>
        <time>2013-12-07T13:21:45Z</time>
      </trkpt>
      <trkpt lat="44.15202" lon="6.96566">
        <ele>2675.1838378906</ele>
        <time>2013-12-07T13:21:53Z</time>
      </trkpt>
      <trkpt lat="44.15202" lon="6.96565">
        <ele>2675.5546875</ele>
        <time>2013-12-07T13:21:59Z</time>
      </trkpt>
      <trkpt lat="44.15202" lon="6.96561">
        <ele>2675.2658691406</ele>
        <time>2013-12-07T13:22:04Z</time>
      </trkpt>
      <trkpt lat="44.152" lon="6.96558">
        <ele>2676.3657226562</ele>
        <time>2013-12-07T13:22:10Z</time>
      </trkpt>
      <trkpt lat="44.15199" lon="6.96556">
        <ele>2676.5358886719</ele>
        <time>2013-12-07T13:22:12Z</time>
      </trkpt>
      <trkpt lat="44.15198" lon="6.96549">
        <ele>2675.9743652344</ele>
        <time>2013-12-07T13:22:20Z</time>
      </trkpt>
      <trkpt lat="44.15197" lon="6.96545">
        <ele>2676.0383300781</ele>
        <time>2013-12-07T13:23:09Z</time>
      </trkpt>
      <trkpt lat="44.15193" lon="6.96538">
        <ele>2676.2966308594</ele>
        <time>2013-12-07T13:23:16Z</time>
      </trkpt>
      <trkpt lat="44.1519" lon="6.9653">
        <ele>2675.3400878906</ele>
        <time>2013-12-07T13:23:24Z</time>
      </trkpt>
      <trkpt lat="44.15188" lon="6.96522">
        <ele>2673.5693359375</ele>
        <time>2013-12-07T13:23:31Z</time>
      </trkpt>
      <trkpt lat="44.15187" lon="6.96518">
        <ele>2672.5251464844</ele>
        <time>2013-12-07T13:23:36Z</time>
      </trkpt>
      <trkpt lat="44.15187" lon="6.96515">
        <ele>2671.9963378906</ele>
        <time>2013-12-07T13:23:39Z</time>
      </trkpt>
      <trkpt lat="44.15183" lon="6.96503">
        <ele>2670.5603027344</ele>
        <time>2013-12-07T13:23:49Z</time>
      </trkpt>
      <trkpt lat="44.15182" lon="6.96497">
        <ele>2670.06640625</ele>
        <time>2013-12-07T13:23:56Z</time>
      </trkpt>
      <trkpt lat="44.15176" lon="6.96487">
        <ele>2672.8295898438</ele>
        <time>2013-12-07T13:24:04Z</time>
      </trkpt>
      <trkpt lat="44.15173" lon="6.96477">
        <ele>2674.0593261719</ele>
        <time>2013-12-07T13:24:12Z</time>
      </trkpt>
      <trkpt lat="44.15172" lon="6.96469">
        <ele>2672.9821777344</ele>
        <time>2013-12-07T13:24:19Z</time>
      </trkpt>
      <trkpt lat="44.15168" lon="6.96458">
        <ele>2672.9409179688</ele>
        <time>2013-12-07T13:24:27Z</time>
      </trkpt>
      <trkpt lat="44.15162" lon="6.96447">
        <ele>2671.1196289062</ele>
        <time>2013-12-07T13:24:35Z</time>
      </trkpt>
      <trkpt lat="44.1516" lon="6.96445">
        <ele>2670.9997558594</ele>
        <time>2013-12-07T13:24:39Z</time>
      </trkpt>
      <trkpt lat="44.15159" lon="6.96444">
        <ele>2671.4677734375</ele>
        <time>2013-12-07T13:24:41Z</time>
      </trkpt>
      <trkpt lat="44.15156" lon="6.9644">
        <ele>2672.0424804688</ele>
        <time>2013-12-07T13:24:45Z</time>
      </trkpt>
      <trkpt lat="44.15153" lon="6.96432">
        <ele>2672.8012695312</ele>
        <time>2013-12-07T13:24:53Z</time>
      </trkpt>
      <trkpt lat="44.15152" lon="6.96426">
        <ele>2672.662109375</ele>
        <time>2013-12-07T13:24:59Z</time>
      </trkpt>
      <trkpt lat="44.1515" lon="6.96419">
        <ele>2673.0539550781</ele>
        <time>2013-12-07T13:25:05Z</time>
      </trkpt>
      <trkpt lat="44.15146" lon="6.96413">
        <ele>2675.2470703125</ele>
        <time>2013-12-07T13:25:12Z</time>
      </trkpt>
      <trkpt lat="44.15141" lon="6.96404">
        <ele>2678.2978515625</ele>
        <time>2013-12-07T13:25:21Z</time>
      </trkpt>
      <trkpt lat="44.15137" lon="6.96395">
        <ele>2681.0356445312</ele>
        <time>2013-12-07T13:25:30Z</time>
      </trkpt>
      <trkpt lat="44.15136" lon="6.96392">
        <ele>2681.6740722656</ele>
        <time>2013-12-07T13:25:33Z</time>
      </trkpt>
      <trkpt lat="44.15132" lon="6.96385">
        <ele>2683.4653320312</ele>
        <time>2013-12-07T13:25:41Z</time>
      </trkpt>
      <trkpt lat="44.15129" lon="6.96379">
        <ele>2684.5791015625</ele>
        <time>2013-12-07T13:25:49Z</time>
      </trkpt>
      <trkpt lat="44.15127" lon="6.96376">
        <ele>2685.6120605469</ele>
        <time>2013-12-07T13:25:55Z</time>
      </trkpt>
      <trkpt lat="44.15124" lon="6.96371">
        <ele>2687.8327636719</ele>
        <time>2013-12-07T13:26:03Z</time>
      </trkpt>
      <trkpt lat="44.15121" lon="6.96367">
        <ele>2689.6640625</ele>
        <time>2013-12-07T13:26:08Z</time>
      </trkpt>
      <trkpt lat="44.1512" lon="6.96358">
        <ele>2689.5297851562</ele>
        <time>2013-12-07T13:26:17Z</time>
      </trkpt>
      <trkpt lat="44.15117" lon="6.96352">
        <ele>2690.6748046875</ele>
        <time>2013-12-07T13:26:24Z</time>
      </trkpt>
      <trkpt lat="44.15113" lon="6.96345">
        <ele>2692.1384277344</ele>
        <time>2013-12-07T13:26:34Z</time>
      </trkpt>
      <trkpt lat="44.1511" lon="6.9634">
        <ele>2692.6970214844</ele>
        <time>2013-12-07T13:26:40Z</time>
      </trkpt>
      <trkpt lat="44.15108" lon="6.96332">
        <ele>2691.0881347656</ele>
        <time>2013-12-07T13:26:48Z</time>
      </trkpt>
      <trkpt lat="44.15107" lon="6.96327">
        <ele>2690.23828125</ele>
        <time>2013-12-07T13:26:55Z</time>
      </trkpt>
      <trkpt lat="44.15105" lon="6.96323">
        <ele>2689.6506347656</ele>
        <time>2013-12-07T13:27:01Z</time>
      </trkpt>
      <trkpt lat="44.15101" lon="6.96317">
        <ele>2690.7136230469</ele>
        <time>2013-12-07T13:27:09Z</time>
      </trkpt>
      <trkpt lat="44.151" lon="6.96315">
        <ele>2691.1049804688</ele>
        <time>2013-12-07T13:27:12Z</time>
      </trkpt>
      <trkpt lat="44.15098" lon="6.96308">
        <ele>2690.68359375</ele>
        <time>2013-12-07T13:27:20Z</time>
      </trkpt>
      <trkpt lat="44.15097" lon="6.96305">
        <ele>2691.2055664062</ele>
        <time>2013-12-07T13:27:24Z</time>
      </trkpt>
      <trkpt lat="44.15091" lon="6.96297">
        <ele>2693.8249511719</ele>
        <time>2013-12-07T13:27:34Z</time>
      </trkpt>
      <trkpt lat="44.15086" lon="6.9629">
        <ele>2697.2236328125</ele>
        <time>2013-12-07T13:27:43Z</time>
      </trkpt>
      <trkpt lat="44.15083" lon="6.96284">
        <ele>2698.7229003906</ele>
        <time>2013-12-07T13:27:51Z</time>
      </trkpt>
      <trkpt lat="44.15077" lon="6.96278">
        <ele>2702.4350585938</ele>
        <time>2013-12-07T13:28:00Z</time>
      </trkpt>
      <trkpt lat="44.15073" lon="6.96273">
        <ele>2704.1657714844</ele>
        <time>2013-12-07T13:28:07Z</time>
      </trkpt>
      <trkpt lat="44.15071" lon="6.96269">
        <ele>2704.4233398438</ele>
        <time>2013-12-07T13:28:11Z</time>
      </trkpt>
      <trkpt lat="44.15068" lon="6.96264">
        <ele>2706.4343261719</ele>
        <time>2013-12-07T13:28:17Z</time>
      </trkpt>
      <trkpt lat="44.15067" lon="6.96261">
        <ele>2707.0268554688</ele>
        <time>2013-12-07T13:28:20Z</time>
      </trkpt>
      <trkpt lat="44.15062" lon="6.96256">
        <ele>2711.9155273438</ele>
        <time>2013-12-07T13:28:30Z</time>
      </trkpt>
      <trkpt lat="44.15059" lon="6.96252">
        <ele>2715.29296875</ele>
        <time>2013-12-07T13:28:36Z</time>
      </trkpt>
      <trkpt lat="44.15054" lon="6.96246">
        <ele>2718.9919433594</ele>
        <time>2013-12-07T13:28:44Z</time>
      </trkpt>
      <trkpt lat="44.1505" lon="6.9624">
        <ele>2717.9685058594</ele>
        <time>2013-12-07T13:28:54Z</time>
      </trkpt>
      <trkpt lat="44.15044" lon="6.96235">
        <ele>2717.8161621094</ele>
        <time>2013-12-07T13:29:01Z</time>
      </trkpt>
      <trkpt lat="44.15039" lon="6.96229">
        <ele>2717.9304199219</ele>
        <time>2013-12-07T13:29:10Z</time>
      </trkpt>
      <trkpt lat="44.15036" lon="6.96223">
        <ele>2717.8989257812</ele>
        <time>2013-12-07T13:29:17Z</time>
      </trkpt>
      <trkpt lat="44.15036" lon="6.96222">
        <ele>2717.828125</ele>
        <time>2013-12-07T13:29:18Z</time>
      </trkpt>
      <trkpt lat="44.15038" lon="6.96219">
        <ele>2717.2822265625</ele>
        <time>2013-12-07T13:29:21Z</time>
      </trkpt>
      <trkpt lat="44.15039" lon="6.96217">
        <ele>2716.7041015625</ele>
        <time>2013-12-07T13:29:24Z</time>
      </trkpt>
      <trkpt lat="44.15037" lon="6.96211">
        <ele>2716.8251953125</ele>
        <time>2013-12-07T13:29:31Z</time>
      </trkpt>
      <trkpt lat="44.15034" lon="6.96207">
        <ele>2717.6965332031</ele>
        <time>2013-12-07T13:29:37Z</time>
      </trkpt>
      <trkpt lat="44.1503" lon="6.96204">
        <ele>2718.9606933594</ele>
        <time>2013-12-07T13:29:43Z</time>
      </trkpt>
      <trkpt lat="44.1503" lon="6.96204">
        <ele>2719.109375</ele>
        <time>2013-12-07T13:29:44Z</time>
      </trkpt>
      <trkpt lat="44.15025" lon="6.96201">
        <ele>2720</ele>
        <time>2013-12-07T13:29:50Z</time>
      </trkpt>
      <trkpt lat="44.15019" lon="6.96189">
        <ele>2720</ele>
        <time>2013-12-07T13:30:00Z</time>
      </trkpt>
      <trkpt lat="44.15015" lon="6.96178">
        <ele>2720</ele>
        <time>2013-12-07T13:30:08Z</time>
      </trkpt>
      <trkpt lat="44.1501" lon="6.96166">
        <ele>2719.9499511719</ele>
        <time>2013-12-07T13:30:16Z</time>
      </trkpt>
      <trkpt lat="44.15006" lon="6.96152">
        <ele>2717.5317382812</ele>
        <time>2013-12-07T13:30:25Z</time>
      </trkpt>
      <trkpt lat="44.15004" lon="6.96143">
        <ele>2716.6484375</ele>
        <time>2013-12-07T13:30:31Z</time>
      </trkpt>
      <trkpt lat="44.15002" lon="6.96138">
        <ele>2716.2136230469</ele>
        <time>2013-12-07T13:30:37Z</time>
      </trkpt>
      <trkpt lat="44.15001" lon="6.96125">
        <ele>2714.1650390625</ele>
        <time>2013-12-07T13:30:44Z</time>
      </trkpt>
      <trkpt lat="44.15" lon="6.96121">
        <ele>2713.80078125</ele>
        <time>2013-12-07T13:30:46Z</time>
      </trkpt>
      <trkpt lat="44.14998" lon="6.96107">
        <ele>2711.822265625</ele>
        <time>2013-12-07T13:30:54Z</time>
      </trkpt>
      <trkpt lat="44.14995" lon="6.96093">
        <ele>2710.1267089844</ele>
        <time>2013-12-07T13:31:03Z</time>
      </trkpt>
      <trkpt lat="44.14994" lon="6.96078">
        <ele>2708.052734375</ele>
        <time>2013-12-07T13:31:12Z</time>
      </trkpt>
      <trkpt lat="44.14992" lon="6.96064">
        <ele>2706.6472167969</ele>
        <time>2013-12-07T13:31:20Z</time>
      </trkpt>
      <trkpt lat="44.14989" lon="6.96051">
        <ele>2706.0222167969</ele>
        <time>2013-12-07T13:31:28Z</time>
      </trkpt>
      <trkpt lat="44.14986" lon="6.96038">
        <ele>2705.7329101562</ele>
        <time>2013-12-07T13:31:36Z</time>
      </trkpt>
      <trkpt lat="44.14982" lon="6.96025">
        <ele>2705.5588378906</ele>
        <time>2013-12-07T13:31:44Z</time>
      </trkpt>
      <trkpt lat="44.14979" lon="6.96016">
        <ele>2705.5249023438</ele>
        <time>2013-12-07T13:31:50Z</time>
      </trkpt>
      <trkpt lat="44.14976" lon="6.96004">
        <ele>2705.2390136719</ele>
        <time>2013-12-07T13:31:58Z</time>
      </trkpt>
      <trkpt lat="44.14975" lon="6.96003">
        <ele>2705.1977539062</ele>
        <time>2013-12-07T13:31:59Z</time>
      </trkpt>
      <trkpt lat="44.14973" lon="6.95994">
        <ele>2705.0434570312</ele>
        <time>2013-12-07T13:32:06Z</time>
      </trkpt>
      <trkpt lat="44.14971" lon="6.95984">
        <ele>2704.1650390625</ele>
        <time>2013-12-07T13:32:13Z</time>
      </trkpt>
      <trkpt lat="44.1497" lon="6.95972">
        <ele>2703.0263671875</ele>
        <time>2013-12-07T13:32:20Z</time>
      </trkpt>
      <trkpt lat="44.14966" lon="6.9596">
        <ele>2701.755859375</ele>
        <time>2013-12-07T13:32:28Z</time>
      </trkpt>
      <trkpt lat="44.14966" lon="6.95958">
        <ele>2701.583984375</ele>
        <time>2013-12-07T13:32:29Z</time>
      </trkpt>
      <trkpt lat="44.14965" lon="6.95952">
        <ele>2700.9936523438</ele>
        <time>2013-12-07T13:32:33Z</time>
      </trkpt>
      <trkpt lat="44.1496" lon="6.95938">
        <ele>2698.87109375</ele>
        <time>2013-12-07T13:32:42Z</time>
      </trkpt>
      <trkpt lat="44.14957" lon="6.95926">
        <ele>2696.7858886719</ele>
        <time>2013-12-07T13:32:49Z</time>
      </trkpt>
      <trkpt lat="44.14954" lon="6.95916">
        <ele>2695.2309570312</ele>
        <time>2013-12-07T13:32:56Z</time>
      </trkpt>
      <trkpt lat="44.14952" lon="6.9591">
        <ele>2694.2399902344</ele>
        <time>2013-12-07T13:33:00Z</time>
      </trkpt>
      <trkpt lat="44.14948" lon="6.95908">
        <ele>2694.7614746094</ele>
        <time>2013-12-07T13:33:04Z</time>
      </trkpt>
      <trkpt lat="44.14946" lon="6.95909">
        <ele>2695.3337402344</ele>
        <time>2013-12-07T13:33:06Z</time>
      </trkpt>
      <trkpt lat="44.14942" lon="6.95908">
        <ele>2695.458984375</ele>
        <time>2013-12-07T13:33:10Z</time>
      </trkpt>
      <trkpt lat="44.14936" lon="6.95898">
        <ele>2692.3520507812</ele>
        <time>2013-12-07T13:33:18Z</time>
      </trkpt>
      <trkpt lat="44.14936" lon="6.95895">
        <ele>2691.6982421875</ele>
        <time>2013-12-07T13:33:20Z</time>
      </trkpt>
      <trkpt lat="44.14931" lon="6.95892">
        <ele>2690.7373046875</ele>
        <time>2013-12-07T13:33:26Z</time>
      </trkpt>
      <trkpt lat="44.1493" lon="6.95891">
        <ele>2690.5522460938</ele>
        <time>2013-12-07T13:33:27Z</time>
      </trkpt>
      <trkpt lat="44.14922" lon="6.95882">
        <ele>2688.19140625</ele>
        <time>2013-12-07T13:33:35Z</time>
      </trkpt>
      <trkpt lat="44.14916" lon="6.95869">
        <ele>2684.8666992188</ele>
        <time>2013-12-07T13:33:44Z</time>
      </trkpt>
      <trkpt lat="44.14909" lon="6.9586">
        <ele>2682.4909667969</ele>
        <time>2013-12-07T13:33:51Z</time>
      </trkpt>
      <trkpt lat="44.14904" lon="6.95853">
        <ele>2681.099609375</ele>
        <time>2013-12-07T13:33:57Z</time>
      </trkpt>
      <trkpt lat="44.14899" lon="6.95848">
        <ele>2680.4973144531</ele>
        <time>2013-12-07T13:34:02Z</time>
      </trkpt>
      <trkpt lat="44.14897" lon="6.95842">
        <ele>2679.94921875</ele>
        <time>2013-12-07T13:34:06Z</time>
      </trkpt>
      <trkpt lat="44.14896" lon="6.9584">
        <ele>2679.7868652344</ele>
        <time>2013-12-07T13:34:08Z</time>
      </trkpt>
      <trkpt lat="44.1489" lon="6.95835">
        <ele>2680.015625</ele>
        <time>2013-12-07T13:34:15Z</time>
      </trkpt>
      <trkpt lat="44.14886" lon="6.9583">
        <ele>2678.3972167969</ele>
        <time>2013-12-07T13:34:20Z</time>
      </trkpt>
      <trkpt lat="44.1488" lon="6.95823">
        <ele>2675.0668945312</ele>
        <time>2013-12-07T13:34:27Z</time>
      </trkpt>
      <trkpt lat="44.14874" lon="6.95815">
        <ele>2671.583984375</ele>
        <time>2013-12-07T13:34:35Z</time>
      </trkpt>
      <trkpt lat="44.14872" lon="6.95809">
        <ele>2668.8386230469</ele>
        <time>2013-12-07T13:34:40Z</time>
      </trkpt>
      <trkpt lat="44.14869" lon="6.95806">
        <ele>2667.4560546875</ele>
        <time>2013-12-07T13:34:44Z</time>
      </trkpt>
      <trkpt lat="44.14863" lon="6.958">
        <ele>2666.1376953125</ele>
        <time>2013-12-07T13:34:51Z</time>
      </trkpt>
      <trkpt lat="44.14856" lon="6.95793">
        <ele>2663.4516601562</ele>
        <time>2013-12-07T13:34:59Z</time>
      </trkpt>
      <trkpt lat="44.14851" lon="6.95786">
        <ele>2661.3244628906</ele>
        <time>2013-12-07T13:35:06Z</time>
      </trkpt>
      <trkpt lat="44.14849" lon="6.95782">
        <ele>2660.470703125</ele>
        <time>2013-12-07T13:35:11Z</time>
      </trkpt>
      <trkpt lat="44.14849" lon="6.95782">
        <ele>2660.3386230469</ele>
        <time>2013-12-07T13:35:12Z</time>
      </trkpt>
      <trkpt lat="44.14848" lon="6.95778">
        <ele>2659.5417480469</ele>
        <time>2013-12-07T13:35:17Z</time>
      </trkpt>
      <trkpt lat="44.14846" lon="6.95777">
        <ele>2659.4904785156</ele>
        <time>2013-12-07T13:35:20Z</time>
      </trkpt>
      <trkpt lat="44.14843" lon="6.95774">
        <ele>2659.1042480469</ele>
        <time>2013-12-07T13:35:27Z</time>
      </trkpt>
      <trkpt lat="44.14844" lon="6.95769">
        <ele>2658.5161132812</ele>
        <time>2013-12-07T13:35:34Z</time>
      </trkpt>
      <trkpt lat="44.14844" lon="6.95765">
        <ele>2657.9753417969</ele>
        <time>2013-12-07T13:35:43Z</time>
      </trkpt>
      <trkpt lat="44.14845" lon="6.95761">
        <ele>2657.5510253906</ele>
        <time>2013-12-07T13:35:48Z</time>
      </trkpt>
      <trkpt lat="44.14849" lon="6.95753">
        <ele>2656.9904785156</ele>
        <time>2013-12-07T13:35:56Z</time>
      </trkpt>
      <trkpt lat="44.14852" lon="6.95748">
        <ele>2656.7729492188</ele>
        <time>2013-12-07T13:36:02Z</time>
      </trkpt>
      <trkpt lat="44.14854" lon="6.95743">
        <ele>2656.5822753906</ele>
        <time>2013-12-07T13:36:09Z</time>
      </trkpt>
      <trkpt lat="44.14855" lon="6.95741">
        <ele>2656.4409179688</ele>
        <time>2013-12-07T13:36:12Z</time>
      </trkpt>
      <trkpt lat="44.14859" lon="6.95735">
        <ele>2656.4738769531</ele>
        <time>2013-12-07T13:36:20Z</time>
      </trkpt>
      <trkpt lat="44.14864" lon="6.95729">
        <ele>2656.6162109375</ele>
        <time>2013-12-07T13:36:29Z</time>
      </trkpt>
      <trkpt lat="44.14867" lon="6.95723">
        <ele>2656.4943847656</ele>
        <time>2013-12-07T13:36:36Z</time>
      </trkpt>
      <trkpt lat="44.14867" lon="6.95722">
        <ele>2656.40234375</ele>
        <time>2013-12-07T13:36:38Z</time>
      </trkpt>
      <trkpt lat="44.14869" lon="6.95715">
        <ele>2656.1643066406</ele>
        <time>2013-12-07T13:36:45Z</time>
      </trkpt>
      <trkpt lat="44.14871" lon="6.95708">
        <ele>2656.0295410156</ele>
        <time>2013-12-07T13:38:07Z</time>
      </trkpt>
      <trkpt lat="44.14871" lon="6.95708">
        <ele>2656.0251464844</ele>
        <time>2013-12-07T13:38:08Z</time>
      </trkpt>
      <trkpt lat="44.14873" lon="6.95704">
        <ele>2656.0581054688</ele>
        <time>2013-12-07T13:38:12Z</time>
      </trkpt>
      <trkpt lat="44.14872" lon="6.95694">
        <ele>2655.5708007812</ele>
        <time>2013-12-07T13:38:19Z</time>
      </trkpt>
      <trkpt lat="44.14872" lon="6.95676">
        <ele>2654.5549316406</ele>
        <time>2013-12-07T13:38:30Z</time>
      </trkpt>
      <trkpt lat="44.14876" lon="6.95664">
        <ele>2654.5627441406</ele>
        <time>2013-12-07T13:38:37Z</time>
      </trkpt>
      <trkpt lat="44.14879" lon="6.95649">
        <ele>2654.732421875</ele>
        <time>2013-12-07T13:38:46Z</time>
      </trkpt>
      <trkpt lat="44.14877" lon="6.95635">
        <ele>2654.1157226562</ele>
        <time>2013-12-07T13:38:54Z</time>
      </trkpt>
      <trkpt lat="44.14876" lon="6.95632">
        <ele>2653.8889160156</ele>
        <time>2013-12-07T13:38:56Z</time>
      </trkpt>
      <trkpt lat="44.14875" lon="6.95626">
        <ele>2653.6689453125</ele>
        <time>2013-12-07T13:39:00Z</time>
      </trkpt>
      <trkpt lat="44.14872" lon="6.9561">
        <ele>2653.5642089844</ele>
        <time>2013-12-07T13:39:09Z</time>
      </trkpt>
      <trkpt lat="44.14865" lon="6.95592">
        <ele>2653.7973632812</ele>
        <time>2013-12-07T13:39:20Z</time>
      </trkpt>
      <trkpt lat="44.1486" lon="6.95581">
        <ele>2653.6630859375</ele>
        <time>2013-12-07T13:39:28Z</time>
      </trkpt>
      <trkpt lat="44.14857" lon="6.95575">
        <ele>2653.1215820312</ele>
        <time>2013-12-07T13:39:33Z</time>
      </trkpt>
      <trkpt lat="44.14854" lon="6.9557">
        <ele>2652.7565917969</ele>
        <time>2013-12-07T13:39:37Z</time>
      </trkpt>
      <trkpt lat="44.14847" lon="6.9556">
        <ele>2651.7314453125</ele>
        <time>2013-12-07T13:39:46Z</time>
      </trkpt>
      <trkpt lat="44.14841" lon="6.95552">
        <ele>2651.1940917969</ele>
        <time>2013-12-07T13:39:54Z</time>
      </trkpt>
      <trkpt lat="44.14837" lon="6.95545">
        <ele>2650.8244628906</ele>
        <time>2013-12-07T13:40:00Z</time>
      </trkpt>
      <trkpt lat="44.14832" lon="6.95538">
        <ele>2650.5876464844</ele>
        <time>2013-12-07T13:40:07Z</time>
      </trkpt>
      <trkpt lat="44.14827" lon="6.95526">
        <ele>2650.1730957031</ele>
        <time>2013-12-07T13:40:17Z</time>
      </trkpt>
      <trkpt lat="44.14823" lon="6.95518">
        <ele>2649.0859375</ele>
        <time>2013-12-07T13:40:24Z</time>
      </trkpt>
      <trkpt lat="44.1482" lon="6.95506">
        <ele>2648.2604980469</ele>
        <time>2013-12-07T13:40:33Z</time>
      </trkpt>
      <trkpt lat="44.14817" lon="6.95493">
        <ele>2646.7429199219</ele>
        <time>2013-12-07T13:40:43Z</time>
      </trkpt>
      <trkpt lat="44.14814" lon="6.95482">
        <ele>2645.0390625</ele>
        <time>2013-12-07T13:40:51Z</time>
      </trkpt>
      <trkpt lat="44.14811" lon="6.95471">
        <ele>2643.1047363281</ele>
        <time>2013-12-07T13:40:59Z</time>
      </trkpt>
      <trkpt lat="44.14806" lon="6.95456">
        <ele>2640.9775390625</ele>
        <time>2013-12-07T13:41:09Z</time>
      </trkpt>
      <trkpt lat="44.14803" lon="6.95441">
        <ele>2639.1735839844</ele>
        <time>2013-12-07T13:41:18Z</time>
      </trkpt>
      <trkpt lat="44.14799" lon="6.9543">
        <ele>2635.888671875</ele>
        <time>2013-12-07T13:41:26Z</time>
      </trkpt>
      <trkpt lat="44.14793" lon="6.95421">
        <ele>2632.8342285156</ele>
        <time>2013-12-07T13:41:33Z</time>
      </trkpt>
      <trkpt lat="44.14787" lon="6.95411">
        <ele>2628.49609375</ele>
        <time>2013-12-07T13:41:41Z</time>
      </trkpt>
      <trkpt lat="44.14782" lon="6.95403">
        <ele>2625.0197753906</ele>
        <time>2013-12-07T13:41:49Z</time>
      </trkpt>
      <trkpt lat="44.1478" lon="6.95405">
        <ele>2625.4660644531</ele>
        <time>2013-12-07T13:41:57Z</time>
      </trkpt>
      <trkpt lat="44.14779" lon="6.954">
        <ele>2623.7473144531</ele>
        <time>2013-12-07T13:43:38Z</time>
      </trkpt>
      <trkpt lat="44.14776" lon="6.95398">
        <ele>2622.7224121094</ele>
        <time>2013-12-07T13:43:41Z</time>
      </trkpt>
      <trkpt lat="44.14776" lon="6.95394">
        <ele>2621.48828125</ele>
        <time>2013-12-07T13:43:44Z</time>
      </trkpt>
      <trkpt lat="44.14769" lon="6.95392">
        <ele>2620.7436523438</ele>
        <time>2013-12-07T13:43:50Z</time>
      </trkpt>
      <trkpt lat="44.14761" lon="6.9539">
        <ele>2620.2341308594</ele>
        <time>2013-12-07T13:43:57Z</time>
      </trkpt>
      <trkpt lat="44.14756" lon="6.95387">
        <ele>2619.1850585938</ele>
        <time>2013-12-07T13:44:04Z</time>
      </trkpt>
      <trkpt lat="44.1475" lon="6.95387">
        <ele>2618.7998046875</ele>
        <time>2013-12-07T13:44:12Z</time>
      </trkpt>
      <trkpt lat="44.14746" lon="6.95385">
        <ele>2617.4672851562</ele>
        <time>2013-12-07T13:44:16Z</time>
      </trkpt>
      <trkpt lat="44.14741" lon="6.95384">
        <ele>2616.0227050781</ele>
        <time>2013-12-07T13:44:23Z</time>
      </trkpt>
      <trkpt lat="44.14735" lon="6.95382">
        <ele>2613.6354980469</ele>
        <time>2013-12-07T13:44:30Z</time>
      </trkpt>
      <trkpt lat="44.14733" lon="6.95381">
        <ele>2613.0444335938</ele>
        <time>2013-12-07T13:44:32Z</time>
      </trkpt>
      <trkpt lat="44.14726" lon="6.95375">
        <ele>2609.078125</ele>
        <time>2013-12-07T13:44:40Z</time>
      </trkpt>
      <trkpt lat="44.14722" lon="6.95375">
        <ele>2608.2155761719</ele>
        <time>2013-12-07T13:44:44Z</time>
      </trkpt>
      <trkpt lat="44.14716" lon="6.95372">
        <ele>2605.6538085938</ele>
        <time>2013-12-07T13:44:52Z</time>
      </trkpt>
      <trkpt lat="44.14709" lon="6.95369">
        <ele>2603.4143066406</ele>
        <time>2013-12-07T13:44:59Z</time>
      </trkpt>
      <trkpt lat="44.14709" lon="6.95368">
        <ele>2603.2492675781</ele>
        <time>2013-12-07T13:45:00Z</time>
      </trkpt>
      <trkpt lat="44.14703" lon="6.95365">
        <ele>2601.361328125</ele>
        <time>2013-12-07T13:45:08Z</time>
      </trkpt>
      <trkpt lat="44.14701" lon="6.95362">
        <ele>2600.6176757812</ele>
        <time>2013-12-07T13:45:10Z</time>
      </trkpt>
      <trkpt lat="44.14693" lon="6.95361">
        <ele>2599.7375488281</ele>
        <time>2013-12-07T13:45:18Z</time>
      </trkpt>
      <trkpt lat="44.14687" lon="6.95356">
        <ele>2596.4479980469</ele>
        <time>2013-12-07T13:45:25Z</time>
      </trkpt>
      <trkpt lat="44.14685" lon="6.95356">
        <ele>2596.3041992188</ele>
        <time>2013-12-07T13:45:27Z</time>
      </trkpt>
      <trkpt lat="44.14678" lon="6.95355">
        <ele>2595.5034179688</ele>
        <time>2013-12-07T13:45:34Z</time>
      </trkpt>
      <trkpt lat="44.14676" lon="6.95353">
        <ele>2594.3347167969</ele>
        <time>2013-12-07T13:45:36Z</time>
      </trkpt>
      <trkpt lat="44.14671" lon="6.9535">
        <ele>2591.7819824219</ele>
        <time>2013-12-07T13:45:41Z</time>
      </trkpt>
      <trkpt lat="44.14669" lon="6.95348">
        <ele>2590.5688476562</ele>
        <time>2013-12-07T13:45:43Z</time>
      </trkpt>
      <trkpt lat="44.14666" lon="6.95347">
        <ele>2590.0729980469</ele>
        <time>2013-12-07T13:45:46Z</time>
      </trkpt>
      <trkpt lat="44.14656" lon="6.95342">
        <ele>2586.1013183594</ele>
        <time>2013-12-07T13:45:54Z</time>
      </trkpt>
      <trkpt lat="44.14646" lon="6.95338">
        <ele>2582.8725585938</ele>
        <time>2013-12-07T13:46:02Z</time>
      </trkpt>
      <trkpt lat="44.14639" lon="6.95335">
        <ele>2581.0852050781</ele>
        <time>2013-12-07T13:46:08Z</time>
      </trkpt>
      <trkpt lat="44.14631" lon="6.95332">
        <ele>2579.4262695312</ele>
        <time>2013-12-07T13:46:15Z</time>
      </trkpt>
      <trkpt lat="44.14623" lon="6.95328">
        <ele>2577.9916992188</ele>
        <time>2013-12-07T13:46:22Z</time>
      </trkpt>
      <trkpt lat="44.14613" lon="6.95326">
        <ele>2577.474609375</ele>
        <time>2013-12-07T13:46:31Z</time>
      </trkpt>
      <trkpt lat="44.14604" lon="6.95323">
        <ele>2576.7470703125</ele>
        <time>2013-12-07T13:46:39Z</time>
      </trkpt>
      <trkpt lat="44.14596" lon="6.95321">
        <ele>2576.4631347656</ele>
        <time>2013-12-07T13:46:47Z</time>
      </trkpt>
      <trkpt lat="44.14586" lon="6.95318">
        <ele>2575.9567871094</ele>
        <time>2013-12-07T13:46:56Z</time>
      </trkpt>
      <trkpt lat="44.14576" lon="6.95316">
        <ele>2576.2150878906</ele>
        <time>2013-12-07T13:47:04Z</time>
      </trkpt>
      <trkpt lat="44.14567" lon="6.95311">
        <ele>2576.2895507812</ele>
        <time>2013-12-07T13:47:12Z</time>
      </trkpt>
      <trkpt lat="44.14559" lon="6.95307">
        <ele>2576.6625976562</ele>
        <time>2013-12-07T13:47:19Z</time>
      </trkpt>
      <trkpt lat="44.1455" lon="6.95304">
        <ele>2576.9191894531</ele>
        <time>2013-12-07T13:47:27Z</time>
      </trkpt>
      <trkpt lat="44.1454" lon="6.95302">
        <ele>2576.8161621094</ele>
        <time>2013-12-07T13:47:35Z</time>
      </trkpt>
      <trkpt lat="44.14537" lon="6.95301">
        <ele>2576.501953125</ele>
        <time>2013-12-07T13:47:40Z</time>
      </trkpt>
      <trkpt lat="44.14529" lon="6.95297">
        <ele>2575.41015625</ele>
        <time>2013-12-07T13:47:47Z</time>
      </trkpt>
      <trkpt lat="44.14529" lon="6.95296">
        <ele>2574.8591308594</ele>
        <time>2013-12-07T13:47:51Z</time>
      </trkpt>
      <trkpt lat="44.14518" lon="6.95298">
        <ele>2576.2468261719</ele>
        <time>2013-12-07T13:48:00Z</time>
      </trkpt>
      <trkpt lat="44.14511" lon="6.95298">
        <ele>2576.6276855469</ele>
        <time>2013-12-07T13:48:06Z</time>
      </trkpt>
      <trkpt lat="44.14512" lon="6.95302">
        <ele>2578.2534179688</ele>
        <time>2013-12-07T13:48:10Z</time>
      </trkpt>
      <trkpt lat="44.1452" lon="6.9531">
        <ele>2580</ele>
        <time>2013-12-07T13:48:19Z</time>
      </trkpt>
      <trkpt lat="44.14527" lon="6.95319">
        <ele>2580</ele>
        <time>2013-12-07T13:48:27Z</time>
      </trkpt>
      <trkpt lat="44.14533" lon="6.95325">
        <ele>2579.8298339844</ele>
        <time>2013-12-07T13:48:33Z</time>
      </trkpt>
      <trkpt lat="44.14541" lon="6.95331">
        <ele>2579.8764648438</ele>
        <time>2013-12-07T13:48:42Z</time>
      </trkpt>
      <trkpt lat="44.14541" lon="6.95332">
        <ele>2579.9152832031</ele>
        <time>2013-12-07T13:48:48Z</time>
      </trkpt>
      <trkpt lat="44.14538" lon="6.95334">
        <ele>2580.0207519531</ele>
        <time>2013-12-07T13:48:54Z</time>
      </trkpt>
      <trkpt lat="44.14538" lon="6.95336">
        <ele>2580.0646972656</ele>
        <time>2013-12-07T13:48:56Z</time>
      </trkpt>
      <trkpt lat="44.14532" lon="6.95336">
        <ele>2580.037109375</ele>
        <time>2013-12-07T13:49:03Z</time>
      </trkpt>
      <trkpt lat="44.14529" lon="6.95338">
        <ele>2580.0100097656</ele>
        <time>2013-12-07T13:49:07Z</time>
      </trkpt>
      <trkpt lat="44.14523" lon="6.95336">
        <ele>2579.90625</ele>
        <time>2013-12-07T13:49:13Z</time>
      </trkpt>
      <trkpt lat="44.14515" lon="6.95337">
        <ele>2579.6848144531</ele>
        <time>2013-12-07T13:49:21Z</time>
      </trkpt>
      <trkpt lat="44.14513" lon="6.95337">
        <ele>2579.6018066406</ele>
        <time>2013-12-07T13:49:23Z</time>
      </trkpt>
      <trkpt lat="44.14506" lon="6.95338">
        <ele>2579.3193359375</ele>
        <time>2013-12-07T13:49:30Z</time>
      </trkpt>
      <trkpt lat="44.14501" lon="6.95338">
        <ele>2579.1447753906</ele>
        <time>2013-12-07T13:49:36Z</time>
      </trkpt>
      <trkpt lat="44.14495" lon="6.9534">
        <ele>2578.7429199219</ele>
        <time>2013-12-07T13:49:42Z</time>
      </trkpt>
      <trkpt lat="44.14487" lon="6.9534">
        <ele>2578.4853515625</ele>
        <time>2013-12-07T13:49:49Z</time>
      </trkpt>
      <trkpt lat="44.1448" lon="6.95342">
        <ele>2578.0688476562</ele>
        <time>2013-12-07T13:49:55Z</time>
      </trkpt>
      <trkpt lat="44.14472" lon="6.95343">
        <ele>2577.5825195312</ele>
        <time>2013-12-07T13:50:03Z</time>
      </trkpt>
      <trkpt lat="44.14465" lon="6.95345">
        <ele>2576.7609863281</ele>
        <time>2013-12-07T13:50:10Z</time>
      </trkpt>
      <trkpt lat="44.14457" lon="6.95348">
        <ele>2575.0688476562</ele>
        <time>2013-12-07T13:50:17Z</time>
      </trkpt>
      <trkpt lat="44.14448" lon="6.95352">
        <ele>2573.0825195312</ele>
        <time>2013-12-07T13:50:25Z</time>
      </trkpt>
      <trkpt lat="44.14439" lon="6.95353">
        <ele>2571.8041992188</ele>
        <time>2013-12-07T13:50:32Z</time>
      </trkpt>
      <trkpt lat="44.14435" lon="6.95352">
        <ele>2571.6889648438</ele>
        <time>2013-12-07T13:50:36Z</time>
      </trkpt>
      <trkpt lat="44.14429" lon="6.95355">
        <ele>2569.8894042969</ele>
        <time>2013-12-07T13:50:42Z</time>
      </trkpt>
      <trkpt lat="44.14419" lon="6.95358">
        <ele>2567.4248046875</ele>
        <time>2013-12-07T13:50:50Z</time>
      </trkpt>
      <trkpt lat="44.14409" lon="6.95364">
        <ele>2563.5141601562</ele>
        <time>2013-12-07T13:50:59Z</time>
      </trkpt>
      <trkpt lat="44.14404" lon="6.95367">
        <ele>2561.3117675781</ele>
        <time>2013-12-07T13:51:05Z</time>
      </trkpt>
      <trkpt lat="44.144" lon="6.95371">
        <ele>2559.0808105469</ele>
        <time>2013-12-07T13:51:11Z</time>
      </trkpt>
      <trkpt lat="44.14391" lon="6.95377">
        <ele>2555.7646484375</ele>
        <time>2013-12-07T13:51:19Z</time>
      </trkpt>
      <trkpt lat="44.14388" lon="6.95378">
        <ele>2554.4733886719</ele>
        <time>2013-12-07T13:51:22Z</time>
      </trkpt>
      <trkpt lat="44.14383" lon="6.95381">
        <ele>2551.6079101562</ele>
        <time>2013-12-07T13:51:26Z</time>
      </trkpt>
      <trkpt lat="44.14374" lon="6.95387">
        <ele>2547.0217285156</ele>
        <time>2013-12-07T13:51:34Z</time>
      </trkpt>
      <trkpt lat="44.14373" lon="6.95388">
        <ele>2546.4848632812</ele>
        <time>2013-12-07T13:51:35Z</time>
      </trkpt>
      <trkpt lat="44.1437" lon="6.95395">
        <ele>2544.2214355469</ele>
        <time>2013-12-07T13:51:41Z</time>
      </trkpt>
      <trkpt lat="44.14363" lon="6.95403">
        <ele>2541.3532714844</ele>
        <time>2013-12-07T13:51:49Z</time>
      </trkpt>
      <trkpt lat="44.14358" lon="6.95407">
        <ele>2539.1943359375</ele>
        <time>2013-12-07T13:51:54Z</time>
      </trkpt>
      <trkpt lat="44.14349" lon="6.95414">
        <ele>2535.0634765625</ele>
        <time>2013-12-07T13:52:04Z</time>
      </trkpt>
      <trkpt lat="44.1434" lon="6.95419">
        <ele>2531.2385253906</ele>
        <time>2013-12-07T13:52:12Z</time>
      </trkpt>
      <trkpt lat="44.14333" lon="6.95422">
        <ele>2527.9438476562</ele>
        <time>2013-12-07T13:52:19Z</time>
      </trkpt>
      <trkpt lat="44.14325" lon="6.95428">
        <ele>2522.9777832031</ele>
        <time>2013-12-07T13:52:26Z</time>
      </trkpt>
      <trkpt lat="44.14317" lon="6.95431">
        <ele>2518.6567382812</ele>
        <time>2013-12-07T13:52:33Z</time>
      </trkpt>
      <trkpt lat="44.1431" lon="6.95438">
        <ele>2515.6784667969</ele>
        <time>2013-12-07T13:52:41Z</time>
      </trkpt>
      <trkpt lat="44.14309" lon="6.9544">
        <ele>2515.5300292969</ele>
        <time>2013-12-07T13:52:46Z</time>
      </trkpt>
      <trkpt lat="44.14315" lon="6.95446">
        <ele>2518.2265625</ele>
        <time>2013-12-07T13:52:52Z</time>
      </trkpt>
      <trkpt lat="44.14321" lon="6.95451">
        <ele>2519.9431152344</ele>
        <time>2013-12-07T13:52:58Z</time>
      </trkpt>
      <trkpt lat="44.14322" lon="6.95452">
        <ele>2520.099609375</ele>
        <time>2013-12-07T13:52:59Z</time>
      </trkpt>
      <trkpt lat="44.14318" lon="6.95458">
        <ele>2518.6096191406</ele>
        <time>2013-12-07T13:53:05Z</time>
      </trkpt>
      <trkpt lat="44.1431" lon="6.95462">
        <ele>2516.7263183594</ele>
        <time>2013-12-07T13:53:12Z</time>
      </trkpt>
      <trkpt lat="44.14301" lon="6.9547">
        <ele>2513.8664550781</ele>
        <time>2013-12-07T13:53:21Z</time>
      </trkpt>
      <trkpt lat="44.14293" lon="6.95474">
        <ele>2509.9494628906</ele>
        <time>2013-12-07T13:53:29Z</time>
      </trkpt>
      <trkpt lat="44.14286" lon="6.95479">
        <ele>2506.4873046875</ele>
        <time>2013-12-07T13:53:35Z</time>
      </trkpt>
      <trkpt lat="44.14278" lon="6.95489">
        <ele>2502.8840332031</ele>
        <time>2013-12-07T13:53:43Z</time>
      </trkpt>
      <trkpt lat="44.14269" lon="6.95502">
        <ele>2500.2111816406</ele>
        <time>2013-12-07T13:53:53Z</time>
      </trkpt>
      <trkpt lat="44.14262" lon="6.95511">
        <ele>2499.5886230469</ele>
        <time>2013-12-07T13:54:01Z</time>
      </trkpt>
      <trkpt lat="44.14254" lon="6.95525">
        <ele>2500.6254882812</ele>
        <time>2013-12-07T13:54:11Z</time>
      </trkpt>
      <trkpt lat="44.14248" lon="6.95534">
        <ele>2499.0415039062</ele>
        <time>2013-12-07T13:54:18Z</time>
      </trkpt>
      <trkpt lat="44.14243" lon="6.9554">
        <ele>2495.5563964844</ele>
        <time>2013-12-07T13:54:24Z</time>
      </trkpt>
      <trkpt lat="44.14241" lon="6.95541">
        <ele>2494.5698242188</ele>
        <time>2013-12-07T13:54:26Z</time>
      </trkpt>
      <trkpt lat="44.14238" lon="6.95554">
        <ele>2491.8149414062</ele>
        <time>2013-12-07T13:54:34Z</time>
      </trkpt>
      <trkpt lat="44.14235" lon="6.95565">
        <ele>2488.8818359375</ele>
        <time>2013-12-07T13:54:41Z</time>
      </trkpt>
      <trkpt lat="44.14231" lon="6.95574">
        <ele>2486.5971679688</ele>
        <time>2013-12-07T13:54:48Z</time>
      </trkpt>
      <trkpt lat="44.14227" lon="6.95585">
        <ele>2484.6430664062</ele>
        <time>2013-12-07T13:54:56Z</time>
      </trkpt>
      <trkpt lat="44.14227" lon="6.95587">
        <ele>2484.4079589844</ele>
        <time>2013-12-07T13:54:57Z</time>
      </trkpt>
      <trkpt lat="44.14222" lon="6.95597">
        <ele>2482.9760742188</ele>
        <time>2013-12-07T13:55:04Z</time>
      </trkpt>
      <trkpt lat="44.14214" lon="6.95609">
        <ele>2481.7875976562</ele>
        <time>2013-12-07T13:55:13Z</time>
      </trkpt>
      <trkpt lat="44.14207" lon="6.9562">
        <ele>2480.6689453125</ele>
        <time>2013-12-07T13:55:21Z</time>
      </trkpt>
      <trkpt lat="44.14203" lon="6.95632">
        <ele>2479.5922851562</ele>
        <time>2013-12-07T13:55:28Z</time>
      </trkpt>
      <trkpt lat="44.14194" lon="6.95643">
        <ele>2478.2155761719</ele>
        <time>2013-12-07T13:55:37Z</time>
      </trkpt>
      <trkpt lat="44.14193" lon="6.95646">
        <ele>2476.6884765625</ele>
        <time>2013-12-07T13:55:42Z</time>
      </trkpt>
      <trkpt lat="44.1419" lon="6.95653">
        <ele>2474.0441894531</ele>
        <time>2013-12-07T13:55:50Z</time>
      </trkpt>
      <trkpt lat="44.14187" lon="6.95659">
        <ele>2472.0336914062</ele>
        <time>2013-12-07T13:55:56Z</time>
      </trkpt>
      <trkpt lat="44.1418" lon="6.95669">
        <ele>2467.7529296875</ele>
        <time>2013-12-07T13:56:06Z</time>
      </trkpt>
      <trkpt lat="44.14177" lon="6.95676">
        <ele>2465.9411621094</ele>
        <time>2013-12-07T13:56:12Z</time>
      </trkpt>
      <trkpt lat="44.1417" lon="6.95686">
        <ele>2463.2180175781</ele>
        <time>2013-12-07T13:56:20Z</time>
      </trkpt>
      <trkpt lat="44.14164" lon="6.95693">
        <ele>2462.0217285156</ele>
        <time>2013-12-07T13:56:27Z</time>
      </trkpt>
      <trkpt lat="44.14161" lon="6.957">
        <ele>2461.654296875</ele>
        <time>2013-12-07T13:56:31Z</time>
      </trkpt>
      <trkpt lat="44.1416" lon="6.95702">
        <ele>2461.5439453125</ele>
        <time>2013-12-07T13:56:33Z</time>
      </trkpt>
      <trkpt lat="44.14158" lon="6.95707">
        <ele>2461.3737792969</ele>
        <time>2013-12-07T13:56:37Z</time>
      </trkpt>
      <trkpt lat="44.14156" lon="6.95717">
        <ele>2461.1049804688</ele>
        <time>2013-12-07T13:56:44Z</time>
      </trkpt>
      <trkpt lat="44.14153" lon="6.95725">
        <ele>2460.5720214844</ele>
        <time>2013-12-07T13:56:50Z</time>
      </trkpt>
      <trkpt lat="44.14147" lon="6.95738">
        <ele>2458.4543457031</ele>
        <time>2013-12-07T13:56:59Z</time>
      </trkpt>
      <trkpt lat="44.14141" lon="6.95752">
        <ele>2456.4326171875</ele>
        <time>2013-12-07T13:57:08Z</time>
      </trkpt>
      <trkpt lat="44.14136" lon="6.95764">
        <ele>2453.4655761719</ele>
        <time>2013-12-07T13:57:16Z</time>
      </trkpt>
      <trkpt lat="44.14128" lon="6.95778">
        <ele>2449.1433105469</ele>
        <time>2013-12-07T13:57:26Z</time>
      </trkpt>
      <trkpt lat="44.14123" lon="6.9579">
        <ele>2446.2451171875</ele>
        <time>2013-12-07T13:57:34Z</time>
      </trkpt>
      <trkpt lat="44.14116" lon="6.95803">
        <ele>2443.5751953125</ele>
        <time>2013-12-07T13:57:44Z</time>
      </trkpt>
      <trkpt lat="44.14111" lon="6.9581">
        <ele>2442.5544433594</ele>
        <time>2013-12-07T13:57:49Z</time>
      </trkpt>
      <trkpt lat="44.14106" lon="6.9582">
        <ele>2440.6379394531</ele>
        <time>2013-12-07T13:57:57Z</time>
      </trkpt>
      <trkpt lat="44.14099" lon="6.95836">
        <ele>2438.5795898438</ele>
        <time>2013-12-07T13:58:08Z</time>
      </trkpt>
      <trkpt lat="44.14092" lon="6.95851">
        <ele>2437.5529785156</ele>
        <time>2013-12-07T13:58:19Z</time>
      </trkpt>
      <trkpt lat="44.14086" lon="6.95861">
        <ele>2437.0854492188</ele>
        <time>2013-12-07T13:58:27Z</time>
      </trkpt>
      <trkpt lat="44.14078" lon="6.95871">
        <ele>2436.60546875</ele>
        <time>2013-12-07T13:58:36Z</time>
      </trkpt>
      <trkpt lat="44.14074" lon="6.95878">
        <ele>2436.5983886719</ele>
        <time>2013-12-07T13:58:43Z</time>
      </trkpt>
      <trkpt lat="44.14071" lon="6.95891">
        <ele>2437.0493164062</ele>
        <time>2013-12-07T13:58:51Z</time>
      </trkpt>
      <trkpt lat="44.14067" lon="6.95901">
        <ele>2437.5805664062</ele>
        <time>2013-12-07T13:58:59Z</time>
      </trkpt>
      <trkpt lat="44.1406" lon="6.95912">
        <ele>2439.0190429688</ele>
        <time>2013-12-07T13:59:09Z</time>
      </trkpt>
      <trkpt lat="44.14053" lon="6.95924">
        <ele>2439.4240722656</ele>
        <time>2013-12-07T13:59:19Z</time>
      </trkpt>
      <trkpt lat="44.14047" lon="6.95935">
        <ele>2439.3896484375</ele>
        <time>2013-12-07T13:59:28Z</time>
      </trkpt>
      <trkpt lat="44.14039" lon="6.95948">
        <ele>2440.4138183594</ele>
        <time>2013-12-07T13:59:39Z</time>
      </trkpt>
      <trkpt lat="44.14031" lon="6.95956">
        <ele>2441.80859375</ele>
        <time>2013-12-07T13:59:47Z</time>
      </trkpt>
      <trkpt lat="44.14027" lon="6.95962">
        <ele>2442.4865722656</ele>
        <time>2013-12-07T13:59:52Z</time>
      </trkpt>
      <trkpt lat="44.14023" lon="6.95982">
        <ele>2442.3615722656</ele>
        <time>2013-12-07T14:00:04Z</time>
      </trkpt>
      <trkpt lat="44.1402" lon="6.95996">
        <ele>2442.2448730469</ele>
        <time>2013-12-07T14:00:13Z</time>
      </trkpt>
      <trkpt lat="44.14017" lon="6.96009">
        <ele>2442.0993652344</ele>
        <time>2013-12-07T14:00:21Z</time>
      </trkpt>
      <trkpt lat="44.14011" lon="6.96021">
        <ele>2442.1904296875</ele>
        <time>2013-12-07T14:00:30Z</time>
      </trkpt>
      <trkpt lat="44.14007" lon="6.96028">
        <ele>2442.2021484375</ele>
        <time>2013-12-07T14:00:35Z</time>
      </trkpt>
      <trkpt lat="44.14004" lon="6.96041">
        <ele>2441.4775390625</ele>
        <time>2013-12-07T14:00:44Z</time>
      </trkpt>
      <trkpt lat="44.13999" lon="6.96056">
        <ele>2441.1228027344</ele>
        <time>2013-12-07T14:00:53Z</time>
      </trkpt>
      <trkpt lat="44.13993" lon="6.96068">
        <ele>2441.0239257812</ele>
        <time>2013-12-07T14:01:01Z</time>
      </trkpt>
      <trkpt lat="44.13985" lon="6.96082">
        <ele>2441.3557128906</ele>
        <time>2013-12-07T14:01:11Z</time>
      </trkpt>
      <trkpt lat="44.13979" lon="6.96097">
        <ele>2441.318359375</ele>
        <time>2013-12-07T14:01:21Z</time>
      </trkpt>
      <trkpt lat="44.13975" lon="6.9611">
        <ele>2441.4357910156</ele>
        <time>2013-12-07T14:01:30Z</time>
      </trkpt>
      <trkpt lat="44.13969" lon="6.96124">
        <ele>2441.6850585938</ele>
        <time>2013-12-07T14:01:40Z</time>
      </trkpt>
      <trkpt lat="44.13967" lon="6.96137">
        <ele>2441.21484375</ele>
        <time>2013-12-07T14:01:48Z</time>
      </trkpt>
      <trkpt lat="44.13963" lon="6.96153">
        <ele>2441.0500488281</ele>
        <time>2013-12-07T14:01:59Z</time>
      </trkpt>
      <trkpt lat="44.13958" lon="6.96168">
        <ele>2440.8852539062</ele>
        <time>2013-12-07T14:02:09Z</time>
      </trkpt>
      <trkpt lat="44.13954" lon="6.96184">
        <ele>2440.8334960938</ele>
        <time>2013-12-07T14:02:19Z</time>
      </trkpt>
      <trkpt lat="44.1395" lon="6.96196">
        <ele>2441.4208984375</ele>
        <time>2013-12-07T14:02:28Z</time>
      </trkpt>
      <trkpt lat="44.13945" lon="6.96206">
        <ele>2441.8610839844</ele>
        <time>2013-12-07T14:02:36Z</time>
      </trkpt>
      <trkpt lat="44.13941" lon="6.96219">
        <ele>2442.2429199219</ele>
        <time>2013-12-07T14:02:45Z</time>
      </trkpt>
      <trkpt lat="44.13937" lon="6.96231">
        <ele>2442.6437988281</ele>
        <time>2013-12-07T14:02:52Z</time>
      </trkpt>
      <trkpt lat="44.13934" lon="6.96244">
        <ele>2442.9528808594</ele>
        <time>2013-12-07T14:03:00Z</time>
      </trkpt>
      <trkpt lat="44.13929" lon="6.9626">
        <ele>2442.8959960938</ele>
        <time>2013-12-07T14:03:11Z</time>
      </trkpt>
      <trkpt lat="44.13924" lon="6.96274">
        <ele>2443.0573730469</ele>
        <time>2013-12-07T14:03:21Z</time>
      </trkpt>
      <trkpt lat="44.13918" lon="6.96282">
        <ele>2444.4318847656</ele>
        <time>2013-12-07T14:03:29Z</time>
      </trkpt>
      <trkpt lat="44.13914" lon="6.96291">
        <ele>2444.7905273438</ele>
        <time>2013-12-07T14:03:36Z</time>
      </trkpt>
      <trkpt lat="44.13914" lon="6.96305">
        <ele>2443.8737792969</ele>
        <time>2013-12-07T14:03:45Z</time>
      </trkpt>
      <trkpt lat="44.13913" lon="6.96306">
        <ele>2443.9311523438</ele>
        <time>2013-12-07T14:03:52Z</time>
      </trkpt>
      <trkpt lat="44.13911" lon="6.96312">
        <ele>2443.8344726562</ele>
        <time>2013-12-07T14:05:48Z</time>
      </trkpt>
      <trkpt lat="44.13906" lon="6.96321">
        <ele>2444.4418945312</ele>
        <time>2013-12-07T14:05:56Z</time>
      </trkpt>
      <trkpt lat="44.13898" lon="6.96332">
        <ele>2446.0268554688</ele>
        <time>2013-12-07T14:06:06Z</time>
      </trkpt>
      <trkpt lat="44.13895" lon="6.96343">
        <ele>2446.2893066406</ele>
        <time>2013-12-07T14:06:14Z</time>
      </trkpt>
      <trkpt lat="44.13888" lon="6.96356">
        <ele>2446.7634277344</ele>
        <time>2013-12-07T14:06:23Z</time>
      </trkpt>
      <trkpt lat="44.13882" lon="6.96369">
        <ele>2447.0642089844</ele>
        <time>2013-12-07T14:06:32Z</time>
      </trkpt>
      <trkpt lat="44.13877" lon="6.96382">
        <ele>2447.0524902344</ele>
        <time>2013-12-07T14:06:40Z</time>
      </trkpt>
      <trkpt lat="44.13873" lon="6.96397">
        <ele>2446.6918945312</ele>
        <time>2013-12-07T14:06:49Z</time>
      </trkpt>
      <trkpt lat="44.13868" lon="6.96412">
        <ele>2446.05859375</ele>
        <time>2013-12-07T14:06:58Z</time>
      </trkpt>
      <trkpt lat="44.13865" lon="6.96429">
        <ele>2445.3994140625</ele>
        <time>2013-12-07T14:07:08Z</time>
      </trkpt>
      <trkpt lat="44.13858" lon="6.96445">
        <ele>2445.6713867188</ele>
        <time>2013-12-07T14:07:19Z</time>
      </trkpt>
      <trkpt lat="44.1385" lon="6.96461">
        <ele>2445.8444824219</ele>
        <time>2013-12-07T14:07:30Z</time>
      </trkpt>
      <trkpt lat="44.13846" lon="6.96474">
        <ele>2445.7529296875</ele>
        <time>2013-12-07T14:07:38Z</time>
      </trkpt>
      <trkpt lat="44.13839" lon="6.96492">
        <ele>2446.0756835938</ele>
        <time>2013-12-07T14:07:49Z</time>
      </trkpt>
      <trkpt lat="44.13834" lon="6.96509">
        <ele>2445.9821777344</ele>
        <time>2013-12-07T14:07:59Z</time>
      </trkpt>
      <trkpt lat="44.13828" lon="6.96523">
        <ele>2445.3127441406</ele>
        <time>2013-12-07T14:08:08Z</time>
      </trkpt>
      <trkpt lat="44.13822" lon="6.96534">
        <ele>2445.1303710938</ele>
        <time>2013-12-07T14:08:15Z</time>
      </trkpt>
      <trkpt lat="44.1382" lon="6.96544">
        <ele>2444.6909179688</ele>
        <time>2013-12-07T14:08:20Z</time>
      </trkpt>
      <trkpt lat="44.13823" lon="6.96557">
        <ele>2443.3820800781</ele>
        <time>2013-12-07T14:08:28Z</time>
      </trkpt>
      <trkpt lat="44.1382" lon="6.96572">
        <ele>2442.5498046875</ele>
        <time>2013-12-07T14:08:36Z</time>
      </trkpt>
      <trkpt lat="44.13816" lon="6.96587">
        <ele>2441.5698242188</ele>
        <time>2013-12-07T14:08:45Z</time>
      </trkpt>
      <trkpt lat="44.13811" lon="6.96597">
        <ele>2441.2312011719</ele>
        <time>2013-12-07T14:08:52Z</time>
      </trkpt>
      <trkpt lat="44.13809" lon="6.96609">
        <ele>2440.6743164062</ele>
        <time>2013-12-07T14:08:59Z</time>
      </trkpt>
      <trkpt lat="44.13804" lon="6.96625">
        <ele>2439.1149902344</ele>
        <time>2013-12-07T14:09:09Z</time>
      </trkpt>
      <trkpt lat="44.13801" lon="6.96638">
        <ele>2437.5561523438</ele>
        <time>2013-12-07T14:09:17Z</time>
      </trkpt>
      <trkpt lat="44.138" lon="6.96645">
        <ele>2436.888671875</ele>
        <time>2013-12-07T14:09:21Z</time>
      </trkpt>
      <trkpt lat="44.13797" lon="6.9666">
        <ele>2435.3598632812</ele>
        <time>2013-12-07T14:09:30Z</time>
      </trkpt>
      <trkpt lat="44.13793" lon="6.96673">
        <ele>2434.1569824219</ele>
        <time>2013-12-07T14:09:37Z</time>
      </trkpt>
      <trkpt lat="44.13786" lon="6.96679">
        <ele>2433.8432617188</ele>
        <time>2013-12-07T14:09:44Z</time>
      </trkpt>
      <trkpt lat="44.13778" lon="6.96682">
        <ele>2433.7534179688</ele>
        <time>2013-12-07T14:09:53Z</time>
      </trkpt>
      <trkpt lat="44.13774" lon="6.96684">
        <ele>2434.0852050781</ele>
        <time>2013-12-07T14:10:02Z</time>
      </trkpt>
      <trkpt lat="44.13769" lon="6.96685">
        <ele>2434.7258300781</ele>
        <time>2013-12-07T14:11:02Z</time>
      </trkpt>
      <trkpt lat="44.13764" lon="6.96689">
        <ele>2434.8654785156</ele>
        <time>2013-12-07T14:11:08Z</time>
      </trkpt>
      <trkpt lat="44.13759" lon="6.96692">
        <ele>2435.1391601562</ele>
        <time>2013-12-07T14:11:13Z</time>
      </trkpt>
      <trkpt lat="44.13757" lon="6.96694">
        <ele>2435.0612792969</ele>
        <time>2013-12-07T14:11:17Z</time>
      </trkpt>
      <trkpt lat="44.13753" lon="6.96699">
        <ele>2434.7333984375</ele>
        <time>2013-12-07T14:11:22Z</time>
      </trkpt>
      <trkpt lat="44.13751" lon="6.96704">
        <ele>2434.185546875</ele>
        <time>2013-12-07T14:11:25Z</time>
      </trkpt>
      <trkpt lat="44.13751" lon="6.96711">
        <ele>2432.86328125</ele>
        <time>2013-12-07T14:11:29Z</time>
      </trkpt>
      <trkpt lat="44.13756" lon="6.96727">
        <ele>2429.4204101562</ele>
        <time>2013-12-07T14:11:39Z</time>
      </trkpt>
      <trkpt lat="44.1376" lon="6.96735">
        <ele>2427.3298339844</ele>
        <time>2013-12-07T14:11:46Z</time>
      </trkpt>
      <trkpt lat="44.13759" lon="6.96748">
        <ele>2424.7590332031</ele>
        <time>2013-12-07T14:11:54Z</time>
      </trkpt>
      <trkpt lat="44.13758" lon="6.9676">
        <ele>2422.7827148438</ele>
        <time>2013-12-07T14:12:01Z</time>
      </trkpt>
      <trkpt lat="44.1376" lon="6.96777">
        <ele>2419.7365722656</ele>
        <time>2013-12-07T14:12:11Z</time>
      </trkpt>
      <trkpt lat="44.13757" lon="6.96794">
        <ele>2418.5522460938</ele>
        <time>2013-12-07T14:12:21Z</time>
      </trkpt>
      <trkpt lat="44.13752" lon="6.96806">
        <ele>2417.8564453125</ele>
        <time>2013-12-07T14:12:29Z</time>
      </trkpt>
      <trkpt lat="44.13747" lon="6.96823">
        <ele>2416.6889648438</ele>
        <time>2013-12-07T14:12:40Z</time>
      </trkpt>
      <trkpt lat="44.13745" lon="6.96836">
        <ele>2415.7980957031</ele>
        <time>2013-12-07T14:12:48Z</time>
      </trkpt>
      <trkpt lat="44.13744" lon="6.96839">
        <ele>2415.6489257812</ele>
        <time>2013-12-07T14:12:53Z</time>
      </trkpt>
      <trkpt lat="44.1374" lon="6.96854">
        <ele>2414.8505859375</ele>
        <time>2013-12-07T14:13:02Z</time>
      </trkpt>
      <trkpt lat="44.13735" lon="6.96873">
        <ele>2414.095703125</ele>
        <time>2013-12-07T14:13:13Z</time>
      </trkpt>
      <trkpt lat="44.13731" lon="6.96886">
        <ele>2413.7294921875</ele>
        <time>2013-12-07T14:13:22Z</time>
      </trkpt>
      <trkpt lat="44.13728" lon="6.96896">
        <ele>2413.2219238281</ele>
        <time>2013-12-07T14:13:29Z</time>
      </trkpt>
      <trkpt lat="44.13728" lon="6.96898">
        <ele>2413.0925292969</ele>
        <time>2013-12-07T14:13:30Z</time>
      </trkpt>
      <trkpt lat="44.13733" lon="6.96905">
        <ele>2411.6206054688</ele>
        <time>2013-12-07T14:13:37Z</time>
      </trkpt>
      <trkpt lat="44.13733" lon="6.96908">
        <ele>2411.2180175781</ele>
        <time>2013-12-07T14:13:39Z</time>
      </trkpt>
      <trkpt lat="44.13734" lon="6.96912">
        <ele>2410.6799316406</ele>
        <time>2013-12-07T14:13:42Z</time>
      </trkpt>
      <trkpt lat="44.13736" lon="6.96924">
        <ele>2409.2927246094</ele>
        <time>2013-12-07T14:13:50Z</time>
      </trkpt>
      <trkpt lat="44.13735" lon="6.9693">
        <ele>2408.7124023438</ele>
        <time>2013-12-07T14:13:54Z</time>
      </trkpt>
      <trkpt lat="44.13733" lon="6.96942">
        <ele>2407.7905273438</ele>
        <time>2013-12-07T14:14:02Z</time>
      </trkpt>
      <trkpt lat="44.13729" lon="6.96952">
        <ele>2407.1845703125</ele>
        <time>2013-12-07T14:14:09Z</time>
      </trkpt>
      <trkpt lat="44.13732" lon="6.96959">
        <ele>2405.9968261719</ele>
        <time>2013-12-07T14:14:16Z</time>
      </trkpt>
      <trkpt lat="44.13739" lon="6.96967">
        <ele>2404.1669921875</ele>
        <time>2013-12-07T14:14:23Z</time>
      </trkpt>
      <trkpt lat="44.13741" lon="6.9698">
        <ele>2402.4914550781</ele>
        <time>2013-12-07T14:14:31Z</time>
      </trkpt>
      <trkpt lat="44.13737" lon="6.96988">
        <ele>2402.0451660156</ele>
        <time>2013-12-07T14:14:38Z</time>
      </trkpt>
      <trkpt lat="44.13736" lon="6.96988">
        <ele>2402.3713378906</ele>
        <time>2013-12-07T14:17:00Z</time>
      </trkpt>
      <trkpt lat="44.1373" lon="6.96992">
        <ele>2402.7421875</ele>
        <time>2013-12-07T14:17:06Z</time>
      </trkpt>
      <trkpt lat="44.13724" lon="6.96997">
        <ele>2403.0595703125</ele>
        <time>2013-12-07T14:17:14Z</time>
      </trkpt>
      <trkpt lat="44.13715" lon="6.97005">
        <ele>2402.8718261719</ele>
        <time>2013-12-07T14:17:22Z</time>
      </trkpt>
      <trkpt lat="44.13707" lon="6.97009">
        <ele>2402.9775390625</ele>
        <time>2013-12-07T14:17:30Z</time>
      </trkpt>
      <trkpt lat="44.13699" lon="6.97015">
        <ele>2402.9106445312</ele>
        <time>2013-12-07T14:17:38Z</time>
      </trkpt>
      <trkpt lat="44.13694" lon="6.97024">
        <ele>2402.30078125</ele>
        <time>2013-12-07T14:17:46Z</time>
      </trkpt>
      <trkpt lat="44.13688" lon="6.97031">
        <ele>2400.6455078125</ele>
        <time>2013-12-07T14:17:53Z</time>
      </trkpt>
      <trkpt lat="44.1368" lon="6.97038">
        <ele>2398.455078125</ele>
        <time>2013-12-07T14:18:01Z</time>
      </trkpt>
      <trkpt lat="44.13673" lon="6.97044">
        <ele>2396.376953125</ele>
        <time>2013-12-07T14:18:08Z</time>
      </trkpt>
      <trkpt lat="44.13667" lon="6.97044">
        <ele>2395.5505371094</ele>
        <time>2013-12-07T14:18:14Z</time>
      </trkpt>
      <trkpt lat="44.13663" lon="6.97046">
        <ele>2394.7058105469</ele>
        <time>2013-12-07T14:18:18Z</time>
      </trkpt>
      <trkpt lat="44.13661" lon="6.97048">
        <ele>2394.1850585938</ele>
        <time>2013-12-07T14:18:21Z</time>
      </trkpt>
      <trkpt lat="44.13659" lon="6.97053">
        <ele>2392.8881835938</ele>
        <time>2013-12-07T14:18:25Z</time>
      </trkpt>
      <trkpt lat="44.13657" lon="6.97055">
        <ele>2392.310546875</ele>
        <time>2013-12-07T14:18:28Z</time>
      </trkpt>
      <trkpt lat="44.13649" lon="6.97058">
        <ele>2391.1384277344</ele>
        <time>2013-12-07T14:18:35Z</time>
      </trkpt>
      <trkpt lat="44.13641" lon="6.97061">
        <ele>2389.9147949219</ele>
        <time>2013-12-07T14:18:42Z</time>
      </trkpt>
      <trkpt lat="44.13639" lon="6.97064">
        <ele>2389.2580566406</ele>
        <time>2013-12-07T14:18:44Z</time>
      </trkpt>
      <trkpt lat="44.13631" lon="6.97069">
        <ele>2387.8017578125</ele>
        <time>2013-12-07T14:18:52Z</time>
      </trkpt>
      <trkpt lat="44.13624" lon="6.97072">
        <ele>2386.830078125</ele>
        <time>2013-12-07T14:18:58Z</time>
      </trkpt>
      <trkpt lat="44.13617" lon="6.97078">
        <ele>2385.4465332031</ele>
        <time>2013-12-07T14:19:05Z</time>
      </trkpt>
      <trkpt lat="44.13609" lon="6.97084">
        <ele>2383.3718261719</ele>
        <time>2013-12-07T14:19:13Z</time>
      </trkpt>
      <trkpt lat="44.13603" lon="6.97087">
        <ele>2381.5607910156</ele>
        <time>2013-12-07T14:19:18Z</time>
      </trkpt>
      <trkpt lat="44.13594" lon="6.97089">
        <ele>2379.4526367188</ele>
        <time>2013-12-07T14:19:25Z</time>
      </trkpt>
      <trkpt lat="44.13586" lon="6.97091">
        <ele>2377.6228027344</ele>
        <time>2013-12-07T14:19:32Z</time>
      </trkpt>
      <trkpt lat="44.13581" lon="6.97098">
        <ele>2375.0417480469</ele>
        <time>2013-12-07T14:19:40Z</time>
      </trkpt>
      <trkpt lat="44.13582" lon="6.97101">
        <ele>2374.4633789062</ele>
        <time>2013-12-07T14:19:42Z</time>
      </trkpt>
      <trkpt lat="44.13578" lon="6.97105">
        <ele>2373.1311035156</ele>
        <time>2013-12-07T14:19:48Z</time>
      </trkpt>
      <trkpt lat="44.13575" lon="6.97108">
        <ele>2372.1030273438</ele>
        <time>2013-12-07T14:19:53Z</time>
      </trkpt>
      <trkpt lat="44.13572" lon="6.9711">
        <ele>2371.3510742188</ele>
        <time>2013-12-07T14:19:57Z</time>
      </trkpt>
      <trkpt lat="44.13571" lon="6.97112">
        <ele>2370.9072265625</ele>
        <time>2013-12-07T14:19:59Z</time>
      </trkpt>
      <trkpt lat="44.1357" lon="6.9712">
        <ele>2369.1013183594</ele>
        <time>2013-12-07T14:20:05Z</time>
      </trkpt>
      <trkpt lat="44.1356" lon="6.97124">
        <ele>2367.5769042969</ele>
        <time>2013-12-07T14:20:14Z</time>
      </trkpt>
      <trkpt lat="44.13555" lon="6.97127">
        <ele>2366.4885253906</ele>
        <time>2013-12-07T14:20:18Z</time>
      </trkpt>
      <trkpt lat="44.13549" lon="6.97128">
        <ele>2363.919921875</ele>
        <time>2013-12-07T14:20:25Z</time>
      </trkpt>
      <trkpt lat="44.13543" lon="6.97126">
        <ele>2362.388671875</ele>
        <time>2013-12-07T14:20:30Z</time>
      </trkpt>
      <trkpt lat="44.1354" lon="6.97132">
        <ele>2360.4794921875</ele>
        <time>2013-12-07T14:20:36Z</time>
      </trkpt>
      <trkpt lat="44.13538" lon="6.97136">
        <ele>2358.6791992188</ele>
        <time>2013-12-07T14:20:40Z</time>
      </trkpt>
      <trkpt lat="44.1354" lon="6.97148">
        <ele>2356.4616699219</ele>
        <time>2013-12-07T14:20:48Z</time>
      </trkpt>
      <trkpt lat="44.13545" lon="6.97158">
        <ele>2355.3522949219</ele>
        <time>2013-12-07T14:20:57Z</time>
      </trkpt>
      <trkpt lat="44.13554" lon="6.97162">
        <ele>2357.0786132812</ele>
        <time>2013-12-07T14:21:04Z</time>
      </trkpt>
      <trkpt lat="44.13564" lon="6.97166">
        <ele>2356.7626953125</ele>
        <time>2013-12-07T14:21:12Z</time>
      </trkpt>
      <trkpt lat="44.13571" lon="6.97168">
        <ele>2356.2436523438</ele>
        <time>2013-12-07T14:21:18Z</time>
      </trkpt>
      <trkpt lat="44.13576" lon="6.97174">
        <ele>2353.5954589844</ele>
        <time>2013-12-07T14:21:23Z</time>
      </trkpt>
      <trkpt lat="44.13587" lon="6.97179">
        <ele>2351.8049316406</ele>
        <time>2013-12-07T14:21:31Z</time>
      </trkpt>
      <trkpt lat="44.13596" lon="6.97179">
        <ele>2352.0263671875</ele>
        <time>2013-12-07T14:21:39Z</time>
      </trkpt>
      <trkpt lat="44.13596" lon="6.9718">
        <ele>2351.6162109375</ele>
        <time>2013-12-07T14:21:47Z</time>
      </trkpt>
      <trkpt lat="44.13594" lon="6.97182">
        <ele>2350.2907714844</ele>
        <time>2013-12-07T14:22:14Z</time>
      </trkpt>
      <trkpt lat="44.13585" lon="6.97187">
        <ele>2347.2661132812</ele>
        <time>2013-12-07T14:22:22Z</time>
      </trkpt>
      <trkpt lat="44.13577" lon="6.97189">
        <ele>2345.8559570312</ele>
        <time>2013-12-07T14:22:29Z</time>
      </trkpt>
      <trkpt lat="44.13571" lon="6.97191">
        <ele>2344.8969726562</ele>
        <time>2013-12-07T14:22:34Z</time>
      </trkpt>
      <trkpt lat="44.13567" lon="6.97194">
        <ele>2343.3139648438</ele>
        <time>2013-12-07T14:22:38Z</time>
      </trkpt>
      <trkpt lat="44.13566" lon="6.97196">
        <ele>2342.4375</ele>
        <time>2013-12-07T14:22:41Z</time>
      </trkpt>
      <trkpt lat="44.13557" lon="6.97198">
        <ele>2341.87109375</ele>
        <time>2013-12-07T14:22:49Z</time>
      </trkpt>
      <trkpt lat="44.13557" lon="6.97198">
        <ele>2341.6821289062</ele>
        <time>2013-12-07T14:22:50Z</time>
      </trkpt>
      <trkpt lat="44.13551" lon="6.97204">
        <ele>2338.9309082031</ele>
        <time>2013-12-07T14:22:57Z</time>
      </trkpt>
      <trkpt lat="44.13545" lon="6.97207">
        <ele>2337.2199707031</ele>
        <time>2013-12-07T14:23:02Z</time>
      </trkpt>
      <trkpt lat="44.13546" lon="6.97211">
        <ele>2335.7919921875</ele>
        <time>2013-12-07T14:23:06Z</time>
      </trkpt>
      <trkpt lat="44.13552" lon="6.97217">
        <ele>2334.443359375</ele>
        <time>2013-12-07T14:23:14Z</time>
      </trkpt>
      <trkpt lat="44.13545" lon="6.9722">
        <ele>2332.6577148438</ele>
        <time>2013-12-07T14:23:20Z</time>
      </trkpt>
      <trkpt lat="44.1354" lon="6.97222">
        <ele>2331.458984375</ele>
        <time>2013-12-07T14:23:25Z</time>
      </trkpt>
      <trkpt lat="44.13543" lon="6.97229">
        <ele>2329.2197265625</ele>
        <time>2013-12-07T14:23:31Z</time>
      </trkpt>
      <trkpt lat="44.13545" lon="6.97233">
        <ele>2328.2629394531</ele>
        <time>2013-12-07T14:23:34Z</time>
      </trkpt>
      <trkpt lat="44.13547" lon="6.97237">
        <ele>2326.927734375</ele>
        <time>2013-12-07T14:23:38Z</time>
      </trkpt>
      <trkpt lat="44.13549" lon="6.97246">
        <ele>2324.5043945312</ele>
        <time>2013-12-07T14:23:44Z</time>
      </trkpt>
      <trkpt lat="44.13549" lon="6.97251">
        <ele>2322.8745117188</ele>
        <time>2013-12-07T14:23:48Z</time>
      </trkpt>
      <trkpt lat="44.13554" lon="6.9726">
        <ele>2320.8828125</ele>
        <time>2013-12-07T14:23:56Z</time>
      </trkpt>
      <trkpt lat="44.13556" lon="6.97264">
        <ele>2319.966796875</ele>
        <time>2013-12-07T14:23:59Z</time>
      </trkpt>
      <trkpt lat="44.13556" lon="6.97268">
        <ele>2318.8134765625</ele>
        <time>2013-12-07T14:24:02Z</time>
      </trkpt>
      <trkpt lat="44.13553" lon="6.97272">
        <ele>2317.3776855469</ele>
        <time>2013-12-07T14:24:06Z</time>
      </trkpt>
      <trkpt lat="44.13554" lon="6.97283">
        <ele>2314.7639160156</ele>
        <time>2013-12-07T14:24:13Z</time>
      </trkpt>
      <trkpt lat="44.13554" lon="6.97289">
        <ele>2313.4663085938</ele>
        <time>2013-12-07T14:24:19Z</time>
      </trkpt>
      <trkpt lat="44.13554" lon="6.97298">
        <ele>2311.4509277344</ele>
        <time>2013-12-07T14:24:26Z</time>
      </trkpt>
      <trkpt lat="44.13554" lon="6.9731">
        <ele>2308.6027832031</ele>
        <time>2013-12-07T14:24:34Z</time>
      </trkpt>
      <trkpt lat="44.13551" lon="6.9732">
        <ele>2305.5952148438</ele>
        <time>2013-12-07T14:24:41Z</time>
      </trkpt>
      <trkpt lat="44.13552" lon="6.97332">
        <ele>2302.2443847656</ele>
        <time>2013-12-07T14:24:48Z</time>
      </trkpt>
      <trkpt lat="44.13549" lon="6.97345">
        <ele>2299.5100097656</ele>
        <time>2013-12-07T14:24:56Z</time>
      </trkpt>
      <trkpt lat="44.13543" lon="6.97357">
        <ele>2297.2514648438</ele>
        <time>2013-12-07T14:25:04Z</time>
      </trkpt>
      <trkpt lat="44.13537" lon="6.97367">
        <ele>2295.4089355469</ele>
        <time>2013-12-07T14:25:11Z</time>
      </trkpt>
      <trkpt lat="44.13531" lon="6.97376">
        <ele>2293.9240722656</ele>
        <time>2013-12-07T14:25:17Z</time>
      </trkpt>
      <trkpt lat="44.13523" lon="6.97389">
        <ele>2291.6772460938</ele>
        <time>2013-12-07T14:25:27Z</time>
      </trkpt>
      <trkpt lat="44.13516" lon="6.97399">
        <ele>2289.9016113281</ele>
        <time>2013-12-07T14:25:35Z</time>
      </trkpt>
      <trkpt lat="44.13512" lon="6.97409">
        <ele>2288.4208984375</ele>
        <time>2013-12-07T14:25:42Z</time>
      </trkpt>
      <trkpt lat="44.13515" lon="6.97419">
        <ele>2287.2250976562</ele>
        <time>2013-12-07T14:25:49Z</time>
      </trkpt>
      <trkpt lat="44.13519" lon="6.97421">
        <ele>2286.90234375</ele>
        <time>2013-12-07T14:25:53Z</time>
      </trkpt>
      <trkpt lat="44.13527" lon="6.97428">
        <ele>2285.935546875</ele>
        <time>2013-12-07T14:26:01Z</time>
      </trkpt>
      <trkpt lat="44.13534" lon="6.97432">
        <ele>2285.1755371094</ele>
        <time>2013-12-07T14:26:08Z</time>
      </trkpt>
      <trkpt lat="44.13531" lon="6.97438">
        <ele>2284.1481933594</ele>
        <time>2013-12-07T14:26:14Z</time>
      </trkpt>
      <trkpt lat="44.13523" lon="6.97446">
        <ele>2282.6491699219</ele>
        <time>2013-12-07T14:26:23Z</time>
      </trkpt>
      <trkpt lat="44.13522" lon="6.97447">
        <ele>2282.4516601562</ele>
        <time>2013-12-07T14:26:30Z</time>
      </trkpt>
      <trkpt lat="44.1352" lon="6.97448">
        <ele>2282.4001464844</ele>
        <time>2013-12-07T14:27:03Z</time>
      </trkpt>
      <trkpt lat="44.13516" lon="6.97453">
        <ele>2281.533203125</ele>
        <time>2013-12-07T14:27:09Z</time>
      </trkpt>
      <trkpt lat="44.13508" lon="6.97463">
        <ele>2279.7309570312</ele>
        <time>2013-12-07T14:27:19Z</time>
      </trkpt>
      <trkpt lat="44.13498" lon="6.97467">
        <ele>2278.6242675781</ele>
        <time>2013-12-07T14:27:28Z</time>
      </trkpt>
      <trkpt lat="44.13485" lon="6.97468">
        <ele>2277.1635742188</ele>
        <time>2013-12-07T14:27:38Z</time>
      </trkpt>
      <trkpt lat="44.1348" lon="6.97467">
        <ele>2276.8046875</ele>
        <time>2013-12-07T14:27:42Z</time>
      </trkpt>
      <trkpt lat="44.13477" lon="6.97477">
        <ele>2274.4765625</ele>
        <time>2013-12-07T14:27:49Z</time>
      </trkpt>
      <trkpt lat="44.1348" lon="6.97492">
        <ele>2271.6130371094</ele>
        <time>2013-12-07T14:27:58Z</time>
      </trkpt>
      <trkpt lat="44.13485" lon="6.97504">
        <ele>2269.5944824219</ele>
        <time>2013-12-07T14:28:06Z</time>
      </trkpt>
      <trkpt lat="44.13491" lon="6.97513">
        <ele>2268.1628417969</ele>
        <time>2013-12-07T14:28:14Z</time>
      </trkpt>
      <trkpt lat="44.13496" lon="6.9752">
        <ele>2267.3798828125</ele>
        <time>2013-12-07T14:28:20Z</time>
      </trkpt>
      <trkpt lat="44.13497" lon="6.97521">
        <ele>2267.0502929688</ele>
        <time>2013-12-07T14:28:23Z</time>
      </trkpt>
      <trkpt lat="44.13486" lon="6.97522">
        <ele>2265.7216796875</ele>
        <time>2013-12-07T14:28:32Z</time>
      </trkpt>
      <trkpt lat="44.13475" lon="6.97523">
        <ele>2264.4650878906</ele>
        <time>2013-12-07T14:28:42Z</time>
      </trkpt>
      <trkpt lat="44.13475" lon="6.97523">
        <ele>2264.26953125</ele>
        <time>2013-12-07T14:28:43Z</time>
      </trkpt>
      <trkpt lat="44.13479" lon="6.97533">
        <ele>2262.4709472656</ele>
        <time>2013-12-07T14:28:50Z</time>
      </trkpt>
      <trkpt lat="44.13486" lon="6.97543">
        <ele>2260.8139648438</ele>
        <time>2013-12-07T14:28:58Z</time>
      </trkpt>
      <trkpt lat="44.13496" lon="6.97555">
        <ele>2258.9799804688</ele>
        <time>2013-12-07T14:29:08Z</time>
      </trkpt>
      <trkpt lat="44.13503" lon="6.97563">
        <ele>2257.265625</ele>
        <time>2013-12-07T14:29:15Z</time>
      </trkpt>
      <trkpt lat="44.13501" lon="6.97567">
        <ele>2256.5620117188</ele>
        <time>2013-12-07T14:29:19Z</time>
      </trkpt>
      <trkpt lat="44.1349" lon="6.97573">
        <ele>2254.6770019531</ele>
        <time>2013-12-07T14:29:29Z</time>
      </trkpt>
      <trkpt lat="44.13479" lon="6.97578">
        <ele>2253.2785644531</ele>
        <time>2013-12-07T14:29:38Z</time>
      </trkpt>
      <trkpt lat="44.13472" lon="6.97583">
        <ele>2251.990234375</ele>
        <time>2013-12-07T14:29:45Z</time>
      </trkpt>
      <trkpt lat="44.13462" lon="6.97586">
        <ele>2249.9489746094</ele>
        <time>2013-12-07T14:29:54Z</time>
      </trkpt>
      <trkpt lat="44.13452" lon="6.97592">
        <ele>2247.5715332031</ele>
        <time>2013-12-07T14:30:03Z</time>
      </trkpt>
      <trkpt lat="44.13442" lon="6.97593">
        <ele>2245.8908691406</ele>
        <time>2013-12-07T14:30:11Z</time>
      </trkpt>
      <trkpt lat="44.13441" lon="6.97594">
        <ele>2245.5788574219</ele>
        <time>2013-12-07T14:30:12Z</time>
      </trkpt>
      <trkpt lat="44.13445" lon="6.97605">
        <ele>2244.0524902344</ele>
        <time>2013-12-07T14:30:19Z</time>
      </trkpt>
      <trkpt lat="44.13446" lon="6.9761">
        <ele>2243.3796386719</ele>
        <time>2013-12-07T14:30:23Z</time>
      </trkpt>
      <trkpt lat="44.13445" lon="6.97617">
        <ele>2242.0268554688</ele>
        <time>2013-12-07T14:30:27Z</time>
      </trkpt>
      <trkpt lat="44.13438" lon="6.97639">
        <ele>2237.1447753906</ele>
        <time>2013-12-07T14:30:39Z</time>
      </trkpt>
      <trkpt lat="44.13434" lon="6.97653">
        <ele>2233.40234375</ele>
        <time>2013-12-07T14:30:47Z</time>
      </trkpt>
      <trkpt lat="44.13429" lon="6.97669">
        <ele>2229.298828125</ele>
        <time>2013-12-07T14:30:56Z</time>
      </trkpt>
      <trkpt lat="44.13423" lon="6.97686">
        <ele>2225.3679199219</ele>
        <time>2013-12-07T14:31:05Z</time>
      </trkpt>
      <trkpt lat="44.13417" lon="6.97701">
        <ele>2221.9860839844</ele>
        <time>2013-12-07T14:31:13Z</time>
      </trkpt>
      <trkpt lat="44.13412" lon="6.97713">
        <ele>2218.8037109375</ele>
        <time>2013-12-07T14:31:20Z</time>
      </trkpt>
      <trkpt lat="44.13408" lon="6.97723">
        <ele>2216.2900390625</ele>
        <time>2013-12-07T14:31:26Z</time>
      </trkpt>
      <trkpt lat="44.134" lon="6.97734">
        <ele>2212.7780761719</ele>
        <time>2013-12-07T14:31:33Z</time>
      </trkpt>
      <trkpt lat="44.13392" lon="6.97744">
        <ele>2209.6057128906</ele>
        <time>2013-12-07T14:31:40Z</time>
      </trkpt>
      <trkpt lat="44.1339" lon="6.97754">
        <ele>2207.3801269531</ele>
        <time>2013-12-07T14:31:45Z</time>
      </trkpt>
      <trkpt lat="44.13387" lon="6.97769">
        <ele>2203.8259277344</ele>
        <time>2013-12-07T14:31:53Z</time>
      </trkpt>
      <trkpt lat="44.13383" lon="6.97782">
        <ele>2200.8967285156</ele>
        <time>2013-12-07T14:32:00Z</time>
      </trkpt>
      <trkpt lat="44.1338" lon="6.9779">
        <ele>2199.2548828125</ele>
        <time>2013-12-07T14:32:05Z</time>
      </trkpt>
      <trkpt lat="44.13381" lon="6.97795">
        <ele>2198.4836425781</ele>
        <time>2013-12-07T14:32:10Z</time>
      </trkpt>
      <trkpt lat="44.13382" lon="6.97795">
        <ele>2198.4699707031</ele>
        <time>2013-12-07T14:32:11Z</time>
      </trkpt>
      <trkpt lat="44.13385" lon="6.97807">
        <ele>2196.71484375</ele>
        <time>2013-12-07T14:32:19Z</time>
      </trkpt>
      <trkpt lat="44.13387" lon="6.97818">
        <ele>2195.5070800781</ele>
        <time>2013-12-07T14:32:25Z</time>
      </trkpt>
      <trkpt lat="44.13386" lon="6.9783">
        <ele>2194.1091308594</ele>
        <time>2013-12-07T14:32:32Z</time>
      </trkpt>
      <trkpt lat="44.13386" lon="6.97832">
        <ele>2193.8950195312</ele>
        <time>2013-12-07T14:32:37Z</time>
      </trkpt>
      <trkpt lat="44.13387" lon="6.97831">
        <ele>2194.0327148438</ele>
        <time>2013-12-07T14:33:12Z</time>
      </trkpt>
      <trkpt lat="44.13387" lon="6.97831">
        <ele>2194.0886230469</ele>
        <time>2013-12-07T14:33:46Z</time>
      </trkpt>
      <trkpt lat="44.13387" lon="6.97832">
        <ele>2193.9580078125</ele>
        <time>2013-12-07T14:33:57Z</time>
      </trkpt>
      <trkpt lat="44.13385" lon="6.97835">
        <ele>2193.3798828125</ele>
        <time>2013-12-07T14:34:12Z</time>
      </trkpt>
      <trkpt lat="44.13385" lon="6.97837">
        <ele>2192.9606933594</ele>
        <time>2013-12-07T14:34:37Z</time>
      </trkpt>
      <trkpt lat="44.13386" lon="6.97842">
        <ele>2192.3659667969</ele>
        <time>2013-12-07T14:34:42Z</time>
      </trkpt>
      <trkpt lat="44.13386" lon="6.97852">
        <ele>2190.837890625</ele>
        <time>2013-12-07T14:34:48Z</time>
      </trkpt>
      <trkpt lat="44.13378" lon="6.97862">
        <ele>2188.2609863281</ele>
        <time>2013-12-07T14:34:57Z</time>
      </trkpt>
      <trkpt lat="44.13373" lon="6.97866">
        <ele>2186.6994628906</ele>
        <time>2013-12-07T14:35:03Z</time>
      </trkpt>
      <trkpt lat="44.13375" lon="6.97875">
        <ele>2185.2844238281</ele>
        <time>2013-12-07T14:35:10Z</time>
      </trkpt>
      <trkpt lat="44.13382" lon="6.97886">
        <ele>2184.4213867188</ele>
        <time>2013-12-07T14:35:18Z</time>
      </trkpt>
      <trkpt lat="44.13391" lon="6.9789">
        <ele>2184.837890625</ele>
        <time>2013-12-07T14:35:25Z</time>
      </trkpt>
      <trkpt lat="44.13393" lon="6.97899">
        <ele>2183.4794921875</ele>
        <time>2013-12-07T14:35:31Z</time>
      </trkpt>
      <trkpt lat="44.13387" lon="6.97907">
        <ele>2182.0100097656</ele>
        <time>2013-12-07T14:35:38Z</time>
      </trkpt>
      <trkpt lat="44.13378" lon="6.97915">
        <ele>2178.8771972656</ele>
        <time>2013-12-07T14:35:46Z</time>
      </trkpt>
      <trkpt lat="44.13374" lon="6.9792">
        <ele>2177.1943359375</ele>
        <time>2013-12-07T14:35:50Z</time>
      </trkpt>
      <trkpt lat="44.13375" lon="6.97927">
        <ele>2175.9333496094</ele>
        <time>2013-12-07T14:35:55Z</time>
      </trkpt>
      <trkpt lat="44.1338" lon="6.97937">
        <ele>2174.83203125</ele>
        <time>2013-12-07T14:36:03Z</time>
      </trkpt>
      <trkpt lat="44.13382" lon="6.97945">
        <ele>2173.763671875</ele>
        <time>2013-12-07T14:36:08Z</time>
      </trkpt>
      <trkpt lat="44.13388" lon="6.97953">
        <ele>2172.7646484375</ele>
        <time>2013-12-07T14:36:15Z</time>
      </trkpt>
      <trkpt lat="44.13393" lon="6.97957">
        <ele>2171.2619628906</ele>
        <time>2013-12-07T14:36:20Z</time>
      </trkpt>
      <trkpt lat="44.13395" lon="6.97963">
        <ele>2169.6005859375</ele>
        <time>2013-12-07T14:36:24Z</time>
      </trkpt>
      <trkpt lat="44.13401" lon="6.9797">
        <ele>2166.7133789062</ele>
        <time>2013-12-07T14:36:31Z</time>
      </trkpt>
      <trkpt lat="44.13403" lon="6.97981">
        <ele>2163.9560546875</ele>
        <time>2013-12-07T14:36:37Z</time>
      </trkpt>
      <trkpt lat="44.13404" lon="6.97997">
        <ele>2160.0966796875</ele>
        <time>2013-12-07T14:36:46Z</time>
      </trkpt>
      <trkpt lat="44.13408" lon="6.98014">
        <ele>2157.7875976562</ele>
        <time>2013-12-07T14:36:55Z</time>
      </trkpt>
      <trkpt lat="44.13407" lon="6.98033">
        <ele>2155.9946289062</ele>
        <time>2013-12-07T14:37:04Z</time>
      </trkpt>
      <trkpt lat="44.13403" lon="6.98051">
        <ele>2154.8513183594</ele>
        <time>2013-12-07T14:37:14Z</time>
      </trkpt>
      <trkpt lat="44.13395" lon="6.98069">
        <ele>2153.3134765625</ele>
        <time>2013-12-07T14:37:25Z</time>
      </trkpt>
      <trkpt lat="44.13385" lon="6.98077">
        <ele>2151.2346191406</ele>
        <time>2013-12-07T14:37:33Z</time>
      </trkpt>
      <trkpt lat="44.13374" lon="6.98083">
        <ele>2145.78515625</ele>
        <time>2013-12-07T14:37:41Z</time>
      </trkpt>
      <trkpt lat="44.13366" lon="6.98089">
        <ele>2141.8591308594</ele>
        <time>2013-12-07T14:37:49Z</time>
      </trkpt>
      <trkpt lat="44.13358" lon="6.98095">
        <ele>2139.7646484375</ele>
        <time>2013-12-07T14:37:57Z</time>
      </trkpt>
      <trkpt lat="44.13358" lon="6.98096">
        <ele>2139.7504882812</ele>
        <time>2013-12-07T14:38:04Z</time>
      </trkpt>
      <trkpt lat="44.13357" lon="6.98097">
        <ele>2139.6950683594</ele>
        <time>2013-12-07T14:38:15Z</time>
      </trkpt>
      <trkpt lat="44.13356" lon="6.98095">
        <ele>2139.634765625</ele>
        <time>2013-12-07T14:38:24Z</time>
      </trkpt>
      <trkpt lat="44.1335" lon="6.98102">
        <ele>2139.0634765625</ele>
        <time>2013-12-07T14:39:52Z</time>
      </trkpt>
      <trkpt lat="44.1334" lon="6.98108">
        <ele>2137.8635253906</ele>
        <time>2013-12-07T14:40:01Z</time>
      </trkpt>
      <trkpt lat="44.13331" lon="6.98117">
        <ele>2135.6379394531</ele>
        <time>2013-12-07T14:40:09Z</time>
      </trkpt>
      <trkpt lat="44.13323" lon="6.98124">
        <ele>2131.3818359375</ele>
        <time>2013-12-07T14:40:17Z</time>
      </trkpt>
      <trkpt lat="44.13313" lon="6.98131">
        <ele>2125.5258789062</ele>
        <time>2013-12-07T14:40:26Z</time>
      </trkpt>
      <trkpt lat="44.13304" lon="6.98139">
        <ele>2119.9575195312</ele>
        <time>2013-12-07T14:40:34Z</time>
      </trkpt>
      <trkpt lat="44.13296" lon="6.98147">
        <ele>2120.31640625</ele>
        <time>2013-12-07T14:40:42Z</time>
      </trkpt>
      <trkpt lat="44.13288" lon="6.98157">
        <ele>2121.1015625</ele>
        <time>2013-12-07T14:40:51Z</time>
      </trkpt>
      <trkpt lat="44.13282" lon="6.98166">
        <ele>2121.9401855469</ele>
        <time>2013-12-07T14:40:59Z</time>
      </trkpt>
      <trkpt lat="44.13273" lon="6.98178">
        <ele>2121.8076171875</ele>
        <time>2013-12-07T14:41:08Z</time>
      </trkpt>
      <trkpt lat="44.13264" lon="6.9819">
        <ele>2121.8540039062</ele>
        <time>2013-12-07T14:41:17Z</time>
      </trkpt>
      <trkpt lat="44.13256" lon="6.98205">
        <ele>2122</ele>
        <time>2013-12-07T14:41:27Z</time>
      </trkpt>
      <trkpt lat="44.1325" lon="6.98221">
        <ele>2121.9987792969</ele>
        <time>2013-12-07T14:41:37Z</time>
      </trkpt>
      <trkpt lat="44.13246" lon="6.98233">
        <ele>2121.9147949219</ele>
        <time>2013-12-07T14:41:44Z</time>
      </trkpt>
      <trkpt lat="44.13244" lon="6.98244">
        <ele>2121.9567871094</ele>
        <time>2013-12-07T14:41:50Z</time>
      </trkpt>
      <trkpt lat="44.1325" lon="6.98263">
        <ele>2121.5432128906</ele>
        <time>2013-12-07T14:42:00Z</time>
      </trkpt>
      <trkpt lat="44.13255" lon="6.98274">
        <ele>2121.1362304688</ele>
        <time>2013-12-07T14:42:07Z</time>
      </trkpt>
      <trkpt lat="44.13261" lon="6.98289">
        <ele>2121</ele>
        <time>2013-12-07T14:42:16Z</time>
      </trkpt>
      <trkpt lat="44.13267" lon="6.98304">
        <ele>2121</ele>
        <time>2013-12-07T14:42:25Z</time>
      </trkpt>
      <trkpt lat="44.13274" lon="6.98318">
        <ele>2121</ele>
        <time>2013-12-07T14:42:34Z</time>
      </trkpt>
      <trkpt lat="44.1328" lon="6.98333">
        <ele>2121</ele>
        <time>2013-12-07T14:42:43Z</time>
      </trkpt>
      <trkpt lat="44.13281" lon="6.98346">
        <ele>2121</ele>
        <time>2013-12-07T14:42:50Z</time>
      </trkpt>
      <trkpt lat="44.13282" lon="6.98356">
        <ele>2121</ele>
        <time>2013-12-07T14:42:56Z</time>
      </trkpt>
      <trkpt lat="44.13282" lon="6.9836">
        <ele>2121</ele>
        <time>2013-12-07T14:42:58Z</time>
      </trkpt>
      <trkpt lat="44.13276" lon="6.98374">
        <ele>2119.5734863281</ele>
        <time>2013-12-07T14:43:06Z</time>
      </trkpt>
      <trkpt lat="44.1327" lon="6.98389">
        <ele>2117.9970703125</ele>
        <time>2013-12-07T14:43:14Z</time>
      </trkpt>
      <trkpt lat="44.13266" lon="6.98405">
        <ele>2115.8735351562</ele>
        <time>2013-12-07T14:43:23Z</time>
      </trkpt>
      <trkpt lat="44.13263" lon="6.98417">
        <ele>2114.4868164062</ele>
        <time>2013-12-07T14:43:30Z</time>
      </trkpt>
      <trkpt lat="44.13256" lon="6.98431">
        <ele>2112.66015625</ele>
        <time>2013-12-07T14:43:39Z</time>
      </trkpt>
      <trkpt lat="44.13251" lon="6.98442">
        <ele>2111.314453125</ele>
        <time>2013-12-07T14:43:46Z</time>
      </trkpt>
      <trkpt lat="44.13244" lon="6.98455">
        <ele>2109.8803710938</ele>
        <time>2013-12-07T14:43:55Z</time>
      </trkpt>
      <trkpt lat="44.13237" lon="6.98464">
        <ele>2109.0771484375</ele>
        <time>2013-12-07T14:44:04Z</time>
      </trkpt>
      <trkpt lat="44.13235" lon="6.98466">
        <ele>2108.9946289062</ele>
        <time>2013-12-07T14:44:09Z</time>
      </trkpt>
      <trkpt lat="44.13229" lon="6.98473">
        <ele>2108.41796875</ele>
        <time>2013-12-07T14:44:16Z</time>
      </trkpt>
      <trkpt lat="44.13224" lon="6.98483">
        <ele>2107.3056640625</ele>
        <time>2013-12-07T14:44:24Z</time>
      </trkpt>
      <trkpt lat="44.13216" lon="6.98493">
        <ele>2106.3991699219</ele>
        <time>2013-12-07T14:44:32Z</time>
      </trkpt>
      <trkpt lat="44.13206" lon="6.98502">
        <ele>2105.8154296875</ele>
        <time>2013-12-07T14:44:41Z</time>
      </trkpt>
      <trkpt lat="44.13199" lon="6.9851">
        <ele>2105.2729492188</ele>
        <time>2013-12-07T14:44:48Z</time>
      </trkpt>
      <trkpt lat="44.13192" lon="6.98518">
        <ele>2104.3569335938</ele>
        <time>2013-12-07T14:44:55Z</time>
      </trkpt>
      <trkpt lat="44.13183" lon="6.98531">
        <ele>2101.8488769531</ele>
        <time>2013-12-07T14:45:05Z</time>
      </trkpt>
      <trkpt lat="44.1318" lon="6.98541">
        <ele>2099.7880859375</ele>
        <time>2013-12-07T14:45:11Z</time>
      </trkpt>
      <trkpt lat="44.13174" lon="6.98556">
        <ele>2096.9067382812</ele>
        <time>2013-12-07T14:45:20Z</time>
      </trkpt>
      <trkpt lat="44.1317" lon="6.9857">
        <ele>2093.2370605469</ele>
        <time>2013-12-07T14:45:29Z</time>
      </trkpt>
      <trkpt lat="44.13169" lon="6.98571">
        <ele>2092.9421386719</ele>
        <time>2013-12-07T14:45:30Z</time>
      </trkpt>
      <trkpt lat="44.13163" lon="6.98579">
        <ele>2090.6564941406</ele>
        <time>2013-12-07T14:45:38Z</time>
      </trkpt>
      <trkpt lat="44.13162" lon="6.98582">
        <ele>2089.9770507812</ele>
        <time>2013-12-07T14:45:40Z</time>
      </trkpt>
      <trkpt lat="44.13157" lon="6.98589">
        <ele>2088.4291992188</ele>
        <time>2013-12-07T14:45:47Z</time>
      </trkpt>
      <trkpt lat="44.13152" lon="6.98599">
        <ele>2086.3825683594</ele>
        <time>2013-12-07T14:45:55Z</time>
      </trkpt>
      <trkpt lat="44.13147" lon="6.98608">
        <ele>2084.7248535156</ele>
        <time>2013-12-07T14:46:02Z</time>
      </trkpt>
      <trkpt lat="44.13146" lon="6.98611">
        <ele>2084.2180175781</ele>
        <time>2013-12-07T14:46:04Z</time>
      </trkpt>
      <trkpt lat="44.13142" lon="6.98622">
        <ele>2082.4406738281</ele>
        <time>2013-12-07T14:46:12Z</time>
      </trkpt>
      <trkpt lat="44.1314" lon="6.98627">
        <ele>2081.7043457031</ele>
        <time>2013-12-07T14:46:30Z</time>
      </trkpt>
      <trkpt lat="44.13139" lon="6.98633">
        <ele>2080.8068847656</ele>
        <time>2013-12-07T14:46:35Z</time>
      </trkpt>
      <trkpt lat="44.13137" lon="6.98635">
        <ele>2080.4130859375</ele>
        <time>2013-12-07T14:46:43Z</time>
      </trkpt>
      <trkpt lat="44.13135" lon="6.98637">
        <ele>2079.9575195312</ele>
        <time>2013-12-07T14:46:48Z</time>
      </trkpt>
      <trkpt lat="44.13134" lon="6.98638">
        <ele>2079.763671875</ele>
        <time>2013-12-07T14:46:55Z</time>
      </trkpt>
      <trkpt lat="44.13133" lon="6.98638">
        <ele>2079.7192382812</ele>
        <time>2013-12-07T14:47:02Z</time>
      </trkpt>
      <trkpt lat="44.13133" lon="6.98637">
        <ele>2079.8364257812</ele>
        <time>2013-12-07T14:47:16Z</time>
      </trkpt>
      <trkpt lat="44.13132" lon="6.9864">
        <ele>2079.435546875</ele>
        <time>2013-12-07T14:48:09Z</time>
      </trkpt>
      <trkpt lat="44.13136" lon="6.98652">
        <ele>2078.5161132812</ele>
        <time>2013-12-07T14:48:18Z</time>
      </trkpt>
      <trkpt lat="44.13141" lon="6.98664">
        <ele>2076.861328125</ele>
        <time>2013-12-07T14:48:28Z</time>
      </trkpt>
      <trkpt lat="44.13142" lon="6.9867">
        <ele>2076.064453125</ele>
        <time>2013-12-07T14:48:32Z</time>
      </trkpt>
      <trkpt lat="44.13148" lon="6.98674">
        <ele>2074.1303710938</ele>
        <time>2013-12-07T14:48:39Z</time>
      </trkpt>
      <trkpt lat="44.1315" lon="6.98675">
        <ele>2073.640625</ele>
        <time>2013-12-07T14:48:41Z</time>
      </trkpt>
      <trkpt lat="44.1315" lon="6.98686">
        <ele>2071.3388671875</ele>
        <time>2013-12-07T14:48:49Z</time>
      </trkpt>
      <trkpt lat="44.13151" lon="6.98698">
        <ele>2069.0266113281</ele>
        <time>2013-12-07T14:48:56Z</time>
      </trkpt>
      <trkpt lat="44.13154" lon="6.98709">
        <ele>2066.1247558594</ele>
        <time>2013-12-07T14:49:03Z</time>
      </trkpt>
      <trkpt lat="44.13155" lon="6.98723">
        <ele>2063.3676757812</ele>
        <time>2013-12-07T14:49:11Z</time>
      </trkpt>
      <trkpt lat="44.13156" lon="6.98738">
        <ele>2061.6508789062</ele>
        <time>2013-12-07T14:49:19Z</time>
      </trkpt>
      <trkpt lat="44.13155" lon="6.98751">
        <ele>2060.3063964844</ele>
        <time>2013-12-07T14:49:26Z</time>
      </trkpt>
      <trkpt lat="44.13153" lon="6.98763">
        <ele>2059.5947265625</ele>
        <time>2013-12-07T14:49:33Z</time>
      </trkpt>
      <trkpt lat="44.13152" lon="6.98766">
        <ele>2059.8374023438</ele>
        <time>2013-12-07T14:49:35Z</time>
      </trkpt>
      <trkpt lat="44.13152" lon="6.98773">
        <ele>2059.171875</ele>
        <time>2013-12-07T14:49:39Z</time>
      </trkpt>
      <trkpt lat="44.13157" lon="6.98787">
        <ele>2055.3483886719</ele>
        <time>2013-12-07T14:49:49Z</time>
      </trkpt>
      <trkpt lat="44.13156" lon="6.98794">
        <ele>2054.8024902344</ele>
        <time>2013-12-07T14:49:53Z</time>
      </trkpt>
      <trkpt lat="44.13158" lon="6.98808">
        <ele>2052.6328125</ele>
        <time>2013-12-07T14:50:02Z</time>
      </trkpt>
      <trkpt lat="44.13161" lon="6.9882">
        <ele>2049.3203125</ele>
        <time>2013-12-07T14:50:10Z</time>
      </trkpt>
      <trkpt lat="44.13164" lon="6.98833">
        <ele>2046.2622070312</ele>
        <time>2013-12-07T14:50:18Z</time>
      </trkpt>
      <trkpt lat="44.13167" lon="6.98847">
        <ele>2042.9636230469</ele>
        <time>2013-12-07T14:50:26Z</time>
      </trkpt>
      <trkpt lat="44.13168" lon="6.98861">
        <ele>2040.4136962891</ele>
        <time>2013-12-07T14:50:33Z</time>
      </trkpt>
      <trkpt lat="44.13168" lon="6.98876">
        <ele>2039.5379638672</ele>
        <time>2013-12-07T14:50:41Z</time>
      </trkpt>
      <trkpt lat="44.13168" lon="6.98895">
        <ele>2038.1840820312</ele>
        <time>2013-12-07T14:50:51Z</time>
      </trkpt>
      <trkpt lat="44.13169" lon="6.9891">
        <ele>2034.9356689453</ele>
        <time>2013-12-07T14:50:59Z</time>
      </trkpt>
      <trkpt lat="44.1317" lon="6.98923">
        <ele>2032.3107910156</ele>
        <time>2013-12-07T14:51:06Z</time>
      </trkpt>
      <trkpt lat="44.1317" lon="6.98926">
        <ele>2031.6502685547</ele>
        <time>2013-12-07T14:51:08Z</time>
      </trkpt>
      <trkpt lat="44.13173" lon="6.98942">
        <ele>2026.4692382812</ele>
        <time>2013-12-07T14:51:17Z</time>
      </trkpt>
      <trkpt lat="44.13178" lon="6.98957">
        <ele>2022.3695068359</ele>
        <time>2013-12-07T14:51:26Z</time>
      </trkpt>
      <trkpt lat="44.13179" lon="6.98972">
        <ele>2021.1381835938</ele>
        <time>2013-12-07T14:51:34Z</time>
      </trkpt>
      <trkpt lat="44.13178" lon="6.98985">
        <ele>2021.5144042969</ele>
        <time>2013-12-07T14:51:41Z</time>
      </trkpt>
      <trkpt lat="44.13174" lon="6.98987">
        <ele>2023.2620849609</ele>
        <time>2013-12-07T14:51:47Z</time>
      </trkpt>
      <trkpt lat="44.1317" lon="6.98993">
        <ele>2024.3863525391</ele>
        <time>2013-12-07T14:51:53Z</time>
      </trkpt>
      <trkpt lat="44.13171" lon="6.98995">
        <ele>2024.087890625</ele>
        <time>2013-12-07T14:51:54Z</time>
      </trkpt>
      <trkpt lat="44.13174" lon="6.99003">
        <ele>2022.4697265625</ele>
        <time>2013-12-07T14:52:00Z</time>
      </trkpt>
      <trkpt lat="44.13179" lon="6.9901">
        <ele>2021.1280517578</ele>
        <time>2013-12-07T14:52:07Z</time>
      </trkpt>
      <trkpt lat="44.13181" lon="6.99012">
        <ele>2020.6428222656</ele>
        <time>2013-12-07T14:52:16Z</time>
      </trkpt>
      <trkpt lat="44.13181" lon="6.99014">
        <ele>2020.7546386719</ele>
        <time>2013-12-07T14:52:23Z</time>
      </trkpt>
      <trkpt lat="44.13183" lon="6.99017">
        <ele>2020.4344482422</ele>
        <time>2013-12-07T14:52:29Z</time>
      </trkpt>
      <trkpt lat="44.13185" lon="6.99032">
        <ele>2020.4925537109</ele>
        <time>2013-12-07T14:52:37Z</time>
      </trkpt>
      <trkpt lat="44.13186" lon="6.99046">
        <ele>2019.8249511719</ele>
        <time>2013-12-07T14:52:45Z</time>
      </trkpt>
      <trkpt lat="44.13185" lon="6.99059">
        <ele>2019.1385498047</ele>
        <time>2013-12-07T14:52:53Z</time>
      </trkpt>
      <trkpt lat="44.13183" lon="6.99062">
        <ele>2018.8208007812</ele>
        <time>2013-12-07T14:52:57Z</time>
      </trkpt>
      <trkpt lat="44.13178" lon="6.99073">
        <ele>2017.3096923828</ele>
        <time>2013-12-07T14:53:04Z</time>
      </trkpt>
      <trkpt lat="44.13173" lon="6.99087">
        <ele>2015.1015625</ele>
        <time>2013-12-07T14:53:12Z</time>
      </trkpt>
      <trkpt lat="44.13166" lon="6.99097">
        <ele>2012.3344726562</ele>
        <time>2013-12-07T14:53:19Z</time>
      </trkpt>
      <trkpt lat="44.1316" lon="6.99109">
        <ele>2008.5863037109</ele>
        <time>2013-12-07T14:53:27Z</time>
      </trkpt>
      <trkpt lat="44.13155" lon="6.99119">
        <ele>2006.8802490234</ele>
        <time>2013-12-07T14:53:34Z</time>
      </trkpt>
      <trkpt lat="44.13151" lon="6.99126">
        <ele>2005.6599121094</ele>
        <time>2013-12-07T14:53:41Z</time>
      </trkpt>
      <trkpt lat="44.13149" lon="6.9913">
        <ele>2004.9403076172</ele>
        <time>2013-12-07T14:53:47Z</time>
      </trkpt>
      <trkpt lat="44.13148" lon="6.99131">
        <ele>2004.6018066406</ele>
        <time>2013-12-07T14:53:48Z</time>
      </trkpt>
      <trkpt lat="44.13143" lon="6.99141">
        <ele>2002.6043701172</ele>
        <time>2013-12-07T14:53:57Z</time>
      </trkpt>
      <trkpt lat="44.1314" lon="6.99151">
        <ele>2002.7683105469</ele>
        <time>2013-12-07T14:54:05Z</time>
      </trkpt>
      <trkpt lat="44.13136" lon="6.99162">
        <ele>2003.4145507812</ele>
        <time>2013-12-07T14:54:14Z</time>
      </trkpt>
      <trkpt lat="44.13132" lon="6.99174">
        <ele>2003.5698242188</ele>
        <time>2013-12-07T14:54:22Z</time>
      </trkpt>
      <trkpt lat="44.13131" lon="6.99179">
        <ele>2003.5428466797</ele>
        <time>2013-12-07T14:54:25Z</time>
      </trkpt>
      <trkpt lat="44.13129" lon="6.99192">
        <ele>2004.0782470703</ele>
        <time>2013-12-07T14:54:33Z</time>
      </trkpt>
      <trkpt lat="44.13131" lon="6.99204">
        <ele>2004.3337402344</ele>
        <time>2013-12-07T14:54:40Z</time>
      </trkpt>
      <trkpt lat="44.13134" lon="6.99216">
        <ele>2005.3343505859</ele>
        <time>2013-12-07T14:54:47Z</time>
      </trkpt>
      <trkpt lat="44.13138" lon="6.99228">
        <ele>2006.4167480469</ele>
        <time>2013-12-07T14:54:54Z</time>
      </trkpt>
      <trkpt lat="44.13143" lon="6.99238">
        <ele>2006.5783691406</ele>
        <time>2013-12-07T14:55:01Z</time>
      </trkpt>
      <trkpt lat="44.13148" lon="6.99251">
        <ele>2006.2083740234</ele>
        <time>2013-12-07T14:55:10Z</time>
      </trkpt>
      <trkpt lat="44.1315" lon="6.99254">
        <ele>2006.2333984375</ele>
        <time>2013-12-07T14:55:12Z</time>
      </trkpt>
      <trkpt lat="44.13154" lon="6.99262">
        <ele>2005.2188720703</ele>
        <time>2013-12-07T14:55:17Z</time>
      </trkpt>
      <trkpt lat="44.1316" lon="6.99273">
        <ele>2003.4656982422</ele>
        <time>2013-12-07T14:55:25Z</time>
      </trkpt>
      <trkpt lat="44.13172" lon="6.99287">
        <ele>2001.9698486328</ele>
        <time>2013-12-07T14:55:36Z</time>
      </trkpt>
      <trkpt lat="44.13181" lon="6.99294">
        <ele>2000.9515380859</ele>
        <time>2013-12-07T14:55:43Z</time>
      </trkpt>
      <trkpt lat="44.13191" lon="6.99299">
        <ele>2000.9455566406</ele>
        <time>2013-12-07T14:55:50Z</time>
      </trkpt>
      <trkpt lat="44.13196" lon="6.99306">
        <ele>1999.2615966797</ele>
        <time>2013-12-07T14:55:55Z</time>
      </trkpt>
      <trkpt lat="44.13203" lon="6.99321">
        <ele>1997.0295410156</ele>
        <time>2013-12-07T14:56:04Z</time>
      </trkpt>
      <trkpt lat="44.1321" lon="6.99336">
        <ele>1995.4913330078</ele>
        <time>2013-12-07T14:56:13Z</time>
      </trkpt>
      <trkpt lat="44.13217" lon="6.9935">
        <ele>1994.6114501953</ele>
        <time>2013-12-07T14:56:21Z</time>
      </trkpt>
      <trkpt lat="44.13224" lon="6.99366">
        <ele>1993.4375</ele>
        <time>2013-12-07T14:56:30Z</time>
      </trkpt>
      <trkpt lat="44.13227" lon="6.99378">
        <ele>1991.7257080078</ele>
        <time>2013-12-07T14:56:37Z</time>
      </trkpt>
      <trkpt lat="44.13227" lon="6.99396">
        <ele>1988.5545654297</ele>
        <time>2013-12-07T14:56:46Z</time>
      </trkpt>
      <trkpt lat="44.13228" lon="6.99408">
        <ele>1986.8825683594</ele>
        <time>2013-12-07T14:56:54Z</time>
      </trkpt>
      <trkpt lat="44.13228" lon="6.99408">
        <ele>1986.8825683594</ele>
        <time>2013-12-07T14:57:06Z</time>
      </trkpt>
      <trkpt lat="44.13228" lon="6.9941">
        <ele>1986.4907226562</ele>
        <time>2013-12-07T14:57:38Z</time>
      </trkpt>
      <trkpt lat="44.13232" lon="6.99415">
        <ele>1985.9093017578</ele>
        <time>2013-12-07T14:57:45Z</time>
      </trkpt>
      <trkpt lat="44.13231" lon="6.99415">
        <ele>1985.9443359375</ele>
        <time>2013-12-07T14:58:12Z</time>
      </trkpt>
      <trkpt lat="44.13228" lon="6.99411">
        <ele>1986.3043212891</ele>
        <time>2013-12-07T14:58:18Z</time>
      </trkpt>
      <trkpt lat="44.13229" lon="6.99412">
        <ele>1986.2236328125</ele>
        <time>2013-12-07T14:58:25Z</time>
      </trkpt>
      <trkpt lat="44.13228" lon="6.9941">
        <ele>1986.5401611328</ele>
        <time>2013-12-07T14:58:33Z</time>
      </trkpt>
      <trkpt lat="44.13226" lon="6.9941">
        <ele>1986.3094482422</ele>
        <time>2013-12-07T14:59:05Z</time>
      </trkpt>
      <trkpt lat="44.13223" lon="6.99409">
        <ele>1986.1636962891</ele>
        <time>2013-12-07T14:59:09Z</time>
      </trkpt>
      <trkpt lat="44.1322" lon="6.99413">
        <ele>1984.8171386719</ele>
        <time>2013-12-07T14:59:15Z</time>
      </trkpt>
      <trkpt lat="44.13221" lon="6.99414">
        <ele>1985.0300292969</ele>
        <time>2013-12-07T14:59:24Z</time>
      </trkpt>
      <trkpt lat="44.13222" lon="6.99415">
        <ele>1985.0368652344</ele>
        <time>2013-12-07T14:59:29Z</time>
      </trkpt>
      <trkpt lat="44.13216" lon="6.99411">
        <ele>1983.5262451172</ele>
        <time>2013-12-07T14:59:35Z</time>
      </trkpt>
      <trkpt lat="44.1321" lon="6.9941">
        <ele>1981.5144042969</ele>
        <time>2013-12-07T14:59:40Z</time>
      </trkpt>
      <trkpt lat="44.13205" lon="6.99405">
        <ele>1980.5461425781</ele>
        <time>2013-12-07T14:59:46Z</time>
      </trkpt>
      <trkpt lat="44.13198" lon="6.99399">
        <ele>1978.9943847656</ele>
        <time>2013-12-07T14:59:53Z</time>
      </trkpt>
      <trkpt lat="44.1319" lon="6.99394">
        <ele>1977.3653564453</ele>
        <time>2013-12-07T15:00:00Z</time>
      </trkpt>
      <trkpt lat="44.1318" lon="6.99385">
        <ele>1976.7504882812</ele>
        <time>2013-12-07T15:00:08Z</time>
      </trkpt>
      <trkpt lat="44.13171" lon="6.99375">
        <ele>1977.0554199219</ele>
        <time>2013-12-07T15:00:16Z</time>
      </trkpt>
      <trkpt lat="44.13163" lon="6.99371">
        <ele>1975.2630615234</ele>
        <time>2013-12-07T15:00:22Z</time>
      </trkpt>
      <trkpt lat="44.13155" lon="6.99365">
        <ele>1973.9956054688</ele>
        <time>2013-12-07T15:00:29Z</time>
      </trkpt>
      <trkpt lat="44.1315" lon="6.99358">
        <ele>1973.9931640625</ele>
        <time>2013-12-07T15:00:34Z</time>
      </trkpt>
      <trkpt lat="44.13135" lon="6.99354">
        <ele>1970.3471679688</ele>
        <time>2013-12-07T15:00:45Z</time>
      </trkpt>
      <trkpt lat="44.13122" lon="6.99352">
        <ele>1965.0384521484</ele>
        <time>2013-12-07T15:00:55Z</time>
      </trkpt>
      <trkpt lat="44.13112" lon="6.99347">
        <ele>1961.8618164062</ele>
        <time>2013-12-07T15:01:03Z</time>
      </trkpt>
      <trkpt lat="44.13105" lon="6.99345">
        <ele>1959.552734375</ele>
        <time>2013-12-07T15:01:09Z</time>
      </trkpt>
      <trkpt lat="44.13105" lon="6.9934">
        <ele>1960.306640625</ele>
        <time>2013-12-07T15:01:15Z</time>
      </trkpt>
      <trkpt lat="44.13104" lon="6.99338">
        <ele>1960.7158203125</ele>
        <time>2013-12-07T15:01:28Z</time>
      </trkpt>
      <trkpt lat="44.131" lon="6.99334">
        <ele>1959.8315429688</ele>
        <time>2013-12-07T15:01:32Z</time>
      </trkpt>
      <trkpt lat="44.13096" lon="6.99334">
        <ele>1957.8557128906</ele>
        <time>2013-12-07T15:01:36Z</time>
      </trkpt>
      <trkpt lat="44.13085" lon="6.99338">
        <ele>1952.0157470703</ele>
        <time>2013-12-07T15:01:43Z</time>
      </trkpt>
      <trkpt lat="44.13071" lon="6.99343">
        <ele>1945.1374511719</ele>
        <time>2013-12-07T15:01:51Z</time>
      </trkpt>
      <trkpt lat="44.1306" lon="6.99343">
        <ele>1939.9602050781</ele>
        <time>2013-12-07T15:01:59Z</time>
      </trkpt>
      <trkpt lat="44.13055" lon="6.99344">
        <ele>1937.8267822266</ele>
        <time>2013-12-07T15:02:02Z</time>
      </trkpt>
      <trkpt lat="44.13046" lon="6.99342">
        <ele>1933.4173583984</ele>
        <time>2013-12-07T15:02:08Z</time>
      </trkpt>
      <trkpt lat="44.13038" lon="6.99348">
        <ele>1928.1944580078</ele>
        <time>2013-12-07T15:02:13Z</time>
      </trkpt>
      <trkpt lat="44.13037" lon="6.99346">
        <ele>1927.8791503906</ele>
        <time>2013-12-07T15:02:18Z</time>
      </trkpt>
      <trkpt lat="44.13036" lon="6.99346">
        <ele>1927.5406494141</ele>
        <time>2013-12-07T15:02:20Z</time>
      </trkpt>
      <trkpt lat="44.13032" lon="6.99348">
        <ele>1925.2048339844</ele>
        <time>2013-12-07T15:02:24Z</time>
      </trkpt>
      <trkpt lat="44.13022" lon="6.9935">
        <ele>1921.2727050781</ele>
        <time>2013-12-07T15:02:32Z</time>
      </trkpt>
      <trkpt lat="44.13018" lon="6.99353">
        <ele>1919.8275146484</ele>
        <time>2013-12-07T15:02:36Z</time>
      </trkpt>
      <trkpt lat="44.13006" lon="6.99357">
        <ele>1916.9833984375</ele>
        <time>2013-12-07T15:02:44Z</time>
      </trkpt>
      <trkpt lat="44.13001" lon="6.99359">
        <ele>1915.5065917969</ele>
        <time>2013-12-07T15:02:49Z</time>
      </trkpt>
      <trkpt lat="44.12992" lon="6.99358">
        <ele>1914.7907714844</ele>
        <time>2013-12-07T15:02:55Z</time>
      </trkpt>
      <trkpt lat="44.12981" lon="6.9936">
        <ele>1913.2296142578</ele>
        <time>2013-12-07T15:03:02Z</time>
      </trkpt>
      <trkpt lat="44.12976" lon="6.99362">
        <ele>1911.9852294922</ele>
        <time>2013-12-07T15:03:08Z</time>
      </trkpt>
      <trkpt lat="44.1297" lon="6.99368">
        <ele>1908.9616699219</ele>
        <time>2013-12-07T15:03:14Z</time>
      </trkpt>
      <trkpt lat="44.12963" lon="6.99371">
        <ele>1906.8546142578</ele>
        <time>2013-12-07T15:03:20Z</time>
      </trkpt>
      <trkpt lat="44.12955" lon="6.99376">
        <ele>1904.0388183594</ele>
        <time>2013-12-07T15:03:27Z</time>
      </trkpt>
      <trkpt lat="44.12946" lon="6.99379">
        <ele>1902.2401123047</ele>
        <time>2013-12-07T15:03:34Z</time>
      </trkpt>
      <trkpt lat="44.12937" lon="6.9938">
        <ele>1900.5802001953</ele>
        <time>2013-12-07T15:03:41Z</time>
      </trkpt>
      <trkpt lat="44.1293" lon="6.99379">
        <ele>1899.7596435547</ele>
        <time>2013-12-07T15:03:45Z</time>
      </trkpt>
      <trkpt lat="44.12921" lon="6.9938">
        <ele>1898.2730712891</ele>
        <time>2013-12-07T15:03:52Z</time>
      </trkpt>
      <trkpt lat="44.12911" lon="6.99381">
        <ele>1896.0092773438</ele>
        <time>2013-12-07T15:03:59Z</time>
      </trkpt>
      <trkpt lat="44.12899" lon="6.99382">
        <ele>1893.4031982422</ele>
        <time>2013-12-07T15:04:08Z</time>
      </trkpt>
      <trkpt lat="44.12891" lon="6.99383">
        <ele>1891.5617675781</ele>
        <time>2013-12-07T15:04:17Z</time>
      </trkpt>
      <trkpt lat="44.12885" lon="6.99384">
        <ele>1890.6224365234</ele>
        <time>2013-12-07T15:04:23Z</time>
      </trkpt>
      <trkpt lat="44.12877" lon="6.99384">
        <ele>1889.83203125</ele>
        <time>2013-12-07T15:04:30Z</time>
      </trkpt>
      <trkpt lat="44.12868" lon="6.99384">
        <ele>1889.0323486328</ele>
        <time>2013-12-07T15:04:37Z</time>
      </trkpt>
      <trkpt lat="44.12857" lon="6.99385">
        <ele>1887.0622558594</ele>
        <time>2013-12-07T15:04:45Z</time>
      </trkpt>
      <trkpt lat="44.12846" lon="6.99386">
        <ele>1884.046875</ele>
        <time>2013-12-07T15:04:54Z</time>
      </trkpt>
      <trkpt lat="44.12836" lon="6.99387">
        <ele>1881.3719482422</ele>
        <time>2013-12-07T15:05:02Z</time>
      </trkpt>
      <trkpt lat="44.12826" lon="6.99386">
        <ele>1879.2153320312</ele>
        <time>2013-12-07T15:05:10Z</time>
      </trkpt>
      <trkpt lat="44.12823" lon="6.99386">
        <ele>1878.2850341797</ele>
        <time>2013-12-07T15:05:12Z</time>
      </trkpt>
      <trkpt lat="44.12822" lon="6.99394">
        <ele>1875.6655273438</ele>
        <time>2013-12-07T15:05:17Z</time>
      </trkpt>
      <trkpt lat="44.12825" lon="6.99399">
        <ele>1874.9652099609</ele>
        <time>2013-12-07T15:05:20Z</time>
      </trkpt>
      <trkpt lat="44.12833" lon="6.9941">
        <ele>1873.7017822266</ele>
        <time>2013-12-07T15:05:28Z</time>
      </trkpt>
      <trkpt lat="44.12835" lon="6.99414">
        <ele>1873.2348632812</ele>
        <time>2013-12-07T15:05:31Z</time>
      </trkpt>
      <trkpt lat="44.1283" lon="6.99422">
        <ele>1869.4309082031</ele>
        <time>2013-12-07T15:05:39Z</time>
      </trkpt>
      <trkpt lat="44.12824" lon="6.9943">
        <ele>1865.7229003906</ele>
        <time>2013-12-07T15:05:46Z</time>
      </trkpt>
      <trkpt lat="44.12815" lon="6.99432">
        <ele>1863.1137695312</ele>
        <time>2013-12-07T15:05:53Z</time>
      </trkpt>
      <trkpt lat="44.12814" lon="6.99433">
        <ele>1862.6193847656</ele>
        <time>2013-12-07T15:05:54Z</time>
      </trkpt>
      <trkpt lat="44.12809" lon="6.99432">
        <ele>1861.5069580078</ele>
        <time>2013-12-07T15:05:58Z</time>
      </trkpt>
      <trkpt lat="44.12796" lon="6.99432">
        <ele>1858.0560302734</ele>
        <time>2013-12-07T15:06:07Z</time>
      </trkpt>
      <trkpt lat="44.12788" lon="6.99433">
        <ele>1855.7172851562</ele>
        <time>2013-12-07T15:06:14Z</time>
      </trkpt>
      <trkpt lat="44.12781" lon="6.99427">
        <ele>1855.421875</ele>
        <time>2013-12-07T15:06:20Z</time>
      </trkpt>
      <trkpt lat="44.12777" lon="6.99423">
        <ele>1855.2655029297</ele>
        <time>2013-12-07T15:06:25Z</time>
      </trkpt>
      <trkpt lat="44.12771" lon="6.9942">
        <ele>1854.3020019531</ele>
        <time>2013-12-07T15:06:31Z</time>
      </trkpt>
      <trkpt lat="44.12761" lon="6.99417">
        <ele>1852.4558105469</ele>
        <time>2013-12-07T15:06:39Z</time>
      </trkpt>
      <trkpt lat="44.12749" lon="6.99415">
        <ele>1850.4119873047</ele>
        <time>2013-12-07T15:06:48Z</time>
      </trkpt>
      <trkpt lat="44.12738" lon="6.9941">
        <ele>1848.9631347656</ele>
        <time>2013-12-07T15:06:57Z</time>
      </trkpt>
      <trkpt lat="44.1273" lon="6.99408">
        <ele>1847.8302001953</ele>
        <time>2013-12-07T15:07:03Z</time>
      </trkpt>
      <trkpt lat="44.12726" lon="6.99407">
        <ele>1847.2482910156</ele>
        <time>2013-12-07T15:07:06Z</time>
      </trkpt>
      <trkpt lat="44.12716" lon="6.99402">
        <ele>1845.5522460938</ele>
        <time>2013-12-07T15:07:14Z</time>
      </trkpt>
      <trkpt lat="44.12704" lon="6.99399">
        <ele>1842.4537353516</ele>
        <time>2013-12-07T15:07:23Z</time>
      </trkpt>
      <trkpt lat="44.12694" lon="6.99397">
        <ele>1839.8647460938</ele>
        <time>2013-12-07T15:07:31Z</time>
      </trkpt>
      <trkpt lat="44.12683" lon="6.99394">
        <ele>1837.5833740234</ele>
        <time>2013-12-07T15:07:39Z</time>
      </trkpt>
      <trkpt lat="44.12674" lon="6.9939">
        <ele>1835.8702392578</ele>
        <time>2013-12-07T15:07:47Z</time>
      </trkpt>
      <trkpt lat="44.12665" lon="6.99387">
        <ele>1833.9185791016</ele>
        <time>2013-12-07T15:07:56Z</time>
      </trkpt>
      <trkpt lat="44.12663" lon="6.99388">
        <ele>1833.0076904297</ele>
        <time>2013-12-07T15:07:58Z</time>
      </trkpt>
      <trkpt lat="44.12666" lon="6.99396">
        <ele>1831.97265625</ele>
        <time>2013-12-07T15:08:03Z</time>
      </trkpt>
      <trkpt lat="44.12674" lon="6.99412">
        <ele>1830.2448730469</ele>
        <time>2013-12-07T15:08:13Z</time>
      </trkpt>
      <trkpt lat="44.12679" lon="6.99426">
        <ele>1828.3840332031</ele>
        <time>2013-12-07T15:08:21Z</time>
      </trkpt>
      <trkpt lat="44.12683" lon="6.99437">
        <ele>1826.6726074219</ele>
        <time>2013-12-07T15:08:28Z</time>
      </trkpt>
      <trkpt lat="44.12687" lon="6.99447">
        <ele>1825.1068115234</ele>
        <time>2013-12-07T15:08:34Z</time>
      </trkpt>
      <trkpt lat="44.12689" lon="6.99459">
        <ele>1823.2836914062</ele>
        <time>2013-12-07T15:08:40Z</time>
      </trkpt>
      <trkpt lat="44.12693" lon="6.99473">
        <ele>1821.5327148438</ele>
        <time>2013-12-07T15:08:48Z</time>
      </trkpt>
      <trkpt lat="44.12692" lon="6.99481">
        <ele>1819.544921875</ele>
        <time>2013-12-07T15:08:52Z</time>
      </trkpt>
      <trkpt lat="44.12683" lon="6.99482">
        <ele>1816.6473388672</ele>
        <time>2013-12-07T15:08:59Z</time>
      </trkpt>
      <trkpt lat="44.12675" lon="6.99479">
        <ele>1814.7899169922</ele>
        <time>2013-12-07T15:09:07Z</time>
      </trkpt>
      <trkpt lat="44.12672" lon="6.99478">
        <ele>1814.3470458984</ele>
        <time>2013-12-07T15:09:09Z</time>
      </trkpt>
      <trkpt lat="44.12663" lon="6.99474">
        <ele>1812.3446044922</ele>
        <time>2013-12-07T15:09:17Z</time>
      </trkpt>
      <trkpt lat="44.12658" lon="6.99464">
        <ele>1812.4956054688</ele>
        <time>2013-12-07T15:09:24Z</time>
      </trkpt>
      <trkpt lat="44.12652" lon="6.99456">
        <ele>1812.1351318359</ele>
        <time>2013-12-07T15:09:31Z</time>
      </trkpt>
      <trkpt lat="44.12645" lon="6.99451">
        <ele>1810.8408203125</ele>
        <time>2013-12-07T15:09:36Z</time>
      </trkpt>
      <trkpt lat="44.12642" lon="6.99451">
        <ele>1809.4675292969</ele>
        <time>2013-12-07T15:09:40Z</time>
      </trkpt>
      <trkpt lat="44.12634" lon="6.99447">
        <ele>1807.7646484375</ele>
        <time>2013-12-07T15:09:47Z</time>
      </trkpt>
      <trkpt lat="44.12626" lon="6.99445">
        <ele>1805.1142578125</ele>
        <time>2013-12-07T15:09:53Z</time>
      </trkpt>
      <trkpt lat="44.12615" lon="6.99443">
        <ele>1802.0009765625</ele>
        <time>2013-12-07T15:10:01Z</time>
      </trkpt>
      <trkpt lat="44.12606" lon="6.99438">
        <ele>1800.3665771484</ele>
        <time>2013-12-07T15:10:09Z</time>
      </trkpt>
      <trkpt lat="44.12603" lon="6.99434">
        <ele>1800.1021728516</ele>
        <time>2013-12-07T15:10:16Z</time>
      </trkpt>
      <trkpt lat="44.126" lon="6.99427">
        <ele>1801.5407714844</ele>
        <time>2013-12-07T15:15:09Z</time>
      </trkpt>
      <trkpt lat="44.12594" lon="6.99423">
        <ele>1800.3802490234</ele>
        <time>2013-12-07T15:15:16Z</time>
      </trkpt>
      <trkpt lat="44.12587" lon="6.99419">
        <ele>1798.8800048828</ele>
        <time>2013-12-07T15:15:25Z</time>
      </trkpt>
      <trkpt lat="44.12579" lon="6.99418">
        <ele>1796.4700927734</ele>
        <time>2013-12-07T15:15:32Z</time>
      </trkpt>
      <trkpt lat="44.12572" lon="6.99413">
        <ele>1796.3966064453</ele>
        <time>2013-12-07T15:15:38Z</time>
      </trkpt>
      <trkpt lat="44.12569" lon="6.99413">
        <ele>1795.3865966797</ele>
        <time>2013-12-07T15:15:43Z</time>
      </trkpt>
      <trkpt lat="44.12568" lon="6.99412">
        <ele>1795.4658203125</ele>
        <time>2013-12-07T15:15:45Z</time>
      </trkpt>
      <trkpt lat="44.12558" lon="6.99412">
        <ele>1792.978515625</ele>
        <time>2013-12-07T15:15:53Z</time>
      </trkpt>
      <trkpt lat="44.12555" lon="6.99412">
        <ele>1792.3160400391</ele>
        <time>2013-12-07T15:15:58Z</time>
      </trkpt>
      <trkpt lat="44.12546" lon="6.99414">
        <ele>1790.3267822266</ele>
        <time>2013-12-07T15:16:05Z</time>
      </trkpt>
      <trkpt lat="44.12536" lon="6.99416">
        <ele>1788.3702392578</ele>
        <time>2013-12-07T15:16:13Z</time>
      </trkpt>
      <trkpt lat="44.12524" lon="6.99416">
        <ele>1786.1226806641</ele>
        <time>2013-12-07T15:16:21Z</time>
      </trkpt>
      <trkpt lat="44.12513" lon="6.99416">
        <ele>1782.6929931641</ele>
        <time>2013-12-07T15:16:30Z</time>
      </trkpt>
      <trkpt lat="44.12503" lon="6.99416">
        <ele>1779.9566650391</ele>
        <time>2013-12-07T15:16:38Z</time>
      </trkpt>
      <trkpt lat="44.12492" lon="6.99415">
        <ele>1776.5319824219</ele>
        <time>2013-12-07T15:16:46Z</time>
      </trkpt>
      <trkpt lat="44.12482" lon="6.99412">
        <ele>1773.8077392578</ele>
        <time>2013-12-07T15:16:54Z</time>
      </trkpt>
      <trkpt lat="44.12476" lon="6.99407">
        <ele>1772.5975341797</ele>
        <time>2013-12-07T15:17:01Z</time>
      </trkpt>
      <trkpt lat="44.12474" lon="6.99407">
        <ele>1772.3056640625</ele>
        <time>2013-12-07T15:17:03Z</time>
      </trkpt>
      <trkpt lat="44.1247" lon="6.99402">
        <ele>1771.9562988281</ele>
        <time>2013-12-07T15:17:09Z</time>
      </trkpt>
      <trkpt lat="44.12461" lon="6.99393">
        <ele>1771.4842529297</ele>
        <time>2013-12-07T15:17:16Z</time>
      </trkpt>
      <trkpt lat="44.12451" lon="6.99386">
        <ele>1769.9497070312</ele>
        <time>2013-12-07T15:17:23Z</time>
      </trkpt>
      <trkpt lat="44.12442" lon="6.99382">
        <ele>1768.1196289062</ele>
        <time>2013-12-07T15:17:30Z</time>
      </trkpt>
      <trkpt lat="44.12435" lon="6.99375">
        <ele>1767.7426757812</ele>
        <time>2013-12-07T15:17:37Z</time>
      </trkpt>
      <trkpt lat="44.12426" lon="6.99366">
        <ele>1768.1922607422</ele>
        <time>2013-12-07T15:17:46Z</time>
      </trkpt>
      <trkpt lat="44.12418" lon="6.99362">
        <ele>1766.8011474609</ele>
        <time>2013-12-07T15:17:53Z</time>
      </trkpt>
      <trkpt lat="44.1241" lon="6.99361">
        <ele>1764.8433837891</ele>
        <time>2013-12-07T15:17:59Z</time>
      </trkpt>
      <trkpt lat="44.12398" lon="6.99358">
        <ele>1761.8167724609</ele>
        <time>2013-12-07T15:18:09Z</time>
      </trkpt>
      <trkpt lat="44.12391" lon="6.99355">
        <ele>1760.7227783203</ele>
        <time>2013-12-07T15:18:15Z</time>
      </trkpt>
      <trkpt lat="44.12384" lon="6.99351">
        <ele>1760.1063232422</ele>
        <time>2013-12-07T15:18:21Z</time>
      </trkpt>
      <trkpt lat="44.12377" lon="6.99347">
        <ele>1759.4362792969</ele>
        <time>2013-12-07T15:18:27Z</time>
      </trkpt>
      <trkpt lat="44.12366" lon="6.99342">
        <ele>1758.2567138672</ele>
        <time>2013-12-07T15:18:36Z</time>
      </trkpt>
      <trkpt lat="44.12355" lon="6.99337">
        <ele>1755.2662353516</ele>
        <time>2013-12-07T15:18:45Z</time>
      </trkpt>
      <trkpt lat="44.12347" lon="6.99332">
        <ele>1752.7745361328</ele>
        <time>2013-12-07T15:18:53Z</time>
      </trkpt>
      <trkpt lat="44.1234" lon="6.99326">
        <ele>1751.267578125</ele>
        <time>2013-12-07T15:19:01Z</time>
      </trkpt>
      <trkpt lat="44.12333" lon="6.99321">
        <ele>1749.6214599609</ele>
        <time>2013-12-07T15:19:09Z</time>
      </trkpt>
      <trkpt lat="44.12326" lon="6.99317">
        <ele>1747.1447753906</ele>
        <time>2013-12-07T15:19:16Z</time>
      </trkpt>
      <trkpt lat="44.12318" lon="6.99309">
        <ele>1745.5688476562</ele>
        <time>2013-12-07T15:19:24Z</time>
      </trkpt>
      <trkpt lat="44.12312" lon="6.99304">
        <ele>1743.6024169922</ele>
        <time>2013-12-07T15:19:31Z</time>
      </trkpt>
      <trkpt lat="44.12304" lon="6.99297">
        <ele>1741.1973876953</ele>
        <time>2013-12-07T15:19:39Z</time>
      </trkpt>
      <trkpt lat="44.12296" lon="6.99288">
        <ele>1739.3919677734</ele>
        <time>2013-12-07T15:19:48Z</time>
      </trkpt>
      <trkpt lat="44.12289" lon="6.99281">
        <ele>1737.7120361328</ele>
        <time>2013-12-07T15:19:55Z</time>
      </trkpt>
      <trkpt lat="44.1228" lon="6.99275">
        <ele>1734.0770263672</ele>
        <time>2013-12-07T15:20:04Z</time>
      </trkpt>
      <trkpt lat="44.1227" lon="6.99271">
        <ele>1729.9138183594</ele>
        <time>2013-12-07T15:20:12Z</time>
      </trkpt>
      <trkpt lat="44.12261" lon="6.99271">
        <ele>1725.5123291016</ele>
        <time>2013-12-07T15:20:20Z</time>
      </trkpt>
      <trkpt lat="44.12256" lon="6.99268">
        <ele>1723.3089599609</ele>
        <time>2013-12-07T15:20:26Z</time>
      </trkpt>
      <trkpt lat="44.12248" lon="6.99263">
        <ele>1720.4189453125</ele>
        <time>2013-12-07T15:20:34Z</time>
      </trkpt>
      <trkpt lat="44.1224" lon="6.99252">
        <ele>1718.0922851562</ele>
        <time>2013-12-07T15:20:44Z</time>
      </trkpt>
      <trkpt lat="44.12234" lon="6.99245">
        <ele>1715.3762207031</ele>
        <time>2013-12-07T15:20:50Z</time>
      </trkpt>
      <trkpt lat="44.12226" lon="6.9924">
        <ele>1711.984375</ele>
        <time>2013-12-07T15:20:57Z</time>
      </trkpt>
      <trkpt lat="44.12224" lon="6.99238">
        <ele>1710.6687011719</ele>
        <time>2013-12-07T15:21:00Z</time>
      </trkpt>
      <trkpt lat="44.12221" lon="6.99238">
        <ele>1709.111328125</ele>
        <time>2013-12-07T15:21:03Z</time>
      </trkpt>
      <trkpt lat="44.12214" lon="6.9924">
        <ele>1704.8737792969</ele>
        <time>2013-12-07T15:21:11Z</time>
      </trkpt>
      <trkpt lat="44.1221" lon="6.99242">
        <ele>1702.3579101562</ele>
        <time>2013-12-07T15:21:15Z</time>
      </trkpt>
      <trkpt lat="44.12209" lon="6.99244">
        <ele>1701.4407958984</ele>
        <time>2013-12-07T15:21:17Z</time>
      </trkpt>
      <trkpt lat="44.12204" lon="6.99249">
        <ele>1697.4682617188</ele>
        <time>2013-12-07T15:21:24Z</time>
      </trkpt>
      <trkpt lat="44.12202" lon="6.99251">
        <ele>1696.7072753906</ele>
        <time>2013-12-07T15:21:27Z</time>
      </trkpt>
      <trkpt lat="44.12197" lon="6.9925">
        <ele>1693.7603759766</ele>
        <time>2013-12-07T15:21:34Z</time>
      </trkpt>
      <trkpt lat="44.12199" lon="6.99248">
        <ele>1694.8010253906</ele>
        <time>2013-12-07T15:21:38Z</time>
      </trkpt>
      <trkpt lat="44.12198" lon="6.99241">
        <ele>1696.0476074219</ele>
        <time>2013-12-07T15:21:44Z</time>
      </trkpt>
      <trkpt lat="44.12199" lon="6.99233">
        <ele>1697.8233642578</ele>
        <time>2013-12-07T15:21:50Z</time>
      </trkpt>
      <trkpt lat="44.12199" lon="6.99225">
        <ele>1699.9736328125</ele>
        <time>2013-12-07T15:21:56Z</time>
      </trkpt>
      <trkpt lat="44.122" lon="6.99221">
        <ele>1700.8016357422</ele>
        <time>2013-12-07T15:21:59Z</time>
      </trkpt>
      <trkpt lat="44.12196" lon="6.99213">
        <ele>1699.7117919922</ele>
        <time>2013-12-07T15:22:05Z</time>
      </trkpt>
      <trkpt lat="44.12194" lon="6.99213">
        <ele>1698.6004638672</ele>
        <time>2013-12-07T15:22:07Z</time>
      </trkpt>
      <trkpt lat="44.12186" lon="6.99209">
        <ele>1697.1180419922</ele>
        <time>2013-12-07T15:22:13Z</time>
      </trkpt>
      <trkpt lat="44.12183" lon="6.99206">
        <ele>1697.0245361328</ele>
        <time>2013-12-07T15:22:17Z</time>
      </trkpt>
      <trkpt lat="44.12181" lon="6.99198">
        <ele>1698.2318115234</ele>
        <time>2013-12-07T15:22:23Z</time>
      </trkpt>
      <trkpt lat="44.12176" lon="6.99196">
        <ele>1698.2229003906</ele>
        <time>2013-12-07T15:22:28Z</time>
      </trkpt>
      <trkpt lat="44.12172" lon="6.99199">
        <ele>1696.9272460938</ele>
        <time>2013-12-07T15:22:32Z</time>
      </trkpt>
      <trkpt lat="44.12162" lon="6.992">
        <ele>1695.16015625</ele>
        <time>2013-12-07T15:22:39Z</time>
      </trkpt>
      <trkpt lat="44.12153" lon="6.992">
        <ele>1693.6798095703</ele>
        <time>2013-12-07T15:22:47Z</time>
      </trkpt>
      <trkpt lat="44.12148" lon="6.99199">
        <ele>1693.1668701172</ele>
        <time>2013-12-07T15:22:54Z</time>
      </trkpt>
      <trkpt lat="44.12156" lon="6.9921">
        <ele>1690.9060058594</ele>
        <time>2013-12-07T15:23:59Z</time>
      </trkpt>
      <trkpt lat="44.12136" lon="6.992">
        <ele>1690.3990478516</ele>
        <time>2013-12-07T15:24:59Z</time>
      </trkpt>
      <trkpt lat="44.12135" lon="6.99198">
        <ele>1690.6561279297</ele>
        <time>2013-12-07T15:25:01Z</time>
      </trkpt>
      <trkpt lat="44.12134" lon="6.99194">
        <ele>1691.1218261719</ele>
        <time>2013-12-07T15:25:04Z</time>
      </trkpt>
      <trkpt lat="44.12131" lon="6.99189">
        <ele>1691.0415039062</ele>
        <time>2013-12-07T15:25:09Z</time>
      </trkpt>
      <trkpt lat="44.12128" lon="6.99181">
        <ele>1691.7373046875</ele>
        <time>2013-12-07T15:25:14Z</time>
      </trkpt>
      <trkpt lat="44.12119" lon="6.99174">
        <ele>1689.7066650391</ele>
        <time>2013-12-07T15:25:21Z</time>
      </trkpt>
      <trkpt lat="44.12117" lon="6.99171">
        <ele>1689.6497802734</ele>
        <time>2013-12-07T15:25:23Z</time>
      </trkpt>
      <trkpt lat="44.12113" lon="6.99168">
        <ele>1688.5197753906</ele>
        <time>2013-12-07T15:25:27Z</time>
      </trkpt>
      <trkpt lat="44.12107" lon="6.99163">
        <ele>1687.8424072266</ele>
        <time>2013-12-07T15:25:33Z</time>
      </trkpt>
      <trkpt lat="44.121" lon="6.9916">
        <ele>1686.2290039062</ele>
        <time>2013-12-07T15:25:39Z</time>
      </trkpt>
      <trkpt lat="44.12097" lon="6.99159">
        <ele>1685.423828125</ele>
        <time>2013-12-07T15:25:41Z</time>
      </trkpt>
      <trkpt lat="44.1209" lon="6.99155">
        <ele>1683.4884033203</ele>
        <time>2013-12-07T15:25:48Z</time>
      </trkpt>
      <trkpt lat="44.12077" lon="6.99148">
        <ele>1678.6904296875</ele>
        <time>2013-12-07T15:25:57Z</time>
      </trkpt>
      <trkpt lat="44.12067" lon="6.99144">
        <ele>1674.0633544922</ele>
        <time>2013-12-07T15:26:05Z</time>
      </trkpt>
      <trkpt lat="44.12053" lon="6.99136">
        <ele>1667.6232910156</ele>
        <time>2013-12-07T15:26:16Z</time>
      </trkpt>
      <trkpt lat="44.12047" lon="6.99126">
        <ele>1666.9409179688</ele>
        <time>2013-12-07T15:26:24Z</time>
      </trkpt>
      <trkpt lat="44.12046" lon="6.99122">
        <ele>1667.2730712891</ele>
        <time>2013-12-07T15:26:27Z</time>
      </trkpt>
      <trkpt lat="44.12046" lon="6.99116">
        <ele>1668.2836914062</ele>
        <time>2013-12-07T15:26:32Z</time>
      </trkpt>
      <trkpt lat="44.1204" lon="6.99115">
        <ele>1666.4313964844</ele>
        <time>2013-12-07T15:26:38Z</time>
      </trkpt>
      <trkpt lat="44.12036" lon="6.99116">
        <ele>1664.7877197266</ele>
        <time>2013-12-07T15:26:41Z</time>
      </trkpt>
      <trkpt lat="44.12028" lon="6.99119">
        <ele>1661.5748291016</ele>
        <time>2013-12-07T15:26:47Z</time>
      </trkpt>
      <trkpt lat="44.12019" lon="6.99126">
        <ele>1658.6622314453</ele>
        <time>2013-12-07T15:26:56Z</time>
      </trkpt>
      <trkpt lat="44.12013" lon="6.99127">
        <ele>1657.0461425781</ele>
        <time>2013-12-07T15:27:02Z</time>
      </trkpt>
      <trkpt lat="44.12004" lon="6.99134">
        <ele>1652.9006347656</ele>
        <time>2013-12-07T15:27:10Z</time>
      </trkpt>
      <trkpt lat="44.11996" lon="6.99138">
        <ele>1650.626953125</ele>
        <time>2013-12-07T15:27:17Z</time>
      </trkpt>
      <trkpt lat="44.11996" lon="6.99143">
        <ele>1649.1677246094</ele>
        <time>2013-12-07T15:27:22Z</time>
      </trkpt>
      <trkpt lat="44.11992" lon="6.99149">
        <ele>1647.1405029297</ele>
        <time>2013-12-07T15:27:31Z</time>
      </trkpt>
      <trkpt lat="44.11989" lon="6.99151">
        <ele>1646.7169189453</ele>
        <time>2013-12-07T15:27:39Z</time>
      </trkpt>
      <trkpt lat="44.11991" lon="6.99148">
        <ele>1647.6737060547</ele>
        <time>2013-12-07T15:27:46Z</time>
      </trkpt>
      <trkpt lat="44.11991" lon="6.99143">
        <ele>1649.3881835938</ele>
        <time>2013-12-07T15:27:50Z</time>
      </trkpt>
      <trkpt lat="44.11984" lon="6.99146">
        <ele>1648.5598144531</ele>
        <time>2013-12-07T15:27:57Z</time>
      </trkpt>
      <trkpt lat="44.11979" lon="6.99146">
        <ele>1648.5792236328</ele>
        <time>2013-12-07T15:28:02Z</time>
      </trkpt>
      <trkpt lat="44.11973" lon="6.99149">
        <ele>1647.6993408203</ele>
        <time>2013-12-07T15:28:09Z</time>
      </trkpt>
      <trkpt lat="44.11969" lon="6.99148">
        <ele>1647.7886962891</ele>
        <time>2013-12-07T15:28:13Z</time>
      </trkpt>
      <trkpt lat="44.11968" lon="6.99149">
        <ele>1647.359375</ele>
        <time>2013-12-07T15:28:15Z</time>
      </trkpt>
      <trkpt lat="44.11961" lon="6.99153">
        <ele>1644.9307861328</ele>
        <time>2013-12-07T15:28:22Z</time>
      </trkpt>
      <trkpt lat="44.1196" lon="6.99154">
        <ele>1644.6214599609</ele>
        <time>2013-12-07T15:28:23Z</time>
      </trkpt>
      <trkpt lat="44.11958" lon="6.99152">
        <ele>1645.1394042969</ele>
        <time>2013-12-07T15:28:25Z</time>
      </trkpt>
      <trkpt lat="44.11952" lon="6.99154">
        <ele>1643.9874267578</ele>
        <time>2013-12-07T15:28:30Z</time>
      </trkpt>
      <trkpt lat="44.11948" lon="6.99157">
        <ele>1642.7449951172</ele>
        <time>2013-12-07T15:28:34Z</time>
      </trkpt>
      <trkpt lat="44.11942" lon="6.99164">
        <ele>1639.6508789062</ele>
        <time>2013-12-07T15:28:40Z</time>
      </trkpt>
      <trkpt lat="44.11937" lon="6.99168">
        <ele>1637.7156982422</ele>
        <time>2013-12-07T15:28:46Z</time>
      </trkpt>
      <trkpt lat="44.11934" lon="6.9917">
        <ele>1636.7022705078</ele>
        <time>2013-12-07T15:28:49Z</time>
      </trkpt>
      <trkpt lat="44.11929" lon="6.99173">
        <ele>1635.1529541016</ele>
        <time>2013-12-07T15:28:53Z</time>
      </trkpt>
      <trkpt lat="44.1192" lon="6.99181">
        <ele>1631.6275634766</ele>
        <time>2013-12-07T15:29:01Z</time>
      </trkpt>
      <trkpt lat="44.11911" lon="6.99181">
        <ele>1629.8996582031</ele>
        <time>2013-12-07T15:29:08Z</time>
      </trkpt>
      <trkpt lat="44.11909" lon="6.9918">
        <ele>1629.7485351562</ele>
        <time>2013-12-07T15:29:11Z</time>
      </trkpt>
      <trkpt lat="44.11903" lon="6.99183">
        <ele>1627.8259277344</ele>
        <time>2013-12-07T15:29:20Z</time>
      </trkpt>
      <trkpt lat="44.11901" lon="6.99183">
        <ele>1627.5100097656</ele>
        <time>2013-12-07T15:29:21Z</time>
      </trkpt>
      <trkpt lat="44.11897" lon="6.9919">
        <ele>1624.6398925781</ele>
        <time>2013-12-07T15:29:29Z</time>
      </trkpt>
      <trkpt lat="44.11894" lon="6.99192">
        <ele>1623.7473144531</ele>
        <time>2013-12-07T15:29:34Z</time>
      </trkpt>
      <trkpt lat="44.11892" lon="6.99192">
        <ele>1623.3489990234</ele>
        <time>2013-12-07T15:29:39Z</time>
      </trkpt>
      <trkpt lat="44.11885" lon="6.99191">
        <ele>1622.181640625</ele>
        <time>2013-12-07T15:29:46Z</time>
      </trkpt>
      <trkpt lat="44.11875" lon="6.99189">
        <ele>1621.1379394531</ele>
        <time>2013-12-07T15:29:54Z</time>
      </trkpt>
      <trkpt lat="44.11864" lon="6.99186">
        <ele>1619.9432373047</ele>
        <time>2013-12-07T15:30:02Z</time>
      </trkpt>
      <trkpt lat="44.11858" lon="6.99188">
        <ele>1618.1552734375</ele>
        <time>2013-12-07T15:30:10Z</time>
      </trkpt>
      <trkpt lat="44.11846" lon="6.99185">
        <ele>1616.5485839844</ele>
        <time>2013-12-07T15:30:20Z</time>
      </trkpt>
      <trkpt lat="44.11836" lon="6.99181">
        <ele>1615.6147460938</ele>
        <time>2013-12-07T15:30:28Z</time>
      </trkpt>
      <trkpt lat="44.1183" lon="6.99178">
        <ele>1614.3375244141</ele>
        <time>2013-12-07T15:30:34Z</time>
      </trkpt>
      <trkpt lat="44.11822" lon="6.99174">
        <ele>1612.4649658203</ele>
        <time>2013-12-07T15:30:41Z</time>
      </trkpt>
      <trkpt lat="44.11812" lon="6.9917">
        <ele>1609.8055419922</ele>
        <time>2013-12-07T15:30:49Z</time>
      </trkpt>
      <trkpt lat="44.11803" lon="6.99161">
        <ele>1608.5856933594</ele>
        <time>2013-12-07T15:30:57Z</time>
      </trkpt>
      <trkpt lat="44.11795" lon="6.99154">
        <ele>1607.1280517578</ele>
        <time>2013-12-07T15:31:05Z</time>
      </trkpt>
      <trkpt lat="44.11789" lon="6.99145">
        <ele>1606.4592285156</ele>
        <time>2013-12-07T15:31:12Z</time>
      </trkpt>
      <trkpt lat="44.11781" lon="6.99139">
        <ele>1604.380859375</ele>
        <time>2013-12-07T15:31:20Z</time>
      </trkpt>
      <trkpt lat="44.11773" lon="6.99132">
        <ele>1602.3686523438</ele>
        <time>2013-12-07T15:31:27Z</time>
      </trkpt>
      <trkpt lat="44.11763" lon="6.99123">
        <ele>1599.5661621094</ele>
        <time>2013-12-07T15:31:35Z</time>
      </trkpt>
      <trkpt lat="44.11757" lon="6.99118">
        <ele>1597.5814208984</ele>
        <time>2013-12-07T15:31:42Z</time>
      </trkpt>
      <trkpt lat="44.11752" lon="6.99112">
        <ele>1595.9367675781</ele>
        <time>2013-12-07T15:31:47Z</time>
      </trkpt>
      <trkpt lat="44.11746" lon="6.99107">
        <ele>1594.0637207031</ele>
        <time>2013-12-07T15:31:53Z</time>
      </trkpt>
      <trkpt lat="44.11739" lon="6.99101">
        <ele>1592.1568603516</ele>
        <time>2013-12-07T15:32:00Z</time>
      </trkpt>
      <trkpt lat="44.11734" lon="6.99093">
        <ele>1590.6850585938</ele>
        <time>2013-12-07T15:32:07Z</time>
      </trkpt>
      <trkpt lat="44.11725" lon="6.99085">
        <ele>1587.8876953125</ele>
        <time>2013-12-07T15:32:15Z</time>
      </trkpt>
      <trkpt lat="44.11713" lon="6.99077">
        <ele>1585.228515625</ele>
        <time>2013-12-07T15:32:25Z</time>
      </trkpt>
      <trkpt lat="44.11704" lon="6.99071">
        <ele>1583.0446777344</ele>
        <time>2013-12-07T15:32:32Z</time>
      </trkpt>
      <trkpt lat="44.11694" lon="6.99064">
        <ele>1580.2629394531</ele>
        <time>2013-12-07T15:32:39Z</time>
      </trkpt>
      <trkpt lat="44.11684" lon="6.99062">
        <ele>1579.259765625</ele>
        <time>2013-12-07T15:32:47Z</time>
      </trkpt>
      <trkpt lat="44.11673" lon="6.99058">
        <ele>1578.3731689453</ele>
        <time>2013-12-07T15:32:56Z</time>
      </trkpt>
      <trkpt lat="44.11671" lon="6.99057">
        <ele>1578.2370605469</ele>
        <time>2013-12-07T15:32:58Z</time>
      </trkpt>
      <trkpt lat="44.11666" lon="6.99059">
        <ele>1577.7066650391</ele>
        <time>2013-12-07T15:33:02Z</time>
      </trkpt>
      <trkpt lat="44.11663" lon="6.99062">
        <ele>1576.2153320312</ele>
        <time>2013-12-07T15:33:09Z</time>
      </trkpt>
      <trkpt lat="44.11662" lon="6.99063">
        <ele>1575.7413330078</ele>
        <time>2013-12-07T15:33:22Z</time>
      </trkpt>
      <trkpt lat="44.1166" lon="6.99065">
        <ele>1575.2141113281</ele>
        <time>2013-12-07T15:33:48Z</time>
      </trkpt>
      <trkpt lat="44.11652" lon="6.99064">
        <ele>1572.3565673828</ele>
        <time>2013-12-07T15:33:55Z</time>
      </trkpt>
      <trkpt lat="44.11648" lon="6.9906">
        <ele>1571.5546875</ele>
        <time>2013-12-07T15:34:00Z</time>
      </trkpt>
      <trkpt lat="44.11646" lon="6.99056">
        <ele>1571.2330322266</ele>
        <time>2013-12-07T15:34:04Z</time>
      </trkpt>
      <trkpt lat="44.11645" lon="6.99055">
        <ele>1571.1572265625</ele>
        <time>2013-12-07T15:34:06Z</time>
      </trkpt>
      <trkpt lat="44.11645" lon="6.99052">
        <ele>1571.6389160156</ele>
        <time>2013-12-07T15:34:08Z</time>
      </trkpt>
      <trkpt lat="44.11642" lon="6.99045">
        <ele>1572.2158203125</ele>
        <time>2013-12-07T15:34:14Z</time>
      </trkpt>
      <trkpt lat="44.11641" lon="6.99043">
        <ele>1572.2738037109</ele>
        <time>2013-12-07T15:34:15Z</time>
      </trkpt>
      <trkpt lat="44.1164" lon="6.99036">
        <ele>1573.4432373047</ele>
        <time>2013-12-07T15:34:19Z</time>
      </trkpt>
      <trkpt lat="44.11637" lon="6.99027">
        <ele>1574.4310302734</ele>
        <time>2013-12-07T15:34:25Z</time>
      </trkpt>
      <trkpt lat="44.11635" lon="6.99025">
        <ele>1574.3692626953</ele>
        <time>2013-12-07T15:34:26Z</time>
      </trkpt>
      <trkpt lat="44.1163" lon="6.99022">
        <ele>1573.40625</ele>
        <time>2013-12-07T15:34:30Z</time>
      </trkpt>
      <trkpt lat="44.11618" lon="6.99014">
        <ele>1571.53515625</ele>
        <time>2013-12-07T15:34:39Z</time>
      </trkpt>
      <trkpt lat="44.11607" lon="6.99004">
        <ele>1570.0358886719</ele>
        <time>2013-12-07T15:34:49Z</time>
      </trkpt>
      <trkpt lat="44.116" lon="6.98994">
        <ele>1569.0489501953</ele>
        <time>2013-12-07T15:34:57Z</time>
      </trkpt>
      <trkpt lat="44.11592" lon="6.98985">
        <ele>1568.0618896484</ele>
        <time>2013-12-07T15:35:05Z</time>
      </trkpt>
      <trkpt lat="44.11582" lon="6.98974">
        <ele>1566.2801513672</ele>
        <time>2013-12-07T15:35:15Z</time>
      </trkpt>
      <trkpt lat="44.11574" lon="6.98967">
        <ele>1565.3443603516</ele>
        <time>2013-12-07T15:35:22Z</time>
      </trkpt>
      <trkpt lat="44.11571" lon="6.98965">
        <ele>1564.9045410156</ele>
        <time>2013-12-07T15:35:27Z</time>
      </trkpt>
      <trkpt lat="44.11565" lon="6.98965">
        <ele>1563.2038574219</ele>
        <time>2013-12-07T15:35:32Z</time>
      </trkpt>
      <trkpt lat="44.11563" lon="6.98964">
        <ele>1562.5998535156</ele>
        <time>2013-12-07T15:35:36Z</time>
      </trkpt>
      <trkpt lat="44.11558" lon="6.98956">
        <ele>1562.7810058594</ele>
        <time>2013-12-07T15:35:43Z</time>
      </trkpt>
      <trkpt lat="44.11558" lon="6.98955">
        <ele>1562.767578125</ele>
        <time>2013-12-07T15:35:44Z</time>
      </trkpt>
      <trkpt lat="44.11546" lon="6.98955">
        <ele>1559.9875488281</ele>
        <time>2013-12-07T15:35:52Z</time>
      </trkpt>
      <trkpt lat="44.11537" lon="6.98951">
        <ele>1558.7619628906</ele>
        <time>2013-12-07T15:35:59Z</time>
      </trkpt>
      <trkpt lat="44.11526" lon="6.98949">
        <ele>1556.583984375</ele>
        <time>2013-12-07T15:36:07Z</time>
      </trkpt>
      <trkpt lat="44.11515" lon="6.98942">
        <ele>1553.8350830078</ele>
        <time>2013-12-07T15:36:16Z</time>
      </trkpt>
      <trkpt lat="44.11509" lon="6.98931">
        <ele>1554.1314697266</ele>
        <time>2013-12-07T15:36:24Z</time>
      </trkpt>
      <trkpt lat="44.11507" lon="6.98927">
        <ele>1554.6015625</ele>
        <time>2013-12-07T15:36:28Z</time>
      </trkpt>
      <trkpt lat="44.11508" lon="6.98922">
        <ele>1556.0432128906</ele>
        <time>2013-12-07T15:36:32Z</time>
      </trkpt>
      <trkpt lat="44.11508" lon="6.98918">
        <ele>1557.2409667969</ele>
        <time>2013-12-07T15:36:34Z</time>
      </trkpt>
      <trkpt lat="44.11501" lon="6.98911">
        <ele>1556.4370117188</ele>
        <time>2013-12-07T15:36:40Z</time>
      </trkpt>
      <trkpt lat="44.11491" lon="6.98907">
        <ele>1554.9000244141</ele>
        <time>2013-12-07T15:36:48Z</time>
      </trkpt>
      <trkpt lat="44.1148" lon="6.98901">
        <ele>1553.4924316406</ele>
        <time>2013-12-07T15:36:57Z</time>
      </trkpt>
      <trkpt lat="44.1147" lon="6.9889">
        <ele>1553.0974121094</ele>
        <time>2013-12-07T15:37:07Z</time>
      </trkpt>
      <trkpt lat="44.1146" lon="6.98877">
        <ele>1553.7315673828</ele>
        <time>2013-12-07T15:37:17Z</time>
      </trkpt>
      <trkpt lat="44.11454" lon="6.98867">
        <ele>1554.4573974609</ele>
        <time>2013-12-07T15:37:25Z</time>
      </trkpt>
      <trkpt lat="44.11448" lon="6.9886">
        <ele>1554.8610839844</ele>
        <time>2013-12-07T15:37:33Z</time>
      </trkpt>
      <trkpt lat="44.11441" lon="6.98852">
        <ele>1554.9672851562</ele>
        <time>2013-12-07T15:37:41Z</time>
      </trkpt>
      <trkpt lat="44.11436" lon="6.98843">
        <ele>1555.6744384766</ele>
        <time>2013-12-07T15:37:47Z</time>
      </trkpt>
      <trkpt lat="44.11431" lon="6.98839">
        <ele>1554.7475585938</ele>
        <time>2013-12-07T15:37:51Z</time>
      </trkpt>
      <trkpt lat="44.11423" lon="6.98836">
        <ele>1553.3227539062</ele>
        <time>2013-12-07T15:37:57Z</time>
      </trkpt>
      <trkpt lat="44.11414" lon="6.98828">
        <ele>1552.2766113281</ele>
        <time>2013-12-07T15:38:05Z</time>
      </trkpt>
      <trkpt lat="44.11406" lon="6.98824">
        <ele>1550.1126708984</ele>
        <time>2013-12-07T15:38:13Z</time>
      </trkpt>
      <trkpt lat="44.11396" lon="6.98818">
        <ele>1547.8100585938</ele>
        <time>2013-12-07T15:38:22Z</time>
      </trkpt>
      <trkpt lat="44.11386" lon="6.98809">
        <ele>1545.5903320312</ele>
        <time>2013-12-07T15:38:31Z</time>
      </trkpt>
      <trkpt lat="44.1138" lon="6.98801">
        <ele>1545.4028320312</ele>
        <time>2013-12-07T15:38:39Z</time>
      </trkpt>
      <trkpt lat="44.11372" lon="6.98789">
        <ele>1544.8205566406</ele>
        <time>2013-12-07T15:38:48Z</time>
      </trkpt>
      <trkpt lat="44.11367" lon="6.98781">
        <ele>1544.3707275391</ele>
        <time>2013-12-07T15:38:56Z</time>
      </trkpt>
      <trkpt lat="44.11362" lon="6.98772">
        <ele>1544.2268066406</ele>
        <time>2013-12-07T15:39:04Z</time>
      </trkpt>
      <trkpt lat="44.11358" lon="6.98762">
        <ele>1544.3466796875</ele>
        <time>2013-12-07T15:39:11Z</time>
      </trkpt>
      <trkpt lat="44.11355" lon="6.98753">
        <ele>1544.8121337891</ele>
        <time>2013-12-07T15:39:18Z</time>
      </trkpt>
      <trkpt lat="44.11351" lon="6.98743">
        <ele>1543.7518310547</ele>
        <time>2013-12-07T15:39:26Z</time>
      </trkpt>
      <trkpt lat="44.11343" lon="6.98734">
        <ele>1541.2941894531</ele>
        <time>2013-12-07T15:39:34Z</time>
      </trkpt>
      <trkpt lat="44.11335" lon="6.98727">
        <ele>1539.2912597656</ele>
        <time>2013-12-07T15:39:42Z</time>
      </trkpt>
      <trkpt lat="44.11326" lon="6.98719">
        <ele>1536.4490966797</ele>
        <time>2013-12-07T15:39:51Z</time>
      </trkpt>
      <trkpt lat="44.11325" lon="6.98718">
        <ele>1536.0319824219</ele>
        <time>2013-12-07T15:39:52Z</time>
      </trkpt>
      <trkpt lat="44.11319" lon="6.98714">
        <ele>1533.9188232422</ele>
        <time>2013-12-07T15:39:57Z</time>
      </trkpt>
      <trkpt lat="44.11311" lon="6.98709">
        <ele>1530.9731445312</ele>
        <time>2013-12-07T15:40:05Z</time>
      </trkpt>
      <trkpt lat="44.11302" lon="6.98703">
        <ele>1527.7628173828</ele>
        <time>2013-12-07T15:40:12Z</time>
      </trkpt>
      <trkpt lat="44.11295" lon="6.98703">
        <ele>1525.8715820312</ele>
        <time>2013-12-07T15:40:18Z</time>
      </trkpt>
      <trkpt lat="44.11288" lon="6.98705">
        <ele>1524.0216064453</ele>
        <time>2013-12-07T15:40:24Z</time>
      </trkpt>
      <trkpt lat="44.11278" lon="6.98709">
        <ele>1521.0690917969</ele>
        <time>2013-12-07T15:40:31Z</time>
      </trkpt>
      <trkpt lat="44.1127" lon="6.98713">
        <ele>1520.9609375</ele>
        <time>2013-12-07T15:40:37Z</time>
      </trkpt>
      <trkpt lat="44.11261" lon="6.98722">
        <ele>1520.8057861328</ele>
        <time>2013-12-07T15:40:46Z</time>
      </trkpt>
      <trkpt lat="44.11253" lon="6.98731">
        <ele>1520.9134521484</ele>
        <time>2013-12-07T15:40:55Z</time>
      </trkpt>
      <trkpt lat="44.11244" lon="6.98738">
        <ele>1520.8780517578</ele>
        <time>2013-12-07T15:41:03Z</time>
      </trkpt>
      <trkpt lat="44.11233" lon="6.98746">
        <ele>1520.6610107422</ele>
        <time>2013-12-07T15:41:12Z</time>
      </trkpt>
      <trkpt lat="44.11223" lon="6.98753">
        <ele>1519.6298828125</ele>
        <time>2013-12-07T15:41:20Z</time>
      </trkpt>
      <trkpt lat="44.11219" lon="6.98759">
        <ele>1518.1719970703</ele>
        <time>2013-12-07T15:41:27Z</time>
      </trkpt>
      <trkpt lat="44.11216" lon="6.98762">
        <ele>1517.1625976562</ele>
        <time>2013-12-07T15:41:31Z</time>
      </trkpt>
      <trkpt lat="44.11209" lon="6.98769">
        <ele>1515.0270996094</ele>
        <time>2013-12-07T15:41:39Z</time>
      </trkpt>
      <trkpt lat="44.11201" lon="6.98776">
        <ele>1512.4248046875</ele>
        <time>2013-12-07T15:41:47Z</time>
      </trkpt>
      <trkpt lat="44.11194" lon="6.98781">
        <ele>1510.2987060547</ele>
        <time>2013-12-07T15:41:54Z</time>
      </trkpt>
      <trkpt lat="44.11192" lon="6.98784">
        <ele>1509.2115478516</ele>
        <time>2013-12-07T15:42:01Z</time>
      </trkpt>
      <trkpt lat="44.11185" lon="6.98794">
        <ele>1506.6237792969</ele>
        <time>2013-12-07T15:42:21Z</time>
      </trkpt>
      <trkpt lat="44.11179" lon="6.98799">
        <ele>1504.9838867188</ele>
        <time>2013-12-07T15:42:30Z</time>
      </trkpt>
      <trkpt lat="44.11171" lon="6.98805">
        <ele>1503.4429931641</ele>
        <time>2013-12-07T15:42:36Z</time>
      </trkpt>
      <trkpt lat="44.11162" lon="6.98816">
        <ele>1501.9105224609</ele>
        <time>2013-12-07T15:42:43Z</time>
      </trkpt>
      <trkpt lat="44.11153" lon="6.98832">
        <ele>1500.5604248047</ele>
        <time>2013-12-07T15:42:52Z</time>
      </trkpt>
      <trkpt lat="44.11143" lon="6.98839">
        <ele>1500.1124267578</ele>
        <time>2013-12-07T15:43:00Z</time>
      </trkpt>
      <trkpt lat="44.11134" lon="6.98842">
        <ele>1500</ele>
        <time>2013-12-07T15:43:07Z</time>
      </trkpt>
      <trkpt lat="44.11127" lon="6.9885">
        <ele>1500</ele>
        <time>2013-12-07T15:43:13Z</time>
      </trkpt>
      <trkpt lat="44.11117" lon="6.98861">
        <ele>1500</ele>
        <time>2013-12-07T15:43:22Z</time>
      </trkpt>
      <trkpt lat="44.1111" lon="6.98866">
        <ele>1500</ele>
        <time>2013-12-07T15:43:28Z</time>
      </trkpt>
      <trkpt lat="44.11101" lon="6.98866">
        <ele>1500</ele>
        <time>2013-12-07T15:43:35Z</time>
      </trkpt>
      <trkpt lat="44.11092" lon="6.98868">
        <ele>1500</ele>
        <time>2013-12-07T15:43:42Z</time>
      </trkpt>
      <trkpt lat="44.11083" lon="6.98872">
        <ele>1499.9919433594</ele>
        <time>2013-12-07T15:43:49Z</time>
      </trkpt>
      <trkpt lat="44.1107" lon="6.98874">
        <ele>1499.0581054688</ele>
        <time>2013-12-07T15:43:59Z</time>
      </trkpt>
      <trkpt lat="44.11061" lon="6.9887">
        <ele>1498.4263916016</ele>
        <time>2013-12-07T15:44:06Z</time>
      </trkpt>
      <trkpt lat="44.11061" lon="6.98868">
        <ele>1498.3989257812</ele>
        <time>2013-12-07T15:44:11Z</time>
      </trkpt>
      <trkpt lat="44.11065" lon="6.98876">
        <ele>1498.6735839844</ele>
        <time>2013-12-07T15:44:37Z</time>
      </trkpt>
      <trkpt lat="44.11057" lon="6.9887">
        <ele>1498.0968017578</ele>
        <time>2013-12-07T15:44:43Z</time>
      </trkpt>
      <trkpt lat="44.11045" lon="6.98863">
        <ele>1494.4471435547</ele>
        <time>2013-12-07T15:44:50Z</time>
      </trkpt>
      <trkpt lat="44.1104" lon="6.98856">
        <ele>1493.7103271484</ele>
        <time>2013-12-07T15:44:54Z</time>
      </trkpt>
      <trkpt lat="44.1103" lon="6.98848">
        <ele>1493.2427978516</ele>
        <time>2013-12-07T15:45:00Z</time>
      </trkpt>
      <trkpt lat="44.11018" lon="6.98841">
        <ele>1492.2839355469</ele>
        <time>2013-12-07T15:45:08Z</time>
      </trkpt>
      <trkpt lat="44.11005" lon="6.98837">
        <ele>1490.3408203125</ele>
        <time>2013-12-07T15:45:15Z</time>
      </trkpt>
      <trkpt lat="44.10993" lon="6.98834">
        <ele>1488.2404785156</ele>
        <time>2013-12-07T15:45:21Z</time>
      </trkpt>
      <trkpt lat="44.10983" lon="6.98832">
        <ele>1486.9350585938</ele>
        <time>2013-12-07T15:45:26Z</time>
      </trkpt>
      <trkpt lat="44.10971" lon="6.98833">
        <ele>1483.9888916016</ele>
        <time>2013-12-07T15:45:33Z</time>
      </trkpt>
      <trkpt lat="44.1096" lon="6.9883">
        <ele>1483.3681640625</ele>
        <time>2013-12-07T15:45:39Z</time>
      </trkpt>
      <trkpt lat="44.10946" lon="6.98825">
        <ele>1483.0407714844</ele>
        <time>2013-12-07T15:45:46Z</time>
      </trkpt>
      <trkpt lat="44.10936" lon="6.98822">
        <ele>1482.9569091797</ele>
        <time>2013-12-07T15:45:51Z</time>
      </trkpt>
      <trkpt lat="44.10922" lon="6.98816">
        <ele>1482.6357421875</ele>
        <time>2013-12-07T15:45:59Z</time>
      </trkpt>
      <trkpt lat="44.1091" lon="6.98812">
        <ele>1481.7884521484</ele>
        <time>2013-12-07T15:46:06Z</time>
      </trkpt>
      <trkpt lat="44.10902" lon="6.98807">
        <ele>1481.3245849609</ele>
        <time>2013-12-07T15:46:12Z</time>
      </trkpt>
      <trkpt lat="44.1089" lon="6.98798">
        <ele>1481.2552490234</ele>
        <time>2013-12-07T15:46:20Z</time>
      </trkpt>
      <trkpt lat="44.10878" lon="6.98791">
        <ele>1481.0975341797</ele>
        <time>2013-12-07T15:46:28Z</time>
      </trkpt>
      <trkpt lat="44.10869" lon="6.98791">
        <ele>1480.2015380859</ele>
        <time>2013-12-07T15:46:35Z</time>
      </trkpt>
      <trkpt lat="44.10861" lon="6.9879">
        <ele>1479.4271240234</ele>
        <time>2013-12-07T15:46:42Z</time>
      </trkpt>
      <trkpt lat="44.10852" lon="6.98785">
        <ele>1478.6427001953</ele>
        <time>2013-12-07T15:46:49Z</time>
      </trkpt>
      <trkpt lat="44.10844" lon="6.98783">
        <ele>1477.9422607422</ele>
        <time>2013-12-07T15:46:56Z</time>
      </trkpt>
      <trkpt lat="44.10843" lon="6.98783">
        <ele>1477.8907470703</ele>
        <time>2013-12-07T15:46:57Z</time>
      </trkpt>
      <trkpt lat="44.10837" lon="6.9878">
        <ele>1477.3671875</ele>
        <time>2013-12-07T15:47:04Z</time>
      </trkpt>
      <trkpt lat="44.1083" lon="6.98777">
        <ele>1476.1307373047</ele>
        <time>2013-12-07T15:47:10Z</time>
      </trkpt>
      <trkpt lat="44.10821" lon="6.98769">
        <ele>1474.7039794922</ele>
        <time>2013-12-07T15:47:17Z</time>
      </trkpt>
      <trkpt lat="44.10815" lon="6.98769">
        <ele>1473.0120849609</ele>
        <time>2013-12-07T15:47:24Z</time>
      </trkpt>
      <trkpt lat="44.10806" lon="6.98764">
        <ele>1471.6630859375</ele>
        <time>2013-12-07T15:47:30Z</time>
      </trkpt>
      <trkpt lat="44.108" lon="6.9876">
        <ele>1470.7526855469</ele>
        <time>2013-12-07T15:47:36Z</time>
      </trkpt>
      <trkpt lat="44.10794" lon="6.98755">
        <ele>1470.2564697266</ele>
        <time>2013-12-07T15:47:42Z</time>
      </trkpt>
      <trkpt lat="44.10783" lon="6.98751">
        <ele>1468.8558349609</ele>
        <time>2013-12-07T15:47:49Z</time>
      </trkpt>
      <trkpt lat="44.10775" lon="6.98751">
        <ele>1467.1274414062</ele>
        <time>2013-12-07T15:47:55Z</time>
      </trkpt>
      <trkpt lat="44.10766" lon="6.9875">
        <ele>1464.6520996094</ele>
        <time>2013-12-07T15:48:02Z</time>
      </trkpt>
      <trkpt lat="44.10758" lon="6.98747">
        <ele>1463.7354736328</ele>
        <time>2013-12-07T15:48:08Z</time>
      </trkpt>
      <trkpt lat="44.10748" lon="6.98743">
        <ele>1463.9079589844</ele>
        <time>2013-12-07T15:48:15Z</time>
      </trkpt>
      <trkpt lat="44.10739" lon="6.9874">
        <ele>1464.37890625</ele>
        <time>2013-12-07T15:48:22Z</time>
      </trkpt>
      <trkpt lat="44.10734" lon="6.98738">
        <ele>1464.7692871094</ele>
        <time>2013-12-07T15:48:26Z</time>
      </trkpt>
      <trkpt lat="44.10728" lon="6.98739">
        <ele>1463.91796875</ele>
        <time>2013-12-07T15:48:31Z</time>
      </trkpt>
      <trkpt lat="44.10724" lon="6.98739">
        <ele>1463.6398925781</ele>
        <time>2013-12-07T15:48:36Z</time>
      </trkpt>
      <trkpt lat="44.10716" lon="6.98737">
        <ele>1463.4753417969</ele>
        <time>2013-12-07T15:48:42Z</time>
      </trkpt>
      <trkpt lat="44.10713" lon="6.98736">
        <ele>1463.4639892578</ele>
        <time>2013-12-07T15:48:46Z</time>
      </trkpt>
      <trkpt lat="44.10708" lon="6.98732">
        <ele>1463.8345947266</ele>
        <time>2013-12-07T15:48:53Z</time>
      </trkpt>
      <trkpt lat="44.10703" lon="6.98727">
        <ele>1463.9901123047</ele>
        <time>2013-12-07T15:48:57Z</time>
      </trkpt>
      <trkpt lat="44.10696" lon="6.98725">
        <ele>1462.8853759766</ele>
        <time>2013-12-07T15:49:03Z</time>
      </trkpt>
      <trkpt lat="44.10685" lon="6.98724">
        <ele>1461.8579101562</ele>
        <time>2013-12-07T15:49:10Z</time>
      </trkpt>
      <trkpt lat="44.10678" lon="6.98725">
        <ele>1461.1163330078</ele>
        <time>2013-12-07T15:49:16Z</time>
      </trkpt>
      <trkpt lat="44.1067" lon="6.98726">
        <ele>1460.3608398438</ele>
        <time>2013-12-07T15:49:21Z</time>
      </trkpt>
      <trkpt lat="44.10661" lon="6.98725">
        <ele>1459.8073730469</ele>
        <time>2013-12-07T15:49:28Z</time>
      </trkpt>
      <trkpt lat="44.10649" lon="6.98724">
        <ele>1459.3815917969</ele>
        <time>2013-12-07T15:49:36Z</time>
      </trkpt>
      <trkpt lat="44.10639" lon="6.98726">
        <ele>1458.9831542969</ele>
        <time>2013-12-07T15:49:44Z</time>
      </trkpt>
      <trkpt lat="44.10629" lon="6.98725">
        <ele>1456.9626464844</ele>
        <time>2013-12-07T15:49:51Z</time>
      </trkpt>
      <trkpt lat="44.10622" lon="6.98722">
        <ele>1455.3583984375</ele>
        <time>2013-12-07T15:49:57Z</time>
      </trkpt>
      <trkpt lat="44.10615" lon="6.98721">
        <ele>1454.2111816406</ele>
        <time>2013-12-07T15:50:03Z</time>
      </trkpt>
      <trkpt lat="44.10607" lon="6.98718">
        <ele>1454.4240722656</ele>
        <time>2013-12-07T15:50:11Z</time>
      </trkpt>
      <trkpt lat="44.10598" lon="6.98717">
        <ele>1454.0557861328</ele>
        <time>2013-12-07T15:50:19Z</time>
      </trkpt>
      <trkpt lat="44.10588" lon="6.98715">
        <ele>1453.7803955078</ele>
        <time>2013-12-07T15:50:26Z</time>
      </trkpt>
      <trkpt lat="44.10582" lon="6.98714">
        <ele>1453.3751220703</ele>
        <time>2013-12-07T15:50:32Z</time>
      </trkpt>
      <trkpt lat="44.10571" lon="6.98712">
        <ele>1452.0395507812</ele>
        <time>2013-12-07T15:50:40Z</time>
      </trkpt>
      <trkpt lat="44.1056" lon="6.98709">
        <ele>1451.0593261719</ele>
        <time>2013-12-07T15:50:47Z</time>
      </trkpt>
      <trkpt lat="44.1055" lon="6.98707">
        <ele>1449.1859130859</ele>
        <time>2013-12-07T15:50:55Z</time>
      </trkpt>
      <trkpt lat="44.10539" lon="6.98703">
        <ele>1446.6728515625</ele>
        <time>2013-12-07T15:51:03Z</time>
      </trkpt>
      <trkpt lat="44.10532" lon="6.98699">
        <ele>1444.9809570312</ele>
        <time>2013-12-07T15:51:09Z</time>
      </trkpt>
      <trkpt lat="44.10525" lon="6.98697">
        <ele>1443.2856445312</ele>
        <time>2013-12-07T15:51:14Z</time>
      </trkpt>
      <trkpt lat="44.10515" lon="6.98693">
        <ele>1442.4588623047</ele>
        <time>2013-12-07T15:51:21Z</time>
      </trkpt>
      <trkpt lat="44.10508" lon="6.9869">
        <ele>1442.0461425781</ele>
        <time>2013-12-07T15:51:28Z</time>
      </trkpt>
      <trkpt lat="44.10503" lon="6.98689">
        <ele>1441.5979003906</ele>
        <time>2013-12-07T15:51:33Z</time>
      </trkpt>
      <trkpt lat="44.1049" lon="6.98688">
        <ele>1440.7569580078</ele>
        <time>2013-12-07T15:51:42Z</time>
      </trkpt>
      <trkpt lat="44.10485" lon="6.9869">
        <ele>1440.3873291016</ele>
        <time>2013-12-07T15:51:49Z</time>
      </trkpt>
      <trkpt lat="44.10482" lon="6.98693">
        <ele>1440.1166992188</ele>
        <time>2013-12-07T15:52:39Z</time>
      </trkpt>
      <trkpt lat="44.10482" lon="6.98693">
        <ele>1440.0985107422</ele>
        <time>2013-12-07T15:53:08Z</time>
      </trkpt>
    </trkseg>
  </trk>
</gpx>